<?xml version="1.0" encoding="UTF-8" standalone="no" ?>
<gpx xmlns="http://www.topografix.com/GPX/1/1" xmlns:xsi="http://www.w3.org/2001/XMLSchema-instance" xsi:schemaLocation="http://www.topografix.com/GPX/1/1 http://www.topografix.com/GPX/1/1/gpx.xsd" version="1.1" creator="VisuGPX - https://www.visugpx.com">
  <metadata>
    <name>Itinéraire VTT Le Balcon n°7 - NOIR</name>
  </metadata>
  <trk>
    <name><![CDATA[Itinéraire VTT Le Balcon n°7 - NOIR_1]]></name>
    <trkseg>
      <trkpt lat="45.74649" lon="6.29641">
        <ele>523.6</ele>
      </trkpt>
      <trkpt lat="45.74626" lon="6.29603">
        <ele>523.9</ele>
      </trkpt>
      <trkpt lat="45.74582" lon="6.29575">
        <ele>524.6</ele>
      </trkpt>
      <trkpt lat="45.74537" lon="6.29582">
        <ele>524.4</ele>
      </trkpt>
      <trkpt lat="45.74499" lon="6.2961">
        <ele>527.8</ele>
      </trkpt>
      <trkpt lat="45.74484" lon="6.29636">
        <ele>532.1</ele>
      </trkpt>
      <trkpt lat="45.74464" lon="6.29631">
        <ele>531.9</ele>
      </trkpt>
      <trkpt lat="45.74459" lon="6.29608">
        <ele>528.7</ele>
      </trkpt>
      <trkpt lat="45.74422" lon="6.2957">
        <ele>525.2</ele>
      </trkpt>
      <trkpt lat="45.74407" lon="6.29507">
        <ele>523.4</ele>
      </trkpt>
      <trkpt lat="45.74391" lon="6.29477">
        <ele>524.6</ele>
      </trkpt>
      <trkpt lat="45.74374" lon="6.29443">
        <ele>525.5</ele>
      </trkpt>
      <trkpt lat="45.74361" lon="6.29392">
        <ele>525.3</ele>
      </trkpt>
      <trkpt lat="45.74346" lon="6.29364">
        <ele>525.3</ele>
      </trkpt>
      <trkpt lat="45.74333" lon="6.29341">
        <ele>525.3</ele>
      </trkpt>
      <trkpt lat="45.74295" lon="6.29326">
        <ele>528.6</ele>
      </trkpt>
      <trkpt lat="45.74271" lon="6.29312">
        <ele>530.6</ele>
      </trkpt>
      <trkpt lat="45.74445" lon="6.29017">
        <ele>522</ele>
      </trkpt>
      <trkpt lat="45.74481" lon="6.28958">
        <ele>520.2</ele>
      </trkpt>
      <trkpt lat="45.74488" lon="6.28887">
        <ele>520.5</ele>
      </trkpt>
      <trkpt lat="45.74497" lon="6.28839">
        <ele>521</ele>
      </trkpt>
      <trkpt lat="45.74506" lon="6.2877">
        <ele>520.1</ele>
      </trkpt>
      <trkpt lat="45.74553" lon="6.28695">
        <ele>519.5</ele>
      </trkpt>
      <trkpt lat="45.74582" lon="6.28655">
        <ele>519.6</ele>
      </trkpt>
      <trkpt lat="45.74632" lon="6.28588">
        <ele>517.7</ele>
      </trkpt>
      <trkpt lat="45.74638" lon="6.28575">
        <ele>517.5</ele>
      </trkpt>
      <trkpt lat="45.74654" lon="6.28551">
        <ele>517.4</ele>
      </trkpt>
      <trkpt lat="45.74693" lon="6.28483">
        <ele>517.4</ele>
      </trkpt>
      <trkpt lat="45.74731" lon="6.2838">
        <ele>516.2</ele>
      </trkpt>
      <trkpt lat="45.74774" lon="6.28333">
        <ele>515</ele>
      </trkpt>
      <trkpt lat="45.74836" lon="6.283">
        <ele>514.1</ele>
      </trkpt>
      <trkpt lat="45.74902" lon="6.28274">
        <ele>511.7</ele>
      </trkpt>
      <trkpt lat="45.74973" lon="6.28255">
        <ele>509</ele>
      </trkpt>
      <trkpt lat="45.75047" lon="6.28236">
        <ele>508.1</ele>
      </trkpt>
      <trkpt lat="45.75098" lon="6.28248">
        <ele>508.8</ele>
      </trkpt>
      <trkpt lat="45.75123" lon="6.28276">
        <ele>507.8</ele>
      </trkpt>
      <trkpt lat="45.75136" lon="6.28293">
        <ele>507</ele>
      </trkpt>
      <trkpt lat="45.75225" lon="6.2832">
        <ele>504</ele>
      </trkpt>
      <trkpt lat="45.75257" lon="6.2835">
        <ele>503.2</ele>
      </trkpt>
      <trkpt lat="45.75294" lon="6.2842">
        <ele>503.5</ele>
      </trkpt>
      <trkpt lat="45.75298" lon="6.28434">
        <ele>503.4</ele>
      </trkpt>
      <trkpt lat="45.75302" lon="6.28441">
        <ele>503.4</ele>
      </trkpt>
      <trkpt lat="45.75303" lon="6.28442">
        <ele>503.4</ele>
      </trkpt>
      <trkpt lat="45.75303" lon="6.28441">
        <ele>504</ele>
        <time>2021-05-20T07:27:46Z</time>
      </trkpt>
      <trkpt lat="45.75308" lon="6.28431">
        <ele>504.4</ele>
        <time>2021-05-20T07:27:48Z</time>
      </trkpt>
      <trkpt lat="45.75317" lon="6.28421">
        <ele>504.4</ele>
        <time>2021-05-20T07:27:50Z</time>
      </trkpt>
      <trkpt lat="45.75342" lon="6.28386">
        <ele>503.4</ele>
        <time>2021-05-20T07:27:55Z</time>
      </trkpt>
      <trkpt lat="45.75364" lon="6.28359">
        <ele>502.6</ele>
        <time>2021-05-20T07:27:59Z</time>
      </trkpt>
      <trkpt lat="45.75374" lon="6.28348">
        <ele>501.8</ele>
        <time>2021-05-20T07:28:01Z</time>
      </trkpt>
      <trkpt lat="45.75384" lon="6.28338">
        <ele>501.6</ele>
        <time>2021-05-20T07:28:03Z</time>
      </trkpt>
      <trkpt lat="45.75395" lon="6.28327">
        <ele>501.4</ele>
        <time>2021-05-20T07:28:05Z</time>
      </trkpt>
      <trkpt lat="45.75407" lon="6.28315">
        <ele>500.4</ele>
        <time>2021-05-20T07:28:07Z</time>
      </trkpt>
      <trkpt lat="45.75413" lon="6.2831">
        <ele>500</ele>
        <time>2021-05-20T07:28:08Z</time>
      </trkpt>
      <trkpt lat="45.7542" lon="6.28305">
        <ele>499.4</ele>
        <time>2021-05-20T07:28:09Z</time>
      </trkpt>
      <trkpt lat="45.75426" lon="6.283">
        <ele>499</ele>
        <time>2021-05-20T07:28:10Z</time>
      </trkpt>
      <trkpt lat="45.75454" lon="6.28278">
        <ele>497.8</ele>
        <time>2021-05-20T07:28:14Z</time>
      </trkpt>
      <trkpt lat="45.75468" lon="6.28266">
        <ele>496.8</ele>
        <time>2021-05-20T07:28:16Z</time>
      </trkpt>
      <trkpt lat="45.75483" lon="6.28255">
        <ele>495.8</ele>
        <time>2021-05-20T07:28:18Z</time>
      </trkpt>
      <trkpt lat="45.75495" lon="6.28242">
        <ele>495.4</ele>
        <time>2021-05-20T07:28:20Z</time>
      </trkpt>
      <trkpt lat="45.75523" lon="6.28217">
        <ele>497</ele>
        <time>2021-05-20T07:28:26Z</time>
      </trkpt>
      <trkpt lat="45.75534" lon="6.28206">
        <ele>498.2</ele>
        <time>2021-05-20T07:28:29Z</time>
      </trkpt>
      <trkpt lat="45.75548" lon="6.28195">
        <ele>499.4</ele>
        <time>2021-05-20T07:28:32Z</time>
      </trkpt>
      <trkpt lat="45.75554" lon="6.28191">
        <ele>499.4</ele>
        <time>2021-05-20T07:28:33Z</time>
      </trkpt>
      <trkpt lat="45.75575" lon="6.28174">
        <ele>499.8</ele>
        <time>2021-05-20T07:28:37Z</time>
      </trkpt>
      <trkpt lat="45.75586" lon="6.28165">
        <ele>499.8</ele>
        <time>2021-05-20T07:28:39Z</time>
      </trkpt>
      <trkpt lat="45.75609" lon="6.28148">
        <ele>499.4</ele>
        <time>2021-05-20T07:28:43Z</time>
      </trkpt>
      <trkpt lat="45.75614" lon="6.28143">
        <ele>499.2</ele>
        <time>2021-05-20T07:28:44Z</time>
      </trkpt>
      <trkpt lat="45.75647" lon="6.28115">
        <ele>498.2</ele>
        <time>2021-05-20T07:28:50Z</time>
      </trkpt>
      <trkpt lat="45.75667" lon="6.28093">
        <ele>498</ele>
        <time>2021-05-20T07:28:54Z</time>
      </trkpt>
      <trkpt lat="45.75697" lon="6.2806">
        <ele>497.4</ele>
        <time>2021-05-20T07:29:00Z</time>
      </trkpt>
      <trkpt lat="45.75707" lon="6.28048">
        <ele>497.6</ele>
        <time>2021-05-20T07:29:02Z</time>
      </trkpt>
      <trkpt lat="45.7574" lon="6.28006">
        <ele>498.4</ele>
        <time>2021-05-20T07:29:09Z</time>
      </trkpt>
      <trkpt lat="45.75754" lon="6.27985">
        <ele>497.8</ele>
        <time>2021-05-20T07:29:12Z</time>
      </trkpt>
      <trkpt lat="45.75777" lon="6.2795">
        <ele>497.4</ele>
        <time>2021-05-20T07:29:17Z</time>
      </trkpt>
      <trkpt lat="45.75793" lon="6.27919">
        <ele>497.2</ele>
        <time>2021-05-20T07:29:21Z</time>
      </trkpt>
      <trkpt lat="45.75819" lon="6.27875">
        <ele>496.4</ele>
        <time>2021-05-20T07:29:27Z</time>
      </trkpt>
      <trkpt lat="45.75832" lon="6.27843">
        <ele>496.2</ele>
        <time>2021-05-20T07:29:31Z</time>
      </trkpt>
      <trkpt lat="45.75839" lon="6.27828">
        <ele>496.2</ele>
        <time>2021-05-20T07:29:33Z</time>
      </trkpt>
      <trkpt lat="45.75858" lon="6.27798">
        <ele>496</ele>
        <time>2021-05-20T07:29:37Z</time>
      </trkpt>
      <trkpt lat="45.75862" lon="6.27791">
        <ele>495.8</ele>
        <time>2021-05-20T07:29:38Z</time>
      </trkpt>
      <trkpt lat="45.75871" lon="6.27776">
        <ele>495.8</ele>
        <time>2021-05-20T07:29:40Z</time>
      </trkpt>
      <trkpt lat="45.75899" lon="6.27734">
        <ele>494.8</ele>
        <time>2021-05-20T07:29:46Z</time>
      </trkpt>
      <trkpt lat="45.75904" lon="6.27726">
        <ele>494.8</ele>
        <time>2021-05-20T07:29:47Z</time>
      </trkpt>
      <trkpt lat="45.75938" lon="6.27665">
        <ele>494.4</ele>
        <time>2021-05-20T07:29:55Z</time>
      </trkpt>
      <trkpt lat="45.7595" lon="6.27641">
        <ele>494</ele>
        <time>2021-05-20T07:29:58Z</time>
      </trkpt>
      <trkpt lat="45.75961" lon="6.27616">
        <ele>493.8</ele>
        <time>2021-05-20T07:30:01Z</time>
      </trkpt>
      <trkpt lat="45.75984" lon="6.27553">
        <ele>493.2</ele>
        <time>2021-05-20T07:30:08Z</time>
      </trkpt>
      <trkpt lat="45.75993" lon="6.27526">
        <ele>492.6</ele>
        <time>2021-05-20T07:30:11Z</time>
      </trkpt>
      <trkpt lat="45.75997" lon="6.27496">
        <ele>492.2</ele>
        <time>2021-05-20T07:30:14Z</time>
      </trkpt>
      <trkpt lat="45.75999" lon="6.27487">
        <ele>492.2</ele>
        <time>2021-05-20T07:30:15Z</time>
      </trkpt>
      <trkpt lat="45.76005" lon="6.27468">
        <ele>492.2</ele>
        <time>2021-05-20T07:30:17Z</time>
      </trkpt>
      <trkpt lat="45.76007" lon="6.27458">
        <ele>492</ele>
        <time>2021-05-20T07:30:18Z</time>
      </trkpt>
      <trkpt lat="45.76013" lon="6.2743">
        <ele>491.6</ele>
        <time>2021-05-20T07:30:21Z</time>
      </trkpt>
      <trkpt lat="45.76018" lon="6.27411">
        <ele>491.2</ele>
        <time>2021-05-20T07:30:23Z</time>
      </trkpt>
      <trkpt lat="45.76034" lon="6.27345">
        <ele>490.6</ele>
        <time>2021-05-20T07:30:30Z</time>
      </trkpt>
      <trkpt lat="45.76042" lon="6.27309">
        <ele>490</ele>
        <time>2021-05-20T07:30:34Z</time>
      </trkpt>
      <trkpt lat="45.7605" lon="6.27277">
        <ele>489.4</ele>
        <time>2021-05-20T07:30:38Z</time>
      </trkpt>
      <trkpt lat="45.76053" lon="6.27262">
        <ele>489</ele>
        <time>2021-05-20T07:30:40Z</time>
      </trkpt>
      <trkpt lat="45.76053" lon="6.27256">
        <ele>489</ele>
        <time>2021-05-20T07:30:41Z</time>
      </trkpt>
      <trkpt lat="45.76052" lon="6.27251">
        <ele>488.8</ele>
        <time>2021-05-20T07:30:42Z</time>
      </trkpt>
      <trkpt lat="45.76045" lon="6.27244">
        <ele>488.8</ele>
        <time>2021-05-20T07:30:44Z</time>
      </trkpt>
      <trkpt lat="45.7603" lon="6.27226">
        <ele>488.4</ele>
        <time>2021-05-20T07:30:48Z</time>
      </trkpt>
      <trkpt lat="45.76028" lon="6.27219">
        <ele>487.4</ele>
        <time>2021-05-20T07:30:49Z</time>
      </trkpt>
      <trkpt lat="45.76027" lon="6.27212">
        <ele>486.8</ele>
        <time>2021-05-20T07:30:50Z</time>
      </trkpt>
      <trkpt lat="45.76027" lon="6.27206">
        <ele>486.4</ele>
        <time>2021-05-20T07:30:51Z</time>
      </trkpt>
      <trkpt lat="45.76027" lon="6.27198">
        <ele>486.2</ele>
        <time>2021-05-20T07:30:52Z</time>
      </trkpt>
      <trkpt lat="45.76027" lon="6.27183">
        <ele>486.2</ele>
        <time>2021-05-20T07:30:54Z</time>
      </trkpt>
      <trkpt lat="45.76025" lon="6.27169">
        <ele>486.2</ele>
        <time>2021-05-20T07:30:56Z</time>
      </trkpt>
      <trkpt lat="45.76025" lon="6.27162">
        <ele>486.2</ele>
        <time>2021-05-20T07:30:57Z</time>
      </trkpt>
      <trkpt lat="45.76022" lon="6.27148">
        <ele>486.2</ele>
        <time>2021-05-20T07:30:59Z</time>
      </trkpt>
      <trkpt lat="45.76017" lon="6.27128">
        <ele>485.6</ele>
        <time>2021-05-20T07:31:02Z</time>
      </trkpt>
      <trkpt lat="45.76014" lon="6.27099">
        <ele>486.2</ele>
        <time>2021-05-20T07:31:06Z</time>
      </trkpt>
      <trkpt lat="45.76012" lon="6.27066">
        <ele>486.4</ele>
        <time>2021-05-20T07:31:11Z</time>
      </trkpt>
      <trkpt lat="45.76011" lon="6.27054">
        <ele>486.4</ele>
        <time>2021-05-20T07:31:14Z</time>
      </trkpt>
      <trkpt lat="45.76012" lon="6.2705">
        <ele>486.4</ele>
        <time>2021-05-20T07:31:15Z</time>
      </trkpt>
      <trkpt lat="45.76014" lon="6.27035">
        <ele>486.4</ele>
        <time>2021-05-20T07:31:18Z</time>
      </trkpt>
      <trkpt lat="45.76015" lon="6.27019">
        <ele>486.6</ele>
        <time>2021-05-20T07:31:21Z</time>
      </trkpt>
      <trkpt lat="45.76016" lon="6.27009">
        <ele>486.6</ele>
        <time>2021-05-20T07:31:23Z</time>
      </trkpt>
      <trkpt lat="45.76013" lon="6.26992">
        <ele>485.6</ele>
        <time>2021-05-20T07:31:26Z</time>
      </trkpt>
      <trkpt lat="45.76012" lon="6.26985">
        <ele>485.8</ele>
        <time>2021-05-20T07:31:27Z</time>
      </trkpt>
      <trkpt lat="45.76011" lon="6.26979">
        <ele>485.8</ele>
        <time>2021-05-20T07:31:28Z</time>
      </trkpt>
      <trkpt lat="45.7601" lon="6.2696">
        <ele>486.2</ele>
        <time>2021-05-20T07:31:31Z</time>
      </trkpt>
      <trkpt lat="45.76011" lon="6.26953">
        <ele>486</ele>
        <time>2021-05-20T07:31:32Z</time>
      </trkpt>
      <trkpt lat="45.76015" lon="6.26935">
        <ele>486.2</ele>
        <time>2021-05-20T07:31:35Z</time>
      </trkpt>
      <trkpt lat="45.76017" lon="6.26928">
        <ele>486</ele>
        <time>2021-05-20T07:31:36Z</time>
      </trkpt>
      <trkpt lat="45.76018" lon="6.26921">
        <ele>485.4</ele>
        <time>2021-05-20T07:31:37Z</time>
      </trkpt>
      <trkpt lat="45.7602" lon="6.26914">
        <ele>485.4</ele>
        <time>2021-05-20T07:31:38Z</time>
      </trkpt>
      <trkpt lat="45.76025" lon="6.26901">
        <ele>483.8</ele>
        <time>2021-05-20T07:31:40Z</time>
      </trkpt>
      <trkpt lat="45.76027" lon="6.26893">
        <ele>483.4</ele>
        <time>2021-05-20T07:31:41Z</time>
      </trkpt>
      <trkpt lat="45.7604" lon="6.2685">
        <ele>484</ele>
        <time>2021-05-20T07:31:47Z</time>
      </trkpt>
      <trkpt lat="45.76042" lon="6.26843">
        <ele>484</ele>
        <time>2021-05-20T07:31:48Z</time>
      </trkpt>
      <trkpt lat="45.76047" lon="6.2683">
        <ele>483</ele>
        <time>2021-05-20T07:31:50Z</time>
      </trkpt>
      <trkpt lat="45.76049" lon="6.26817">
        <ele>482.8</ele>
        <time>2021-05-20T07:31:52Z</time>
      </trkpt>
      <trkpt lat="45.76051" lon="6.26805">
        <ele>482.8</ele>
        <time>2021-05-20T07:31:54Z</time>
      </trkpt>
      <trkpt lat="45.76056" lon="6.26787">
        <ele>482.8</ele>
        <time>2021-05-20T07:31:57Z</time>
      </trkpt>
      <trkpt lat="45.76062" lon="6.26769">
        <ele>483.2</ele>
        <time>2021-05-20T07:32:00Z</time>
      </trkpt>
      <trkpt lat="45.76066" lon="6.26752">
        <ele>483.4</ele>
        <time>2021-05-20T07:32:03Z</time>
      </trkpt>
      <trkpt lat="45.76068" lon="6.26746">
        <ele>483.4</ele>
        <time>2021-05-20T07:32:04Z</time>
      </trkpt>
      <trkpt lat="45.76069" lon="6.2674">
        <ele>483.4</ele>
        <time>2021-05-20T07:32:05Z</time>
      </trkpt>
      <trkpt lat="45.76072" lon="6.26717">
        <ele>482.8</ele>
        <time>2021-05-20T07:32:09Z</time>
      </trkpt>
      <trkpt lat="45.76074" lon="6.26712">
        <ele>482.6</ele>
        <time>2021-05-20T07:32:10Z</time>
      </trkpt>
      <trkpt lat="45.76075" lon="6.26691">
        <ele>482.6</ele>
        <time>2021-05-20T07:32:14Z</time>
      </trkpt>
      <trkpt lat="45.76076" lon="6.2668">
        <ele>482.8</ele>
        <time>2021-05-20T07:32:16Z</time>
      </trkpt>
      <trkpt lat="45.7608" lon="6.26671">
        <ele>481.8</ele>
        <time>2021-05-20T07:32:18Z</time>
      </trkpt>
      <trkpt lat="45.76082" lon="6.26665">
        <ele>481.6</ele>
        <time>2021-05-20T07:32:19Z</time>
      </trkpt>
      <trkpt lat="45.76085" lon="6.2665">
        <ele>481.8</ele>
        <time>2021-05-20T07:32:22Z</time>
      </trkpt>
      <trkpt lat="45.76082" lon="6.26632">
        <ele>481.6</ele>
        <time>2021-05-20T07:32:25Z</time>
      </trkpt>
      <trkpt lat="45.76081" lon="6.26627">
        <ele>481.4</ele>
        <time>2021-05-20T07:32:26Z</time>
      </trkpt>
      <trkpt lat="45.76082" lon="6.26618">
        <ele>480.6</ele>
        <time>2021-05-20T07:32:28Z</time>
      </trkpt>
      <trkpt lat="45.76083" lon="6.26601">
        <ele>480</ele>
        <time>2021-05-20T07:32:31Z</time>
      </trkpt>
      <trkpt lat="45.76084" lon="6.26595">
        <ele>479.8</ele>
        <time>2021-05-20T07:32:32Z</time>
      </trkpt>
      <trkpt lat="45.76085" lon="6.26589">
        <ele>480</ele>
        <time>2021-05-20T07:32:33Z</time>
      </trkpt>
      <trkpt lat="45.76092" lon="6.26566">
        <ele>480.8</ele>
        <time>2021-05-20T07:32:37Z</time>
      </trkpt>
      <trkpt lat="45.76093" lon="6.26561">
        <ele>480.8</ele>
        <time>2021-05-20T07:32:38Z</time>
      </trkpt>
      <trkpt lat="45.76107" lon="6.26538">
        <ele>481.2</ele>
        <time>2021-05-20T07:32:43Z</time>
      </trkpt>
      <trkpt lat="45.76111" lon="6.26523">
        <ele>481.4</ele>
        <time>2021-05-20T07:32:45Z</time>
      </trkpt>
      <trkpt lat="45.76117" lon="6.26495">
        <ele>481</ele>
        <time>2021-05-20T07:32:49Z</time>
      </trkpt>
      <trkpt lat="45.76118" lon="6.26478">
        <ele>480.8</ele>
        <time>2021-05-20T07:32:51Z</time>
      </trkpt>
      <trkpt lat="45.76122" lon="6.26463">
        <ele>480.6</ele>
        <time>2021-05-20T07:32:53Z</time>
      </trkpt>
      <trkpt lat="45.76123" lon="6.26455">
        <ele>480.4</ele>
        <time>2021-05-20T07:32:54Z</time>
      </trkpt>
      <trkpt lat="45.76126" lon="6.26449">
        <ele>480.4</ele>
        <time>2021-05-20T07:32:55Z</time>
      </trkpt>
      <trkpt lat="45.7613" lon="6.2643">
        <ele>480.2</ele>
        <time>2021-05-20T07:32:58Z</time>
      </trkpt>
      <trkpt lat="45.76132" lon="6.26421">
        <ele>480</ele>
        <time>2021-05-20T07:33:00Z</time>
      </trkpt>
      <trkpt lat="45.76135" lon="6.26415">
        <ele>480.4</ele>
        <time>2021-05-20T07:33:02Z</time>
      </trkpt>
      <trkpt lat="45.76137" lon="6.26413">
        <ele>480.6</ele>
        <time>2021-05-20T07:33:03Z</time>
      </trkpt>
      <trkpt lat="45.76142" lon="6.26399">
        <ele>480.6</ele>
        <time>2021-05-20T07:33:06Z</time>
      </trkpt>
      <trkpt lat="45.76143" lon="6.26393">
        <ele>481</ele>
        <time>2021-05-20T07:33:07Z</time>
      </trkpt>
      <trkpt lat="45.76139" lon="6.26372">
        <ele>481</ele>
        <time>2021-05-20T07:33:11Z</time>
      </trkpt>
      <trkpt lat="45.7613" lon="6.26361">
        <ele>480.2</ele>
        <time>2021-05-20T07:33:16Z</time>
      </trkpt>
      <trkpt lat="45.76119" lon="6.26355">
        <ele>480.2</ele>
        <time>2021-05-20T07:33:20Z</time>
      </trkpt>
      <trkpt lat="45.76111" lon="6.26341">
        <ele>480.4</ele>
        <time>2021-05-20T07:33:24Z</time>
      </trkpt>
      <trkpt lat="45.76107" lon="6.26334">
        <ele>480.4</ele>
        <time>2021-05-20T07:33:26Z</time>
      </trkpt>
      <trkpt lat="45.76099" lon="6.26327">
        <ele>480</ele>
        <time>2021-05-20T07:33:29Z</time>
      </trkpt>
      <trkpt lat="45.76094" lon="6.2632">
        <ele>479.8</ele>
        <time>2021-05-20T07:33:32Z</time>
      </trkpt>
      <trkpt lat="45.76093" lon="6.26316">
        <ele>479.8</ele>
        <time>2021-05-20T07:33:33Z</time>
      </trkpt>
      <trkpt lat="45.76097" lon="6.26301">
        <ele>479.8</ele>
        <time>2021-05-20T07:33:37Z</time>
      </trkpt>
      <trkpt lat="45.761" lon="6.26289">
        <ele>479.4</ele>
        <time>2021-05-20T07:33:40Z</time>
      </trkpt>
      <trkpt lat="45.76102" lon="6.26279">
        <ele>479</ele>
        <time>2021-05-20T07:33:42Z</time>
      </trkpt>
      <trkpt lat="45.76104" lon="6.26268">
        <ele>478.4</ele>
        <time>2021-05-20T07:33:44Z</time>
      </trkpt>
      <trkpt lat="45.76106" lon="6.26254">
        <ele>478.6</ele>
        <time>2021-05-20T07:33:47Z</time>
      </trkpt>
      <trkpt lat="45.76107" lon="6.26241">
        <ele>479.8</ele>
        <time>2021-05-20T07:33:51Z</time>
      </trkpt>
      <trkpt lat="45.76108" lon="6.26234">
        <ele>479.6</ele>
        <time>2021-05-20T07:33:52Z</time>
      </trkpt>
      <trkpt lat="45.76108" lon="6.26229">
        <ele>479.4</ele>
        <time>2021-05-20T07:33:53Z</time>
      </trkpt>
      <trkpt lat="45.76109" lon="6.26224">
        <ele>479.2</ele>
        <time>2021-05-20T07:33:54Z</time>
      </trkpt>
      <trkpt lat="45.76108" lon="6.26221">
        <ele>479</ele>
        <time>2021-05-20T07:33:55Z</time>
      </trkpt>
      <trkpt lat="45.76109" lon="6.26218">
        <ele>478.8</ele>
        <time>2021-05-20T07:33:56Z</time>
      </trkpt>
      <trkpt lat="45.76111" lon="6.26212">
        <ele>478.2</ele>
        <time>2021-05-20T07:33:58Z</time>
      </trkpt>
      <trkpt lat="45.76112" lon="6.26209">
        <ele>478</ele>
        <time>2021-05-20T07:33:59Z</time>
      </trkpt>
      <trkpt lat="45.7612" lon="6.26194">
        <ele>479</ele>
        <time>2021-05-20T07:34:03Z</time>
      </trkpt>
      <trkpt lat="45.76121" lon="6.26187">
        <ele>479</ele>
        <time>2021-05-20T07:34:05Z</time>
      </trkpt>
      <trkpt lat="45.76123" lon="6.26179">
        <ele>479</ele>
        <time>2021-05-20T07:34:07Z</time>
      </trkpt>
      <trkpt lat="45.76123" lon="6.26166">
        <ele>478.4</ele>
        <time>2021-05-20T07:34:10Z</time>
      </trkpt>
      <trkpt lat="45.76127" lon="6.26145">
        <ele>479.2</ele>
        <time>2021-05-20T07:34:15Z</time>
      </trkpt>
      <trkpt lat="45.7613" lon="6.26127">
        <ele>479.2</ele>
        <time>2021-05-20T07:34:20Z</time>
      </trkpt>
      <trkpt lat="45.7613" lon="6.26122">
        <ele>479.2</ele>
        <time>2021-05-20T07:34:21Z</time>
      </trkpt>
      <trkpt lat="45.76132" lon="6.2612">
        <ele>479.2</ele>
        <time>2021-05-20T07:34:22Z</time>
      </trkpt>
      <trkpt lat="45.76137" lon="6.26117">
        <ele>479.4</ele>
        <time>2021-05-20T07:34:24Z</time>
      </trkpt>
      <trkpt lat="45.76144" lon="6.26103">
        <ele>480</ele>
        <time>2021-05-20T07:34:28Z</time>
      </trkpt>
      <trkpt lat="45.76151" lon="6.26098">
        <ele>480.2</ele>
        <time>2021-05-20T07:34:30Z</time>
      </trkpt>
      <trkpt lat="45.76162" lon="6.26096">
        <ele>480.2</ele>
        <time>2021-05-20T07:34:33Z</time>
      </trkpt>
      <trkpt lat="45.76165" lon="6.26096">
        <ele>480</ele>
        <time>2021-05-20T07:34:34Z</time>
      </trkpt>
      <trkpt lat="45.76172" lon="6.26097">
        <ele>479.8</ele>
        <time>2021-05-20T07:34:36Z</time>
      </trkpt>
      <trkpt lat="45.76186" lon="6.26104">
        <ele>480.4</ele>
        <time>2021-05-20T07:34:42Z</time>
      </trkpt>
      <trkpt lat="45.76197" lon="6.26109">
        <ele>480.2</ele>
        <time>2021-05-20T07:34:47Z</time>
      </trkpt>
      <trkpt lat="45.76211" lon="6.26116">
        <ele>481.2</ele>
        <time>2021-05-20T07:34:53Z</time>
      </trkpt>
      <trkpt lat="45.76222" lon="6.26122">
        <ele>481.2</ele>
        <time>2021-05-20T07:34:59Z</time>
      </trkpt>
      <trkpt lat="45.76224" lon="6.26124">
        <ele>481.2</ele>
        <time>2021-05-20T07:35:00Z</time>
      </trkpt>
      <trkpt lat="45.76243" lon="6.26135">
        <ele>481.6</ele>
        <time>2021-05-20T07:35:07Z</time>
      </trkpt>
      <trkpt lat="45.76255" lon="6.26142">
        <ele>481.8</ele>
        <time>2021-05-20T07:35:11Z</time>
      </trkpt>
      <trkpt lat="45.76258" lon="6.26145">
        <ele>481.8</ele>
        <time>2021-05-20T07:35:12Z</time>
      </trkpt>
      <trkpt lat="45.76264" lon="6.26148">
        <ele>481.8</ele>
        <time>2021-05-20T07:35:14Z</time>
      </trkpt>
      <trkpt lat="45.76267" lon="6.26151">
        <ele>482.2</ele>
        <time>2021-05-20T07:35:15Z</time>
      </trkpt>
      <trkpt lat="45.76279" lon="6.26159">
        <ele>482.6</ele>
        <time>2021-05-20T07:35:19Z</time>
      </trkpt>
      <trkpt lat="45.76285" lon="6.26163">
        <ele>482.6</ele>
        <time>2021-05-20T07:35:21Z</time>
      </trkpt>
      <trkpt lat="45.76298" lon="6.26172">
        <ele>482.6</ele>
        <time>2021-05-20T07:35:25Z</time>
      </trkpt>
      <trkpt lat="45.7631" lon="6.26179">
        <ele>482.4</ele>
        <time>2021-05-20T07:35:28Z</time>
      </trkpt>
      <trkpt lat="45.76332" lon="6.26192">
        <ele>482.4</ele>
        <time>2021-05-20T07:35:33Z</time>
      </trkpt>
      <trkpt lat="45.76345" lon="6.262">
        <ele>483</ele>
        <time>2021-05-20T07:35:36Z</time>
      </trkpt>
      <trkpt lat="45.76353" lon="6.26206">
        <ele>483.2</ele>
        <time>2021-05-20T07:35:38Z</time>
      </trkpt>
      <trkpt lat="45.76375" lon="6.26221">
        <ele>483.8</ele>
        <time>2021-05-20T07:35:43Z</time>
      </trkpt>
      <trkpt lat="45.7638" lon="6.26224">
        <ele>483.8</ele>
        <time>2021-05-20T07:35:44Z</time>
      </trkpt>
      <trkpt lat="45.76384" lon="6.26227">
        <ele>483.8</ele>
        <time>2021-05-20T07:35:45Z</time>
      </trkpt>
      <trkpt lat="45.76389" lon="6.2623">
        <ele>483.8</ele>
        <time>2021-05-20T07:35:46Z</time>
      </trkpt>
      <trkpt lat="45.76402" lon="6.2624">
        <ele>484.4</ele>
        <time>2021-05-20T07:35:49Z</time>
      </trkpt>
      <trkpt lat="45.76425" lon="6.26257">
        <ele>484.6</ele>
        <time>2021-05-20T07:35:54Z</time>
      </trkpt>
      <trkpt lat="45.7643" lon="6.2626">
        <ele>484.6</ele>
        <time>2021-05-20T07:35:55Z</time>
      </trkpt>
      <trkpt lat="45.76434" lon="6.26263">
        <ele>484.8</ele>
        <time>2021-05-20T07:35:56Z</time>
      </trkpt>
      <trkpt lat="45.76439" lon="6.26266">
        <ele>484.8</ele>
        <time>2021-05-20T07:35:57Z</time>
      </trkpt>
      <trkpt lat="45.76444" lon="6.26269">
        <ele>484.8</ele>
        <time>2021-05-20T07:35:58Z</time>
      </trkpt>
      <trkpt lat="45.76449" lon="6.26272">
        <ele>484.8</ele>
        <time>2021-05-20T07:35:59Z</time>
      </trkpt>
      <trkpt lat="45.76468" lon="6.26284">
        <ele>484.8</ele>
        <time>2021-05-20T07:36:03Z</time>
      </trkpt>
      <trkpt lat="45.76477" lon="6.26291">
        <ele>484.8</ele>
        <time>2021-05-20T07:36:05Z</time>
      </trkpt>
      <trkpt lat="45.76486" lon="6.26298">
        <ele>486</ele>
        <time>2021-05-20T07:36:07Z</time>
      </trkpt>
      <trkpt lat="45.76524" lon="6.2632">
        <ele>486.8</ele>
        <time>2021-05-20T07:36:15Z</time>
      </trkpt>
      <trkpt lat="45.76538" lon="6.26325">
        <ele>487</ele>
        <time>2021-05-20T07:36:18Z</time>
      </trkpt>
      <trkpt lat="45.76553" lon="6.26327">
        <ele>486.8</ele>
        <time>2021-05-20T07:36:21Z</time>
      </trkpt>
      <trkpt lat="45.76568" lon="6.26326">
        <ele>488</ele>
        <time>2021-05-20T07:36:24Z</time>
      </trkpt>
      <trkpt lat="45.76572" lon="6.26325">
        <ele>488.4</ele>
        <time>2021-05-20T07:36:25Z</time>
      </trkpt>
      <trkpt lat="45.7658" lon="6.26323">
        <ele>488.6</ele>
        <time>2021-05-20T07:36:27Z</time>
      </trkpt>
      <trkpt lat="45.76584" lon="6.26321">
        <ele>489</ele>
        <time>2021-05-20T07:36:28Z</time>
      </trkpt>
      <trkpt lat="45.76594" lon="6.26315">
        <ele>490.4</ele>
        <time>2021-05-20T07:36:31Z</time>
      </trkpt>
      <trkpt lat="45.76598" lon="6.26312">
        <ele>490.8</ele>
        <time>2021-05-20T07:36:32Z</time>
      </trkpt>
      <trkpt lat="45.76602" lon="6.2631">
        <ele>491</ele>
        <time>2021-05-20T07:36:33Z</time>
      </trkpt>
      <trkpt lat="45.76631" lon="6.26291">
        <ele>491.6</ele>
        <time>2021-05-20T07:36:40Z</time>
      </trkpt>
      <trkpt lat="45.76657" lon="6.26273">
        <ele>492.4</ele>
        <time>2021-05-20T07:36:46Z</time>
      </trkpt>
      <trkpt lat="45.76665" lon="6.26264">
        <ele>492.6</ele>
        <time>2021-05-20T07:36:48Z</time>
      </trkpt>
      <trkpt lat="45.76669" lon="6.2626">
        <ele>492.8</ele>
        <time>2021-05-20T07:36:49Z</time>
      </trkpt>
      <trkpt lat="45.76684" lon="6.26232">
        <ele>493.2</ele>
        <time>2021-05-20T07:36:54Z</time>
      </trkpt>
      <trkpt lat="45.76694" lon="6.26214">
        <ele>493.8</ele>
        <time>2021-05-20T07:36:57Z</time>
      </trkpt>
      <trkpt lat="45.76712" lon="6.26187">
        <ele>494.4</ele>
        <time>2021-05-20T07:37:02Z</time>
      </trkpt>
      <trkpt lat="45.76725" lon="6.26166">
        <ele>495</ele>
        <time>2021-05-20T07:37:06Z</time>
      </trkpt>
      <trkpt lat="45.76735" lon="6.26151">
        <ele>495.2</ele>
        <time>2021-05-20T07:37:09Z</time>
      </trkpt>
      <trkpt lat="45.76739" lon="6.26146">
        <ele>495.4</ele>
        <time>2021-05-20T07:37:10Z</time>
      </trkpt>
      <trkpt lat="45.7675" lon="6.26132">
        <ele>496</ele>
        <time>2021-05-20T07:37:13Z</time>
      </trkpt>
      <trkpt lat="45.76767" lon="6.26109">
        <ele>497.2</ele>
        <time>2021-05-20T07:37:18Z</time>
      </trkpt>
      <trkpt lat="45.76771" lon="6.26104">
        <ele>497.4</ele>
        <time>2021-05-20T07:37:19Z</time>
      </trkpt>
      <trkpt lat="45.7678" lon="6.26088">
        <ele>498.4</ele>
        <time>2021-05-20T07:37:22Z</time>
      </trkpt>
      <trkpt lat="45.76786" lon="6.26077">
        <ele>498.6</ele>
        <time>2021-05-20T07:37:24Z</time>
      </trkpt>
      <trkpt lat="45.76792" lon="6.26067">
        <ele>498.8</ele>
        <time>2021-05-20T07:37:26Z</time>
      </trkpt>
      <trkpt lat="45.76794" lon="6.26062">
        <ele>499</ele>
        <time>2021-05-20T07:37:27Z</time>
      </trkpt>
      <trkpt lat="45.76802" lon="6.26046">
        <ele>499.4</ele>
        <time>2021-05-20T07:37:30Z</time>
      </trkpt>
      <trkpt lat="45.76814" lon="6.2603">
        <ele>500.2</ele>
        <time>2021-05-20T07:37:34Z</time>
      </trkpt>
      <trkpt lat="45.76818" lon="6.26026">
        <ele>500.2</ele>
        <time>2021-05-20T07:37:35Z</time>
      </trkpt>
      <trkpt lat="45.76825" lon="6.2602">
        <ele>500.4</ele>
        <time>2021-05-20T07:37:37Z</time>
      </trkpt>
      <trkpt lat="45.7683" lon="6.26019">
        <ele>500.4</ele>
        <time>2021-05-20T07:37:38Z</time>
      </trkpt>
      <trkpt lat="45.76835" lon="6.2602">
        <ele>500.4</ele>
        <time>2021-05-20T07:37:39Z</time>
      </trkpt>
      <trkpt lat="45.76852" lon="6.26025">
        <ele>500.6</ele>
        <time>2021-05-20T07:37:43Z</time>
      </trkpt>
      <trkpt lat="45.76861" lon="6.2603">
        <ele>501.6</ele>
        <time>2021-05-20T07:37:46Z</time>
      </trkpt>
      <trkpt lat="45.76866" lon="6.26032">
        <ele>503</ele>
        <time>2021-05-20T07:37:48Z</time>
      </trkpt>
      <trkpt lat="45.76868" lon="6.26033">
        <ele>503.4</ele>
        <time>2021-05-20T07:37:49Z</time>
      </trkpt>
      <trkpt lat="45.7687" lon="6.26034">
        <ele>504.2</ele>
        <time>2021-05-20T07:37:50Z</time>
      </trkpt>
      <trkpt lat="45.76876" lon="6.26037">
        <ele>505.2</ele>
        <time>2021-05-20T07:37:52Z</time>
      </trkpt>
      <trkpt lat="45.76881" lon="6.2604">
        <ele>505.8</ele>
        <time>2021-05-20T07:37:54Z</time>
      </trkpt>
      <trkpt lat="45.76884" lon="6.26042">
        <ele>506.4</ele>
        <time>2021-05-20T07:37:55Z</time>
      </trkpt>
      <trkpt lat="45.76891" lon="6.26046">
        <ele>507.6</ele>
        <time>2021-05-20T07:37:58Z</time>
      </trkpt>
      <trkpt lat="45.76898" lon="6.26052">
        <ele>508.8</ele>
        <time>2021-05-20T07:38:01Z</time>
      </trkpt>
      <trkpt lat="45.76903" lon="6.26055">
        <ele>510.8</ele>
        <time>2021-05-20T07:38:03Z</time>
      </trkpt>
      <trkpt lat="45.76911" lon="6.26062">
        <ele>512.4</ele>
        <time>2021-05-20T07:38:07Z</time>
      </trkpt>
      <trkpt lat="45.76915" lon="6.26066">
        <ele>513.6</ele>
        <time>2021-05-20T07:38:09Z</time>
      </trkpt>
      <trkpt lat="45.76918" lon="6.26071">
        <ele>514</ele>
        <time>2021-05-20T07:38:11Z</time>
      </trkpt>
      <trkpt lat="45.76922" lon="6.26077">
        <ele>514.8</ele>
        <time>2021-05-20T07:38:13Z</time>
      </trkpt>
      <trkpt lat="45.76926" lon="6.26085">
        <ele>515.8</ele>
        <time>2021-05-20T07:38:16Z</time>
      </trkpt>
      <trkpt lat="45.76929" lon="6.26092">
        <ele>517.4</ele>
        <time>2021-05-20T07:38:18Z</time>
      </trkpt>
      <trkpt lat="45.76934" lon="6.26101">
        <ele>518.6</ele>
        <time>2021-05-20T07:38:21Z</time>
      </trkpt>
      <trkpt lat="45.76936" lon="6.26105">
        <ele>519.6</ele>
        <time>2021-05-20T07:38:23Z</time>
      </trkpt>
      <trkpt lat="45.7694" lon="6.26109">
        <ele>519.8</ele>
        <time>2021-05-20T07:38:25Z</time>
      </trkpt>
      <trkpt lat="45.7695" lon="6.26112">
        <ele>521.6</ele>
        <time>2021-05-20T07:38:28Z</time>
      </trkpt>
      <trkpt lat="45.76953" lon="6.26112">
        <ele>522.2</ele>
        <time>2021-05-20T07:38:29Z</time>
      </trkpt>
      <trkpt lat="45.76956" lon="6.26112">
        <ele>522.8</ele>
        <time>2021-05-20T07:38:30Z</time>
      </trkpt>
      <trkpt lat="45.76969" lon="6.26107">
        <ele>524.6</ele>
        <time>2021-05-20T07:38:35Z</time>
      </trkpt>
      <trkpt lat="45.76976" lon="6.26105">
        <ele>525.8</ele>
        <time>2021-05-20T07:38:38Z</time>
      </trkpt>
      <trkpt lat="45.76983" lon="6.26103">
        <ele>526.4</ele>
        <time>2021-05-20T07:38:41Z</time>
      </trkpt>
      <trkpt lat="45.76988" lon="6.26103">
        <ele>527.2</ele>
        <time>2021-05-20T07:38:43Z</time>
      </trkpt>
      <trkpt lat="45.76992" lon="6.26105">
        <ele>528.2</ele>
        <time>2021-05-20T07:38:45Z</time>
      </trkpt>
      <trkpt lat="45.76994" lon="6.26106">
        <ele>528.8</ele>
        <time>2021-05-20T07:38:46Z</time>
      </trkpt>
      <trkpt lat="45.76997" lon="6.26111">
        <ele>530.6</ele>
        <time>2021-05-20T07:38:49Z</time>
      </trkpt>
      <trkpt lat="45.77" lon="6.26114">
        <ele>531.8</ele>
        <time>2021-05-20T07:38:51Z</time>
      </trkpt>
      <trkpt lat="45.77001" lon="6.26115">
        <ele>532.2</ele>
        <time>2021-05-20T07:38:52Z</time>
      </trkpt>
      <trkpt lat="45.77011" lon="6.26115">
        <ele>533</ele>
        <time>2021-05-20T07:38:57Z</time>
      </trkpt>
      <trkpt lat="45.77012" lon="6.26115">
        <ele>533</ele>
        <time>2021-05-20T07:38:58Z</time>
      </trkpt>
      <trkpt lat="45.77014" lon="6.26114">
        <ele>533.4</ele>
        <time>2021-05-20T07:38:59Z</time>
      </trkpt>
      <trkpt lat="45.77019" lon="6.26111">
        <ele>534.8</ele>
        <time>2021-05-20T07:39:01Z</time>
      </trkpt>
      <trkpt lat="45.77024" lon="6.2611">
        <ele>536.8</ele>
        <time>2021-05-20T07:39:04Z</time>
      </trkpt>
      <trkpt lat="45.77025" lon="6.26111">
        <ele>537.6</ele>
        <time>2021-05-20T07:39:06Z</time>
      </trkpt>
      <trkpt lat="45.77026" lon="6.26111">
        <ele>537.8</ele>
        <time>2021-05-20T07:39:07Z</time>
      </trkpt>
      <trkpt lat="45.77027" lon="6.26111">
        <ele>538</ele>
        <time>2021-05-20T07:39:09Z</time>
      </trkpt>
      <trkpt lat="45.7703" lon="6.2611">
        <ele>538.4</ele>
        <time>2021-05-20T07:39:15Z</time>
      </trkpt>
      <trkpt lat="45.77033" lon="6.26109">
        <ele>538.2</ele>
        <time>2021-05-20T07:39:20Z</time>
      </trkpt>
      <trkpt lat="45.77034" lon="6.26109">
        <ele>538.2</ele>
        <time>2021-05-20T07:39:21Z</time>
      </trkpt>
      <trkpt lat="45.77034" lon="6.2611">
        <ele>538.2</ele>
        <time>2021-05-20T07:39:22Z</time>
      </trkpt>
      <trkpt lat="45.77037" lon="6.2611">
        <ele>538.6</ele>
        <time>2021-05-20T07:39:25Z</time>
      </trkpt>
      <trkpt lat="45.77038" lon="6.26111">
        <ele>539</ele>
        <time>2021-05-20T07:39:28Z</time>
      </trkpt>
      <trkpt lat="45.7704" lon="6.26114">
        <ele>540</ele>
        <time>2021-05-20T07:39:35Z</time>
      </trkpt>
      <trkpt lat="45.7704" lon="6.26114">
        <ele>540</ele>
        <time>2021-05-20T07:39:36Z</time>
      </trkpt>
      <trkpt lat="45.77041" lon="6.26115">
        <ele>540.4</ele>
        <time>2021-05-20T07:39:39Z</time>
      </trkpt>
      <trkpt lat="45.77043" lon="6.26115">
        <ele>541</ele>
        <time>2021-05-20T07:39:42Z</time>
      </trkpt>
      <trkpt lat="45.77044" lon="6.26115">
        <ele>541.4</ele>
        <time>2021-05-20T07:39:45Z</time>
      </trkpt>
      <trkpt lat="45.77044" lon="6.26114">
        <ele>541.6</ele>
        <time>2021-05-20T07:39:47Z</time>
      </trkpt>
      <trkpt lat="45.77044" lon="6.26114">
        <ele>542</ele>
        <time>2021-05-20T07:39:49Z</time>
      </trkpt>
      <trkpt lat="45.77044" lon="6.26114">
        <ele>542</ele>
        <time>2021-05-20T07:39:54Z</time>
      </trkpt>
      <trkpt lat="45.77044" lon="6.26114">
        <ele>541.8</ele>
        <time>2021-05-20T07:39:58Z</time>
      </trkpt>
      <trkpt lat="45.77044" lon="6.26114">
        <ele>542</ele>
        <time>2021-05-20T07:40:04Z</time>
      </trkpt>
      <trkpt lat="45.77045" lon="6.26115">
        <ele>542</ele>
        <time>2021-05-20T07:40:07Z</time>
      </trkpt>
      <trkpt lat="45.77046" lon="6.26115">
        <ele>542.2</ele>
        <time>2021-05-20T07:40:08Z</time>
      </trkpt>
      <trkpt lat="45.77047" lon="6.26115">
        <ele>542.2</ele>
        <time>2021-05-20T07:40:09Z</time>
      </trkpt>
      <trkpt lat="45.77051" lon="6.26114">
        <ele>542.8</ele>
        <time>2021-05-20T07:40:13Z</time>
      </trkpt>
      <trkpt lat="45.77052" lon="6.26114">
        <ele>543</ele>
        <time>2021-05-20T07:40:14Z</time>
      </trkpt>
      <trkpt lat="45.77054" lon="6.26113">
        <ele>543.6</ele>
        <time>2021-05-20T07:40:17Z</time>
      </trkpt>
      <trkpt lat="45.77054" lon="6.26113">
        <ele>543.8</ele>
        <time>2021-05-20T07:40:18Z</time>
      </trkpt>
      <trkpt lat="45.77055" lon="6.26113">
        <ele>544</ele>
        <time>2021-05-20T07:40:19Z</time>
      </trkpt>
      <trkpt lat="45.77056" lon="6.26113">
        <ele>544.2</ele>
        <time>2021-05-20T07:40:20Z</time>
      </trkpt>
      <trkpt lat="45.77057" lon="6.26113">
        <ele>544.6</ele>
        <time>2021-05-20T07:40:21Z</time>
      </trkpt>
      <trkpt lat="45.77058" lon="6.26112">
        <ele>544.6</ele>
        <time>2021-05-20T07:40:22Z</time>
      </trkpt>
      <trkpt lat="45.77059" lon="6.26112">
        <ele>545</ele>
        <time>2021-05-20T07:40:23Z</time>
      </trkpt>
      <trkpt lat="45.7706" lon="6.26112">
        <ele>545.4</ele>
        <time>2021-05-20T07:40:24Z</time>
      </trkpt>
      <trkpt lat="45.77064" lon="6.26112">
        <ele>546.4</ele>
        <time>2021-05-20T07:40:27Z</time>
      </trkpt>
      <trkpt lat="45.77065" lon="6.26112">
        <ele>546.6</ele>
        <time>2021-05-20T07:40:28Z</time>
      </trkpt>
      <trkpt lat="45.77068" lon="6.26111">
        <ele>546.8</ele>
        <time>2021-05-20T07:40:30Z</time>
      </trkpt>
      <trkpt lat="45.77071" lon="6.2611">
        <ele>547.6</ele>
        <time>2021-05-20T07:40:33Z</time>
      </trkpt>
      <trkpt lat="45.77073" lon="6.26109">
        <ele>547.8</ele>
        <time>2021-05-20T07:40:34Z</time>
      </trkpt>
      <trkpt lat="45.77077" lon="6.26107">
        <ele>548.6</ele>
        <time>2021-05-20T07:40:38Z</time>
      </trkpt>
      <trkpt lat="45.77078" lon="6.26106">
        <ele>549</ele>
        <time>2021-05-20T07:40:39Z</time>
      </trkpt>
      <trkpt lat="45.77082" lon="6.26102">
        <ele>550.2</ele>
        <time>2021-05-20T07:40:43Z</time>
      </trkpt>
      <trkpt lat="45.77085" lon="6.261">
        <ele>551.2</ele>
        <time>2021-05-20T07:40:46Z</time>
      </trkpt>
      <trkpt lat="45.77086" lon="6.26098">
        <ele>552</ele>
        <time>2021-05-20T07:40:48Z</time>
      </trkpt>
      <trkpt lat="45.77086" lon="6.26097">
        <ele>552</ele>
        <time>2021-05-20T07:40:49Z</time>
      </trkpt>
      <trkpt lat="45.77089" lon="6.26094">
        <ele>552.4</ele>
        <time>2021-05-20T07:40:52Z</time>
      </trkpt>
      <trkpt lat="45.77092" lon="6.26089">
        <ele>553</ele>
        <time>2021-05-20T07:40:56Z</time>
      </trkpt>
      <trkpt lat="45.77093" lon="6.26086">
        <ele>553.4</ele>
        <time>2021-05-20T07:40:59Z</time>
      </trkpt>
      <trkpt lat="45.77095" lon="6.26083">
        <ele>554</ele>
        <time>2021-05-20T07:41:02Z</time>
      </trkpt>
      <trkpt lat="45.77096" lon="6.26081">
        <ele>554.4</ele>
        <time>2021-05-20T07:41:04Z</time>
      </trkpt>
      <trkpt lat="45.77098" lon="6.26081">
        <ele>554.8</ele>
        <time>2021-05-20T07:41:05Z</time>
      </trkpt>
      <trkpt lat="45.77101" lon="6.26084">
        <ele>555.8</ele>
        <time>2021-05-20T07:41:09Z</time>
      </trkpt>
      <trkpt lat="45.77102" lon="6.26085">
        <ele>556.4</ele>
        <time>2021-05-20T07:41:11Z</time>
      </trkpt>
      <trkpt lat="45.77104" lon="6.26088">
        <ele>556.8</ele>
        <time>2021-05-20T07:41:13Z</time>
      </trkpt>
      <trkpt lat="45.77104" lon="6.26089">
        <ele>557</ele>
        <time>2021-05-20T07:41:14Z</time>
      </trkpt>
      <trkpt lat="45.77103" lon="6.26092">
        <ele>557.8</ele>
        <time>2021-05-20T07:41:18Z</time>
      </trkpt>
      <trkpt lat="45.77102" lon="6.26092">
        <ele>558.2</ele>
        <time>2021-05-20T07:41:19Z</time>
      </trkpt>
      <trkpt lat="45.77102" lon="6.26092">
        <ele>558.8</ele>
        <time>2021-05-20T07:41:25Z</time>
      </trkpt>
      <trkpt lat="45.77101" lon="6.26092">
        <ele>558.8</ele>
        <time>2021-05-20T07:41:26Z</time>
      </trkpt>
      <trkpt lat="45.771" lon="6.26094">
        <ele>559</ele>
        <time>2021-05-20T07:41:28Z</time>
      </trkpt>
      <trkpt lat="45.77098" lon="6.26095">
        <ele>559.4</ele>
        <time>2021-05-20T07:41:31Z</time>
      </trkpt>
      <trkpt lat="45.77098" lon="6.26094">
        <ele>559.4</ele>
        <time>2021-05-20T07:41:32Z</time>
      </trkpt>
      <trkpt lat="45.77097" lon="6.26094">
        <ele>559.4</ele>
        <time>2021-05-20T07:41:33Z</time>
      </trkpt>
      <trkpt lat="45.77097" lon="6.26094">
        <ele>559.4</ele>
        <time>2021-05-20T07:41:34Z</time>
      </trkpt>
      <trkpt lat="45.77097" lon="6.26094">
        <ele>559.4</ele>
        <time>2021-05-20T07:41:35Z</time>
      </trkpt>
      <trkpt lat="45.77097" lon="6.26094">
        <ele>559.6</ele>
        <time>2021-05-20T07:41:36Z</time>
      </trkpt>
      <trkpt lat="45.77097" lon="6.26094">
        <ele>559.8</ele>
        <time>2021-05-20T07:41:37Z</time>
      </trkpt>
      <trkpt lat="45.77097" lon="6.26094">
        <ele>559.8</ele>
        <time>2021-05-20T07:41:40Z</time>
      </trkpt>
      <trkpt lat="45.77097" lon="6.26094">
        <ele>559.8</ele>
        <time>2021-05-20T07:41:44Z</time>
      </trkpt>
      <trkpt lat="45.77097" lon="6.26094">
        <ele>559.8</ele>
        <time>2021-05-20T07:41:49Z</time>
      </trkpt>
      <trkpt lat="45.77097" lon="6.26094">
        <ele>559.6</ele>
        <time>2021-05-20T07:41:50Z</time>
      </trkpt>
      <trkpt lat="45.77097" lon="6.26094">
        <ele>559.6</ele>
        <time>2021-05-20T07:41:54Z</time>
      </trkpt>
      <trkpt lat="45.77097" lon="6.26094">
        <ele>559.8</ele>
        <time>2021-05-20T07:41:57Z</time>
      </trkpt>
      <trkpt lat="45.77097" lon="6.26093">
        <ele>559.6</ele>
        <time>2021-05-20T07:42:06Z</time>
      </trkpt>
      <trkpt lat="45.77096" lon="6.26092">
        <ele>559.4</ele>
        <time>2021-05-20T07:42:11Z</time>
      </trkpt>
      <trkpt lat="45.77096" lon="6.26093">
        <ele>559.4</ele>
        <time>2021-05-20T07:42:15Z</time>
      </trkpt>
      <trkpt lat="45.77096" lon="6.26093">
        <ele>559.4</ele>
        <time>2021-05-20T07:42:16Z</time>
      </trkpt>
      <trkpt lat="45.77095" lon="6.26094">
        <ele>559.4</ele>
        <time>2021-05-20T07:42:17Z</time>
      </trkpt>
      <trkpt lat="45.77094" lon="6.26098">
        <ele>559.8</ele>
        <time>2021-05-20T07:42:20Z</time>
      </trkpt>
      <trkpt lat="45.77091" lon="6.26103">
        <ele>560.4</ele>
        <time>2021-05-20T07:42:23Z</time>
      </trkpt>
      <trkpt lat="45.77091" lon="6.26104">
        <ele>560.6</ele>
        <time>2021-05-20T07:42:24Z</time>
      </trkpt>
      <trkpt lat="45.77089" lon="6.2611">
        <ele>561.6</ele>
        <time>2021-05-20T07:42:29Z</time>
      </trkpt>
      <trkpt lat="45.77087" lon="6.26115">
        <ele>562.2</ele>
        <time>2021-05-20T07:42:32Z</time>
      </trkpt>
      <trkpt lat="45.77085" lon="6.26118">
        <ele>562.8</ele>
        <time>2021-05-20T07:42:34Z</time>
      </trkpt>
      <trkpt lat="45.77083" lon="6.26122">
        <ele>563.2</ele>
        <time>2021-05-20T07:42:37Z</time>
      </trkpt>
      <trkpt lat="45.77082" lon="6.26123">
        <ele>563.4</ele>
        <time>2021-05-20T07:42:38Z</time>
      </trkpt>
      <trkpt lat="45.7708" lon="6.26127">
        <ele>564</ele>
        <time>2021-05-20T07:42:41Z</time>
      </trkpt>
      <trkpt lat="45.77076" lon="6.26129">
        <ele>564.4</ele>
        <time>2021-05-20T07:42:44Z</time>
      </trkpt>
      <trkpt lat="45.77074" lon="6.26131">
        <ele>565</ele>
        <time>2021-05-20T07:42:47Z</time>
      </trkpt>
      <trkpt lat="45.77071" lon="6.26133">
        <ele>565.8</ele>
        <time>2021-05-20T07:42:50Z</time>
      </trkpt>
      <trkpt lat="45.77071" lon="6.26133">
        <ele>566</ele>
        <time>2021-05-20T07:42:51Z</time>
      </trkpt>
      <trkpt lat="45.77071" lon="6.26133">
        <ele>566.4</ele>
        <time>2021-05-20T07:42:54Z</time>
      </trkpt>
      <trkpt lat="45.77071" lon="6.26133">
        <ele>566.6</ele>
        <time>2021-05-20T07:42:55Z</time>
      </trkpt>
      <trkpt lat="45.77063" lon="6.26136">
        <ele>567.2</ele>
        <time>2021-05-20T07:42:58Z</time>
      </trkpt>
      <trkpt lat="45.77061" lon="6.26137">
        <ele>567.2</ele>
        <time>2021-05-20T07:42:59Z</time>
      </trkpt>
      <trkpt lat="45.77055" lon="6.2614">
        <ele>567.8</ele>
        <time>2021-05-20T07:43:01Z</time>
      </trkpt>
      <trkpt lat="45.77052" lon="6.26141">
        <ele>568.2</ele>
        <time>2021-05-20T07:43:02Z</time>
      </trkpt>
      <trkpt lat="45.77049" lon="6.26142">
        <ele>568.6</ele>
        <time>2021-05-20T07:43:03Z</time>
      </trkpt>
      <trkpt lat="45.77044" lon="6.26144">
        <ele>569.6</ele>
        <time>2021-05-20T07:43:05Z</time>
      </trkpt>
      <trkpt lat="45.77038" lon="6.26146">
        <ele>570.8</ele>
        <time>2021-05-20T07:43:08Z</time>
      </trkpt>
      <trkpt lat="45.77035" lon="6.26147">
        <ele>571</ele>
        <time>2021-05-20T07:43:10Z</time>
      </trkpt>
      <trkpt lat="45.77031" lon="6.26147">
        <ele>571</ele>
        <time>2021-05-20T07:43:12Z</time>
      </trkpt>
      <trkpt lat="45.77027" lon="6.26147">
        <ele>572.2</ele>
        <time>2021-05-20T07:43:14Z</time>
      </trkpt>
      <trkpt lat="45.77022" lon="6.2615">
        <ele>573.6</ele>
        <time>2021-05-20T07:43:16Z</time>
      </trkpt>
      <trkpt lat="45.77019" lon="6.26154">
        <ele>574.4</ele>
        <time>2021-05-20T07:43:18Z</time>
      </trkpt>
      <trkpt lat="45.77018" lon="6.26157">
        <ele>574.8</ele>
        <time>2021-05-20T07:43:19Z</time>
      </trkpt>
      <trkpt lat="45.77015" lon="6.26165">
        <ele>576</ele>
        <time>2021-05-20T07:43:22Z</time>
      </trkpt>
      <trkpt lat="45.77014" lon="6.26168">
        <ele>576.4</ele>
        <time>2021-05-20T07:43:23Z</time>
      </trkpt>
      <trkpt lat="45.77005" lon="6.26175">
        <ele>577.2</ele>
        <time>2021-05-20T07:43:27Z</time>
      </trkpt>
      <trkpt lat="45.77004" lon="6.26177">
        <ele>577.4</ele>
        <time>2021-05-20T07:43:28Z</time>
      </trkpt>
      <trkpt lat="45.77001" lon="6.26179">
        <ele>578.4</ele>
        <time>2021-05-20T07:43:29Z</time>
      </trkpt>
      <trkpt lat="45.76997" lon="6.26183">
        <ele>580</ele>
        <time>2021-05-20T07:43:31Z</time>
      </trkpt>
      <trkpt lat="45.76991" lon="6.26188">
        <ele>581.6</ele>
        <time>2021-05-20T07:43:34Z</time>
      </trkpt>
      <trkpt lat="45.76987" lon="6.26191">
        <ele>582</ele>
        <time>2021-05-20T07:43:36Z</time>
      </trkpt>
      <trkpt lat="45.76978" lon="6.26195">
        <ele>582.6</ele>
        <time>2021-05-20T07:43:40Z</time>
      </trkpt>
      <trkpt lat="45.76976" lon="6.26196">
        <ele>582.8</ele>
        <time>2021-05-20T07:43:41Z</time>
      </trkpt>
      <trkpt lat="45.76969" lon="6.26201">
        <ele>584.2</ele>
        <time>2021-05-20T07:43:44Z</time>
      </trkpt>
      <trkpt lat="45.7696" lon="6.26207">
        <ele>585.6</ele>
        <time>2021-05-20T07:43:48Z</time>
      </trkpt>
      <trkpt lat="45.76955" lon="6.2621">
        <ele>586.8</ele>
        <time>2021-05-20T07:43:50Z</time>
      </trkpt>
      <trkpt lat="45.76946" lon="6.26216">
        <ele>587.6</ele>
        <time>2021-05-20T07:43:54Z</time>
      </trkpt>
      <trkpt lat="45.76944" lon="6.26219">
        <ele>587.6</ele>
        <time>2021-05-20T07:43:55Z</time>
      </trkpt>
      <trkpt lat="45.76942" lon="6.26221">
        <ele>587.8</ele>
        <time>2021-05-20T07:43:56Z</time>
      </trkpt>
      <trkpt lat="45.76938" lon="6.26225">
        <ele>588.6</ele>
        <time>2021-05-20T07:43:58Z</time>
      </trkpt>
      <trkpt lat="45.76936" lon="6.26226">
        <ele>589</ele>
        <time>2021-05-20T07:43:59Z</time>
      </trkpt>
      <trkpt lat="45.76928" lon="6.26232">
        <ele>590.8</ele>
        <time>2021-05-20T07:44:03Z</time>
      </trkpt>
      <trkpt lat="45.76924" lon="6.26238">
        <ele>591.8</ele>
        <time>2021-05-20T07:44:06Z</time>
      </trkpt>
      <trkpt lat="45.76923" lon="6.2624">
        <ele>592.4</ele>
        <time>2021-05-20T07:44:07Z</time>
      </trkpt>
      <trkpt lat="45.76923" lon="6.26243">
        <ele>592.8</ele>
        <time>2021-05-20T07:44:08Z</time>
      </trkpt>
      <trkpt lat="45.76923" lon="6.26245">
        <ele>593</ele>
        <time>2021-05-20T07:44:09Z</time>
      </trkpt>
      <trkpt lat="45.76924" lon="6.2625">
        <ele>594</ele>
        <time>2021-05-20T07:44:11Z</time>
      </trkpt>
      <trkpt lat="45.76926" lon="6.2625">
        <ele>594.2</ele>
        <time>2021-05-20T07:44:12Z</time>
      </trkpt>
      <trkpt lat="45.7693" lon="6.2625">
        <ele>595.2</ele>
        <time>2021-05-20T07:44:14Z</time>
      </trkpt>
      <trkpt lat="45.76938" lon="6.2625">
        <ele>596.4</ele>
        <time>2021-05-20T07:44:17Z</time>
      </trkpt>
      <trkpt lat="45.76945" lon="6.26247">
        <ele>597.8</ele>
        <time>2021-05-20T07:44:20Z</time>
      </trkpt>
      <trkpt lat="45.76949" lon="6.26246">
        <ele>599.2</ele>
        <time>2021-05-20T07:44:22Z</time>
      </trkpt>
      <trkpt lat="45.76951" lon="6.26245">
        <ele>599.8</ele>
        <time>2021-05-20T07:44:23Z</time>
      </trkpt>
      <trkpt lat="45.76961" lon="6.26239">
        <ele>600.8</ele>
        <time>2021-05-20T07:44:28Z</time>
      </trkpt>
      <trkpt lat="45.76966" lon="6.26236">
        <ele>601.8</ele>
        <time>2021-05-20T07:44:31Z</time>
      </trkpt>
      <trkpt lat="45.76971" lon="6.26236">
        <ele>602</ele>
        <time>2021-05-20T07:44:34Z</time>
      </trkpt>
      <trkpt lat="45.76975" lon="6.26235">
        <ele>602.6</ele>
        <time>2021-05-20T07:44:36Z</time>
      </trkpt>
      <trkpt lat="45.76978" lon="6.26233">
        <ele>603</ele>
        <time>2021-05-20T07:44:38Z</time>
      </trkpt>
      <trkpt lat="45.76982" lon="6.26232">
        <ele>604.2</ele>
        <time>2021-05-20T07:44:40Z</time>
      </trkpt>
      <trkpt lat="45.76985" lon="6.26233">
        <ele>605.8</ele>
        <time>2021-05-20T07:44:42Z</time>
      </trkpt>
      <trkpt lat="45.76987" lon="6.26234">
        <ele>606.4</ele>
        <time>2021-05-20T07:44:43Z</time>
      </trkpt>
      <trkpt lat="45.76988" lon="6.26233">
        <ele>606.8</ele>
        <time>2021-05-20T07:44:44Z</time>
      </trkpt>
      <trkpt lat="45.7699" lon="6.26234">
        <ele>607.4</ele>
        <time>2021-05-20T07:44:45Z</time>
      </trkpt>
      <trkpt lat="45.77" lon="6.26233">
        <ele>608.4</ele>
        <time>2021-05-20T07:44:51Z</time>
      </trkpt>
      <trkpt lat="45.77004" lon="6.26232">
        <ele>609.6</ele>
        <time>2021-05-20T07:44:53Z</time>
      </trkpt>
      <trkpt lat="45.77007" lon="6.26231">
        <ele>610.2</ele>
        <time>2021-05-20T07:44:55Z</time>
      </trkpt>
      <trkpt lat="45.77011" lon="6.2623">
        <ele>610.6</ele>
        <time>2021-05-20T07:44:57Z</time>
      </trkpt>
      <trkpt lat="45.77013" lon="6.26229">
        <ele>611.4</ele>
        <time>2021-05-20T07:44:58Z</time>
      </trkpt>
      <trkpt lat="45.77015" lon="6.26229">
        <ele>611.8</ele>
        <time>2021-05-20T07:44:59Z</time>
      </trkpt>
      <trkpt lat="45.77021" lon="6.2623">
        <ele>613</ele>
        <time>2021-05-20T07:45:02Z</time>
      </trkpt>
      <trkpt lat="45.77023" lon="6.2623">
        <ele>613.2</ele>
        <time>2021-05-20T07:45:03Z</time>
      </trkpt>
      <trkpt lat="45.77025" lon="6.2623">
        <ele>613.4</ele>
        <time>2021-05-20T07:45:04Z</time>
      </trkpt>
      <trkpt lat="45.77026" lon="6.26231">
        <ele>614</ele>
        <time>2021-05-20T07:45:05Z</time>
      </trkpt>
      <trkpt lat="45.77028" lon="6.26231">
        <ele>614.4</ele>
        <time>2021-05-20T07:45:06Z</time>
      </trkpt>
      <trkpt lat="45.77031" lon="6.26232">
        <ele>615.4</ele>
        <time>2021-05-20T07:45:08Z</time>
      </trkpt>
      <trkpt lat="45.77035" lon="6.26233">
        <ele>616.2</ele>
        <time>2021-05-20T07:45:10Z</time>
      </trkpt>
      <trkpt lat="45.77036" lon="6.26232">
        <ele>616.4</ele>
        <time>2021-05-20T07:45:11Z</time>
      </trkpt>
      <trkpt lat="45.7704" lon="6.2623">
        <ele>617.6</ele>
        <time>2021-05-20T07:45:14Z</time>
      </trkpt>
      <trkpt lat="45.77042" lon="6.26229">
        <ele>618</ele>
        <time>2021-05-20T07:45:16Z</time>
      </trkpt>
      <trkpt lat="45.77045" lon="6.26227">
        <ele>619.2</ele>
        <time>2021-05-20T07:45:18Z</time>
      </trkpt>
      <trkpt lat="45.77047" lon="6.26226">
        <ele>620.4</ele>
        <time>2021-05-20T07:45:20Z</time>
      </trkpt>
      <trkpt lat="45.77049" lon="6.26225">
        <ele>620.4</ele>
        <time>2021-05-20T07:45:21Z</time>
      </trkpt>
      <trkpt lat="45.77053" lon="6.26222">
        <ele>621.4</ele>
        <time>2021-05-20T07:45:23Z</time>
      </trkpt>
      <trkpt lat="45.77055" lon="6.26221">
        <ele>621.4</ele>
        <time>2021-05-20T07:45:24Z</time>
      </trkpt>
      <trkpt lat="45.77062" lon="6.26217">
        <ele>622</ele>
        <time>2021-05-20T07:45:27Z</time>
      </trkpt>
      <trkpt lat="45.77064" lon="6.26216">
        <ele>622.4</ele>
        <time>2021-05-20T07:45:28Z</time>
      </trkpt>
      <trkpt lat="45.77067" lon="6.26215">
        <ele>623.8</ele>
        <time>2021-05-20T07:45:30Z</time>
      </trkpt>
      <trkpt lat="45.77073" lon="6.26212">
        <ele>624.4</ele>
        <time>2021-05-20T07:45:33Z</time>
      </trkpt>
      <trkpt lat="45.77075" lon="6.26212">
        <ele>624.8</ele>
        <time>2021-05-20T07:45:34Z</time>
      </trkpt>
      <trkpt lat="45.77082" lon="6.26211">
        <ele>625.8</ele>
        <time>2021-05-20T07:45:37Z</time>
      </trkpt>
      <trkpt lat="45.77087" lon="6.26211">
        <ele>627.2</ele>
        <time>2021-05-20T07:45:39Z</time>
      </trkpt>
      <trkpt lat="45.77088" lon="6.26211">
        <ele>627.4</ele>
        <time>2021-05-20T07:45:40Z</time>
      </trkpt>
      <trkpt lat="45.77095" lon="6.26209">
        <ele>628.4</ele>
        <time>2021-05-20T07:45:44Z</time>
      </trkpt>
      <trkpt lat="45.77098" lon="6.26208">
        <ele>628.4</ele>
        <time>2021-05-20T07:45:45Z</time>
      </trkpt>
      <trkpt lat="45.77101" lon="6.26208">
        <ele>628.4</ele>
        <time>2021-05-20T07:45:46Z</time>
      </trkpt>
      <trkpt lat="45.77114" lon="6.26211">
        <ele>630.2</ele>
        <time>2021-05-20T07:45:51Z</time>
      </trkpt>
      <trkpt lat="45.77117" lon="6.26212">
        <ele>630.8</ele>
        <time>2021-05-20T07:45:52Z</time>
      </trkpt>
      <trkpt lat="45.77119" lon="6.26212">
        <ele>632</ele>
        <time>2021-05-20T07:45:53Z</time>
      </trkpt>
      <trkpt lat="45.77123" lon="6.2621">
        <ele>633</ele>
        <time>2021-05-20T07:45:55Z</time>
      </trkpt>
      <trkpt lat="45.77124" lon="6.26209">
        <ele>633</ele>
        <time>2021-05-20T07:45:56Z</time>
      </trkpt>
      <trkpt lat="45.77128" lon="6.26206">
        <ele>633</ele>
        <time>2021-05-20T07:45:58Z</time>
      </trkpt>
      <trkpt lat="45.77135" lon="6.262">
        <ele>634</ele>
        <time>2021-05-20T07:46:02Z</time>
      </trkpt>
      <trkpt lat="45.77139" lon="6.26197">
        <ele>635.2</ele>
        <time>2021-05-20T07:46:04Z</time>
      </trkpt>
      <trkpt lat="45.77146" lon="6.26195">
        <ele>635.6</ele>
        <time>2021-05-20T07:46:07Z</time>
      </trkpt>
      <trkpt lat="45.77155" lon="6.2619">
        <ele>636.6</ele>
        <time>2021-05-20T07:46:11Z</time>
      </trkpt>
      <trkpt lat="45.77158" lon="6.26189">
        <ele>637.8</ele>
        <time>2021-05-20T07:46:12Z</time>
      </trkpt>
      <trkpt lat="45.7716" lon="6.26188">
        <ele>638.4</ele>
        <time>2021-05-20T07:46:13Z</time>
      </trkpt>
      <trkpt lat="45.77165" lon="6.26187">
        <ele>639</ele>
        <time>2021-05-20T07:46:15Z</time>
      </trkpt>
      <trkpt lat="45.77176" lon="6.26183">
        <ele>639.6</ele>
        <time>2021-05-20T07:46:20Z</time>
      </trkpt>
      <trkpt lat="45.7718" lon="6.26182">
        <ele>640.4</ele>
        <time>2021-05-20T07:46:22Z</time>
      </trkpt>
      <trkpt lat="45.77187" lon="6.2618">
        <ele>641.4</ele>
        <time>2021-05-20T07:46:25Z</time>
      </trkpt>
      <trkpt lat="45.77192" lon="6.26179">
        <ele>643</ele>
        <time>2021-05-20T07:46:27Z</time>
      </trkpt>
      <trkpt lat="45.772" lon="6.26178">
        <ele>644.2</ele>
        <time>2021-05-20T07:46:30Z</time>
      </trkpt>
      <trkpt lat="45.77213" lon="6.26177">
        <ele>645.6</ele>
        <time>2021-05-20T07:46:35Z</time>
      </trkpt>
      <trkpt lat="45.77218" lon="6.26176">
        <ele>646.8</ele>
        <time>2021-05-20T07:46:37Z</time>
      </trkpt>
      <trkpt lat="45.7723" lon="6.26175">
        <ele>648.6</ele>
        <time>2021-05-20T07:46:42Z</time>
      </trkpt>
      <trkpt lat="45.77233" lon="6.26175">
        <ele>649.4</ele>
        <time>2021-05-20T07:46:43Z</time>
      </trkpt>
      <trkpt lat="45.77235" lon="6.26175">
        <ele>649.8</ele>
        <time>2021-05-20T07:46:44Z</time>
      </trkpt>
      <trkpt lat="45.77237" lon="6.26174">
        <ele>650.2</ele>
        <time>2021-05-20T07:46:45Z</time>
      </trkpt>
      <trkpt lat="45.77247" lon="6.26174">
        <ele>651.2</ele>
        <time>2021-05-20T07:46:49Z</time>
      </trkpt>
      <trkpt lat="45.77252" lon="6.26173">
        <ele>652.4</ele>
        <time>2021-05-20T07:46:51Z</time>
      </trkpt>
      <trkpt lat="45.77261" lon="6.26173">
        <ele>653.6</ele>
        <time>2021-05-20T07:46:55Z</time>
      </trkpt>
      <trkpt lat="45.77266" lon="6.26173">
        <ele>654.8</ele>
        <time>2021-05-20T07:46:57Z</time>
      </trkpt>
      <trkpt lat="45.77275" lon="6.26174">
        <ele>656.2</ele>
        <time>2021-05-20T07:47:00Z</time>
      </trkpt>
      <trkpt lat="45.77284" lon="6.26173">
        <ele>657</ele>
        <time>2021-05-20T07:47:04Z</time>
      </trkpt>
      <trkpt lat="45.77286" lon="6.26173">
        <ele>657.2</ele>
        <time>2021-05-20T07:47:05Z</time>
      </trkpt>
      <trkpt lat="45.77292" lon="6.26172">
        <ele>658.4</ele>
        <time>2021-05-20T07:47:08Z</time>
      </trkpt>
      <trkpt lat="45.77298" lon="6.26172">
        <ele>659.4</ele>
        <time>2021-05-20T07:47:11Z</time>
      </trkpt>
      <trkpt lat="45.77301" lon="6.26172">
        <ele>659.8</ele>
        <time>2021-05-20T07:47:12Z</time>
      </trkpt>
      <trkpt lat="45.77304" lon="6.26172">
        <ele>661</ele>
        <time>2021-05-20T07:47:13Z</time>
      </trkpt>
      <trkpt lat="45.77307" lon="6.26172">
        <ele>661.8</ele>
        <time>2021-05-20T07:47:14Z</time>
      </trkpt>
      <trkpt lat="45.77311" lon="6.26173">
        <ele>662.6</ele>
        <time>2021-05-20T07:47:15Z</time>
      </trkpt>
      <trkpt lat="45.77314" lon="6.26173">
        <ele>663</ele>
        <time>2021-05-20T07:47:16Z</time>
      </trkpt>
      <trkpt lat="45.7732" lon="6.26173">
        <ele>663.8</ele>
        <time>2021-05-20T07:47:18Z</time>
      </trkpt>
      <trkpt lat="45.77326" lon="6.26173">
        <ele>665</ele>
        <time>2021-05-20T07:47:20Z</time>
      </trkpt>
      <trkpt lat="45.77336" lon="6.26173">
        <ele>665.6</ele>
        <time>2021-05-20T07:47:23Z</time>
      </trkpt>
      <trkpt lat="45.77339" lon="6.26173">
        <ele>666</ele>
        <time>2021-05-20T07:47:24Z</time>
      </trkpt>
      <trkpt lat="45.77347" lon="6.26173">
        <ele>666.8</ele>
        <time>2021-05-20T07:47:26Z</time>
      </trkpt>
      <trkpt lat="45.7735" lon="6.26173">
        <ele>667.8</ele>
        <time>2021-05-20T07:47:27Z</time>
      </trkpt>
      <trkpt lat="45.77358" lon="6.26173">
        <ele>669</ele>
        <time>2021-05-20T07:47:29Z</time>
      </trkpt>
      <trkpt lat="45.77365" lon="6.26172">
        <ele>670.6</ele>
        <time>2021-05-20T07:47:31Z</time>
      </trkpt>
      <trkpt lat="45.77368" lon="6.26172">
        <ele>671.4</ele>
        <time>2021-05-20T07:47:32Z</time>
      </trkpt>
      <trkpt lat="45.77372" lon="6.26173">
        <ele>672</ele>
        <time>2021-05-20T07:47:33Z</time>
      </trkpt>
      <trkpt lat="45.77381" lon="6.26175">
        <ele>673.2</ele>
        <time>2021-05-20T07:47:36Z</time>
      </trkpt>
      <trkpt lat="45.7739" lon="6.26178">
        <ele>674</ele>
        <time>2021-05-20T07:47:39Z</time>
      </trkpt>
      <trkpt lat="45.77393" lon="6.26179">
        <ele>674.6</ele>
        <time>2021-05-20T07:47:40Z</time>
      </trkpt>
      <trkpt lat="45.77407" lon="6.26184">
        <ele>676.2</ele>
        <time>2021-05-20T07:47:45Z</time>
      </trkpt>
      <trkpt lat="45.77412" lon="6.26186">
        <ele>677.2</ele>
        <time>2021-05-20T07:47:47Z</time>
      </trkpt>
      <trkpt lat="45.77415" lon="6.26187">
        <ele>679</ele>
        <time>2021-05-20T07:47:48Z</time>
      </trkpt>
      <trkpt lat="45.7742" lon="6.26189">
        <ele>680.4</ele>
        <time>2021-05-20T07:47:50Z</time>
      </trkpt>
      <trkpt lat="45.77431" lon="6.26193">
        <ele>681.2</ele>
        <time>2021-05-20T07:47:54Z</time>
      </trkpt>
      <trkpt lat="45.77434" lon="6.26195">
        <ele>681.8</ele>
        <time>2021-05-20T07:47:55Z</time>
      </trkpt>
      <trkpt lat="45.77438" lon="6.26197">
        <ele>682.8</ele>
        <time>2021-05-20T07:47:57Z</time>
      </trkpt>
      <trkpt lat="45.77441" lon="6.26199">
        <ele>683.4</ele>
        <time>2021-05-20T07:47:58Z</time>
      </trkpt>
      <trkpt lat="45.77443" lon="6.26201">
        <ele>684.2</ele>
        <time>2021-05-20T07:47:59Z</time>
      </trkpt>
      <trkpt lat="45.77451" lon="6.26206">
        <ele>685.8</ele>
        <time>2021-05-20T07:48:02Z</time>
      </trkpt>
      <trkpt lat="45.77466" lon="6.26216">
        <ele>687.2</ele>
        <time>2021-05-20T07:48:08Z</time>
      </trkpt>
      <trkpt lat="45.77471" lon="6.26219">
        <ele>688.4</ele>
        <time>2021-05-20T07:48:10Z</time>
      </trkpt>
      <trkpt lat="45.77473" lon="6.2622">
        <ele>689</ele>
        <time>2021-05-20T07:48:11Z</time>
      </trkpt>
      <trkpt lat="45.77476" lon="6.26221">
        <ele>689.6</ele>
        <time>2021-05-20T07:48:12Z</time>
      </trkpt>
      <trkpt lat="45.77481" lon="6.26224">
        <ele>690.8</ele>
        <time>2021-05-20T07:48:14Z</time>
      </trkpt>
      <trkpt lat="45.77483" lon="6.26226">
        <ele>691</ele>
        <time>2021-05-20T07:48:15Z</time>
      </trkpt>
      <trkpt lat="45.77488" lon="6.2623">
        <ele>692</ele>
        <time>2021-05-20T07:48:17Z</time>
      </trkpt>
      <trkpt lat="45.77494" lon="6.26234">
        <ele>693.4</ele>
        <time>2021-05-20T07:48:19Z</time>
      </trkpt>
      <trkpt lat="45.77503" lon="6.2624">
        <ele>693.8</ele>
        <time>2021-05-20T07:48:22Z</time>
      </trkpt>
      <trkpt lat="45.77508" lon="6.26244">
        <ele>694.4</ele>
        <time>2021-05-20T07:48:24Z</time>
      </trkpt>
      <trkpt lat="45.77519" lon="6.26253">
        <ele>695.6</ele>
        <time>2021-05-20T07:48:28Z</time>
      </trkpt>
      <trkpt lat="45.77521" lon="6.26255">
        <ele>696.2</ele>
        <time>2021-05-20T07:48:29Z</time>
      </trkpt>
      <trkpt lat="45.77524" lon="6.26258">
        <ele>696.8</ele>
        <time>2021-05-20T07:48:30Z</time>
      </trkpt>
      <trkpt lat="45.7753" lon="6.26262">
        <ele>697.8</ele>
        <time>2021-05-20T07:48:32Z</time>
      </trkpt>
      <trkpt lat="45.77538" lon="6.26268">
        <ele>699.4</ele>
        <time>2021-05-20T07:48:35Z</time>
      </trkpt>
      <trkpt lat="45.77541" lon="6.2627">
        <ele>699.6</ele>
        <time>2021-05-20T07:48:36Z</time>
      </trkpt>
      <trkpt lat="45.77544" lon="6.26271">
        <ele>700.4</ele>
        <time>2021-05-20T07:48:37Z</time>
      </trkpt>
      <trkpt lat="45.77546" lon="6.26273">
        <ele>701.8</ele>
        <time>2021-05-20T07:48:38Z</time>
      </trkpt>
      <trkpt lat="45.77552" lon="6.26277">
        <ele>703</ele>
        <time>2021-05-20T07:48:40Z</time>
      </trkpt>
      <trkpt lat="45.77561" lon="6.26282">
        <ele>704</ele>
        <time>2021-05-20T07:48:43Z</time>
      </trkpt>
      <trkpt lat="45.77569" lon="6.26288">
        <ele>705.2</ele>
        <time>2021-05-20T07:48:46Z</time>
      </trkpt>
      <trkpt lat="45.77576" lon="6.26312">
        <ele>706.8</ele>
        <time>2021-05-20T07:48:49Z</time>
      </trkpt>
      <trkpt lat="45.77578" lon="6.26333">
        <ele>707.8</ele>
        <time>2021-05-20T07:48:55Z</time>
      </trkpt>
      <trkpt lat="45.7758" lon="6.26355">
        <ele>713.4</ele>
        <time>2021-05-20T07:52:47Z</time>
      </trkpt>
      <trkpt lat="45.77582" lon="6.26376">
        <ele>714.6</ele>
        <time>2021-05-20T07:52:53Z</time>
      </trkpt>
      <trkpt lat="45.77584" lon="6.26398">
        <ele>714</ele>
        <time>2021-05-20T07:52:56Z</time>
      </trkpt>
      <trkpt lat="45.77581" lon="6.26407">
        <ele>714.8</ele>
        <time>2021-05-20T07:52:58Z</time>
      </trkpt>
      <trkpt lat="45.77585" lon="6.26412">
        <ele>715.6</ele>
        <time>2021-05-20T07:53:00Z</time>
      </trkpt>
      <trkpt lat="45.77594" lon="6.26418">
        <ele>717</ele>
        <time>2021-05-20T07:53:03Z</time>
      </trkpt>
      <trkpt lat="45.77597" lon="6.26421">
        <ele>717.2</ele>
        <time>2021-05-20T07:53:04Z</time>
      </trkpt>
      <trkpt lat="45.77605" lon="6.2643">
        <ele>718</ele>
        <time>2021-05-20T07:53:07Z</time>
      </trkpt>
      <trkpt lat="45.77631" lon="6.26431">
        <ele>719.4</ele>
        <time>2021-05-20T07:53:10Z</time>
      </trkpt>
      <trkpt lat="45.77638" lon="6.2644">
        <ele>720.6</ele>
        <time>2021-05-20T07:53:14Z</time>
      </trkpt>
      <trkpt lat="45.77638" lon="6.26446">
        <ele>720.6</ele>
        <time>2021-05-20T07:53:16Z</time>
      </trkpt>
      <trkpt lat="45.77645" lon="6.26451">
        <ele>721.2</ele>
        <time>2021-05-20T07:53:18Z</time>
      </trkpt>
      <trkpt lat="45.77651" lon="6.26456">
        <ele>721.6</ele>
        <time>2021-05-20T07:53:20Z</time>
      </trkpt>
      <trkpt lat="45.77663" lon="6.26457">
        <ele>722</ele>
        <time>2021-05-20T07:53:22Z</time>
      </trkpt>
      <trkpt lat="45.77672" lon="6.26468">
        <ele>722.8</ele>
        <time>2021-05-20T07:53:26Z</time>
      </trkpt>
      <trkpt lat="45.77675" lon="6.26473">
        <ele>723.6</ele>
        <time>2021-05-20T07:53:28Z</time>
      </trkpt>
      <trkpt lat="45.77679" lon="6.26482">
        <ele>724</ele>
        <time>2021-05-20T07:53:31Z</time>
      </trkpt>
      <trkpt lat="45.77682" lon="6.26489">
        <ele>724.6</ele>
        <time>2021-05-20T07:53:33Z</time>
      </trkpt>
      <trkpt lat="45.77684" lon="6.26493">
        <ele>724.8</ele>
        <time>2021-05-20T07:53:34Z</time>
      </trkpt>
      <trkpt lat="45.77688" lon="6.26499">
        <ele>724.8</ele>
        <time>2021-05-20T07:53:36Z</time>
      </trkpt>
      <trkpt lat="45.7769" lon="6.26503">
        <ele>725</ele>
        <time>2021-05-20T07:53:37Z</time>
      </trkpt>
      <trkpt lat="45.77698" lon="6.26507">
        <ele>725.4</ele>
        <time>2021-05-20T07:53:40Z</time>
      </trkpt>
      <trkpt lat="45.77749" lon="6.2653">
        <ele>736</ele>
        <time>2021-05-20T07:56:24Z</time>
      </trkpt>
      <trkpt lat="45.77748" lon="6.26528">
        <ele>735.6</ele>
        <time>2021-05-20T07:56:25Z</time>
      </trkpt>
      <trkpt lat="45.77746" lon="6.26523">
        <ele>736.2</ele>
        <time>2021-05-20T07:56:27Z</time>
      </trkpt>
      <trkpt lat="45.77741" lon="6.26518">
        <ele>737.2</ele>
        <time>2021-05-20T07:56:29Z</time>
      </trkpt>
      <trkpt lat="45.77733" lon="6.26507">
        <ele>738.8</ele>
        <time>2021-05-20T07:56:32Z</time>
      </trkpt>
      <trkpt lat="45.7773" lon="6.26504">
        <ele>739.4</ele>
        <time>2021-05-20T07:56:33Z</time>
      </trkpt>
      <trkpt lat="45.77727" lon="6.26502">
        <ele>740</ele>
        <time>2021-05-20T07:56:34Z</time>
      </trkpt>
      <trkpt lat="45.77724" lon="6.265">
        <ele>740</ele>
        <time>2021-05-20T07:56:35Z</time>
      </trkpt>
      <trkpt lat="45.77721" lon="6.26497">
        <ele>741</ele>
        <time>2021-05-20T07:56:37Z</time>
      </trkpt>
      <trkpt lat="45.77719" lon="6.26495">
        <ele>741.4</ele>
        <time>2021-05-20T07:56:38Z</time>
      </trkpt>
      <trkpt lat="45.77719" lon="6.26492">
        <ele>742</ele>
        <time>2021-05-20T07:56:39Z</time>
      </trkpt>
      <trkpt lat="45.77721" lon="6.26487">
        <ele>742.4</ele>
        <time>2021-05-20T07:56:40Z</time>
      </trkpt>
      <trkpt lat="45.77722" lon="6.26475">
        <ele>743.4</ele>
        <time>2021-05-20T07:56:43Z</time>
      </trkpt>
      <trkpt lat="45.77721" lon="6.26466">
        <ele>744.2</ele>
        <time>2021-05-20T07:56:45Z</time>
      </trkpt>
      <trkpt lat="45.77721" lon="6.26462">
        <ele>744.6</ele>
        <time>2021-05-20T07:56:46Z</time>
      </trkpt>
      <trkpt lat="45.77721" lon="6.26455">
        <ele>745.8</ele>
        <time>2021-05-20T07:56:48Z</time>
      </trkpt>
      <trkpt lat="45.77722" lon="6.2645">
        <ele>746.8</ele>
        <time>2021-05-20T07:56:49Z</time>
      </trkpt>
      <trkpt lat="45.77723" lon="6.26435">
        <ele>748.6</ele>
        <time>2021-05-20T07:56:52Z</time>
      </trkpt>
      <trkpt lat="45.77724" lon="6.26431">
        <ele>749</ele>
        <time>2021-05-20T07:56:53Z</time>
      </trkpt>
      <trkpt lat="45.77724" lon="6.26427">
        <ele>749.6</ele>
        <time>2021-05-20T07:56:54Z</time>
      </trkpt>
      <trkpt lat="45.77724" lon="6.26423">
        <ele>750</ele>
        <time>2021-05-20T07:56:55Z</time>
      </trkpt>
      <trkpt lat="45.77722" lon="6.26408">
        <ele>750.8</ele>
        <time>2021-05-20T07:56:59Z</time>
      </trkpt>
      <trkpt lat="45.77722" lon="6.26398">
        <ele>752</ele>
        <time>2021-05-20T07:57:02Z</time>
      </trkpt>
      <trkpt lat="45.77721" lon="6.26391">
        <ele>752.8</ele>
        <time>2021-05-20T07:57:04Z</time>
      </trkpt>
      <trkpt lat="45.7772" lon="6.26387">
        <ele>753.4</ele>
        <time>2021-05-20T07:57:05Z</time>
      </trkpt>
      <trkpt lat="45.77722" lon="6.26376">
        <ele>754.4</ele>
        <time>2021-05-20T07:57:08Z</time>
      </trkpt>
      <trkpt lat="45.77724" lon="6.26373">
        <ele>755</ele>
        <time>2021-05-20T07:57:09Z</time>
      </trkpt>
      <trkpt lat="45.77727" lon="6.26371">
        <ele>756</ele>
        <time>2021-05-20T07:57:10Z</time>
      </trkpt>
      <trkpt lat="45.77732" lon="6.26371">
        <ele>757</ele>
        <time>2021-05-20T07:57:13Z</time>
      </trkpt>
      <trkpt lat="45.77733" lon="6.26373">
        <ele>757.2</ele>
        <time>2021-05-20T07:57:14Z</time>
      </trkpt>
      <trkpt lat="45.77738" lon="6.2638">
        <ele>758.4</ele>
        <time>2021-05-20T07:57:18Z</time>
      </trkpt>
      <trkpt lat="45.7774" lon="6.26384">
        <ele>759.4</ele>
        <time>2021-05-20T07:57:20Z</time>
      </trkpt>
      <trkpt lat="45.77741" lon="6.26387">
        <ele>759.8</ele>
        <time>2021-05-20T07:57:21Z</time>
      </trkpt>
      <trkpt lat="45.77745" lon="6.26396">
        <ele>760.6</ele>
        <time>2021-05-20T07:57:24Z</time>
      </trkpt>
      <trkpt lat="45.77748" lon="6.26401">
        <ele>761.6</ele>
        <time>2021-05-20T07:57:26Z</time>
      </trkpt>
      <trkpt lat="45.77748" lon="6.26403">
        <ele>762</ele>
        <time>2021-05-20T07:57:27Z</time>
      </trkpt>
      <trkpt lat="45.77749" lon="6.26406">
        <ele>762.8</ele>
        <time>2021-05-20T07:57:29Z</time>
      </trkpt>
      <trkpt lat="45.77751" lon="6.26413">
        <ele>763.2</ele>
        <time>2021-05-20T07:57:32Z</time>
      </trkpt>
      <trkpt lat="45.77752" lon="6.26416">
        <ele>763.4</ele>
        <time>2021-05-20T07:57:33Z</time>
      </trkpt>
      <trkpt lat="45.77753" lon="6.26418">
        <ele>764</ele>
        <time>2021-05-20T07:57:34Z</time>
      </trkpt>
      <trkpt lat="45.77756" lon="6.2643">
        <ele>765.4</ele>
        <time>2021-05-20T07:57:37Z</time>
      </trkpt>
      <trkpt lat="45.77758" lon="6.26439">
        <ele>766.2</ele>
        <time>2021-05-20T07:57:39Z</time>
      </trkpt>
      <trkpt lat="45.77758" lon="6.26443">
        <ele>766.6</ele>
        <time>2021-05-20T07:57:40Z</time>
      </trkpt>
      <trkpt lat="45.7776" lon="6.2645">
        <ele>767.6</ele>
        <time>2021-05-20T07:57:42Z</time>
      </trkpt>
      <trkpt lat="45.77762" lon="6.26466">
        <ele>769.2</ele>
        <time>2021-05-20T07:57:47Z</time>
      </trkpt>
      <trkpt lat="45.77765" lon="6.26472">
        <ele>770.4</ele>
        <time>2021-05-20T07:57:49Z</time>
      </trkpt>
      <trkpt lat="45.77768" lon="6.26479">
        <ele>771</ele>
        <time>2021-05-20T07:57:51Z</time>
      </trkpt>
      <trkpt lat="45.7777" lon="6.26487">
        <ele>771</ele>
        <time>2021-05-20T07:57:53Z</time>
      </trkpt>
      <trkpt lat="45.7777" lon="6.2649">
        <ele>771.6</ele>
        <time>2021-05-20T07:57:54Z</time>
      </trkpt>
      <trkpt lat="45.77771" lon="6.26498">
        <ele>772.8</ele>
        <time>2021-05-20T07:57:56Z</time>
      </trkpt>
      <trkpt lat="45.77773" lon="6.26504">
        <ele>773.8</ele>
        <time>2021-05-20T07:57:58Z</time>
      </trkpt>
      <trkpt lat="45.77774" lon="6.26507">
        <ele>775</ele>
        <time>2021-05-20T07:57:59Z</time>
      </trkpt>
      <trkpt lat="45.77777" lon="6.26513">
        <ele>776.6</ele>
        <time>2021-05-20T07:58:02Z</time>
      </trkpt>
      <trkpt lat="45.77777" lon="6.26515">
        <ele>776.8</ele>
        <time>2021-05-20T07:58:03Z</time>
      </trkpt>
      <trkpt lat="45.77778" lon="6.2652">
        <ele>778.2</ele>
        <time>2021-05-20T07:58:05Z</time>
      </trkpt>
      <trkpt lat="45.77783" lon="6.26529">
        <ele>779.6</ele>
        <time>2021-05-20T07:58:09Z</time>
      </trkpt>
      <trkpt lat="45.77784" lon="6.26535">
        <ele>780</ele>
        <time>2021-05-20T07:58:11Z</time>
      </trkpt>
      <trkpt lat="45.77785" lon="6.26539">
        <ele>780.6</ele>
        <time>2021-05-20T07:58:13Z</time>
      </trkpt>
      <trkpt lat="45.77788" lon="6.26542">
        <ele>781.8</ele>
        <time>2021-05-20T07:58:15Z</time>
      </trkpt>
      <trkpt lat="45.7779" lon="6.26547">
        <ele>782.4</ele>
        <time>2021-05-20T07:58:17Z</time>
      </trkpt>
      <trkpt lat="45.77792" lon="6.26552">
        <ele>782.8</ele>
        <time>2021-05-20T07:58:19Z</time>
      </trkpt>
      <trkpt lat="45.77796" lon="6.2656">
        <ele>784.4</ele>
        <time>2021-05-20T07:58:22Z</time>
      </trkpt>
      <trkpt lat="45.77797" lon="6.26563">
        <ele>785</ele>
        <time>2021-05-20T07:58:23Z</time>
      </trkpt>
      <trkpt lat="45.77799" lon="6.2657">
        <ele>785.4</ele>
        <time>2021-05-20T07:58:25Z</time>
      </trkpt>
      <trkpt lat="45.77805" lon="6.26581">
        <ele>786.6</ele>
        <time>2021-05-20T07:58:28Z</time>
      </trkpt>
      <trkpt lat="45.77807" lon="6.26584">
        <ele>787.2</ele>
        <time>2021-05-20T07:58:29Z</time>
      </trkpt>
      <trkpt lat="45.77808" lon="6.26588">
        <ele>787.6</ele>
        <time>2021-05-20T07:58:30Z</time>
      </trkpt>
      <trkpt lat="45.77808" lon="6.26592">
        <ele>788</ele>
        <time>2021-05-20T07:58:31Z</time>
      </trkpt>
      <trkpt lat="45.77809" lon="6.26599">
        <ele>789</ele>
        <time>2021-05-20T07:58:33Z</time>
      </trkpt>
      <trkpt lat="45.7781" lon="6.26608">
        <ele>790</ele>
        <time>2021-05-20T07:58:36Z</time>
      </trkpt>
      <trkpt lat="45.77813" lon="6.26617">
        <ele>791.2</ele>
        <time>2021-05-20T07:58:39Z</time>
      </trkpt>
      <trkpt lat="45.77818" lon="6.26625">
        <ele>792.4</ele>
        <time>2021-05-20T07:58:43Z</time>
      </trkpt>
      <trkpt lat="45.77822" lon="6.26636">
        <ele>793.6</ele>
        <time>2021-05-20T07:58:47Z</time>
      </trkpt>
      <trkpt lat="45.77823" lon="6.26638">
        <ele>794.6</ele>
        <time>2021-05-20T07:58:48Z</time>
      </trkpt>
      <trkpt lat="45.77824" lon="6.2664">
        <ele>795.2</ele>
        <time>2021-05-20T07:58:49Z</time>
      </trkpt>
      <trkpt lat="45.77832" lon="6.26648">
        <ele>796.2</ele>
        <time>2021-05-20T07:58:54Z</time>
      </trkpt>
      <trkpt lat="45.77834" lon="6.26652">
        <ele>797.6</ele>
        <time>2021-05-20T07:58:56Z</time>
      </trkpt>
      <trkpt lat="45.77837" lon="6.26654">
        <ele>798.2</ele>
        <time>2021-05-20T07:58:57Z</time>
      </trkpt>
      <trkpt lat="45.7784" lon="6.26656">
        <ele>798.8</ele>
        <time>2021-05-20T07:58:59Z</time>
      </trkpt>
      <trkpt lat="45.77844" lon="6.26661">
        <ele>799.2</ele>
        <time>2021-05-20T07:59:02Z</time>
      </trkpt>
      <trkpt lat="45.77848" lon="6.26666">
        <ele>800</ele>
        <time>2021-05-20T07:59:05Z</time>
      </trkpt>
      <trkpt lat="45.77854" lon="6.26669">
        <ele>801.6</ele>
        <time>2021-05-20T07:59:08Z</time>
      </trkpt>
      <trkpt lat="45.77863" lon="6.26674">
        <ele>802.8</ele>
        <time>2021-05-20T07:59:14Z</time>
      </trkpt>
      <trkpt lat="45.77866" lon="6.26676">
        <ele>804.2</ele>
        <time>2021-05-20T07:59:17Z</time>
      </trkpt>
      <trkpt lat="45.77868" lon="6.2668">
        <ele>805.2</ele>
        <time>2021-05-20T07:59:20Z</time>
      </trkpt>
      <trkpt lat="45.77872" lon="6.26688">
        <ele>806.4</ele>
        <time>2021-05-20T07:59:24Z</time>
      </trkpt>
      <trkpt lat="45.77872" lon="6.2669">
        <ele>807.2</ele>
        <time>2021-05-20T07:59:27Z</time>
      </trkpt>
      <trkpt lat="45.77872" lon="6.26689">
        <ele>807.4</ele>
        <time>2021-05-20T07:59:28Z</time>
      </trkpt>
      <trkpt lat="45.7787" lon="6.26682">
        <ele>808.6</ele>
        <time>2021-05-20T07:59:33Z</time>
      </trkpt>
      <trkpt lat="45.77868" lon="6.26677">
        <ele>810</ele>
        <time>2021-05-20T07:59:36Z</time>
      </trkpt>
      <trkpt lat="45.77866" lon="6.26674">
        <ele>810.4</ele>
        <time>2021-05-20T07:59:38Z</time>
      </trkpt>
      <trkpt lat="45.77864" lon="6.2667">
        <ele>811.2</ele>
        <time>2021-05-20T07:59:40Z</time>
      </trkpt>
      <trkpt lat="45.77861" lon="6.26662">
        <ele>812.6</ele>
        <time>2021-05-20T07:59:44Z</time>
      </trkpt>
      <trkpt lat="45.7786" lon="6.2666">
        <ele>812.8</ele>
        <time>2021-05-20T07:59:45Z</time>
      </trkpt>
      <trkpt lat="45.77857" lon="6.26656">
        <ele>812.8</ele>
        <time>2021-05-20T07:59:47Z</time>
      </trkpt>
      <trkpt lat="45.77857" lon="6.2665">
        <ele>813.8</ele>
        <time>2021-05-20T07:59:49Z</time>
      </trkpt>
      <trkpt lat="45.77856" lon="6.26643">
        <ele>814.8</ele>
        <time>2021-05-20T07:59:51Z</time>
      </trkpt>
      <trkpt lat="45.77854" lon="6.26639">
        <ele>815</ele>
        <time>2021-05-20T07:59:52Z</time>
      </trkpt>
      <trkpt lat="45.77848" lon="6.26627">
        <ele>816</ele>
        <time>2021-05-20T07:59:55Z</time>
      </trkpt>
      <trkpt lat="45.77848" lon="6.26622">
        <ele>816.4</ele>
        <time>2021-05-20T07:59:56Z</time>
      </trkpt>
      <trkpt lat="45.77851" lon="6.26601">
        <ele>817.2</ele>
        <time>2021-05-20T08:00:00Z</time>
      </trkpt>
      <trkpt lat="45.77849" lon="6.2659">
        <ele>818.2</ele>
        <time>2021-05-20T08:00:02Z</time>
      </trkpt>
      <trkpt lat="45.77849" lon="6.26584">
        <ele>818.8</ele>
        <time>2021-05-20T08:00:03Z</time>
      </trkpt>
      <trkpt lat="45.77846" lon="6.26566">
        <ele>819.6</ele>
        <time>2021-05-20T08:00:06Z</time>
      </trkpt>
      <trkpt lat="45.77845" lon="6.26561">
        <ele>820</ele>
        <time>2021-05-20T08:00:07Z</time>
      </trkpt>
      <trkpt lat="45.77844" lon="6.26555">
        <ele>820.8</ele>
        <time>2021-05-20T08:00:08Z</time>
      </trkpt>
      <trkpt lat="45.77842" lon="6.26548">
        <ele>821.2</ele>
        <time>2021-05-20T08:00:09Z</time>
      </trkpt>
      <trkpt lat="45.77839" lon="6.26531">
        <ele>822.2</ele>
        <time>2021-05-20T08:00:12Z</time>
      </trkpt>
      <trkpt lat="45.77839" lon="6.26526">
        <ele>824.2</ele>
        <time>2021-05-20T08:00:13Z</time>
      </trkpt>
      <trkpt lat="45.77838" lon="6.26521">
        <ele>825.2</ele>
        <time>2021-05-20T08:00:14Z</time>
      </trkpt>
      <trkpt lat="45.77837" lon="6.26503">
        <ele>826.4</ele>
        <time>2021-05-20T08:00:18Z</time>
      </trkpt>
      <trkpt lat="45.77839" lon="6.26496">
        <ele>826.8</ele>
        <time>2021-05-20T08:00:20Z</time>
      </trkpt>
      <trkpt lat="45.77845" lon="6.2648">
        <ele>828</ele>
        <time>2021-05-20T08:00:24Z</time>
      </trkpt>
      <trkpt lat="45.77847" lon="6.26473">
        <ele>828.4</ele>
        <time>2021-05-20T08:00:26Z</time>
      </trkpt>
      <trkpt lat="45.77848" lon="6.26468">
        <ele>829</ele>
        <time>2021-05-20T08:00:27Z</time>
      </trkpt>
      <trkpt lat="45.77851" lon="6.26459">
        <ele>830.2</ele>
        <time>2021-05-20T08:00:29Z</time>
      </trkpt>
      <trkpt lat="45.77852" lon="6.2645">
        <ele>831.4</ele>
        <time>2021-05-20T08:00:31Z</time>
      </trkpt>
      <trkpt lat="45.77852" lon="6.26446">
        <ele>832</ele>
        <time>2021-05-20T08:00:32Z</time>
      </trkpt>
      <trkpt lat="45.77853" lon="6.26441">
        <ele>832.4</ele>
        <time>2021-05-20T08:00:33Z</time>
      </trkpt>
      <trkpt lat="45.77854" lon="6.26431">
        <ele>833.6</ele>
        <time>2021-05-20T08:00:35Z</time>
      </trkpt>
      <trkpt lat="45.77859" lon="6.26414">
        <ele>834.8</ele>
        <time>2021-05-20T08:00:39Z</time>
      </trkpt>
      <trkpt lat="45.77863" lon="6.264">
        <ele>835.6</ele>
        <time>2021-05-20T08:00:43Z</time>
      </trkpt>
      <trkpt lat="45.77864" lon="6.26396">
        <ele>836</ele>
        <time>2021-05-20T08:00:44Z</time>
      </trkpt>
      <trkpt lat="45.77865" lon="6.26393">
        <ele>836</ele>
        <time>2021-05-20T08:00:45Z</time>
      </trkpt>
      <trkpt lat="45.77867" lon="6.26384">
        <ele>836.2</ele>
        <time>2021-05-20T08:00:47Z</time>
      </trkpt>
      <trkpt lat="45.77868" lon="6.26373">
        <ele>837.2</ele>
        <time>2021-05-20T08:00:50Z</time>
      </trkpt>
      <trkpt lat="45.7787" lon="6.26366">
        <ele>838</ele>
        <time>2021-05-20T08:00:52Z</time>
      </trkpt>
      <trkpt lat="45.7787" lon="6.26363">
        <ele>838.4</ele>
        <time>2021-05-20T08:00:53Z</time>
      </trkpt>
      <trkpt lat="45.77873" lon="6.26357">
        <ele>840.6</ele>
        <time>2021-05-20T08:00:55Z</time>
      </trkpt>
      <trkpt lat="45.77878" lon="6.26351">
        <ele>841.6</ele>
        <time>2021-05-20T08:00:57Z</time>
      </trkpt>
      <trkpt lat="45.77879" lon="6.26348">
        <ele>842.2</ele>
        <time>2021-05-20T08:00:58Z</time>
      </trkpt>
      <trkpt lat="45.77887" lon="6.26336">
        <ele>842.8</ele>
        <time>2021-05-20T08:01:02Z</time>
      </trkpt>
      <trkpt lat="45.77891" lon="6.26332">
        <ele>843.4</ele>
        <time>2021-05-20T08:01:04Z</time>
      </trkpt>
      <trkpt lat="45.77895" lon="6.26329">
        <ele>844</ele>
        <time>2021-05-20T08:01:06Z</time>
      </trkpt>
      <trkpt lat="45.77898" lon="6.26327">
        <ele>845</ele>
        <time>2021-05-20T08:01:08Z</time>
      </trkpt>
      <trkpt lat="45.77901" lon="6.26324">
        <ele>845.6</ele>
        <time>2021-05-20T08:01:10Z</time>
      </trkpt>
      <trkpt lat="45.77903" lon="6.26322">
        <ele>846</ele>
        <time>2021-05-20T08:01:11Z</time>
      </trkpt>
      <trkpt lat="45.77908" lon="6.2632">
        <ele>846.6</ele>
        <time>2021-05-20T08:01:14Z</time>
      </trkpt>
      <trkpt lat="45.77914" lon="6.26318">
        <ele>847.2</ele>
        <time>2021-05-20T08:01:17Z</time>
      </trkpt>
      <trkpt lat="45.77917" lon="6.26316">
        <ele>848.4</ele>
        <time>2021-05-20T08:01:19Z</time>
      </trkpt>
      <trkpt lat="45.77923" lon="6.26315">
        <ele>849.6</ele>
        <time>2021-05-20T08:01:22Z</time>
      </trkpt>
      <trkpt lat="45.77937" lon="6.26315">
        <ele>850.4</ele>
        <time>2021-05-20T08:01:26Z</time>
      </trkpt>
      <trkpt lat="45.77939" lon="6.26315">
        <ele>850.8</ele>
        <time>2021-05-20T08:01:27Z</time>
      </trkpt>
      <trkpt lat="45.77949" lon="6.26315">
        <ele>852</ele>
        <time>2021-05-20T08:01:30Z</time>
      </trkpt>
      <trkpt lat="45.77952" lon="6.26315">
        <ele>852.6</ele>
        <time>2021-05-20T08:01:31Z</time>
      </trkpt>
      <trkpt lat="45.77958" lon="6.26314">
        <ele>853.4</ele>
        <time>2021-05-20T08:01:33Z</time>
      </trkpt>
      <trkpt lat="45.77966" lon="6.26314">
        <ele>854.6</ele>
        <time>2021-05-20T08:01:36Z</time>
      </trkpt>
      <trkpt lat="45.77968" lon="6.26317">
        <ele>855.2</ele>
        <time>2021-05-20T08:01:38Z</time>
      </trkpt>
      <trkpt lat="45.77968" lon="6.26319">
        <ele>855.6</ele>
        <time>2021-05-20T08:01:39Z</time>
      </trkpt>
      <trkpt lat="45.77966" lon="6.2632">
        <ele>856.4</ele>
        <time>2021-05-20T08:01:40Z</time>
      </trkpt>
      <trkpt lat="45.77965" lon="6.26322">
        <ele>856.8</ele>
        <time>2021-05-20T08:01:41Z</time>
      </trkpt>
      <trkpt lat="45.77953" lon="6.26326">
        <ele>857.4</ele>
        <time>2021-05-20T08:01:45Z</time>
      </trkpt>
      <trkpt lat="45.7795" lon="6.26326">
        <ele>858</ele>
        <time>2021-05-20T08:01:46Z</time>
      </trkpt>
      <trkpt lat="45.77946" lon="6.26328">
        <ele>859.2</ele>
        <time>2021-05-20T08:01:48Z</time>
      </trkpt>
      <trkpt lat="45.77941" lon="6.2633">
        <ele>860.4</ele>
        <time>2021-05-20T08:01:50Z</time>
      </trkpt>
      <trkpt lat="45.7794" lon="6.26331">
        <ele>860.8</ele>
        <time>2021-05-20T08:01:51Z</time>
      </trkpt>
      <trkpt lat="45.77938" lon="6.26332">
        <ele>861.4</ele>
        <time>2021-05-20T08:01:53Z</time>
      </trkpt>
      <trkpt lat="45.77931" lon="6.26337">
        <ele>862.4</ele>
        <time>2021-05-20T08:01:56Z</time>
      </trkpt>
      <trkpt lat="45.77929" lon="6.26339">
        <ele>863.2</ele>
        <time>2021-05-20T08:01:57Z</time>
      </trkpt>
      <trkpt lat="45.77928" lon="6.26341">
        <ele>863.8</ele>
        <time>2021-05-20T08:01:58Z</time>
      </trkpt>
      <trkpt lat="45.77926" lon="6.26343">
        <ele>864.2</ele>
        <time>2021-05-20T08:01:59Z</time>
      </trkpt>
      <trkpt lat="45.77921" lon="6.26351">
        <ele>865</ele>
        <time>2021-05-20T08:02:02Z</time>
      </trkpt>
      <trkpt lat="45.77918" lon="6.26362">
        <ele>865.6</ele>
        <time>2021-05-20T08:02:05Z</time>
      </trkpt>
      <trkpt lat="45.77918" lon="6.26365">
        <ele>866</ele>
        <time>2021-05-20T08:02:06Z</time>
      </trkpt>
      <trkpt lat="45.77917" lon="6.26371">
        <ele>867.8</ele>
        <time>2021-05-20T08:02:08Z</time>
      </trkpt>
      <trkpt lat="45.77916" lon="6.26377">
        <ele>869.4</ele>
        <time>2021-05-20T08:02:10Z</time>
      </trkpt>
      <trkpt lat="45.77913" lon="6.2639">
        <ele>870</ele>
        <time>2021-05-20T08:02:14Z</time>
      </trkpt>
      <trkpt lat="45.77912" lon="6.26396">
        <ele>870.4</ele>
        <time>2021-05-20T08:02:16Z</time>
      </trkpt>
      <trkpt lat="45.77913" lon="6.264">
        <ele>870.4</ele>
        <time>2021-05-20T08:02:17Z</time>
      </trkpt>
      <trkpt lat="45.77915" lon="6.26414">
        <ele>872.2</ele>
        <time>2021-05-20T08:02:21Z</time>
      </trkpt>
      <trkpt lat="45.77916" lon="6.26418">
        <ele>872.8</ele>
        <time>2021-05-20T08:02:22Z</time>
      </trkpt>
      <trkpt lat="45.77918" lon="6.26425">
        <ele>873.4</ele>
        <time>2021-05-20T08:02:24Z</time>
      </trkpt>
      <trkpt lat="45.77921" lon="6.26437">
        <ele>874.4</ele>
        <time>2021-05-20T08:02:28Z</time>
      </trkpt>
      <trkpt lat="45.77923" lon="6.26449">
        <ele>875.6</ele>
        <time>2021-05-20T08:02:31Z</time>
      </trkpt>
      <trkpt lat="45.77925" lon="6.26456">
        <ele>876.8</ele>
        <time>2021-05-20T08:02:33Z</time>
      </trkpt>
      <trkpt lat="45.77926" lon="6.26463">
        <ele>877.6</ele>
        <time>2021-05-20T08:02:35Z</time>
      </trkpt>
      <trkpt lat="45.77927" lon="6.26466">
        <ele>878.2</ele>
        <time>2021-05-20T08:02:36Z</time>
      </trkpt>
      <trkpt lat="45.77928" lon="6.26469">
        <ele>878.4</ele>
        <time>2021-05-20T08:02:37Z</time>
      </trkpt>
      <trkpt lat="45.77931" lon="6.2648">
        <ele>879.8</ele>
        <time>2021-05-20T08:02:41Z</time>
      </trkpt>
      <trkpt lat="45.77932" lon="6.26483">
        <ele>880.8</ele>
        <time>2021-05-20T08:02:42Z</time>
      </trkpt>
      <trkpt lat="45.77932" lon="6.26486">
        <ele>881.4</ele>
        <time>2021-05-20T08:02:43Z</time>
      </trkpt>
      <trkpt lat="45.77934" lon="6.26497">
        <ele>882.8</ele>
        <time>2021-05-20T08:02:47Z</time>
      </trkpt>
      <trkpt lat="45.77934" lon="6.265">
        <ele>883.4</ele>
        <time>2021-05-20T08:02:48Z</time>
      </trkpt>
      <trkpt lat="45.77934" lon="6.26503">
        <ele>884.4</ele>
        <time>2021-05-20T08:02:49Z</time>
      </trkpt>
      <trkpt lat="45.77934" lon="6.26507">
        <ele>884.8</ele>
        <time>2021-05-20T08:02:50Z</time>
      </trkpt>
      <trkpt lat="45.77935" lon="6.2651">
        <ele>885</ele>
        <time>2021-05-20T08:02:51Z</time>
      </trkpt>
      <trkpt lat="45.77936" lon="6.26513">
        <ele>885.4</ele>
        <time>2021-05-20T08:02:52Z</time>
      </trkpt>
      <trkpt lat="45.77937" lon="6.26516">
        <ele>885.6</ele>
        <time>2021-05-20T08:02:53Z</time>
      </trkpt>
      <trkpt lat="45.77937" lon="6.26519">
        <ele>885.8</ele>
        <time>2021-05-20T08:02:54Z</time>
      </trkpt>
      <trkpt lat="45.77937" lon="6.26522">
        <ele>885.8</ele>
        <time>2021-05-20T08:02:55Z</time>
      </trkpt>
      <trkpt lat="45.77939" lon="6.26526">
        <ele>886.2</ele>
        <time>2021-05-20T08:02:57Z</time>
      </trkpt>
      <trkpt lat="45.7794" lon="6.26528">
        <ele>887.2</ele>
        <time>2021-05-20T08:02:58Z</time>
      </trkpt>
      <trkpt lat="45.77941" lon="6.26534">
        <ele>887.8</ele>
        <time>2021-05-20T08:03:00Z</time>
      </trkpt>
      <trkpt lat="45.77942" lon="6.26542">
        <ele>888.6</ele>
        <time>2021-05-20T08:03:03Z</time>
      </trkpt>
      <trkpt lat="45.77944" lon="6.26551">
        <ele>889.8</ele>
        <time>2021-05-20T08:03:06Z</time>
      </trkpt>
      <trkpt lat="45.77946" lon="6.26558">
        <ele>890.2</ele>
        <time>2021-05-20T08:03:08Z</time>
      </trkpt>
      <trkpt lat="45.77949" lon="6.26563">
        <ele>890.8</ele>
        <time>2021-05-20T08:03:10Z</time>
      </trkpt>
      <trkpt lat="45.77952" lon="6.26568">
        <ele>892</ele>
        <time>2021-05-20T08:03:12Z</time>
      </trkpt>
      <trkpt lat="45.77956" lon="6.26573">
        <ele>892.8</ele>
        <time>2021-05-20T08:03:14Z</time>
      </trkpt>
      <trkpt lat="45.77957" lon="6.26575">
        <ele>893</ele>
        <time>2021-05-20T08:03:15Z</time>
      </trkpt>
      <trkpt lat="45.77961" lon="6.26579">
        <ele>893.4</ele>
        <time>2021-05-20T08:03:17Z</time>
      </trkpt>
      <trkpt lat="45.77963" lon="6.2658">
        <ele>893.8</ele>
        <time>2021-05-20T08:03:18Z</time>
      </trkpt>
      <trkpt lat="45.77964" lon="6.26581">
        <ele>894.8</ele>
        <time>2021-05-20T08:03:19Z</time>
      </trkpt>
      <trkpt lat="45.77968" lon="6.26586">
        <ele>895.2</ele>
        <time>2021-05-20T08:03:21Z</time>
      </trkpt>
      <trkpt lat="45.7797" lon="6.26589">
        <ele>895.6</ele>
        <time>2021-05-20T08:03:23Z</time>
      </trkpt>
      <trkpt lat="45.77974" lon="6.26593">
        <ele>896.2</ele>
        <time>2021-05-20T08:03:25Z</time>
      </trkpt>
      <trkpt lat="45.77977" lon="6.26597">
        <ele>896.6</ele>
        <time>2021-05-20T08:03:27Z</time>
      </trkpt>
      <trkpt lat="45.77978" lon="6.26599">
        <ele>897.6</ele>
        <time>2021-05-20T08:03:28Z</time>
      </trkpt>
      <trkpt lat="45.77982" lon="6.26608">
        <ele>898.6</ele>
        <time>2021-05-20T08:03:32Z</time>
      </trkpt>
      <trkpt lat="45.77982" lon="6.2661">
        <ele>899</ele>
        <time>2021-05-20T08:03:33Z</time>
      </trkpt>
      <trkpt lat="45.77984" lon="6.26611">
        <ele>899.6</ele>
        <time>2021-05-20T08:03:34Z</time>
      </trkpt>
      <trkpt lat="45.77987" lon="6.26615">
        <ele>900.4</ele>
        <time>2021-05-20T08:03:36Z</time>
      </trkpt>
      <trkpt lat="45.77991" lon="6.26621">
        <ele>900.8</ele>
        <time>2021-05-20T08:03:39Z</time>
      </trkpt>
      <trkpt lat="45.77991" lon="6.26623">
        <ele>900.8</ele>
        <time>2021-05-20T08:03:40Z</time>
      </trkpt>
      <trkpt lat="45.77996" lon="6.26628">
        <ele>901.8</ele>
        <time>2021-05-20T08:03:42Z</time>
      </trkpt>
      <trkpt lat="45.78003" lon="6.26637">
        <ele>903.2</ele>
        <time>2021-05-20T08:03:46Z</time>
      </trkpt>
      <trkpt lat="45.78006" lon="6.26641">
        <ele>903.8</ele>
        <time>2021-05-20T08:03:48Z</time>
      </trkpt>
      <trkpt lat="45.78008" lon="6.26646">
        <ele>904.4</ele>
        <time>2021-05-20T08:03:50Z</time>
      </trkpt>
      <trkpt lat="45.78011" lon="6.2665">
        <ele>905.4</ele>
        <time>2021-05-20T08:03:52Z</time>
      </trkpt>
      <trkpt lat="45.78017" lon="6.26656">
        <ele>906.4</ele>
        <time>2021-05-20T08:03:56Z</time>
      </trkpt>
      <trkpt lat="45.78018" lon="6.26657">
        <ele>906.6</ele>
        <time>2021-05-20T08:03:57Z</time>
      </trkpt>
      <trkpt lat="45.78024" lon="6.26661">
        <ele>908</ele>
        <time>2021-05-20T08:04:01Z</time>
      </trkpt>
      <trkpt lat="45.78028" lon="6.26661">
        <ele>908.8</ele>
        <time>2021-05-20T08:04:03Z</time>
      </trkpt>
      <trkpt lat="45.78032" lon="6.26661">
        <ele>909.4</ele>
        <time>2021-05-20T08:04:05Z</time>
      </trkpt>
      <trkpt lat="45.78039" lon="6.26662">
        <ele>910.6</ele>
        <time>2021-05-20T08:04:08Z</time>
      </trkpt>
      <trkpt lat="45.78042" lon="6.26663">
        <ele>910.8</ele>
        <time>2021-05-20T08:04:10Z</time>
      </trkpt>
      <trkpt lat="45.78044" lon="6.26663">
        <ele>911</ele>
        <time>2021-05-20T08:04:11Z</time>
      </trkpt>
      <trkpt lat="45.78046" lon="6.26663">
        <ele>911</ele>
        <time>2021-05-20T08:04:12Z</time>
      </trkpt>
      <trkpt lat="45.78047" lon="6.26663">
        <ele>911.6</ele>
        <time>2021-05-20T08:04:13Z</time>
      </trkpt>
      <trkpt lat="45.78048" lon="6.26664">
        <ele>912</ele>
        <time>2021-05-20T08:04:14Z</time>
      </trkpt>
      <trkpt lat="45.7805" lon="6.26663">
        <ele>912.2</ele>
        <time>2021-05-20T08:04:15Z</time>
      </trkpt>
      <trkpt lat="45.78053" lon="6.26664">
        <ele>912.6</ele>
        <time>2021-05-20T08:04:17Z</time>
      </trkpt>
      <trkpt lat="45.78062" lon="6.26666">
        <ele>913.6</ele>
        <time>2021-05-20T08:04:22Z</time>
      </trkpt>
      <trkpt lat="45.78064" lon="6.26666">
        <ele>914</ele>
        <time>2021-05-20T08:04:23Z</time>
      </trkpt>
      <trkpt lat="45.78067" lon="6.26669">
        <ele>914.8</ele>
        <time>2021-05-20T08:04:28Z</time>
      </trkpt>
      <trkpt lat="45.78067" lon="6.26669">
        <ele>915</ele>
        <time>2021-05-20T08:04:29Z</time>
      </trkpt>
      <trkpt lat="45.78078" lon="6.26665">
        <ele>915.4</ele>
        <time>2021-05-20T08:04:34Z</time>
      </trkpt>
      <trkpt lat="45.7808" lon="6.26664">
        <ele>915.4</ele>
        <time>2021-05-20T08:04:35Z</time>
      </trkpt>
      <trkpt lat="45.78085" lon="6.26675">
        <ele>915</ele>
        <time>2021-05-20T08:06:38Z</time>
      </trkpt>
      <trkpt lat="45.78087" lon="6.26676">
        <ele>915</ele>
        <time>2021-05-20T08:06:39Z</time>
      </trkpt>
      <trkpt lat="45.78089" lon="6.26677">
        <ele>915</ele>
        <time>2021-05-20T08:06:41Z</time>
      </trkpt>
      <trkpt lat="45.78092" lon="6.26679">
        <ele>916.2</ele>
        <time>2021-05-20T08:06:43Z</time>
      </trkpt>
      <trkpt lat="45.78095" lon="6.2668">
        <ele>918.2</ele>
        <time>2021-05-20T08:06:45Z</time>
      </trkpt>
      <trkpt lat="45.78096" lon="6.2668">
        <ele>918.8</ele>
        <time>2021-05-20T08:06:46Z</time>
      </trkpt>
      <trkpt lat="45.78101" lon="6.26681">
        <ele>919.4</ele>
        <time>2021-05-20T08:06:48Z</time>
      </trkpt>
      <trkpt lat="45.78112" lon="6.26682">
        <ele>919.6</ele>
        <time>2021-05-20T08:06:51Z</time>
      </trkpt>
      <trkpt lat="45.78126" lon="6.26686">
        <ele>920.8</ele>
        <time>2021-05-20T08:06:55Z</time>
      </trkpt>
      <trkpt lat="45.78132" lon="6.26688">
        <ele>921.8</ele>
        <time>2021-05-20T08:06:57Z</time>
      </trkpt>
      <trkpt lat="45.78135" lon="6.26689">
        <ele>922</ele>
        <time>2021-05-20T08:06:58Z</time>
      </trkpt>
      <trkpt lat="45.78142" lon="6.2669">
        <ele>923.8</ele>
        <time>2021-05-20T08:07:01Z</time>
      </trkpt>
      <trkpt lat="45.78144" lon="6.26691">
        <ele>924.4</ele>
        <time>2021-05-20T08:07:02Z</time>
      </trkpt>
      <trkpt lat="45.78146" lon="6.26691">
        <ele>924.8</ele>
        <time>2021-05-20T08:07:03Z</time>
      </trkpt>
      <trkpt lat="45.78149" lon="6.26691">
        <ele>925.4</ele>
        <time>2021-05-20T08:07:04Z</time>
      </trkpt>
      <trkpt lat="45.78151" lon="6.26691">
        <ele>926.4</ele>
        <time>2021-05-20T08:07:05Z</time>
      </trkpt>
      <trkpt lat="45.78154" lon="6.26692">
        <ele>927.6</ele>
        <time>2021-05-20T08:07:06Z</time>
      </trkpt>
      <trkpt lat="45.78156" lon="6.26693">
        <ele>928.6</ele>
        <time>2021-05-20T08:07:07Z</time>
      </trkpt>
      <trkpt lat="45.78158" lon="6.26694">
        <ele>929.2</ele>
        <time>2021-05-20T08:07:08Z</time>
      </trkpt>
      <trkpt lat="45.78169" lon="6.26697">
        <ele>929.8</ele>
        <time>2021-05-20T08:07:12Z</time>
      </trkpt>
      <trkpt lat="45.78176" lon="6.26699">
        <ele>930.6</ele>
        <time>2021-05-20T08:07:14Z</time>
      </trkpt>
      <trkpt lat="45.78182" lon="6.267">
        <ele>931.2</ele>
        <time>2021-05-20T08:07:16Z</time>
      </trkpt>
      <trkpt lat="45.78186" lon="6.267">
        <ele>931.2</ele>
        <time>2021-05-20T08:07:17Z</time>
      </trkpt>
      <trkpt lat="45.78197" lon="6.26704">
        <ele>933.6</ele>
        <time>2021-05-20T08:07:21Z</time>
      </trkpt>
      <trkpt lat="45.78201" lon="6.26705">
        <ele>935.4</ele>
        <time>2021-05-20T08:07:23Z</time>
      </trkpt>
      <trkpt lat="45.78204" lon="6.26705">
        <ele>936.4</ele>
        <time>2021-05-20T08:07:25Z</time>
      </trkpt>
      <trkpt lat="45.78205" lon="6.26706">
        <ele>936.8</ele>
        <time>2021-05-20T08:07:26Z</time>
      </trkpt>
      <trkpt lat="45.78207" lon="6.26707">
        <ele>937.6</ele>
        <time>2021-05-20T08:07:30Z</time>
      </trkpt>
      <trkpt lat="45.78211" lon="6.26707">
        <ele>938.2</ele>
        <time>2021-05-20T08:07:35Z</time>
      </trkpt>
      <trkpt lat="45.78212" lon="6.26707">
        <ele>938.6</ele>
        <time>2021-05-20T08:07:36Z</time>
      </trkpt>
      <trkpt lat="45.78213" lon="6.26706">
        <ele>939</ele>
        <time>2021-05-20T08:07:37Z</time>
      </trkpt>
      <trkpt lat="45.78216" lon="6.26705">
        <ele>939.4</ele>
        <time>2021-05-20T08:07:40Z</time>
      </trkpt>
      <trkpt lat="45.78218" lon="6.26704">
        <ele>939.8</ele>
        <time>2021-05-20T08:07:42Z</time>
      </trkpt>
      <trkpt lat="45.78227" lon="6.26703">
        <ele>941</ele>
        <time>2021-05-20T08:07:48Z</time>
      </trkpt>
      <trkpt lat="45.78229" lon="6.26702">
        <ele>942</ele>
        <time>2021-05-20T08:07:51Z</time>
      </trkpt>
      <trkpt lat="45.7823" lon="6.26701">
        <ele>942.2</ele>
        <time>2021-05-20T08:07:52Z</time>
      </trkpt>
      <trkpt lat="45.78234" lon="6.26699">
        <ele>943</ele>
        <time>2021-05-20T08:07:56Z</time>
      </trkpt>
      <trkpt lat="45.78235" lon="6.26699">
        <ele>943.4</ele>
        <time>2021-05-20T08:07:57Z</time>
      </trkpt>
      <trkpt lat="45.78237" lon="6.26698">
        <ele>943.6</ele>
        <time>2021-05-20T08:07:59Z</time>
      </trkpt>
      <trkpt lat="45.7824" lon="6.26697">
        <ele>944.6</ele>
        <time>2021-05-20T08:08:02Z</time>
      </trkpt>
      <trkpt lat="45.78241" lon="6.26697">
        <ele>945.4</ele>
        <time>2021-05-20T08:08:05Z</time>
      </trkpt>
      <trkpt lat="45.78242" lon="6.26696">
        <ele>945.6</ele>
        <time>2021-05-20T08:08:06Z</time>
      </trkpt>
      <trkpt lat="45.78245" lon="6.26695">
        <ele>946.4</ele>
        <time>2021-05-20T08:08:09Z</time>
      </trkpt>
      <trkpt lat="45.78246" lon="6.26695">
        <ele>946.8</ele>
        <time>2021-05-20T08:08:11Z</time>
      </trkpt>
      <trkpt lat="45.78246" lon="6.26696">
        <ele>947.2</ele>
        <time>2021-05-20T08:08:12Z</time>
      </trkpt>
      <trkpt lat="45.78248" lon="6.26696">
        <ele>947.8</ele>
        <time>2021-05-20T08:08:14Z</time>
      </trkpt>
      <trkpt lat="45.78249" lon="6.26696">
        <ele>948</ele>
        <time>2021-05-20T08:08:15Z</time>
      </trkpt>
      <trkpt lat="45.78254" lon="6.26696">
        <ele>948.8</ele>
        <time>2021-05-20T08:08:20Z</time>
      </trkpt>
      <trkpt lat="45.78258" lon="6.26696">
        <ele>949.2</ele>
        <time>2021-05-20T08:08:23Z</time>
      </trkpt>
      <trkpt lat="45.78261" lon="6.26697">
        <ele>950</ele>
        <time>2021-05-20T08:08:26Z</time>
      </trkpt>
      <trkpt lat="45.78264" lon="6.26698">
        <ele>950.4</ele>
        <time>2021-05-20T08:08:28Z</time>
      </trkpt>
      <trkpt lat="45.78266" lon="6.26698">
        <ele>950.6</ele>
        <time>2021-05-20T08:08:29Z</time>
      </trkpt>
      <trkpt lat="45.78269" lon="6.26701">
        <ele>951.2</ele>
        <time>2021-05-20T08:08:32Z</time>
      </trkpt>
      <trkpt lat="45.78273" lon="6.26701">
        <ele>952.2</ele>
        <time>2021-05-20T08:08:37Z</time>
      </trkpt>
      <trkpt lat="45.78274" lon="6.26702">
        <ele>952.6</ele>
        <time>2021-05-20T08:08:38Z</time>
      </trkpt>
      <trkpt lat="45.78276" lon="6.26702">
        <ele>953</ele>
        <time>2021-05-20T08:08:40Z</time>
      </trkpt>
      <trkpt lat="45.78278" lon="6.26701">
        <ele>953.8</ele>
        <time>2021-05-20T08:08:43Z</time>
      </trkpt>
      <trkpt lat="45.78279" lon="6.267">
        <ele>954</ele>
        <time>2021-05-20T08:08:45Z</time>
      </trkpt>
      <trkpt lat="45.78282" lon="6.26697">
        <ele>954.8</ele>
        <time>2021-05-20T08:08:49Z</time>
      </trkpt>
      <trkpt lat="45.78283" lon="6.26697">
        <ele>955</ele>
        <time>2021-05-20T08:08:50Z</time>
      </trkpt>
      <trkpt lat="45.78287" lon="6.26695">
        <ele>955.8</ele>
        <time>2021-05-20T08:08:53Z</time>
      </trkpt>
      <trkpt lat="45.7829" lon="6.26691">
        <ele>957</ele>
        <time>2021-05-20T08:08:57Z</time>
      </trkpt>
      <trkpt lat="45.78292" lon="6.26689">
        <ele>957.4</ele>
        <time>2021-05-20T08:09:00Z</time>
      </trkpt>
      <trkpt lat="45.78294" lon="6.26689">
        <ele>958.2</ele>
        <time>2021-05-20T08:09:04Z</time>
      </trkpt>
      <trkpt lat="45.78294" lon="6.26689">
        <ele>958.6</ele>
        <time>2021-05-20T08:09:06Z</time>
      </trkpt>
      <trkpt lat="45.78295" lon="6.26689">
        <ele>958.2</ele>
        <time>2021-05-20T08:09:15Z</time>
      </trkpt>
      <trkpt lat="45.78295" lon="6.26689">
        <ele>958.6</ele>
        <time>2021-05-20T08:09:22Z</time>
      </trkpt>
      <trkpt lat="45.78295" lon="6.26688">
        <ele>958.6</ele>
        <time>2021-05-20T08:09:23Z</time>
      </trkpt>
      <trkpt lat="45.78295" lon="6.26688">
        <ele>958.2</ele>
        <time>2021-05-20T08:09:33Z</time>
      </trkpt>
      <trkpt lat="45.78296" lon="6.26687">
        <ele>958.8</ele>
        <time>2021-05-20T08:09:39Z</time>
      </trkpt>
      <trkpt lat="45.78296" lon="6.26687">
        <ele>958.8</ele>
        <time>2021-05-20T08:09:41Z</time>
      </trkpt>
      <trkpt lat="45.78297" lon="6.26687">
        <ele>958.8</ele>
        <time>2021-05-20T08:09:43Z</time>
      </trkpt>
      <trkpt lat="45.78301" lon="6.26685">
        <ele>958.8</ele>
        <time>2021-05-20T08:09:45Z</time>
      </trkpt>
      <trkpt lat="45.78303" lon="6.26683">
        <ele>959</ele>
        <time>2021-05-20T08:09:46Z</time>
      </trkpt>
      <trkpt lat="45.78307" lon="6.2668">
        <ele>959.4</ele>
        <time>2021-05-20T08:09:48Z</time>
      </trkpt>
      <trkpt lat="45.78315" lon="6.26676">
        <ele>960.4</ele>
        <time>2021-05-20T08:09:51Z</time>
      </trkpt>
      <trkpt lat="45.78319" lon="6.26674">
        <ele>960.8</ele>
        <time>2021-05-20T08:09:53Z</time>
      </trkpt>
      <trkpt lat="45.78321" lon="6.26673">
        <ele>961.6</ele>
        <time>2021-05-20T08:09:54Z</time>
      </trkpt>
      <trkpt lat="45.78324" lon="6.26672">
        <ele>963.2</ele>
        <time>2021-05-20T08:09:56Z</time>
      </trkpt>
      <trkpt lat="45.78327" lon="6.26669">
        <ele>964.2</ele>
        <time>2021-05-20T08:09:58Z</time>
      </trkpt>
      <trkpt lat="45.78329" lon="6.26668">
        <ele>964.8</ele>
        <time>2021-05-20T08:09:59Z</time>
      </trkpt>
      <trkpt lat="45.78334" lon="6.26664">
        <ele>965.4</ele>
        <time>2021-05-20T08:10:02Z</time>
      </trkpt>
      <trkpt lat="45.78339" lon="6.26661">
        <ele>966.6</ele>
        <time>2021-05-20T08:10:04Z</time>
      </trkpt>
      <trkpt lat="45.78345" lon="6.26657">
        <ele>968</ele>
        <time>2021-05-20T08:10:07Z</time>
      </trkpt>
      <trkpt lat="45.78351" lon="6.26653">
        <ele>969.2</ele>
        <time>2021-05-20T08:10:10Z</time>
      </trkpt>
      <trkpt lat="45.78359" lon="6.26647">
        <ele>970.6</ele>
        <time>2021-05-20T08:10:14Z</time>
      </trkpt>
      <trkpt lat="45.78363" lon="6.26643">
        <ele>971.2</ele>
        <time>2021-05-20T08:10:16Z</time>
      </trkpt>
      <trkpt lat="45.78365" lon="6.26642">
        <ele>971.8</ele>
        <time>2021-05-20T08:10:17Z</time>
      </trkpt>
      <trkpt lat="45.78369" lon="6.26638">
        <ele>973.2</ele>
        <time>2021-05-20T08:10:19Z</time>
      </trkpt>
      <trkpt lat="45.78375" lon="6.26632">
        <ele>974.2</ele>
        <time>2021-05-20T08:10:22Z</time>
      </trkpt>
      <trkpt lat="45.78377" lon="6.26631">
        <ele>974.6</ele>
        <time>2021-05-20T08:10:23Z</time>
      </trkpt>
      <trkpt lat="45.78381" lon="6.26627">
        <ele>975.2</ele>
        <time>2021-05-20T08:10:25Z</time>
      </trkpt>
      <trkpt lat="45.78383" lon="6.26625">
        <ele>975.6</ele>
        <time>2021-05-20T08:10:26Z</time>
      </trkpt>
      <trkpt lat="45.78392" lon="6.26617">
        <ele>977</ele>
        <time>2021-05-20T08:10:30Z</time>
      </trkpt>
      <trkpt lat="45.78396" lon="6.26613">
        <ele>978.4</ele>
        <time>2021-05-20T08:10:32Z</time>
      </trkpt>
      <trkpt lat="45.78398" lon="6.2661">
        <ele>978.4</ele>
        <time>2021-05-20T08:10:33Z</time>
      </trkpt>
      <trkpt lat="45.78402" lon="6.26593">
        <ele>979.6</ele>
        <time>2021-05-20T08:10:38Z</time>
      </trkpt>
      <trkpt lat="45.78404" lon="6.26586">
        <ele>980.8</ele>
        <time>2021-05-20T08:10:41Z</time>
      </trkpt>
      <trkpt lat="45.78407" lon="6.2658">
        <ele>981.8</ele>
        <time>2021-05-20T08:10:45Z</time>
      </trkpt>
      <trkpt lat="45.78413" lon="6.26575">
        <ele>982.2</ele>
        <time>2021-05-20T08:10:52Z</time>
      </trkpt>
      <trkpt lat="45.78415" lon="6.26574">
        <ele>982.4</ele>
        <time>2021-05-20T08:10:53Z</time>
      </trkpt>
      <trkpt lat="45.78417" lon="6.26575">
        <ele>982.4</ele>
        <time>2021-05-20T08:10:59Z</time>
      </trkpt>
      <trkpt lat="45.78416" lon="6.26573">
        <ele>982.2</ele>
        <time>2021-05-20T08:11:02Z</time>
      </trkpt>
      <trkpt lat="45.78416" lon="6.26573">
        <ele>982.4</ele>
        <time>2021-05-20T08:11:05Z</time>
      </trkpt>
      <trkpt lat="45.78417" lon="6.26573">
        <ele>981.8</ele>
        <time>2021-05-20T08:11:09Z</time>
      </trkpt>
      <trkpt lat="45.78418" lon="6.26574">
        <ele>981.8</ele>
        <time>2021-05-20T08:12:16Z</time>
      </trkpt>
      <trkpt lat="45.7842" lon="6.26576">
        <ele>981.8</ele>
        <time>2021-05-20T08:12:17Z</time>
      </trkpt>
      <trkpt lat="45.78427" lon="6.26577">
        <ele>981.8</ele>
        <time>2021-05-20T08:12:19Z</time>
      </trkpt>
      <trkpt lat="45.78435" lon="6.2658">
        <ele>982.8</ele>
        <time>2021-05-20T08:12:21Z</time>
      </trkpt>
      <trkpt lat="45.78438" lon="6.26581">
        <ele>983</ele>
        <time>2021-05-20T08:12:22Z</time>
      </trkpt>
      <trkpt lat="45.78449" lon="6.26585">
        <ele>983.8</ele>
        <time>2021-05-20T08:12:25Z</time>
      </trkpt>
      <trkpt lat="45.78452" lon="6.26587">
        <ele>984.2</ele>
        <time>2021-05-20T08:12:26Z</time>
      </trkpt>
      <trkpt lat="45.78461" lon="6.26591">
        <ele>985.4</ele>
        <time>2021-05-20T08:12:29Z</time>
      </trkpt>
      <trkpt lat="45.78464" lon="6.26592">
        <ele>985.6</ele>
        <time>2021-05-20T08:12:30Z</time>
      </trkpt>
      <trkpt lat="45.78467" lon="6.26593">
        <ele>986</ele>
        <time>2021-05-20T08:12:31Z</time>
      </trkpt>
      <trkpt lat="45.78473" lon="6.26595">
        <ele>986.8</ele>
        <time>2021-05-20T08:12:33Z</time>
      </trkpt>
      <trkpt lat="45.78482" lon="6.26598">
        <ele>988.2</ele>
        <time>2021-05-20T08:12:36Z</time>
      </trkpt>
      <trkpt lat="45.78485" lon="6.26599">
        <ele>988.4</ele>
        <time>2021-05-20T08:12:37Z</time>
      </trkpt>
      <trkpt lat="45.78491" lon="6.266">
        <ele>989</ele>
        <time>2021-05-20T08:12:39Z</time>
      </trkpt>
      <trkpt lat="45.78493" lon="6.26601">
        <ele>989.8</ele>
        <time>2021-05-20T08:12:40Z</time>
      </trkpt>
      <trkpt lat="45.78498" lon="6.26601">
        <ele>991</ele>
        <time>2021-05-20T08:12:42Z</time>
      </trkpt>
      <trkpt lat="45.78509" lon="6.266">
        <ele>992</ele>
        <time>2021-05-20T08:12:46Z</time>
      </trkpt>
      <trkpt lat="45.78511" lon="6.266">
        <ele>992.4</ele>
        <time>2021-05-20T08:12:47Z</time>
      </trkpt>
      <trkpt lat="45.78517" lon="6.26598">
        <ele>993.6</ele>
        <time>2021-05-20T08:12:49Z</time>
      </trkpt>
      <trkpt lat="45.78524" lon="6.26595">
        <ele>994.8</ele>
        <time>2021-05-20T08:12:52Z</time>
      </trkpt>
      <trkpt lat="45.78527" lon="6.26594">
        <ele>995.6</ele>
        <time>2021-05-20T08:12:53Z</time>
      </trkpt>
      <trkpt lat="45.78529" lon="6.26594">
        <ele>996.4</ele>
        <time>2021-05-20T08:12:54Z</time>
      </trkpt>
      <trkpt lat="45.78535" lon="6.26592">
        <ele>997.6</ele>
        <time>2021-05-20T08:12:57Z</time>
      </trkpt>
      <trkpt lat="45.78539" lon="6.26591">
        <ele>998.8</ele>
        <time>2021-05-20T08:12:59Z</time>
      </trkpt>
      <trkpt lat="45.78541" lon="6.2659">
        <ele>999</ele>
        <time>2021-05-20T08:13:00Z</time>
      </trkpt>
      <trkpt lat="45.78547" lon="6.26587">
        <ele>999.8</ele>
        <time>2021-05-20T08:13:03Z</time>
      </trkpt>
      <trkpt lat="45.78552" lon="6.26586">
        <ele>1000.2</ele>
        <time>2021-05-20T08:13:06Z</time>
      </trkpt>
      <trkpt lat="45.78556" lon="6.26584">
        <ele>1001</ele>
        <time>2021-05-20T08:13:08Z</time>
      </trkpt>
      <trkpt lat="45.78561" lon="6.26581">
        <ele>1002</ele>
        <time>2021-05-20T08:13:11Z</time>
      </trkpt>
      <trkpt lat="45.78565" lon="6.26579">
        <ele>1003</ele>
        <time>2021-05-20T08:13:13Z</time>
      </trkpt>
      <trkpt lat="45.78568" lon="6.26576">
        <ele>1004</ele>
        <time>2021-05-20T08:13:15Z</time>
      </trkpt>
      <trkpt lat="45.78569" lon="6.26575">
        <ele>1004.6</ele>
        <time>2021-05-20T08:13:16Z</time>
      </trkpt>
      <trkpt lat="45.78571" lon="6.26574">
        <ele>1005.2</ele>
        <time>2021-05-20T08:13:18Z</time>
      </trkpt>
      <trkpt lat="45.78573" lon="6.26571">
        <ele>1005.6</ele>
        <time>2021-05-20T08:13:20Z</time>
      </trkpt>
      <trkpt lat="45.78578" lon="6.26566">
        <ele>1007.2</ele>
        <time>2021-05-20T08:13:23Z</time>
      </trkpt>
      <trkpt lat="45.78581" lon="6.26564">
        <ele>1008.4</ele>
        <time>2021-05-20T08:13:25Z</time>
      </trkpt>
      <trkpt lat="45.78583" lon="6.26563">
        <ele>1008.6</ele>
        <time>2021-05-20T08:13:26Z</time>
      </trkpt>
      <trkpt lat="45.78589" lon="6.26559">
        <ele>1009.6</ele>
        <time>2021-05-20T08:13:29Z</time>
      </trkpt>
      <trkpt lat="45.78592" lon="6.26558">
        <ele>1010</ele>
        <time>2021-05-20T08:13:31Z</time>
      </trkpt>
      <trkpt lat="45.78602" lon="6.26556">
        <ele>1010.8</ele>
        <time>2021-05-20T08:13:36Z</time>
      </trkpt>
      <trkpt lat="45.78606" lon="6.26555">
        <ele>1011.4</ele>
        <time>2021-05-20T08:13:38Z</time>
      </trkpt>
      <trkpt lat="45.7861" lon="6.26554">
        <ele>1011.8</ele>
        <time>2021-05-20T08:13:40Z</time>
      </trkpt>
      <trkpt lat="45.78614" lon="6.26553">
        <ele>1012.2</ele>
        <time>2021-05-20T08:13:42Z</time>
      </trkpt>
      <trkpt lat="45.78619" lon="6.26551">
        <ele>1013</ele>
        <time>2021-05-20T08:13:45Z</time>
      </trkpt>
      <trkpt lat="45.78621" lon="6.2655">
        <ele>1013.2</ele>
        <time>2021-05-20T08:13:46Z</time>
      </trkpt>
      <trkpt lat="45.78629" lon="6.26545">
        <ele>1013.8</ele>
        <time>2021-05-20T08:13:49Z</time>
      </trkpt>
      <trkpt lat="45.78633" lon="6.26544">
        <ele>1014.2</ele>
        <time>2021-05-20T08:13:50Z</time>
      </trkpt>
      <trkpt lat="45.78636" lon="6.26543">
        <ele>1014.2</ele>
        <time>2021-05-20T08:13:51Z</time>
      </trkpt>
      <trkpt lat="45.78652" lon="6.26544">
        <ele>1015.2</ele>
        <time>2021-05-20T08:13:56Z</time>
      </trkpt>
      <trkpt lat="45.78657" lon="6.26544">
        <ele>1016</ele>
        <time>2021-05-20T08:13:58Z</time>
      </trkpt>
      <trkpt lat="45.78659" lon="6.26543">
        <ele>1016.4</ele>
        <time>2021-05-20T08:13:59Z</time>
      </trkpt>
      <trkpt lat="45.78668" lon="6.2654">
        <ele>1017.4</ele>
        <time>2021-05-20T08:14:03Z</time>
      </trkpt>
      <trkpt lat="45.78671" lon="6.26539">
        <ele>1018.2</ele>
        <time>2021-05-20T08:14:04Z</time>
      </trkpt>
      <trkpt lat="45.78673" lon="6.26538">
        <ele>1018.6</ele>
        <time>2021-05-20T08:14:05Z</time>
      </trkpt>
      <trkpt lat="45.78678" lon="6.26535">
        <ele>1019.4</ele>
        <time>2021-05-20T08:14:07Z</time>
      </trkpt>
      <trkpt lat="45.7868" lon="6.26534">
        <ele>1020</ele>
        <time>2021-05-20T08:14:08Z</time>
      </trkpt>
      <trkpt lat="45.78685" lon="6.26532">
        <ele>1021</ele>
        <time>2021-05-20T08:14:10Z</time>
      </trkpt>
      <trkpt lat="45.78688" lon="6.26531">
        <ele>1021.2</ele>
        <time>2021-05-20T08:14:11Z</time>
      </trkpt>
      <trkpt lat="45.78695" lon="6.26529">
        <ele>1022.6</ele>
        <time>2021-05-20T08:14:14Z</time>
      </trkpt>
      <trkpt lat="45.78702" lon="6.26527">
        <ele>1023.8</ele>
        <time>2021-05-20T08:14:17Z</time>
      </trkpt>
      <trkpt lat="45.78706" lon="6.26527">
        <ele>1024.4</ele>
        <time>2021-05-20T08:14:19Z</time>
      </trkpt>
      <trkpt lat="45.7871" lon="6.26526">
        <ele>1025.2</ele>
        <time>2021-05-20T08:14:21Z</time>
      </trkpt>
      <trkpt lat="45.78717" lon="6.26525">
        <ele>1026.4</ele>
        <time>2021-05-20T08:14:24Z</time>
      </trkpt>
      <trkpt lat="45.78719" lon="6.26524">
        <ele>1027</ele>
        <time>2021-05-20T08:14:25Z</time>
      </trkpt>
      <trkpt lat="45.78722" lon="6.26524">
        <ele>1027.6</ele>
        <time>2021-05-20T08:14:26Z</time>
      </trkpt>
      <trkpt lat="45.78733" lon="6.26524">
        <ele>1028.8</ele>
        <time>2021-05-20T08:14:30Z</time>
      </trkpt>
      <trkpt lat="45.78736" lon="6.26524">
        <ele>1029.2</ele>
        <time>2021-05-20T08:14:31Z</time>
      </trkpt>
      <trkpt lat="45.78742" lon="6.26522">
        <ele>1030</ele>
        <time>2021-05-20T08:14:33Z</time>
      </trkpt>
      <trkpt lat="45.78748" lon="6.26522">
        <ele>1030.4</ele>
        <time>2021-05-20T08:14:35Z</time>
      </trkpt>
      <trkpt lat="45.78754" lon="6.26521">
        <ele>1031</ele>
        <time>2021-05-20T08:14:37Z</time>
      </trkpt>
      <trkpt lat="45.78766" lon="6.26518">
        <ele>1032</ele>
        <time>2021-05-20T08:14:41Z</time>
      </trkpt>
      <trkpt lat="45.78773" lon="6.26515">
        <ele>1032.6</ele>
        <time>2021-05-20T08:14:43Z</time>
      </trkpt>
      <trkpt lat="45.78776" lon="6.26515">
        <ele>1033</ele>
        <time>2021-05-20T08:14:44Z</time>
      </trkpt>
      <trkpt lat="45.78787" lon="6.26515">
        <ele>1034.2</ele>
        <time>2021-05-20T08:14:47Z</time>
      </trkpt>
      <trkpt lat="45.78793" lon="6.26515">
        <ele>1034.8</ele>
        <time>2021-05-20T08:14:49Z</time>
      </trkpt>
      <trkpt lat="45.788" lon="6.26516">
        <ele>1035.2</ele>
        <time>2021-05-20T08:14:51Z</time>
      </trkpt>
      <trkpt lat="45.78803" lon="6.26516">
        <ele>1035.6</ele>
        <time>2021-05-20T08:14:52Z</time>
      </trkpt>
      <trkpt lat="45.78807" lon="6.26517">
        <ele>1036.4</ele>
        <time>2021-05-20T08:14:53Z</time>
      </trkpt>
      <trkpt lat="45.78818" lon="6.26518">
        <ele>1037.4</ele>
        <time>2021-05-20T08:14:56Z</time>
      </trkpt>
      <trkpt lat="45.78821" lon="6.26518">
        <ele>1037.4</ele>
        <time>2021-05-20T08:14:57Z</time>
      </trkpt>
      <trkpt lat="45.78829" lon="6.26518">
        <ele>1038.4</ele>
        <time>2021-05-20T08:15:00Z</time>
      </trkpt>
      <trkpt lat="45.78832" lon="6.2652">
        <ele>1038.6</ele>
        <time>2021-05-20T08:15:01Z</time>
      </trkpt>
      <trkpt lat="45.78835" lon="6.26527">
        <ele>1039.6</ele>
        <time>2021-05-20T08:15:03Z</time>
      </trkpt>
      <trkpt lat="45.78834" lon="6.26529">
        <ele>1039.8</ele>
        <time>2021-05-20T08:15:04Z</time>
      </trkpt>
      <trkpt lat="45.78827" lon="6.26532">
        <ele>1040</ele>
        <time>2021-05-20T08:15:07Z</time>
      </trkpt>
      <trkpt lat="45.78825" lon="6.26533">
        <ele>1040</ele>
        <time>2021-05-20T08:15:08Z</time>
      </trkpt>
      <trkpt lat="45.78819" lon="6.26539">
        <ele>1041</ele>
        <time>2021-05-20T08:15:11Z</time>
      </trkpt>
      <trkpt lat="45.78813" lon="6.2655">
        <ele>1041.6</ele>
        <time>2021-05-20T08:15:15Z</time>
      </trkpt>
      <trkpt lat="45.78812" lon="6.26553">
        <ele>1042.2</ele>
        <time>2021-05-20T08:15:16Z</time>
      </trkpt>
      <trkpt lat="45.78809" lon="6.2656">
        <ele>1042.8</ele>
        <time>2021-05-20T08:15:18Z</time>
      </trkpt>
      <trkpt lat="45.788" lon="6.26581">
        <ele>1043</ele>
        <time>2021-05-20T08:15:24Z</time>
      </trkpt>
      <trkpt lat="45.78797" lon="6.26594">
        <ele>1043.2</ele>
        <time>2021-05-20T08:15:27Z</time>
      </trkpt>
      <trkpt lat="45.78792" lon="6.26605">
        <ele>1043.2</ele>
        <time>2021-05-20T08:15:29Z</time>
      </trkpt>
      <trkpt lat="45.78785" lon="6.26622">
        <ele>1043.2</ele>
        <time>2021-05-20T08:15:32Z</time>
      </trkpt>
      <trkpt lat="45.78779" lon="6.26636">
        <ele>1043.2</ele>
        <time>2021-05-20T08:15:35Z</time>
      </trkpt>
      <trkpt lat="45.78769" lon="6.26658">
        <ele>1043.6</ele>
        <time>2021-05-20T08:15:41Z</time>
      </trkpt>
      <trkpt lat="45.78765" lon="6.26669">
        <ele>1044.4</ele>
        <time>2021-05-20T08:15:44Z</time>
      </trkpt>
      <trkpt lat="45.78761" lon="6.26678">
        <ele>1044.6</ele>
        <time>2021-05-20T08:15:46Z</time>
      </trkpt>
      <trkpt lat="45.78754" lon="6.26694">
        <ele>1044.4</ele>
        <time>2021-05-20T08:15:50Z</time>
      </trkpt>
      <trkpt lat="45.78752" lon="6.26697">
        <ele>1044.8</ele>
        <time>2021-05-20T08:15:51Z</time>
      </trkpt>
      <trkpt lat="45.78749" lon="6.26703">
        <ele>1045.2</ele>
        <time>2021-05-20T08:15:53Z</time>
      </trkpt>
      <trkpt lat="45.78745" lon="6.26714">
        <ele>1045.8</ele>
        <time>2021-05-20T08:15:56Z</time>
      </trkpt>
      <trkpt lat="45.7874" lon="6.2672">
        <ele>1047.2</ele>
        <time>2021-05-20T08:15:58Z</time>
      </trkpt>
      <trkpt lat="45.78726" lon="6.2674">
        <ele>1048.2</ele>
        <time>2021-05-20T08:16:04Z</time>
      </trkpt>
      <trkpt lat="45.78723" lon="6.26742">
        <ele>1048.4</ele>
        <time>2021-05-20T08:16:05Z</time>
      </trkpt>
      <trkpt lat="45.78715" lon="6.26753">
        <ele>1049</ele>
        <time>2021-05-20T08:16:09Z</time>
      </trkpt>
      <trkpt lat="45.7871" lon="6.2676">
        <ele>1049.4</ele>
        <time>2021-05-20T08:16:11Z</time>
      </trkpt>
      <trkpt lat="45.78703" lon="6.26774">
        <ele>1050</ele>
        <time>2021-05-20T08:16:15Z</time>
      </trkpt>
      <trkpt lat="45.7869" lon="6.26794">
        <ele>1050.4</ele>
        <time>2021-05-20T08:16:20Z</time>
      </trkpt>
      <trkpt lat="45.78686" lon="6.26802">
        <ele>1050.6</ele>
        <time>2021-05-20T08:16:22Z</time>
      </trkpt>
      <trkpt lat="45.78673" lon="6.2682">
        <ele>1051.4</ele>
        <time>2021-05-20T08:16:27Z</time>
      </trkpt>
      <trkpt lat="45.78668" lon="6.26826">
        <ele>1051.6</ele>
        <time>2021-05-20T08:16:29Z</time>
      </trkpt>
      <trkpt lat="45.78648" lon="6.26851">
        <ele>1051.8</ele>
        <time>2021-05-20T08:16:36Z</time>
      </trkpt>
      <trkpt lat="45.78642" lon="6.26858">
        <ele>1053.6</ele>
        <time>2021-05-20T08:16:38Z</time>
      </trkpt>
      <trkpt lat="45.78638" lon="6.26864">
        <ele>1055</ele>
        <time>2021-05-20T08:16:40Z</time>
      </trkpt>
      <trkpt lat="45.78632" lon="6.26871">
        <ele>1055.4</ele>
        <time>2021-05-20T08:16:42Z</time>
      </trkpt>
      <trkpt lat="45.78627" lon="6.26878">
        <ele>1055.8</ele>
        <time>2021-05-20T08:16:44Z</time>
      </trkpt>
      <trkpt lat="45.78624" lon="6.26881">
        <ele>1056.2</ele>
        <time>2021-05-20T08:16:45Z</time>
      </trkpt>
      <trkpt lat="45.78621" lon="6.26885">
        <ele>1056.4</ele>
        <time>2021-05-20T08:16:46Z</time>
      </trkpt>
      <trkpt lat="45.78619" lon="6.26889">
        <ele>1056.6</ele>
        <time>2021-05-20T08:16:47Z</time>
      </trkpt>
      <trkpt lat="45.78613" lon="6.26896">
        <ele>1055.4</ele>
        <time>2021-05-20T08:16:49Z</time>
      </trkpt>
      <trkpt lat="45.78591" lon="6.26917">
        <ele>1057.4</ele>
        <time>2021-05-20T08:16:56Z</time>
      </trkpt>
      <trkpt lat="45.78585" lon="6.26922">
        <ele>1057</ele>
        <time>2021-05-20T08:16:58Z</time>
      </trkpt>
      <trkpt lat="45.78579" lon="6.26926">
        <ele>1057.8</ele>
        <time>2021-05-20T08:17:00Z</time>
      </trkpt>
      <trkpt lat="45.78573" lon="6.2693">
        <ele>1059.4</ele>
        <time>2021-05-20T08:17:02Z</time>
      </trkpt>
      <trkpt lat="45.78571" lon="6.26934">
        <ele>1059.8</ele>
        <time>2021-05-20T08:17:03Z</time>
      </trkpt>
      <trkpt lat="45.78569" lon="6.26937">
        <ele>1060.4</ele>
        <time>2021-05-20T08:17:04Z</time>
      </trkpt>
      <trkpt lat="45.78565" lon="6.26946">
        <ele>1061.8</ele>
        <time>2021-05-20T08:17:06Z</time>
      </trkpt>
      <trkpt lat="45.78559" lon="6.2696">
        <ele>1062.4</ele>
        <time>2021-05-20T08:17:09Z</time>
      </trkpt>
      <trkpt lat="45.7855" lon="6.2698">
        <ele>1062.6</ele>
        <time>2021-05-20T08:17:13Z</time>
      </trkpt>
      <trkpt lat="45.78542" lon="6.26993">
        <ele>1063</ele>
        <time>2021-05-20T08:17:16Z</time>
      </trkpt>
      <trkpt lat="45.7854" lon="6.26997">
        <ele>1063.2</ele>
        <time>2021-05-20T08:17:17Z</time>
      </trkpt>
      <trkpt lat="45.78532" lon="6.27012">
        <ele>1064.4</ele>
        <time>2021-05-20T08:17:21Z</time>
      </trkpt>
      <trkpt lat="45.78528" lon="6.27021">
        <ele>1065.6</ele>
        <time>2021-05-20T08:17:23Z</time>
      </trkpt>
      <trkpt lat="45.78519" lon="6.2704">
        <ele>1066.6</ele>
        <time>2021-05-20T08:17:28Z</time>
      </trkpt>
      <trkpt lat="45.78515" lon="6.27046">
        <ele>1066.6</ele>
        <time>2021-05-20T08:17:30Z</time>
      </trkpt>
      <trkpt lat="45.78513" lon="6.27049">
        <ele>1066.8</ele>
        <time>2021-05-20T08:17:31Z</time>
      </trkpt>
      <trkpt lat="45.78511" lon="6.27052">
        <ele>1068</ele>
        <time>2021-05-20T08:17:32Z</time>
      </trkpt>
      <trkpt lat="45.78509" lon="6.27057">
        <ele>1069.8</ele>
        <time>2021-05-20T08:17:34Z</time>
      </trkpt>
      <trkpt lat="45.78506" lon="6.27063">
        <ele>1070.8</ele>
        <time>2021-05-20T08:17:36Z</time>
      </trkpt>
      <trkpt lat="45.78505" lon="6.27065">
        <ele>1071</ele>
        <time>2021-05-20T08:17:37Z</time>
      </trkpt>
      <trkpt lat="45.78503" lon="6.27068">
        <ele>1071.4</ele>
        <time>2021-05-20T08:17:38Z</time>
      </trkpt>
      <trkpt lat="45.78501" lon="6.27073">
        <ele>1072.2</ele>
        <time>2021-05-20T08:17:40Z</time>
      </trkpt>
      <trkpt lat="45.78497" lon="6.27078">
        <ele>1073.2</ele>
        <time>2021-05-20T08:17:42Z</time>
      </trkpt>
      <trkpt lat="45.78494" lon="6.27084">
        <ele>1074</ele>
        <time>2021-05-20T08:17:44Z</time>
      </trkpt>
      <trkpt lat="45.7849" lon="6.2709">
        <ele>1074.4</ele>
        <time>2021-05-20T08:17:46Z</time>
      </trkpt>
      <trkpt lat="45.78487" lon="6.27095">
        <ele>1074.4</ele>
        <time>2021-05-20T08:17:48Z</time>
      </trkpt>
      <trkpt lat="45.78484" lon="6.27101">
        <ele>1076</ele>
        <time>2021-05-20T08:17:50Z</time>
      </trkpt>
      <trkpt lat="45.78482" lon="6.27104">
        <ele>1077.2</ele>
        <time>2021-05-20T08:17:51Z</time>
      </trkpt>
      <trkpt lat="45.78479" lon="6.2711">
        <ele>1078</ele>
        <time>2021-05-20T08:17:53Z</time>
      </trkpt>
      <trkpt lat="45.78477" lon="6.27113">
        <ele>1078.2</ele>
        <time>2021-05-20T08:17:54Z</time>
      </trkpt>
      <trkpt lat="45.7847" lon="6.27128">
        <ele>1079.6</ele>
        <time>2021-05-20T08:17:59Z</time>
      </trkpt>
      <trkpt lat="45.78468" lon="6.27133">
        <ele>1080.2</ele>
        <time>2021-05-20T08:18:01Z</time>
      </trkpt>
      <trkpt lat="45.78466" lon="6.27135">
        <ele>1080.6</ele>
        <time>2021-05-20T08:18:02Z</time>
      </trkpt>
      <trkpt lat="45.78464" lon="6.2714">
        <ele>1082.2</ele>
        <time>2021-05-20T08:18:04Z</time>
      </trkpt>
      <trkpt lat="45.78462" lon="6.27142">
        <ele>1082.6</ele>
        <time>2021-05-20T08:18:05Z</time>
      </trkpt>
      <trkpt lat="45.78461" lon="6.27146">
        <ele>1082.8</ele>
        <time>2021-05-20T08:18:06Z</time>
      </trkpt>
      <trkpt lat="45.78459" lon="6.27149">
        <ele>1082.8</ele>
        <time>2021-05-20T08:18:07Z</time>
      </trkpt>
      <trkpt lat="45.78457" lon="6.27152">
        <ele>1082.8</ele>
        <time>2021-05-20T08:18:08Z</time>
      </trkpt>
      <trkpt lat="45.78455" lon="6.27155">
        <ele>1082.8</ele>
        <time>2021-05-20T08:18:09Z</time>
      </trkpt>
      <trkpt lat="45.78448" lon="6.27163">
        <ele>1082.8</ele>
        <time>2021-05-20T08:18:12Z</time>
      </trkpt>
      <trkpt lat="45.78444" lon="6.27168">
        <ele>1083.6</ele>
        <time>2021-05-20T08:18:14Z</time>
      </trkpt>
      <trkpt lat="45.78441" lon="6.27175">
        <ele>1084.8</ele>
        <time>2021-05-20T08:18:16Z</time>
      </trkpt>
      <trkpt lat="45.78437" lon="6.27186">
        <ele>1085.8</ele>
        <time>2021-05-20T08:18:19Z</time>
      </trkpt>
      <trkpt lat="45.78434" lon="6.27193">
        <ele>1087.6</ele>
        <time>2021-05-20T08:18:21Z</time>
      </trkpt>
      <trkpt lat="45.78431" lon="6.27199">
        <ele>1088.8</ele>
        <time>2021-05-20T08:18:23Z</time>
      </trkpt>
      <trkpt lat="45.78427" lon="6.27207">
        <ele>1090</ele>
        <time>2021-05-20T08:18:26Z</time>
      </trkpt>
      <trkpt lat="45.78426" lon="6.2721">
        <ele>1091</ele>
        <time>2021-05-20T08:18:27Z</time>
      </trkpt>
      <trkpt lat="45.78423" lon="6.27216">
        <ele>1092.2</ele>
        <time>2021-05-20T08:18:29Z</time>
      </trkpt>
      <trkpt lat="45.78418" lon="6.27228">
        <ele>1093.4</ele>
        <time>2021-05-20T08:18:34Z</time>
      </trkpt>
      <trkpt lat="45.78407" lon="6.27245">
        <ele>1094.4</ele>
        <time>2021-05-20T08:18:40Z</time>
      </trkpt>
      <trkpt lat="45.78406" lon="6.27249">
        <ele>1095</ele>
        <time>2021-05-20T08:18:41Z</time>
      </trkpt>
      <trkpt lat="45.78404" lon="6.27252">
        <ele>1095.4</ele>
        <time>2021-05-20T08:18:42Z</time>
      </trkpt>
      <trkpt lat="45.78401" lon="6.27268">
        <ele>1096.8</ele>
        <time>2021-05-20T08:18:46Z</time>
      </trkpt>
      <trkpt lat="45.78401" lon="6.27271">
        <ele>1097.4</ele>
        <time>2021-05-20T08:18:47Z</time>
      </trkpt>
      <trkpt lat="45.78401" lon="6.27274">
        <ele>1097.8</ele>
        <time>2021-05-20T08:18:48Z</time>
      </trkpt>
      <trkpt lat="45.78402" lon="6.27281">
        <ele>1098.2</ele>
        <time>2021-05-20T08:18:51Z</time>
      </trkpt>
      <trkpt lat="45.78402" lon="6.27291">
        <ele>1098.2</ele>
        <time>2021-05-20T08:18:54Z</time>
      </trkpt>
      <trkpt lat="45.78401" lon="6.27295">
        <ele>1098.4</ele>
        <time>2021-05-20T08:18:55Z</time>
      </trkpt>
      <trkpt lat="45.78401" lon="6.27298">
        <ele>1099</ele>
        <time>2021-05-20T08:18:56Z</time>
      </trkpt>
      <trkpt lat="45.784" lon="6.27306">
        <ele>1100</ele>
        <time>2021-05-20T08:18:58Z</time>
      </trkpt>
      <trkpt lat="45.78397" lon="6.27314">
        <ele>1100</ele>
        <time>2021-05-20T08:19:01Z</time>
      </trkpt>
      <trkpt lat="45.78396" lon="6.27321">
        <ele>1099.8</ele>
        <time>2021-05-20T08:19:04Z</time>
      </trkpt>
      <trkpt lat="45.78394" lon="6.27326">
        <ele>1100.2</ele>
        <time>2021-05-20T08:19:06Z</time>
      </trkpt>
      <trkpt lat="45.78385" lon="6.27341">
        <ele>1100.8</ele>
        <time>2021-05-20T08:19:12Z</time>
      </trkpt>
      <trkpt lat="45.78383" lon="6.27342">
        <ele>1101</ele>
        <time>2021-05-20T08:19:13Z</time>
      </trkpt>
      <trkpt lat="45.78376" lon="6.27346">
        <ele>1101.6</ele>
        <time>2021-05-20T08:19:17Z</time>
      </trkpt>
      <trkpt lat="45.78372" lon="6.27348">
        <ele>1101.6</ele>
        <time>2021-05-20T08:19:20Z</time>
      </trkpt>
      <trkpt lat="45.78369" lon="6.27349">
        <ele>1101.6</ele>
        <time>2021-05-20T08:19:23Z</time>
      </trkpt>
      <trkpt lat="45.78361" lon="6.2735">
        <ele>1102</ele>
        <time>2021-05-20T08:19:26Z</time>
      </trkpt>
      <trkpt lat="45.78353" lon="6.27349">
        <ele>1102.8</ele>
        <time>2021-05-20T08:19:29Z</time>
      </trkpt>
      <trkpt lat="45.78351" lon="6.27348">
        <ele>1103.2</ele>
        <time>2021-05-20T08:19:30Z</time>
      </trkpt>
      <trkpt lat="45.78337" lon="6.27335">
        <ele>1104.8</ele>
        <time>2021-05-20T08:19:35Z</time>
      </trkpt>
      <trkpt lat="45.78335" lon="6.27334">
        <ele>1105.4</ele>
        <time>2021-05-20T08:19:36Z</time>
      </trkpt>
      <trkpt lat="45.78332" lon="6.27334">
        <ele>1106</ele>
        <time>2021-05-20T08:19:37Z</time>
      </trkpt>
      <trkpt lat="45.78331" lon="6.27334">
        <ele>1106.4</ele>
        <time>2021-05-20T08:19:38Z</time>
      </trkpt>
      <trkpt lat="45.78323" lon="6.27341">
        <ele>1107.2</ele>
        <time>2021-05-20T08:19:43Z</time>
      </trkpt>
      <trkpt lat="45.78314" lon="6.27355">
        <ele>1107.4</ele>
        <time>2021-05-20T08:19:48Z</time>
      </trkpt>
      <trkpt lat="45.78307" lon="6.27364">
        <ele>1107</ele>
        <time>2021-05-20T08:19:50Z</time>
      </trkpt>
      <trkpt lat="45.783" lon="6.27373">
        <ele>1106.8</ele>
        <time>2021-05-20T08:19:52Z</time>
      </trkpt>
      <trkpt lat="45.78297" lon="6.27376">
        <ele>1106.8</ele>
        <time>2021-05-20T08:19:53Z</time>
      </trkpt>
      <trkpt lat="45.78293" lon="6.27383">
        <ele>1108.4</ele>
        <time>2021-05-20T08:19:56Z</time>
      </trkpt>
      <trkpt lat="45.78288" lon="6.27398">
        <ele>1109.2</ele>
        <time>2021-05-20T08:20:01Z</time>
      </trkpt>
      <trkpt lat="45.78286" lon="6.274">
        <ele>1109.4</ele>
        <time>2021-05-20T08:20:02Z</time>
      </trkpt>
      <trkpt lat="45.78274" lon="6.27411">
        <ele>1109.6</ele>
        <time>2021-05-20T08:20:06Z</time>
      </trkpt>
      <trkpt lat="45.78272" lon="6.27413">
        <ele>1109.8</ele>
        <time>2021-05-20T08:20:07Z</time>
      </trkpt>
      <trkpt lat="45.78269" lon="6.27414">
        <ele>1109.6</ele>
        <time>2021-05-20T08:20:08Z</time>
      </trkpt>
      <trkpt lat="45.78264" lon="6.27418">
        <ele>1109.4</ele>
        <time>2021-05-20T08:20:10Z</time>
      </trkpt>
      <trkpt lat="45.78263" lon="6.27419">
        <ele>1109.6</ele>
        <time>2021-05-20T08:20:11Z</time>
      </trkpt>
      <trkpt lat="45.7826" lon="6.27421">
        <ele>1110.6</ele>
        <time>2021-05-20T08:20:13Z</time>
      </trkpt>
      <trkpt lat="45.78259" lon="6.27422">
        <ele>1110.8</ele>
        <time>2021-05-20T08:20:14Z</time>
      </trkpt>
      <trkpt lat="45.78255" lon="6.27423">
        <ele>1111.6</ele>
        <time>2021-05-20T08:20:17Z</time>
      </trkpt>
      <trkpt lat="45.78252" lon="6.27425">
        <ele>1111.6</ele>
        <time>2021-05-20T08:20:19Z</time>
      </trkpt>
      <trkpt lat="45.78251" lon="6.27425">
        <ele>1111.8</ele>
        <time>2021-05-20T08:20:21Z</time>
      </trkpt>
      <trkpt lat="45.78247" lon="6.27426">
        <ele>1111.4</ele>
        <time>2021-05-20T08:20:25Z</time>
      </trkpt>
      <trkpt lat="45.78246" lon="6.27428">
        <ele>1111.6</ele>
        <time>2021-05-20T08:20:27Z</time>
      </trkpt>
      <trkpt lat="45.78243" lon="6.27433">
        <ele>1111.2</ele>
        <time>2021-05-20T08:20:31Z</time>
      </trkpt>
      <trkpt lat="45.78241" lon="6.27437">
        <ele>1111</ele>
        <time>2021-05-20T08:20:33Z</time>
      </trkpt>
      <trkpt lat="45.78239" lon="6.27438">
        <ele>1111</ele>
        <time>2021-05-20T08:20:35Z</time>
      </trkpt>
      <trkpt lat="45.78238" lon="6.2744">
        <ele>1111</ele>
        <time>2021-05-20T08:20:36Z</time>
      </trkpt>
      <trkpt lat="45.78237" lon="6.27442">
        <ele>1111</ele>
        <time>2021-05-20T08:20:38Z</time>
      </trkpt>
      <trkpt lat="45.78235" lon="6.27443">
        <ele>1111.2</ele>
        <time>2021-05-20T08:20:41Z</time>
      </trkpt>
      <trkpt lat="45.78231" lon="6.27445">
        <ele>1111.2</ele>
        <time>2021-05-20T08:20:43Z</time>
      </trkpt>
      <trkpt lat="45.78227" lon="6.27444">
        <ele>1111</ele>
        <time>2021-05-20T08:20:45Z</time>
      </trkpt>
      <trkpt lat="45.7822" lon="6.27441">
        <ele>1111</ele>
        <time>2021-05-20T08:20:50Z</time>
      </trkpt>
      <trkpt lat="45.78215" lon="6.27441">
        <ele>1111</ele>
        <time>2021-05-20T08:20:52Z</time>
      </trkpt>
      <trkpt lat="45.78212" lon="6.27442">
        <ele>1111</ele>
        <time>2021-05-20T08:20:53Z</time>
      </trkpt>
      <trkpt lat="45.78207" lon="6.27447">
        <ele>1110.4</ele>
        <time>2021-05-20T08:20:55Z</time>
      </trkpt>
      <trkpt lat="45.78205" lon="6.27453">
        <ele>1109.8</ele>
        <time>2021-05-20T08:20:57Z</time>
      </trkpt>
      <trkpt lat="45.78204" lon="6.27457">
        <ele>1109.6</ele>
        <time>2021-05-20T08:20:58Z</time>
      </trkpt>
      <trkpt lat="45.78204" lon="6.27467">
        <ele>1109.4</ele>
        <time>2021-05-20T08:21:00Z</time>
      </trkpt>
      <trkpt lat="45.78206" lon="6.27476">
        <ele>1109.2</ele>
        <time>2021-05-20T08:21:02Z</time>
      </trkpt>
      <trkpt lat="45.78208" lon="6.27489">
        <ele>1107.6</ele>
        <time>2021-05-20T08:21:05Z</time>
      </trkpt>
      <trkpt lat="45.78208" lon="6.275">
        <ele>1107.2</ele>
        <time>2021-05-20T08:21:07Z</time>
      </trkpt>
      <trkpt lat="45.78206" lon="6.27522">
        <ele>1106.4</ele>
        <time>2021-05-20T08:21:11Z</time>
      </trkpt>
      <trkpt lat="45.78204" lon="6.27527">
        <ele>1106.2</ele>
        <time>2021-05-20T08:21:12Z</time>
      </trkpt>
      <trkpt lat="45.78202" lon="6.27532">
        <ele>1106</ele>
        <time>2021-05-20T08:21:13Z</time>
      </trkpt>
      <trkpt lat="45.78199" lon="6.27537">
        <ele>1105.8</ele>
        <time>2021-05-20T08:21:14Z</time>
      </trkpt>
      <trkpt lat="45.78194" lon="6.27544">
        <ele>1105.4</ele>
        <time>2021-05-20T08:21:16Z</time>
      </trkpt>
      <trkpt lat="45.78188" lon="6.2755">
        <ele>1105.2</ele>
        <time>2021-05-20T08:21:18Z</time>
      </trkpt>
      <trkpt lat="45.78182" lon="6.27556">
        <ele>1105</ele>
        <time>2021-05-20T08:21:20Z</time>
      </trkpt>
      <trkpt lat="45.78178" lon="6.27559">
        <ele>1105</ele>
        <time>2021-05-20T08:21:21Z</time>
      </trkpt>
      <trkpt lat="45.78173" lon="6.27561">
        <ele>1104.8</ele>
        <time>2021-05-20T08:21:22Z</time>
      </trkpt>
      <trkpt lat="45.78167" lon="6.27563">
        <ele>1104.6</ele>
        <time>2021-05-20T08:21:23Z</time>
      </trkpt>
      <trkpt lat="45.78162" lon="6.27565">
        <ele>1103.8</ele>
        <time>2021-05-20T08:21:24Z</time>
      </trkpt>
      <trkpt lat="45.78153" lon="6.27565">
        <ele>1103</ele>
        <time>2021-05-20T08:21:26Z</time>
      </trkpt>
      <trkpt lat="45.78142" lon="6.27565">
        <ele>1102.4</ele>
        <time>2021-05-20T08:21:29Z</time>
      </trkpt>
      <trkpt lat="45.78137" lon="6.27566">
        <ele>1102</ele>
        <time>2021-05-20T08:21:31Z</time>
      </trkpt>
      <trkpt lat="45.78124" lon="6.27571">
        <ele>1101.8</ele>
        <time>2021-05-20T08:21:36Z</time>
      </trkpt>
      <trkpt lat="45.78111" lon="6.2757">
        <ele>1102.2</ele>
        <time>2021-05-20T08:21:41Z</time>
      </trkpt>
      <trkpt lat="45.78108" lon="6.27572">
        <ele>1102.2</ele>
        <time>2021-05-20T08:21:42Z</time>
      </trkpt>
      <trkpt lat="45.78089" lon="6.27571">
        <ele>1101.6</ele>
        <time>2021-05-20T08:21:47Z</time>
      </trkpt>
      <trkpt lat="45.78081" lon="6.27568">
        <ele>1101.2</ele>
        <time>2021-05-20T08:21:49Z</time>
      </trkpt>
      <trkpt lat="45.7807" lon="6.27567">
        <ele>1101.4</ele>
        <time>2021-05-20T08:21:53Z</time>
      </trkpt>
      <trkpt lat="45.78059" lon="6.27577">
        <ele>1101.4</ele>
        <time>2021-05-20T08:21:58Z</time>
      </trkpt>
      <trkpt lat="45.78044" lon="6.27588">
        <ele>1101</ele>
        <time>2021-05-20T08:22:03Z</time>
      </trkpt>
      <trkpt lat="45.78037" lon="6.2759">
        <ele>1101.4</ele>
        <time>2021-05-20T08:22:05Z</time>
      </trkpt>
      <trkpt lat="45.78029" lon="6.27585">
        <ele>1102.2</ele>
        <time>2021-05-20T08:22:08Z</time>
      </trkpt>
      <trkpt lat="45.78025" lon="6.27577">
        <ele>1102.4</ele>
        <time>2021-05-20T08:22:09Z</time>
      </trkpt>
      <trkpt lat="45.78012" lon="6.27557">
        <ele>1103</ele>
        <time>2021-05-20T08:22:13Z</time>
      </trkpt>
      <trkpt lat="45.78009" lon="6.27554">
        <ele>1103.4</ele>
        <time>2021-05-20T08:22:14Z</time>
      </trkpt>
      <trkpt lat="45.78005" lon="6.27553">
        <ele>1103.4</ele>
        <time>2021-05-20T08:22:15Z</time>
      </trkpt>
      <trkpt lat="45.77999" lon="6.27546">
        <ele>1104.8</ele>
        <time>2021-05-20T08:22:17Z</time>
      </trkpt>
      <trkpt lat="45.77991" lon="6.27546">
        <ele>1105.8</ele>
        <time>2021-05-20T08:22:20Z</time>
      </trkpt>
      <trkpt lat="45.77987" lon="6.2755">
        <ele>1106.4</ele>
        <time>2021-05-20T08:22:22Z</time>
      </trkpt>
      <trkpt lat="45.77984" lon="6.27555">
        <ele>1105.8</ele>
        <time>2021-05-20T08:22:24Z</time>
      </trkpt>
      <trkpt lat="45.77984" lon="6.27563">
        <ele>1105.2</ele>
        <time>2021-05-20T08:22:27Z</time>
      </trkpt>
      <trkpt lat="45.77986" lon="6.27573">
        <ele>1106.8</ele>
        <time>2021-05-20T08:22:30Z</time>
      </trkpt>
      <trkpt lat="45.77989" lon="6.2759">
        <ele>1107.6</ele>
        <time>2021-05-20T08:22:35Z</time>
      </trkpt>
      <trkpt lat="45.77989" lon="6.27597">
        <ele>1108.2</ele>
        <time>2021-05-20T08:22:37Z</time>
      </trkpt>
      <trkpt lat="45.77988" lon="6.27604">
        <ele>1109.4</ele>
        <time>2021-05-20T08:22:40Z</time>
      </trkpt>
      <trkpt lat="45.77987" lon="6.27605">
        <ele>1109.8</ele>
        <time>2021-05-20T08:22:41Z</time>
      </trkpt>
      <trkpt lat="45.77986" lon="6.2761">
        <ele>1110.4</ele>
        <time>2021-05-20T08:22:43Z</time>
      </trkpt>
      <trkpt lat="45.77982" lon="6.27621">
        <ele>1111.4</ele>
        <time>2021-05-20T08:22:46Z</time>
      </trkpt>
      <trkpt lat="45.7798" lon="6.27625">
        <ele>1112.4</ele>
        <time>2021-05-20T08:22:47Z</time>
      </trkpt>
      <trkpt lat="45.77975" lon="6.27633">
        <ele>1113.6</ele>
        <time>2021-05-20T08:22:49Z</time>
      </trkpt>
      <trkpt lat="45.77973" lon="6.27638">
        <ele>1113.8</ele>
        <time>2021-05-20T08:22:50Z</time>
      </trkpt>
      <trkpt lat="45.7797" lon="6.27641">
        <ele>1113.8</ele>
        <time>2021-05-20T08:22:51Z</time>
      </trkpt>
      <trkpt lat="45.77966" lon="6.27652">
        <ele>1115</ele>
        <time>2021-05-20T08:22:54Z</time>
      </trkpt>
      <trkpt lat="45.77964" lon="6.27663">
        <ele>1115.8</ele>
        <time>2021-05-20T08:22:56Z</time>
      </trkpt>
      <trkpt lat="45.77963" lon="6.27669">
        <ele>1116</ele>
        <time>2021-05-20T08:22:57Z</time>
      </trkpt>
      <trkpt lat="45.77962" lon="6.27674">
        <ele>1116</ele>
        <time>2021-05-20T08:22:58Z</time>
      </trkpt>
      <trkpt lat="45.77959" lon="6.27683">
        <ele>1116.2</ele>
        <time>2021-05-20T08:23:00Z</time>
      </trkpt>
      <trkpt lat="45.77956" lon="6.2769">
        <ele>1117</ele>
        <time>2021-05-20T08:23:02Z</time>
      </trkpt>
      <trkpt lat="45.77952" lon="6.27695">
        <ele>1118</ele>
        <time>2021-05-20T08:23:04Z</time>
      </trkpt>
      <trkpt lat="45.77949" lon="6.27697">
        <ele>1118.4</ele>
        <time>2021-05-20T08:23:05Z</time>
      </trkpt>
      <trkpt lat="45.77946" lon="6.277">
        <ele>1118.6</ele>
        <time>2021-05-20T08:23:07Z</time>
      </trkpt>
      <trkpt lat="45.77944" lon="6.27702">
        <ele>1118.6</ele>
        <time>2021-05-20T08:23:09Z</time>
      </trkpt>
      <trkpt lat="45.77939" lon="6.27717">
        <ele>1118.6</ele>
        <time>2021-05-20T08:23:14Z</time>
      </trkpt>
      <trkpt lat="45.77937" lon="6.27731">
        <ele>1117.8</ele>
        <time>2021-05-20T08:23:18Z</time>
      </trkpt>
      <trkpt lat="45.77933" lon="6.27741">
        <ele>1117</ele>
        <time>2021-05-20T08:23:23Z</time>
      </trkpt>
      <trkpt lat="45.77931" lon="6.27741">
        <ele>1116.8</ele>
        <time>2021-05-20T08:23:24Z</time>
      </trkpt>
      <trkpt lat="45.7793" lon="6.27741">
        <ele>1116.8</ele>
        <time>2021-05-20T08:23:25Z</time>
      </trkpt>
      <trkpt lat="45.77923" lon="6.27743">
        <ele>1117.6</ele>
        <time>2021-05-20T08:23:29Z</time>
      </trkpt>
      <trkpt lat="45.77922" lon="6.27744">
        <ele>1117.8</ele>
        <time>2021-05-20T08:23:30Z</time>
      </trkpt>
      <trkpt lat="45.7792" lon="6.27744">
        <ele>1118</ele>
        <time>2021-05-20T08:23:31Z</time>
      </trkpt>
      <trkpt lat="45.77918" lon="6.27746">
        <ele>1118</ele>
        <time>2021-05-20T08:23:32Z</time>
      </trkpt>
      <trkpt lat="45.7791" lon="6.27752">
        <ele>1119.4</ele>
        <time>2021-05-20T08:23:36Z</time>
      </trkpt>
      <trkpt lat="45.77906" lon="6.27754">
        <ele>1120</ele>
        <time>2021-05-20T08:23:38Z</time>
      </trkpt>
      <trkpt lat="45.77899" lon="6.27754">
        <ele>1120.4</ele>
        <time>2021-05-20T08:23:41Z</time>
      </trkpt>
      <trkpt lat="45.77895" lon="6.27754">
        <ele>1121</ele>
        <time>2021-05-20T08:23:43Z</time>
      </trkpt>
      <trkpt lat="45.77891" lon="6.27754">
        <ele>1121.4</ele>
        <time>2021-05-20T08:23:45Z</time>
      </trkpt>
      <trkpt lat="45.77885" lon="6.27757">
        <ele>1122.8</ele>
        <time>2021-05-20T08:23:48Z</time>
      </trkpt>
      <trkpt lat="45.77878" lon="6.27763">
        <ele>1123.8</ele>
        <time>2021-05-20T08:23:52Z</time>
      </trkpt>
      <trkpt lat="45.77866" lon="6.27778">
        <ele>1123</ele>
        <time>2021-05-20T08:23:58Z</time>
      </trkpt>
      <trkpt lat="45.77857" lon="6.27767">
        <ele>1123</ele>
        <time>2021-05-20T08:24:01Z</time>
      </trkpt>
      <trkpt lat="45.77855" lon="6.27764">
        <ele>1123.4</ele>
        <time>2021-05-20T08:24:02Z</time>
      </trkpt>
      <trkpt lat="45.77849" lon="6.27757">
        <ele>1124.2</ele>
        <time>2021-05-20T08:24:04Z</time>
      </trkpt>
      <trkpt lat="45.77839" lon="6.27742">
        <ele>1125</ele>
        <time>2021-05-20T08:24:08Z</time>
      </trkpt>
      <trkpt lat="45.77836" lon="6.27739">
        <ele>1125.6</ele>
        <time>2021-05-20T08:24:09Z</time>
      </trkpt>
      <trkpt lat="45.77831" lon="6.27735">
        <ele>1126.8</ele>
        <time>2021-05-20T08:24:11Z</time>
      </trkpt>
      <trkpt lat="45.77827" lon="6.27732">
        <ele>1127.6</ele>
        <time>2021-05-20T08:24:13Z</time>
      </trkpt>
      <trkpt lat="45.77824" lon="6.27731">
        <ele>1128.4</ele>
        <time>2021-05-20T08:24:14Z</time>
      </trkpt>
      <trkpt lat="45.77822" lon="6.2773">
        <ele>1129</ele>
        <time>2021-05-20T08:24:15Z</time>
      </trkpt>
      <trkpt lat="45.77816" lon="6.27728">
        <ele>1128.8</ele>
        <time>2021-05-20T08:24:17Z</time>
      </trkpt>
      <trkpt lat="45.77806" lon="6.27725">
        <ele>1130</ele>
        <time>2021-05-20T08:24:21Z</time>
      </trkpt>
      <trkpt lat="45.77797" lon="6.27729">
        <ele>1131.8</ele>
        <time>2021-05-20T08:24:25Z</time>
      </trkpt>
      <trkpt lat="45.77796" lon="6.2773">
        <ele>1132.4</ele>
        <time>2021-05-20T08:24:26Z</time>
      </trkpt>
      <trkpt lat="45.77794" lon="6.27732">
        <ele>1133</ele>
        <time>2021-05-20T08:24:27Z</time>
      </trkpt>
      <trkpt lat="45.77784" lon="6.27741">
        <ele>1134</ele>
        <time>2021-05-20T08:24:32Z</time>
      </trkpt>
      <trkpt lat="45.77782" lon="6.27743">
        <ele>1134</ele>
        <time>2021-05-20T08:24:33Z</time>
      </trkpt>
      <trkpt lat="45.77776" lon="6.27742">
        <ele>1134.4</ele>
        <time>2021-05-20T08:24:36Z</time>
      </trkpt>
      <trkpt lat="45.77774" lon="6.2774">
        <ele>1134.4</ele>
        <time>2021-05-20T08:24:37Z</time>
      </trkpt>
      <trkpt lat="45.77767" lon="6.27738">
        <ele>1135</ele>
        <time>2021-05-20T08:24:40Z</time>
      </trkpt>
      <trkpt lat="45.77759" lon="6.27738">
        <ele>1135.4</ele>
        <time>2021-05-20T08:24:43Z</time>
      </trkpt>
      <trkpt lat="45.77753" lon="6.27742">
        <ele>1137.2</ele>
        <time>2021-05-20T08:24:45Z</time>
      </trkpt>
      <trkpt lat="45.7775" lon="6.27743">
        <ele>1138.6</ele>
        <time>2021-05-20T08:24:46Z</time>
      </trkpt>
      <trkpt lat="45.77746" lon="6.27745">
        <ele>1139.6</ele>
        <time>2021-05-20T08:24:48Z</time>
      </trkpt>
      <trkpt lat="45.77743" lon="6.27747">
        <ele>1139.8</ele>
        <time>2021-05-20T08:24:49Z</time>
      </trkpt>
      <trkpt lat="45.77727" lon="6.27748">
        <ele>1140.6</ele>
        <time>2021-05-20T08:24:56Z</time>
      </trkpt>
      <trkpt lat="45.77724" lon="6.27747">
        <ele>1140.8</ele>
        <time>2021-05-20T08:24:57Z</time>
      </trkpt>
      <trkpt lat="45.7772" lon="6.27745">
        <ele>1141.8</ele>
        <time>2021-05-20T08:24:59Z</time>
      </trkpt>
      <trkpt lat="45.77715" lon="6.27738">
        <ele>1142.2</ele>
        <time>2021-05-20T08:25:01Z</time>
      </trkpt>
      <trkpt lat="45.77713" lon="6.27736">
        <ele>1142.4</ele>
        <time>2021-05-20T08:25:02Z</time>
      </trkpt>
      <trkpt lat="45.77711" lon="6.27733">
        <ele>1142.4</ele>
        <time>2021-05-20T08:25:03Z</time>
      </trkpt>
      <trkpt lat="45.77708" lon="6.27729">
        <ele>1142.6</ele>
        <time>2021-05-20T08:25:04Z</time>
      </trkpt>
      <trkpt lat="45.77705" lon="6.27726">
        <ele>1143</ele>
        <time>2021-05-20T08:25:05Z</time>
      </trkpt>
      <trkpt lat="45.77702" lon="6.27723">
        <ele>1143.6</ele>
        <time>2021-05-20T08:25:06Z</time>
      </trkpt>
      <trkpt lat="45.77698" lon="6.27718">
        <ele>1144.2</ele>
        <time>2021-05-20T08:25:08Z</time>
      </trkpt>
      <trkpt lat="45.77695" lon="6.27716">
        <ele>1144.4</ele>
        <time>2021-05-20T08:25:09Z</time>
      </trkpt>
      <trkpt lat="45.77687" lon="6.27718">
        <ele>1145.4</ele>
        <time>2021-05-20T08:25:12Z</time>
      </trkpt>
      <trkpt lat="45.77682" lon="6.2772">
        <ele>1145.8</ele>
        <time>2021-05-20T08:25:14Z</time>
      </trkpt>
      <trkpt lat="45.77665" lon="6.27727">
        <ele>1146.4</ele>
        <time>2021-05-20T08:25:20Z</time>
      </trkpt>
      <trkpt lat="45.7766" lon="6.27729">
        <ele>1146.8</ele>
        <time>2021-05-20T08:25:22Z</time>
      </trkpt>
      <trkpt lat="45.77653" lon="6.27731">
        <ele>1147.4</ele>
        <time>2021-05-20T08:25:25Z</time>
      </trkpt>
      <trkpt lat="45.77649" lon="6.2773">
        <ele>1147.8</ele>
        <time>2021-05-20T08:25:27Z</time>
      </trkpt>
      <trkpt lat="45.77647" lon="6.27731">
        <ele>1148.8</ele>
        <time>2021-05-20T08:25:28Z</time>
      </trkpt>
      <trkpt lat="45.77641" lon="6.27733">
        <ele>1150</ele>
        <time>2021-05-20T08:25:30Z</time>
      </trkpt>
      <trkpt lat="45.77631" lon="6.27729">
        <ele>1151</ele>
        <time>2021-05-20T08:25:33Z</time>
      </trkpt>
      <trkpt lat="45.77628" lon="6.27728">
        <ele>1151.2</ele>
        <time>2021-05-20T08:25:34Z</time>
      </trkpt>
      <trkpt lat="45.77624" lon="6.27727">
        <ele>1151.6</ele>
        <time>2021-05-20T08:25:36Z</time>
      </trkpt>
      <trkpt lat="45.77616" lon="6.27725">
        <ele>1151.8</ele>
        <time>2021-05-20T08:25:39Z</time>
      </trkpt>
      <trkpt lat="45.77614" lon="6.27723">
        <ele>1151.8</ele>
        <time>2021-05-20T08:25:40Z</time>
      </trkpt>
      <trkpt lat="45.77605" lon="6.27707">
        <ele>1152.2</ele>
        <time>2021-05-20T08:25:45Z</time>
      </trkpt>
      <trkpt lat="45.77602" lon="6.27701">
        <ele>1153.6</ele>
        <time>2021-05-20T08:25:47Z</time>
      </trkpt>
      <trkpt lat="45.77596" lon="6.27684">
        <ele>1154.6</ele>
        <time>2021-05-20T08:25:51Z</time>
      </trkpt>
      <trkpt lat="45.77595" lon="6.2768">
        <ele>1154.8</ele>
        <time>2021-05-20T08:25:52Z</time>
      </trkpt>
      <trkpt lat="45.77592" lon="6.27667">
        <ele>1156</ele>
        <time>2021-05-20T08:25:55Z</time>
      </trkpt>
      <trkpt lat="45.77591" lon="6.27658">
        <ele>1157.4</ele>
        <time>2021-05-20T08:25:57Z</time>
      </trkpt>
      <trkpt lat="45.77592" lon="6.27648">
        <ele>1158</ele>
        <time>2021-05-20T08:25:59Z</time>
      </trkpt>
      <trkpt lat="45.77591" lon="6.27638">
        <ele>1158.2</ele>
        <time>2021-05-20T08:26:01Z</time>
      </trkpt>
      <trkpt lat="45.77591" lon="6.27634">
        <ele>1158.4</ele>
        <time>2021-05-20T08:26:02Z</time>
      </trkpt>
      <trkpt lat="45.7759" lon="6.27625">
        <ele>1158.6</ele>
        <time>2021-05-20T08:26:04Z</time>
      </trkpt>
      <trkpt lat="45.77587" lon="6.27611">
        <ele>1158.8</ele>
        <time>2021-05-20T08:26:07Z</time>
      </trkpt>
      <trkpt lat="45.77586" lon="6.27599">
        <ele>1158.6</ele>
        <time>2021-05-20T08:26:10Z</time>
      </trkpt>
      <trkpt lat="45.77578" lon="6.27583">
        <ele>1158.2</ele>
        <time>2021-05-20T08:26:15Z</time>
      </trkpt>
      <trkpt lat="45.77572" lon="6.27571">
        <ele>1159</ele>
        <time>2021-05-20T08:26:20Z</time>
      </trkpt>
      <trkpt lat="45.7757" lon="6.27569">
        <ele>1159</ele>
        <time>2021-05-20T08:26:21Z</time>
      </trkpt>
      <trkpt lat="45.77563" lon="6.27563">
        <ele>1159</ele>
        <time>2021-05-20T08:26:26Z</time>
      </trkpt>
      <trkpt lat="45.77562" lon="6.27562">
        <ele>1159</ele>
        <time>2021-05-20T08:26:30Z</time>
      </trkpt>
      <trkpt lat="45.77542" lon="6.27546">
        <ele>1158.2</ele>
        <time>2021-05-20T08:28:42Z</time>
      </trkpt>
      <trkpt lat="45.7754" lon="6.27545">
        <ele>1158.2</ele>
        <time>2021-05-20T08:28:43Z</time>
      </trkpt>
      <trkpt lat="45.77538" lon="6.27544">
        <ele>1158.2</ele>
        <time>2021-05-20T08:28:44Z</time>
      </trkpt>
      <trkpt lat="45.77535" lon="6.27542">
        <ele>1158.2</ele>
        <time>2021-05-20T08:28:45Z</time>
      </trkpt>
      <trkpt lat="45.77533" lon="6.2754">
        <ele>1159.8</ele>
        <time>2021-05-20T08:28:46Z</time>
      </trkpt>
      <trkpt lat="45.7753" lon="6.27539">
        <ele>1160.6</ele>
        <time>2021-05-20T08:28:47Z</time>
      </trkpt>
      <trkpt lat="45.77528" lon="6.27538">
        <ele>1161</ele>
        <time>2021-05-20T08:28:48Z</time>
      </trkpt>
      <trkpt lat="45.77526" lon="6.27537">
        <ele>1161.4</ele>
        <time>2021-05-20T08:28:49Z</time>
      </trkpt>
      <trkpt lat="45.77522" lon="6.27536">
        <ele>1162.2</ele>
        <time>2021-05-20T08:28:51Z</time>
      </trkpt>
      <trkpt lat="45.77514" lon="6.27535">
        <ele>1162.4</ele>
        <time>2021-05-20T08:28:54Z</time>
      </trkpt>
      <trkpt lat="45.775" lon="6.27545">
        <ele>1163</ele>
        <time>2021-05-20T08:29:00Z</time>
      </trkpt>
      <trkpt lat="45.77498" lon="6.27547">
        <ele>1163.8</ele>
        <time>2021-05-20T08:29:01Z</time>
      </trkpt>
      <trkpt lat="45.77491" lon="6.27559">
        <ele>1164.6</ele>
        <time>2021-05-20T08:29:06Z</time>
      </trkpt>
      <trkpt lat="45.7749" lon="6.27561">
        <ele>1165</ele>
        <time>2021-05-20T08:29:07Z</time>
      </trkpt>
      <trkpt lat="45.77488" lon="6.27566">
        <ele>1166.6</ele>
        <time>2021-05-20T08:29:09Z</time>
      </trkpt>
      <trkpt lat="45.77487" lon="6.27569">
        <ele>1167.4</ele>
        <time>2021-05-20T08:29:10Z</time>
      </trkpt>
      <trkpt lat="45.77486" lon="6.27572">
        <ele>1167.8</ele>
        <time>2021-05-20T08:29:11Z</time>
      </trkpt>
      <trkpt lat="45.77485" lon="6.27575">
        <ele>1168</ele>
        <time>2021-05-20T08:29:12Z</time>
      </trkpt>
      <trkpt lat="45.77484" lon="6.2758">
        <ele>1168.8</ele>
        <time>2021-05-20T08:29:14Z</time>
      </trkpt>
      <trkpt lat="45.77483" lon="6.27583">
        <ele>1169</ele>
        <time>2021-05-20T08:29:15Z</time>
      </trkpt>
      <trkpt lat="45.77482" lon="6.27586">
        <ele>1169.4</ele>
        <time>2021-05-20T08:29:16Z</time>
      </trkpt>
      <trkpt lat="45.7748" lon="6.27592">
        <ele>1169.2</ele>
        <time>2021-05-20T08:29:18Z</time>
      </trkpt>
      <trkpt lat="45.77479" lon="6.27595">
        <ele>1169.8</ele>
        <time>2021-05-20T08:29:19Z</time>
      </trkpt>
      <trkpt lat="45.77477" lon="6.27598">
        <ele>1171</ele>
        <time>2021-05-20T08:29:20Z</time>
      </trkpt>
      <trkpt lat="45.77475" lon="6.27603">
        <ele>1172.2</ele>
        <time>2021-05-20T08:29:22Z</time>
      </trkpt>
      <trkpt lat="45.7747" lon="6.27612">
        <ele>1173.6</ele>
        <time>2021-05-20T08:29:25Z</time>
      </trkpt>
      <trkpt lat="45.7746" lon="6.27626">
        <ele>1174.8</ele>
        <time>2021-05-20T08:29:29Z</time>
      </trkpt>
      <trkpt lat="45.7745" lon="6.27634">
        <ele>1175.6</ele>
        <time>2021-05-20T08:29:33Z</time>
      </trkpt>
      <trkpt lat="45.77447" lon="6.27636">
        <ele>1176.2</ele>
        <time>2021-05-20T08:29:34Z</time>
      </trkpt>
      <trkpt lat="45.77443" lon="6.27637">
        <ele>1176.6</ele>
        <time>2021-05-20T08:29:35Z</time>
      </trkpt>
      <trkpt lat="45.77428" lon="6.27639">
        <ele>1177.6</ele>
        <time>2021-05-20T08:29:39Z</time>
      </trkpt>
      <trkpt lat="45.77425" lon="6.2764">
        <ele>1178</ele>
        <time>2021-05-20T08:29:40Z</time>
      </trkpt>
      <trkpt lat="45.77417" lon="6.27643">
        <ele>1179</ele>
        <time>2021-05-20T08:29:42Z</time>
      </trkpt>
      <trkpt lat="45.7741" lon="6.27646">
        <ele>1180</ele>
        <time>2021-05-20T08:29:45Z</time>
      </trkpt>
      <trkpt lat="45.77405" lon="6.27637">
        <ele>1181.4</ele>
        <time>2021-05-20T08:30:45Z</time>
      </trkpt>
      <trkpt lat="45.77404" lon="6.27638">
        <ele>1181.4</ele>
        <time>2021-05-20T08:30:46Z</time>
      </trkpt>
      <trkpt lat="45.77395" lon="6.27643">
        <ele>1181.6</ele>
        <time>2021-05-20T08:30:49Z</time>
      </trkpt>
      <trkpt lat="45.77383" lon="6.27651">
        <ele>1181.4</ele>
        <time>2021-05-20T08:30:54Z</time>
      </trkpt>
      <trkpt lat="45.77368" lon="6.27661">
        <ele>1181.8</ele>
        <time>2021-05-20T08:31:01Z</time>
      </trkpt>
      <trkpt lat="45.77366" lon="6.27663">
        <ele>1181.8</ele>
        <time>2021-05-20T08:31:02Z</time>
      </trkpt>
      <trkpt lat="45.77362" lon="6.27667">
        <ele>1182</ele>
        <time>2021-05-20T08:31:04Z</time>
      </trkpt>
      <trkpt lat="45.77357" lon="6.2767">
        <ele>1182</ele>
        <time>2021-05-20T08:31:06Z</time>
      </trkpt>
      <trkpt lat="45.77339" lon="6.2768">
        <ele>1181.6</ele>
        <time>2021-05-20T08:31:12Z</time>
      </trkpt>
      <trkpt lat="45.77331" lon="6.27683">
        <ele>1182.4</ele>
        <time>2021-05-20T08:31:14Z</time>
      </trkpt>
      <trkpt lat="45.77323" lon="6.27687">
        <ele>1183</ele>
        <time>2021-05-20T08:31:17Z</time>
      </trkpt>
      <trkpt lat="45.77321" lon="6.27688">
        <ele>1183.6</ele>
        <time>2021-05-20T08:31:18Z</time>
      </trkpt>
      <trkpt lat="45.77312" lon="6.27691">
        <ele>1184.4</ele>
        <time>2021-05-20T08:31:22Z</time>
      </trkpt>
      <trkpt lat="45.7731" lon="6.27692">
        <ele>1184.6</ele>
        <time>2021-05-20T08:31:23Z</time>
      </trkpt>
      <trkpt lat="45.77304" lon="6.27695">
        <ele>1185.6</ele>
        <time>2021-05-20T08:31:26Z</time>
      </trkpt>
      <trkpt lat="45.77303" lon="6.27696">
        <ele>1186</ele>
        <time>2021-05-20T08:31:27Z</time>
      </trkpt>
      <trkpt lat="45.773" lon="6.27696">
        <ele>1187.4</ele>
        <time>2021-05-20T08:31:29Z</time>
      </trkpt>
      <trkpt lat="45.77298" lon="6.27697">
        <ele>1187.8</ele>
        <time>2021-05-20T08:31:30Z</time>
      </trkpt>
      <trkpt lat="45.77293" lon="6.27698">
        <ele>1188.4</ele>
        <time>2021-05-20T08:31:33Z</time>
      </trkpt>
      <trkpt lat="45.77288" lon="6.27698">
        <ele>1189</ele>
        <time>2021-05-20T08:31:36Z</time>
      </trkpt>
      <trkpt lat="45.77284" lon="6.27701">
        <ele>1189.6</ele>
        <time>2021-05-20T08:31:38Z</time>
      </trkpt>
      <trkpt lat="45.77281" lon="6.27706">
        <ele>1190.4</ele>
        <time>2021-05-20T08:31:41Z</time>
      </trkpt>
      <trkpt lat="45.77279" lon="6.27709">
        <ele>1191</ele>
        <time>2021-05-20T08:31:43Z</time>
      </trkpt>
      <trkpt lat="45.77273" lon="6.27718">
        <ele>1192.4</ele>
        <time>2021-05-20T08:31:48Z</time>
      </trkpt>
      <trkpt lat="45.77272" lon="6.2772">
        <ele>1192.6</ele>
        <time>2021-05-20T08:31:49Z</time>
      </trkpt>
      <trkpt lat="45.7727" lon="6.27725">
        <ele>1194</ele>
        <time>2021-05-20T08:31:52Z</time>
      </trkpt>
      <trkpt lat="45.7727" lon="6.27727">
        <ele>1194.2</ele>
        <time>2021-05-20T08:31:53Z</time>
      </trkpt>
      <trkpt lat="45.77269" lon="6.27735">
        <ele>1195</ele>
        <time>2021-05-20T08:31:56Z</time>
      </trkpt>
      <trkpt lat="45.77269" lon="6.27744">
        <ele>1195.8</ele>
        <time>2021-05-20T08:31:59Z</time>
      </trkpt>
      <trkpt lat="45.77269" lon="6.27747">
        <ele>1196.2</ele>
        <time>2021-05-20T08:32:00Z</time>
      </trkpt>
      <trkpt lat="45.77266" lon="6.27754">
        <ele>1196.8</ele>
        <time>2021-05-20T08:32:03Z</time>
      </trkpt>
      <trkpt lat="45.77265" lon="6.27757">
        <ele>1197.2</ele>
        <time>2021-05-20T08:32:04Z</time>
      </trkpt>
      <trkpt lat="45.77264" lon="6.27759">
        <ele>1197.6</ele>
        <time>2021-05-20T08:32:05Z</time>
      </trkpt>
      <trkpt lat="45.77262" lon="6.27761">
        <ele>1198</ele>
        <time>2021-05-20T08:32:06Z</time>
      </trkpt>
      <trkpt lat="45.7726" lon="6.27764">
        <ele>1198.2</ele>
        <time>2021-05-20T08:32:07Z</time>
      </trkpt>
      <trkpt lat="45.77259" lon="6.27765">
        <ele>1198.4</ele>
        <time>2021-05-20T08:32:08Z</time>
      </trkpt>
      <trkpt lat="45.77256" lon="6.27769">
        <ele>1198.4</ele>
        <time>2021-05-20T08:32:10Z</time>
      </trkpt>
      <trkpt lat="45.77247" lon="6.27778">
        <ele>1199.8</ele>
        <time>2021-05-20T08:32:15Z</time>
      </trkpt>
      <trkpt lat="45.77246" lon="6.27779">
        <ele>1200.4</ele>
        <time>2021-05-20T08:32:16Z</time>
      </trkpt>
      <trkpt lat="45.77245" lon="6.27778">
        <ele>1200.8</ele>
        <time>2021-05-20T08:32:17Z</time>
      </trkpt>
      <trkpt lat="45.77245" lon="6.27778">
        <ele>1201.4</ele>
        <time>2021-05-20T08:32:18Z</time>
      </trkpt>
      <trkpt lat="45.77243" lon="6.27779">
        <ele>1202.6</ele>
        <time>2021-05-20T08:32:20Z</time>
      </trkpt>
      <trkpt lat="45.77242" lon="6.2778">
        <ele>1202.8</ele>
        <time>2021-05-20T08:32:21Z</time>
      </trkpt>
      <trkpt lat="45.77242" lon="6.2778">
        <ele>1203</ele>
        <time>2021-05-20T08:32:22Z</time>
      </trkpt>
      <trkpt lat="45.77241" lon="6.27781">
        <ele>1203</ele>
        <time>2021-05-20T08:32:23Z</time>
      </trkpt>
      <trkpt lat="45.77241" lon="6.27782">
        <ele>1203.2</ele>
        <time>2021-05-20T08:32:25Z</time>
      </trkpt>
      <trkpt lat="45.7724" lon="6.27784">
        <ele>1203.6</ele>
        <time>2021-05-20T08:32:27Z</time>
      </trkpt>
      <trkpt lat="45.7724" lon="6.27784">
        <ele>1204</ele>
        <time>2021-05-20T08:32:28Z</time>
      </trkpt>
      <trkpt lat="45.77239" lon="6.27785">
        <ele>1204.2</ele>
        <time>2021-05-20T08:32:29Z</time>
      </trkpt>
      <trkpt lat="45.77238" lon="6.27786">
        <ele>1204.4</ele>
        <time>2021-05-20T08:32:30Z</time>
      </trkpt>
      <trkpt lat="45.77238" lon="6.27786">
        <ele>1204.8</ele>
        <time>2021-05-20T08:32:31Z</time>
      </trkpt>
      <trkpt lat="45.77234" lon="6.27789">
        <ele>1205.6</ele>
        <time>2021-05-20T08:32:34Z</time>
      </trkpt>
      <trkpt lat="45.77232" lon="6.27789">
        <ele>1205.8</ele>
        <time>2021-05-20T08:32:35Z</time>
      </trkpt>
      <trkpt lat="45.77229" lon="6.2779">
        <ele>1206.2</ele>
        <time>2021-05-20T08:32:38Z</time>
      </trkpt>
      <trkpt lat="45.77226" lon="6.27791">
        <ele>1206.6</ele>
        <time>2021-05-20T08:32:40Z</time>
      </trkpt>
      <trkpt lat="45.77225" lon="6.27791">
        <ele>1207</ele>
        <time>2021-05-20T08:32:41Z</time>
      </trkpt>
      <trkpt lat="45.77224" lon="6.27791">
        <ele>1207.2</ele>
        <time>2021-05-20T08:32:42Z</time>
      </trkpt>
      <trkpt lat="45.77218" lon="6.27791">
        <ele>1208</ele>
        <time>2021-05-20T08:32:46Z</time>
      </trkpt>
      <trkpt lat="45.77213" lon="6.27791">
        <ele>1208.6</ele>
        <time>2021-05-20T08:32:50Z</time>
      </trkpt>
      <trkpt lat="45.77211" lon="6.27792">
        <ele>1209</ele>
        <time>2021-05-20T08:32:52Z</time>
      </trkpt>
      <trkpt lat="45.77208" lon="6.27794">
        <ele>1210.2</ele>
        <time>2021-05-20T08:32:56Z</time>
      </trkpt>
      <trkpt lat="45.77207" lon="6.27795">
        <ele>1210.4</ele>
        <time>2021-05-20T08:32:57Z</time>
      </trkpt>
      <trkpt lat="45.77205" lon="6.27795">
        <ele>1211.2</ele>
        <time>2021-05-20T08:33:02Z</time>
      </trkpt>
      <trkpt lat="45.77205" lon="6.27795">
        <ele>1211.4</ele>
        <time>2021-05-20T08:33:03Z</time>
      </trkpt>
      <trkpt lat="45.77204" lon="6.27796">
        <ele>1211.6</ele>
        <time>2021-05-20T08:33:07Z</time>
      </trkpt>
      <trkpt lat="45.7719" lon="6.27813">
        <ele>1212.2</ele>
        <time>2021-05-20T08:33:52Z</time>
      </trkpt>
      <trkpt lat="45.77188" lon="6.27816">
        <ele>1212.2</ele>
        <time>2021-05-20T08:33:53Z</time>
      </trkpt>
      <trkpt lat="45.77184" lon="6.27825">
        <ele>1212.4</ele>
        <time>2021-05-20T08:33:56Z</time>
      </trkpt>
      <trkpt lat="45.77178" lon="6.27834">
        <ele>1213.2</ele>
        <time>2021-05-20T08:33:59Z</time>
      </trkpt>
      <trkpt lat="45.77176" lon="6.27836">
        <ele>1213.8</ele>
        <time>2021-05-20T08:34:00Z</time>
      </trkpt>
      <trkpt lat="45.77169" lon="6.27839">
        <ele>1215</ele>
        <time>2021-05-20T08:34:03Z</time>
      </trkpt>
      <trkpt lat="45.77166" lon="6.27841">
        <ele>1215.4</ele>
        <time>2021-05-20T08:34:04Z</time>
      </trkpt>
      <trkpt lat="45.77162" lon="6.27845">
        <ele>1216.2</ele>
        <time>2021-05-20T08:34:06Z</time>
      </trkpt>
      <trkpt lat="45.77154" lon="6.27851">
        <ele>1217</ele>
        <time>2021-05-20T08:34:10Z</time>
      </trkpt>
      <trkpt lat="45.77151" lon="6.27852">
        <ele>1217.4</ele>
        <time>2021-05-20T08:34:11Z</time>
      </trkpt>
      <trkpt lat="45.77149" lon="6.27853">
        <ele>1217.6</ele>
        <time>2021-05-20T08:34:12Z</time>
      </trkpt>
      <trkpt lat="45.77141" lon="6.27855">
        <ele>1217.6</ele>
        <time>2021-05-20T08:34:15Z</time>
      </trkpt>
      <trkpt lat="45.77138" lon="6.27855">
        <ele>1217.2</ele>
        <time>2021-05-20T08:34:16Z</time>
      </trkpt>
      <trkpt lat="45.77126" lon="6.27854">
        <ele>1216.4</ele>
        <time>2021-05-20T08:34:20Z</time>
      </trkpt>
      <trkpt lat="45.77119" lon="6.27854">
        <ele>1216.4</ele>
        <time>2021-05-20T08:34:22Z</time>
      </trkpt>
      <trkpt lat="45.7711" lon="6.27866">
        <ele>1215.8</ele>
        <time>2021-05-20T08:34:26Z</time>
      </trkpt>
      <trkpt lat="45.771" lon="6.27889">
        <ele>1215.8</ele>
        <time>2021-05-20T08:34:31Z</time>
      </trkpt>
      <trkpt lat="45.77095" lon="6.27905">
        <ele>1217.2</ele>
        <time>2021-05-20T08:34:35Z</time>
      </trkpt>
      <trkpt lat="45.77094" lon="6.27909">
        <ele>1217.4</ele>
        <time>2021-05-20T08:34:36Z</time>
      </trkpt>
      <trkpt lat="45.77093" lon="6.27913">
        <ele>1217.6</ele>
        <time>2021-05-20T08:34:37Z</time>
      </trkpt>
      <trkpt lat="45.77086" lon="6.2793">
        <ele>1218.2</ele>
        <time>2021-05-20T08:34:41Z</time>
      </trkpt>
      <trkpt lat="45.77084" lon="6.27938">
        <ele>1218.4</ele>
        <time>2021-05-20T08:34:43Z</time>
      </trkpt>
      <trkpt lat="45.77082" lon="6.27956">
        <ele>1219.8</ele>
        <time>2021-05-20T08:34:47Z</time>
      </trkpt>
      <trkpt lat="45.77082" lon="6.27961">
        <ele>1220.2</ele>
        <time>2021-05-20T08:34:48Z</time>
      </trkpt>
      <trkpt lat="45.77082" lon="6.27967">
        <ele>1220.4</ele>
        <time>2021-05-20T08:34:49Z</time>
      </trkpt>
      <trkpt lat="45.77081" lon="6.27982">
        <ele>1220.2</ele>
        <time>2021-05-20T08:34:51Z</time>
      </trkpt>
      <trkpt lat="45.77081" lon="6.27995">
        <ele>1220.2</ele>
        <time>2021-05-20T08:34:53Z</time>
      </trkpt>
      <trkpt lat="45.7708" lon="6.28003">
        <ele>1220</ele>
        <time>2021-05-20T08:34:54Z</time>
      </trkpt>
      <trkpt lat="45.7708" lon="6.28011">
        <ele>1219.8</ele>
        <time>2021-05-20T08:34:55Z</time>
      </trkpt>
      <trkpt lat="45.7708" lon="6.28022">
        <ele>1220</ele>
        <time>2021-05-20T08:34:57Z</time>
      </trkpt>
      <trkpt lat="45.77082" lon="6.28032">
        <ele>1219.8</ele>
        <time>2021-05-20T08:34:59Z</time>
      </trkpt>
      <trkpt lat="45.77085" lon="6.28043">
        <ele>1219.6</ele>
        <time>2021-05-20T08:35:01Z</time>
      </trkpt>
      <trkpt lat="45.77092" lon="6.28063">
        <ele>1218.8</ele>
        <time>2021-05-20T08:35:05Z</time>
      </trkpt>
      <trkpt lat="45.77093" lon="6.28068">
        <ele>1218.8</ele>
        <time>2021-05-20T08:35:06Z</time>
      </trkpt>
      <trkpt lat="45.77091" lon="6.28074">
        <ele>1218.4</ele>
        <time>2021-05-20T08:35:07Z</time>
      </trkpt>
      <trkpt lat="45.77087" lon="6.28085">
        <ele>1218.4</ele>
        <time>2021-05-20T08:35:09Z</time>
      </trkpt>
      <trkpt lat="45.77086" lon="6.2809">
        <ele>1218.6</ele>
        <time>2021-05-20T08:35:10Z</time>
      </trkpt>
      <trkpt lat="45.77085" lon="6.28109">
        <ele>1218.2</ele>
        <time>2021-05-20T08:35:14Z</time>
      </trkpt>
      <trkpt lat="45.77086" lon="6.28114">
        <ele>1218.4</ele>
        <time>2021-05-20T08:35:15Z</time>
      </trkpt>
      <trkpt lat="45.77086" lon="6.2813">
        <ele>1217.8</ele>
        <time>2021-05-20T08:35:18Z</time>
      </trkpt>
      <trkpt lat="45.77085" lon="6.28135">
        <ele>1217.6</ele>
        <time>2021-05-20T08:35:19Z</time>
      </trkpt>
      <trkpt lat="45.77073" lon="6.28155">
        <ele>1217.6</ele>
        <time>2021-05-20T08:35:24Z</time>
      </trkpt>
      <trkpt lat="45.77072" lon="6.28177">
        <ele>1218.4</ele>
        <time>2021-05-20T08:35:28Z</time>
      </trkpt>
      <trkpt lat="45.77072" lon="6.28183">
        <ele>1217.8</ele>
        <time>2021-05-20T08:35:29Z</time>
      </trkpt>
      <trkpt lat="45.77066" lon="6.28217">
        <ele>1217.8</ele>
        <time>2021-05-20T08:35:35Z</time>
      </trkpt>
      <trkpt lat="45.77056" lon="6.28233">
        <ele>1218.8</ele>
        <time>2021-05-20T08:35:40Z</time>
      </trkpt>
      <trkpt lat="45.77053" lon="6.28236">
        <ele>1219.4</ele>
        <time>2021-05-20T08:35:41Z</time>
      </trkpt>
      <trkpt lat="45.77046" lon="6.28255">
        <ele>1219.8</ele>
        <time>2021-05-20T08:35:45Z</time>
      </trkpt>
      <trkpt lat="45.77045" lon="6.28264">
        <ele>1220</ele>
        <time>2021-05-20T08:35:47Z</time>
      </trkpt>
      <trkpt lat="45.77041" lon="6.28285">
        <ele>1220</ele>
        <time>2021-05-20T08:35:52Z</time>
      </trkpt>
      <trkpt lat="45.77036" lon="6.28292">
        <ele>1220</ele>
        <time>2021-05-20T08:35:54Z</time>
      </trkpt>
      <trkpt lat="45.77027" lon="6.28308">
        <ele>1220.8</ele>
        <time>2021-05-20T08:35:58Z</time>
      </trkpt>
      <trkpt lat="45.77025" lon="6.28312">
        <ele>1220.8</ele>
        <time>2021-05-20T08:35:59Z</time>
      </trkpt>
      <trkpt lat="45.7702" lon="6.28329">
        <ele>1221.2</ele>
        <time>2021-05-20T08:36:03Z</time>
      </trkpt>
      <trkpt lat="45.77019" lon="6.28333">
        <ele>1222</ele>
        <time>2021-05-20T08:36:04Z</time>
      </trkpt>
      <trkpt lat="45.77014" lon="6.28358">
        <ele>1221.8</ele>
        <time>2021-05-20T08:36:09Z</time>
      </trkpt>
      <trkpt lat="45.77007" lon="6.28388">
        <ele>1222.2</ele>
        <time>2021-05-20T08:36:15Z</time>
      </trkpt>
      <trkpt lat="45.77005" lon="6.2842">
        <ele>1221</ele>
        <time>2021-05-20T08:36:21Z</time>
      </trkpt>
      <trkpt lat="45.77002" lon="6.28436">
        <ele>1221</ele>
        <time>2021-05-20T08:36:24Z</time>
      </trkpt>
      <trkpt lat="45.77" lon="6.28446">
        <ele>1221.6</ele>
        <time>2021-05-20T08:36:26Z</time>
      </trkpt>
      <trkpt lat="45.76999" lon="6.28456">
        <ele>1221.8</ele>
        <time>2021-05-20T08:36:28Z</time>
      </trkpt>
      <trkpt lat="45.76998" lon="6.28461">
        <ele>1221.8</ele>
        <time>2021-05-20T08:36:29Z</time>
      </trkpt>
      <trkpt lat="45.76996" lon="6.28482">
        <ele>1221.6</ele>
        <time>2021-05-20T08:36:33Z</time>
      </trkpt>
      <trkpt lat="45.76998" lon="6.28522">
        <ele>1221.6</ele>
        <time>2021-05-20T08:36:38Z</time>
      </trkpt>
      <trkpt lat="45.76999" lon="6.28528">
        <ele>1220.6</ele>
        <time>2021-05-20T08:36:39Z</time>
      </trkpt>
      <trkpt lat="45.77004" lon="6.28544">
        <ele>1220.2</ele>
        <time>2021-05-20T08:36:42Z</time>
      </trkpt>
      <trkpt lat="45.77011" lon="6.28552">
        <ele>1220.6</ele>
        <time>2021-05-20T08:36:44Z</time>
      </trkpt>
      <trkpt lat="45.77026" lon="6.28565">
        <ele>1221.6</ele>
        <time>2021-05-20T08:36:48Z</time>
      </trkpt>
      <trkpt lat="45.7703" lon="6.28567">
        <ele>1222</ele>
        <time>2021-05-20T08:36:49Z</time>
      </trkpt>
      <trkpt lat="45.77041" lon="6.28581">
        <ele>1222.4</ele>
        <time>2021-05-20T08:36:53Z</time>
      </trkpt>
      <trkpt lat="45.77043" lon="6.28583">
        <ele>1223</ele>
        <time>2021-05-20T08:36:54Z</time>
      </trkpt>
      <trkpt lat="45.77046" lon="6.28586">
        <ele>1223.6</ele>
        <time>2021-05-20T08:36:55Z</time>
      </trkpt>
      <trkpt lat="45.7705" lon="6.28588">
        <ele>1224.2</ele>
        <time>2021-05-20T08:36:56Z</time>
      </trkpt>
      <trkpt lat="45.77057" lon="6.28597">
        <ele>1225</ele>
        <time>2021-05-20T08:36:59Z</time>
      </trkpt>
      <trkpt lat="45.7706" lon="6.28599">
        <ele>1225.4</ele>
        <time>2021-05-20T08:37:00Z</time>
      </trkpt>
      <trkpt lat="45.7706" lon="6.28603">
        <ele>1225.8</ele>
        <time>2021-05-20T08:37:01Z</time>
      </trkpt>
      <trkpt lat="45.77064" lon="6.28611">
        <ele>1226.4</ele>
        <time>2021-05-20T08:37:03Z</time>
      </trkpt>
      <trkpt lat="45.77072" lon="6.28626">
        <ele>1227</ele>
        <time>2021-05-20T08:37:06Z</time>
      </trkpt>
      <trkpt lat="45.77075" lon="6.28631">
        <ele>1227.6</ele>
        <time>2021-05-20T08:37:07Z</time>
      </trkpt>
      <trkpt lat="45.77084" lon="6.28656">
        <ele>1228.8</ele>
        <time>2021-05-20T08:37:11Z</time>
      </trkpt>
      <trkpt lat="45.77091" lon="6.28672">
        <ele>1227.8</ele>
        <time>2021-05-20T08:37:14Z</time>
      </trkpt>
      <trkpt lat="45.77096" lon="6.28679">
        <ele>1227.8</ele>
        <time>2021-05-20T08:37:15Z</time>
      </trkpt>
      <trkpt lat="45.77105" lon="6.28698">
        <ele>1227.4</ele>
        <time>2021-05-20T08:37:18Z</time>
      </trkpt>
      <trkpt lat="45.77106" lon="6.28704">
        <ele>1227.4</ele>
        <time>2021-05-20T08:37:19Z</time>
      </trkpt>
      <trkpt lat="45.77108" lon="6.28709">
        <ele>1227.4</ele>
        <time>2021-05-20T08:37:20Z</time>
      </trkpt>
      <trkpt lat="45.7711" lon="6.28714">
        <ele>1229</ele>
        <time>2021-05-20T08:37:21Z</time>
      </trkpt>
      <trkpt lat="45.77113" lon="6.2872">
        <ele>1230.6</ele>
        <time>2021-05-20T08:37:22Z</time>
      </trkpt>
      <trkpt lat="45.77115" lon="6.28726">
        <ele>1231.6</ele>
        <time>2021-05-20T08:37:23Z</time>
      </trkpt>
      <trkpt lat="45.77116" lon="6.28732">
        <ele>1231.2</ele>
        <time>2021-05-20T08:37:24Z</time>
      </trkpt>
      <trkpt lat="45.77118" lon="6.28738">
        <ele>1231.2</ele>
        <time>2021-05-20T08:37:25Z</time>
      </trkpt>
      <trkpt lat="45.7712" lon="6.28743">
        <ele>1232</ele>
        <time>2021-05-20T08:37:26Z</time>
      </trkpt>
      <trkpt lat="45.77127" lon="6.28762">
        <ele>1233.4</ele>
        <time>2021-05-20T08:37:29Z</time>
      </trkpt>
      <trkpt lat="45.77131" lon="6.28775">
        <ele>1234.4</ele>
        <time>2021-05-20T08:37:31Z</time>
      </trkpt>
      <trkpt lat="45.77133" lon="6.28782">
        <ele>1235</ele>
        <time>2021-05-20T08:37:32Z</time>
      </trkpt>
      <trkpt lat="45.77138" lon="6.28795">
        <ele>1235.6</ele>
        <time>2021-05-20T08:37:34Z</time>
      </trkpt>
      <trkpt lat="45.77141" lon="6.28808">
        <ele>1235.8</ele>
        <time>2021-05-20T08:37:36Z</time>
      </trkpt>
      <trkpt lat="45.77141" lon="6.28814">
        <ele>1235.8</ele>
        <time>2021-05-20T08:37:37Z</time>
      </trkpt>
      <trkpt lat="45.77143" lon="6.28837">
        <ele>1234.6</ele>
        <time>2021-05-20T08:37:41Z</time>
      </trkpt>
      <trkpt lat="45.77148" lon="6.28844">
        <ele>1234.4</ele>
        <time>2021-05-20T08:37:43Z</time>
      </trkpt>
      <trkpt lat="45.77153" lon="6.28864">
        <ele>1234.4</ele>
        <time>2021-05-20T08:37:47Z</time>
      </trkpt>
      <trkpt lat="45.77152" lon="6.2887">
        <ele>1234.4</ele>
        <time>2021-05-20T08:37:48Z</time>
      </trkpt>
      <trkpt lat="45.77151" lon="6.28881">
        <ele>1234.6</ele>
        <time>2021-05-20T08:37:50Z</time>
      </trkpt>
      <trkpt lat="45.77152" lon="6.28888">
        <ele>1234.6</ele>
        <time>2021-05-20T08:37:52Z</time>
      </trkpt>
      <trkpt lat="45.77153" lon="6.28892">
        <ele>1231.8</ele>
        <time>2021-05-20T08:37:53Z</time>
      </trkpt>
      <trkpt lat="45.77153" lon="6.28895">
        <ele>1230.4</ele>
        <time>2021-05-20T08:37:54Z</time>
      </trkpt>
      <trkpt lat="45.77152" lon="6.289">
        <ele>1228.8</ele>
        <time>2021-05-20T08:37:56Z</time>
      </trkpt>
      <trkpt lat="45.77152" lon="6.28901">
        <ele>1228.4</ele>
        <time>2021-05-20T08:37:57Z</time>
      </trkpt>
      <trkpt lat="45.7715" lon="6.28903">
        <ele>1227.8</ele>
        <time>2021-05-20T08:38:00Z</time>
      </trkpt>
      <trkpt lat="45.77141" lon="6.28904">
        <ele>1226.8</ele>
        <time>2021-05-20T08:39:59Z</time>
      </trkpt>
      <trkpt lat="45.77141" lon="6.28904">
        <ele>1226.8</ele>
        <time>2021-05-20T08:40:00Z</time>
      </trkpt>
      <trkpt lat="45.77141" lon="6.28904">
        <ele>1226.8</ele>
        <time>2021-05-20T08:40:01Z</time>
      </trkpt>
      <trkpt lat="45.77141" lon="6.28904">
        <ele>1226.8</ele>
        <time>2021-05-20T08:40:03Z</time>
      </trkpt>
      <trkpt lat="45.7714" lon="6.28904">
        <ele>1226.8</ele>
        <time>2021-05-20T08:40:04Z</time>
      </trkpt>
      <trkpt lat="45.77139" lon="6.28904">
        <ele>1226.8</ele>
        <time>2021-05-20T08:40:05Z</time>
      </trkpt>
      <trkpt lat="45.77137" lon="6.28903">
        <ele>1226.8</ele>
        <time>2021-05-20T08:40:06Z</time>
      </trkpt>
      <trkpt lat="45.77134" lon="6.28902">
        <ele>1226.6</ele>
        <time>2021-05-20T08:40:07Z</time>
      </trkpt>
      <trkpt lat="45.77127" lon="6.28895">
        <ele>1226.6</ele>
        <time>2021-05-20T08:40:10Z</time>
      </trkpt>
      <trkpt lat="45.77127" lon="6.28891">
        <ele>1226.4</ele>
        <time>2021-05-20T08:40:11Z</time>
      </trkpt>
      <trkpt lat="45.77128" lon="6.28884">
        <ele>1226</ele>
        <time>2021-05-20T08:40:13Z</time>
      </trkpt>
      <trkpt lat="45.77128" lon="6.28881">
        <ele>1225.6</ele>
        <time>2021-05-20T08:40:14Z</time>
      </trkpt>
      <trkpt lat="45.77127" lon="6.28875">
        <ele>1224.6</ele>
        <time>2021-05-20T08:40:16Z</time>
      </trkpt>
      <trkpt lat="45.77126" lon="6.28871">
        <ele>1224.2</ele>
        <time>2021-05-20T08:40:17Z</time>
      </trkpt>
      <trkpt lat="45.77123" lon="6.28865">
        <ele>1222.6</ele>
        <time>2021-05-20T08:40:19Z</time>
      </trkpt>
      <trkpt lat="45.77122" lon="6.28863">
        <ele>1221.8</ele>
        <time>2021-05-20T08:40:20Z</time>
      </trkpt>
      <trkpt lat="45.77121" lon="6.2886">
        <ele>1221.2</ele>
        <time>2021-05-20T08:40:21Z</time>
      </trkpt>
      <trkpt lat="45.77121" lon="6.28859">
        <ele>1220.4</ele>
        <time>2021-05-20T08:40:22Z</time>
      </trkpt>
      <trkpt lat="45.7712" lon="6.28858">
        <ele>1220</ele>
        <time>2021-05-20T08:40:23Z</time>
      </trkpt>
      <trkpt lat="45.77114" lon="6.28845">
        <ele>1219</ele>
        <time>2021-05-20T08:40:28Z</time>
      </trkpt>
      <trkpt lat="45.77112" lon="6.28842">
        <ele>1219</ele>
        <time>2021-05-20T08:40:29Z</time>
      </trkpt>
      <trkpt lat="45.77106" lon="6.28827">
        <ele>1217.8</ele>
        <time>2021-05-20T08:40:33Z</time>
      </trkpt>
      <trkpt lat="45.77105" lon="6.28824">
        <ele>1215</ele>
        <time>2021-05-20T08:40:34Z</time>
      </trkpt>
      <trkpt lat="45.77101" lon="6.28816">
        <ele>1213</ele>
        <time>2021-05-20T08:40:36Z</time>
      </trkpt>
      <trkpt lat="45.77099" lon="6.28812">
        <ele>1211.6</ele>
        <time>2021-05-20T08:40:37Z</time>
      </trkpt>
      <trkpt lat="45.77097" lon="6.2881">
        <ele>1209.8</ele>
        <time>2021-05-20T08:40:38Z</time>
      </trkpt>
      <trkpt lat="45.77094" lon="6.28809">
        <ele>1208.4</ele>
        <time>2021-05-20T08:40:39Z</time>
      </trkpt>
      <trkpt lat="45.77093" lon="6.28807">
        <ele>1207.6</ele>
        <time>2021-05-20T08:40:40Z</time>
      </trkpt>
      <trkpt lat="45.77093" lon="6.28805">
        <ele>1207</ele>
        <time>2021-05-20T08:40:41Z</time>
      </trkpt>
      <trkpt lat="45.77089" lon="6.28801">
        <ele>1205.6</ele>
        <time>2021-05-20T08:40:43Z</time>
      </trkpt>
      <trkpt lat="45.77084" lon="6.28797">
        <ele>1205.2</ele>
        <time>2021-05-20T08:40:44Z</time>
      </trkpt>
      <trkpt lat="45.77082" lon="6.28792">
        <ele>1204.6</ele>
        <time>2021-05-20T08:40:45Z</time>
      </trkpt>
      <trkpt lat="45.77079" lon="6.28788">
        <ele>1203.8</ele>
        <time>2021-05-20T08:40:46Z</time>
      </trkpt>
      <trkpt lat="45.77076" lon="6.28783">
        <ele>1203.4</ele>
        <time>2021-05-20T08:40:47Z</time>
      </trkpt>
      <trkpt lat="45.77068" lon="6.28773">
        <ele>1202.4</ele>
        <time>2021-05-20T08:40:49Z</time>
      </trkpt>
      <trkpt lat="45.77064" lon="6.28769">
        <ele>1201.8</ele>
        <time>2021-05-20T08:40:50Z</time>
      </trkpt>
      <trkpt lat="45.77051" lon="6.28762">
        <ele>1200.8</ele>
        <time>2021-05-20T08:40:53Z</time>
      </trkpt>
      <trkpt lat="45.77044" lon="6.28756">
        <ele>1196.6</ele>
        <time>2021-05-20T08:40:55Z</time>
      </trkpt>
      <trkpt lat="45.77041" lon="6.28753">
        <ele>1196.4</ele>
        <time>2021-05-20T08:40:56Z</time>
      </trkpt>
      <trkpt lat="45.77032" lon="6.28742">
        <ele>1195.6</ele>
        <time>2021-05-20T08:40:59Z</time>
      </trkpt>
      <trkpt lat="45.77029" lon="6.28739">
        <ele>1195.4</ele>
        <time>2021-05-20T08:41:00Z</time>
      </trkpt>
      <trkpt lat="45.77023" lon="6.28733">
        <ele>1195</ele>
        <time>2021-05-20T08:41:02Z</time>
      </trkpt>
      <trkpt lat="45.77019" lon="6.28726">
        <ele>1188.4</ele>
        <time>2021-05-20T08:41:04Z</time>
      </trkpt>
      <trkpt lat="45.77018" lon="6.28722">
        <ele>1184.2</ele>
        <time>2021-05-20T08:41:05Z</time>
      </trkpt>
      <trkpt lat="45.77016" lon="6.28719">
        <ele>1180.8</ele>
        <time>2021-05-20T08:41:06Z</time>
      </trkpt>
      <trkpt lat="45.77014" lon="6.28718">
        <ele>1179</ele>
        <time>2021-05-20T08:41:07Z</time>
      </trkpt>
      <trkpt lat="45.77012" lon="6.28714">
        <ele>1177.8</ele>
        <time>2021-05-20T08:41:09Z</time>
      </trkpt>
      <trkpt lat="45.7701" lon="6.28713">
        <ele>1177.2</ele>
        <time>2021-05-20T08:41:10Z</time>
      </trkpt>
      <trkpt lat="45.77008" lon="6.28713">
        <ele>1176.6</ele>
        <time>2021-05-20T08:41:11Z</time>
      </trkpt>
      <trkpt lat="45.76994" lon="6.28708">
        <ele>1175.2</ele>
        <time>2021-05-20T08:41:16Z</time>
      </trkpt>
      <trkpt lat="45.76991" lon="6.28707">
        <ele>1174.2</ele>
        <time>2021-05-20T08:41:17Z</time>
      </trkpt>
      <trkpt lat="45.76988" lon="6.28707">
        <ele>1173.2</ele>
        <time>2021-05-20T08:41:18Z</time>
      </trkpt>
      <trkpt lat="45.76985" lon="6.28707">
        <ele>1171.4</ele>
        <time>2021-05-20T08:41:19Z</time>
      </trkpt>
      <trkpt lat="45.7698" lon="6.28705">
        <ele>1169.6</ele>
        <time>2021-05-20T08:41:21Z</time>
      </trkpt>
      <trkpt lat="45.76978" lon="6.28705">
        <ele>1168.2</ele>
        <time>2021-05-20T08:41:22Z</time>
      </trkpt>
      <trkpt lat="45.76975" lon="6.28703">
        <ele>1166.8</ele>
        <time>2021-05-20T08:41:23Z</time>
      </trkpt>
      <trkpt lat="45.76972" lon="6.28693">
        <ele>1165.4</ele>
        <time>2021-05-20T08:41:25Z</time>
      </trkpt>
      <trkpt lat="45.76969" lon="6.28689">
        <ele>1163.8</ele>
        <time>2021-05-20T08:41:26Z</time>
      </trkpt>
      <trkpt lat="45.76964" lon="6.28686">
        <ele>1162.4</ele>
        <time>2021-05-20T08:41:28Z</time>
      </trkpt>
      <trkpt lat="45.76961" lon="6.28686">
        <ele>1161.4</ele>
        <time>2021-05-20T08:41:29Z</time>
      </trkpt>
      <trkpt lat="45.76959" lon="6.28685">
        <ele>1160</ele>
        <time>2021-05-20T08:41:30Z</time>
      </trkpt>
      <trkpt lat="45.76956" lon="6.28684">
        <ele>1158.8</ele>
        <time>2021-05-20T08:41:31Z</time>
      </trkpt>
      <trkpt lat="45.76949" lon="6.28681">
        <ele>1157.6</ele>
        <time>2021-05-20T08:41:34Z</time>
      </trkpt>
      <trkpt lat="45.76944" lon="6.28678">
        <ele>1156</ele>
        <time>2021-05-20T08:41:36Z</time>
      </trkpt>
      <trkpt lat="45.76939" lon="6.28678">
        <ele>1154.6</ele>
        <time>2021-05-20T08:41:38Z</time>
      </trkpt>
      <trkpt lat="45.76937" lon="6.28678">
        <ele>1153.4</ele>
        <time>2021-05-20T08:41:39Z</time>
      </trkpt>
      <trkpt lat="45.76935" lon="6.28677">
        <ele>1152</ele>
        <time>2021-05-20T08:41:40Z</time>
      </trkpt>
      <trkpt lat="45.76929" lon="6.28677">
        <ele>1150.4</ele>
        <time>2021-05-20T08:41:42Z</time>
      </trkpt>
      <trkpt lat="45.76925" lon="6.28675">
        <ele>1148.6</ele>
        <time>2021-05-20T08:41:44Z</time>
      </trkpt>
      <trkpt lat="45.76922" lon="6.28674">
        <ele>1147.6</ele>
        <time>2021-05-20T08:41:45Z</time>
      </trkpt>
      <trkpt lat="45.76919" lon="6.28667">
        <ele>1146</ele>
        <time>2021-05-20T08:41:47Z</time>
      </trkpt>
      <trkpt lat="45.76904" lon="6.2866">
        <ele>1144.4</ele>
        <time>2021-05-20T08:41:50Z</time>
      </trkpt>
      <trkpt lat="45.769" lon="6.28657">
        <ele>1143.8</ele>
        <time>2021-05-20T08:41:51Z</time>
      </trkpt>
      <trkpt lat="45.76895" lon="6.28655">
        <ele>1142.8</ele>
        <time>2021-05-20T08:41:52Z</time>
      </trkpt>
      <trkpt lat="45.76893" lon="6.28654">
        <ele>1141.6</ele>
        <time>2021-05-20T08:41:53Z</time>
      </trkpt>
      <trkpt lat="45.76888" lon="6.28653">
        <ele>1140.2</ele>
        <time>2021-05-20T08:41:55Z</time>
      </trkpt>
      <trkpt lat="45.76885" lon="6.28653">
        <ele>1139.8</ele>
        <time>2021-05-20T08:41:57Z</time>
      </trkpt>
      <trkpt lat="45.76878" lon="6.28649">
        <ele>1138.8</ele>
        <time>2021-05-20T08:42:00Z</time>
      </trkpt>
      <trkpt lat="45.7687" lon="6.28643">
        <ele>1137.2</ele>
        <time>2021-05-20T08:42:02Z</time>
      </trkpt>
      <trkpt lat="45.7686" lon="6.28639">
        <ele>1135.6</ele>
        <time>2021-05-20T08:42:05Z</time>
      </trkpt>
      <trkpt lat="45.76857" lon="6.28637">
        <ele>1134.6</ele>
        <time>2021-05-20T08:42:06Z</time>
      </trkpt>
      <trkpt lat="45.76849" lon="6.2863">
        <ele>1133.2</ele>
        <time>2021-05-20T08:42:10Z</time>
      </trkpt>
      <trkpt lat="45.76845" lon="6.28627">
        <ele>1131.6</ele>
        <time>2021-05-20T08:42:12Z</time>
      </trkpt>
      <trkpt lat="45.76843" lon="6.28627">
        <ele>1131.2</ele>
        <time>2021-05-20T08:42:13Z</time>
      </trkpt>
      <trkpt lat="45.76839" lon="6.28628">
        <ele>1130.8</ele>
        <time>2021-05-20T08:42:15Z</time>
      </trkpt>
      <trkpt lat="45.76837" lon="6.28629">
        <ele>1130</ele>
        <time>2021-05-20T08:42:16Z</time>
      </trkpt>
      <trkpt lat="45.76832" lon="6.28631">
        <ele>1128.8</ele>
        <time>2021-05-20T08:42:18Z</time>
      </trkpt>
      <trkpt lat="45.76828" lon="6.28632">
        <ele>1127.4</ele>
        <time>2021-05-20T08:42:20Z</time>
      </trkpt>
      <trkpt lat="45.76822" lon="6.28633">
        <ele>1126</ele>
        <time>2021-05-20T08:42:22Z</time>
      </trkpt>
      <trkpt lat="45.76819" lon="6.28633">
        <ele>1125</ele>
        <time>2021-05-20T08:42:23Z</time>
      </trkpt>
      <trkpt lat="45.76813" lon="6.28633">
        <ele>1123.6</ele>
        <time>2021-05-20T08:42:25Z</time>
      </trkpt>
      <trkpt lat="45.76807" lon="6.28635">
        <ele>1122.2</ele>
        <time>2021-05-20T08:42:27Z</time>
      </trkpt>
      <trkpt lat="45.76804" lon="6.28636">
        <ele>1120.4</ele>
        <time>2021-05-20T08:42:28Z</time>
      </trkpt>
      <trkpt lat="45.76802" lon="6.28637">
        <ele>1119.4</ele>
        <time>2021-05-20T08:42:29Z</time>
      </trkpt>
      <trkpt lat="45.76799" lon="6.28639">
        <ele>1118.2</ele>
        <time>2021-05-20T08:42:30Z</time>
      </trkpt>
      <trkpt lat="45.76796" lon="6.28639">
        <ele>1117</ele>
        <time>2021-05-20T08:42:32Z</time>
      </trkpt>
      <trkpt lat="45.76794" lon="6.2864">
        <ele>1115.6</ele>
        <time>2021-05-20T08:42:34Z</time>
      </trkpt>
      <trkpt lat="45.76792" lon="6.28641">
        <ele>1115.2</ele>
        <time>2021-05-20T08:42:35Z</time>
      </trkpt>
      <trkpt lat="45.7679" lon="6.28643">
        <ele>1114.2</ele>
        <time>2021-05-20T08:42:37Z</time>
      </trkpt>
      <trkpt lat="45.76791" lon="6.28642">
        <ele>1113</ele>
        <time>2021-05-20T08:42:39Z</time>
      </trkpt>
      <trkpt lat="45.7679" lon="6.28643">
        <ele>1112</ele>
        <time>2021-05-20T08:42:46Z</time>
      </trkpt>
      <trkpt lat="45.76793" lon="6.28639">
        <ele>1111.8</ele>
        <time>2021-05-20T08:42:55Z</time>
      </trkpt>
      <trkpt lat="45.76789" lon="6.28643">
        <ele>1111.8</ele>
        <time>2021-05-20T08:43:04Z</time>
      </trkpt>
      <trkpt lat="45.76788" lon="6.28644">
        <ele>1111.8</ele>
        <time>2021-05-20T08:43:05Z</time>
      </trkpt>
      <trkpt lat="45.76787" lon="6.28646">
        <ele>1111.8</ele>
        <time>2021-05-20T08:43:15Z</time>
      </trkpt>
      <trkpt lat="45.76788" lon="6.28647">
        <ele>1111.8</ele>
        <time>2021-05-20T08:43:20Z</time>
      </trkpt>
      <trkpt lat="45.76788" lon="6.28649">
        <ele>1111.8</ele>
        <time>2021-05-20T08:43:24Z</time>
      </trkpt>
      <trkpt lat="45.76788" lon="6.2865">
        <ele>1111.8</ele>
        <time>2021-05-20T08:43:32Z</time>
      </trkpt>
      <trkpt lat="45.76788" lon="6.28649">
        <ele>1111.8</ele>
        <time>2021-05-20T08:43:34Z</time>
      </trkpt>
      <trkpt lat="45.76787" lon="6.28647">
        <ele>1112</ele>
        <time>2021-05-20T08:43:44Z</time>
      </trkpt>
      <trkpt lat="45.76786" lon="6.28646">
        <ele>1111.8</ele>
        <time>2021-05-20T08:43:45Z</time>
      </trkpt>
      <trkpt lat="45.76784" lon="6.28645">
        <ele>1111.8</ele>
        <time>2021-05-20T08:43:47Z</time>
      </trkpt>
      <trkpt lat="45.76781" lon="6.28645">
        <ele>1110.6</ele>
        <time>2021-05-20T08:43:50Z</time>
      </trkpt>
      <trkpt lat="45.76779" lon="6.28647">
        <ele>1109.4</ele>
        <time>2021-05-20T08:43:52Z</time>
      </trkpt>
      <trkpt lat="45.76778" lon="6.2865">
        <ele>1108.4</ele>
        <time>2021-05-20T08:43:54Z</time>
      </trkpt>
      <trkpt lat="45.76778" lon="6.2865">
        <ele>1107.8</ele>
        <time>2021-05-20T08:43:55Z</time>
      </trkpt>
      <trkpt lat="45.76778" lon="6.28652">
        <ele>1106.8</ele>
        <time>2021-05-20T08:43:57Z</time>
      </trkpt>
      <trkpt lat="45.76777" lon="6.28653">
        <ele>1106</ele>
        <time>2021-05-20T08:43:59Z</time>
      </trkpt>
      <trkpt lat="45.76775" lon="6.28653">
        <ele>1105.2</ele>
        <time>2021-05-20T08:44:01Z</time>
      </trkpt>
      <trkpt lat="45.76773" lon="6.28654">
        <ele>1104.6</ele>
        <time>2021-05-20T08:44:03Z</time>
      </trkpt>
      <trkpt lat="45.76772" lon="6.28654">
        <ele>1104.2</ele>
        <time>2021-05-20T08:44:04Z</time>
      </trkpt>
      <trkpt lat="45.76771" lon="6.28654">
        <ele>1103.8</ele>
        <time>2021-05-20T08:44:05Z</time>
      </trkpt>
      <trkpt lat="45.76769" lon="6.28653">
        <ele>1103</ele>
        <time>2021-05-20T08:44:07Z</time>
      </trkpt>
      <trkpt lat="45.76766" lon="6.28653">
        <ele>1101.8</ele>
        <time>2021-05-20T08:44:10Z</time>
      </trkpt>
      <trkpt lat="45.76764" lon="6.28653">
        <ele>1100.8</ele>
        <time>2021-05-20T08:44:13Z</time>
      </trkpt>
      <trkpt lat="45.76762" lon="6.28653">
        <ele>1100.6</ele>
        <time>2021-05-20T08:44:14Z</time>
      </trkpt>
      <trkpt lat="45.7676" lon="6.28654">
        <ele>1100.4</ele>
        <time>2021-05-20T08:44:15Z</time>
      </trkpt>
      <trkpt lat="45.76759" lon="6.28654">
        <ele>1100.2</ele>
        <time>2021-05-20T08:44:16Z</time>
      </trkpt>
      <trkpt lat="45.76758" lon="6.28654">
        <ele>1099</ele>
        <time>2021-05-20T08:44:17Z</time>
      </trkpt>
      <trkpt lat="45.76756" lon="6.28655">
        <ele>1098.6</ele>
        <time>2021-05-20T08:44:18Z</time>
      </trkpt>
      <trkpt lat="45.76754" lon="6.28655">
        <ele>1097.8</ele>
        <time>2021-05-20T08:44:19Z</time>
      </trkpt>
      <trkpt lat="45.76745" lon="6.28656">
        <ele>1096.2</ele>
        <time>2021-05-20T08:44:23Z</time>
      </trkpt>
      <trkpt lat="45.76743" lon="6.28657">
        <ele>1095</ele>
        <time>2021-05-20T08:44:24Z</time>
      </trkpt>
      <trkpt lat="45.7674" lon="6.28658">
        <ele>1093.2</ele>
        <time>2021-05-20T08:44:26Z</time>
      </trkpt>
      <trkpt lat="45.76735" lon="6.2866">
        <ele>1090.8</ele>
        <time>2021-05-20T08:44:28Z</time>
      </trkpt>
      <trkpt lat="45.76731" lon="6.28663">
        <ele>1089.4</ele>
        <time>2021-05-20T08:44:30Z</time>
      </trkpt>
      <trkpt lat="45.76729" lon="6.28664">
        <ele>1089</ele>
        <time>2021-05-20T08:44:31Z</time>
      </trkpt>
      <trkpt lat="45.76728" lon="6.28666">
        <ele>1088.6</ele>
        <time>2021-05-20T08:44:32Z</time>
      </trkpt>
      <trkpt lat="45.76728" lon="6.28667">
        <ele>1087.6</ele>
        <time>2021-05-20T08:44:33Z</time>
      </trkpt>
      <trkpt lat="45.76725" lon="6.2867">
        <ele>1086.6</ele>
        <time>2021-05-20T08:44:35Z</time>
      </trkpt>
      <trkpt lat="45.76723" lon="6.28674">
        <ele>1086</ele>
        <time>2021-05-20T08:44:37Z</time>
      </trkpt>
      <trkpt lat="45.76722" lon="6.28676">
        <ele>1085.6</ele>
        <time>2021-05-20T08:44:38Z</time>
      </trkpt>
      <trkpt lat="45.76719" lon="6.28677">
        <ele>1083.6</ele>
        <time>2021-05-20T08:44:39Z</time>
      </trkpt>
      <trkpt lat="45.76715" lon="6.28679">
        <ele>1082.2</ele>
        <time>2021-05-20T08:44:41Z</time>
      </trkpt>
      <trkpt lat="45.76713" lon="6.28679">
        <ele>1081.6</ele>
        <time>2021-05-20T08:44:42Z</time>
      </trkpt>
      <trkpt lat="45.76709" lon="6.28678">
        <ele>1080.6</ele>
        <time>2021-05-20T08:44:47Z</time>
      </trkpt>
      <trkpt lat="45.76708" lon="6.2868">
        <ele>1080</ele>
        <time>2021-05-20T08:44:48Z</time>
      </trkpt>
      <trkpt lat="45.76708" lon="6.28682">
        <ele>1079.4</ele>
        <time>2021-05-20T08:44:49Z</time>
      </trkpt>
      <trkpt lat="45.76708" lon="6.28687">
        <ele>1078.4</ele>
        <time>2021-05-20T08:44:51Z</time>
      </trkpt>
      <trkpt lat="45.76709" lon="6.28692">
        <ele>1077.4</ele>
        <time>2021-05-20T08:44:53Z</time>
      </trkpt>
      <trkpt lat="45.76714" lon="6.28696">
        <ele>1076.2</ele>
        <time>2021-05-20T08:44:56Z</time>
      </trkpt>
      <trkpt lat="45.76718" lon="6.28698">
        <ele>1075.2</ele>
        <time>2021-05-20T08:44:58Z</time>
      </trkpt>
      <trkpt lat="45.7672" lon="6.28698">
        <ele>1074.4</ele>
        <time>2021-05-20T08:44:59Z</time>
      </trkpt>
      <trkpt lat="45.76722" lon="6.28701">
        <ele>1073.2</ele>
        <time>2021-05-20T08:45:01Z</time>
      </trkpt>
      <trkpt lat="45.76721" lon="6.28703">
        <ele>1072</ele>
        <time>2021-05-20T08:45:03Z</time>
      </trkpt>
      <trkpt lat="45.76718" lon="6.28705">
        <ele>1070.8</ele>
        <time>2021-05-20T08:45:05Z</time>
      </trkpt>
      <trkpt lat="45.76717" lon="6.28706">
        <ele>1070.4</ele>
        <time>2021-05-20T08:45:06Z</time>
      </trkpt>
      <trkpt lat="45.76716" lon="6.28705">
        <ele>1069.8</ele>
        <time>2021-05-20T08:45:07Z</time>
      </trkpt>
      <trkpt lat="45.76714" lon="6.28706">
        <ele>1069.4</ele>
        <time>2021-05-20T08:45:08Z</time>
      </trkpt>
      <trkpt lat="45.76713" lon="6.28706">
        <ele>1068.8</ele>
        <time>2021-05-20T08:45:09Z</time>
      </trkpt>
      <trkpt lat="45.76711" lon="6.28707">
        <ele>1068.4</ele>
        <time>2021-05-20T08:45:10Z</time>
      </trkpt>
      <trkpt lat="45.76709" lon="6.28708">
        <ele>1067.6</ele>
        <time>2021-05-20T08:45:12Z</time>
      </trkpt>
      <trkpt lat="45.76708" lon="6.28709">
        <ele>1067</ele>
        <time>2021-05-20T08:45:13Z</time>
      </trkpt>
      <trkpt lat="45.76706" lon="6.28709">
        <ele>1066.4</ele>
        <time>2021-05-20T08:45:15Z</time>
      </trkpt>
      <trkpt lat="45.76706" lon="6.2871">
        <ele>1065.6</ele>
        <time>2021-05-20T08:45:17Z</time>
      </trkpt>
      <trkpt lat="45.76704" lon="6.28712">
        <ele>1065</ele>
        <time>2021-05-20T08:45:20Z</time>
      </trkpt>
      <trkpt lat="45.76703" lon="6.28714">
        <ele>1064.6</ele>
        <time>2021-05-20T08:45:22Z</time>
      </trkpt>
      <trkpt lat="45.76698" lon="6.2872">
        <ele>1063.6</ele>
        <time>2021-05-20T08:45:26Z</time>
      </trkpt>
      <trkpt lat="45.76696" lon="6.28722">
        <ele>1063.6</ele>
        <time>2021-05-20T08:45:27Z</time>
      </trkpt>
      <trkpt lat="45.76694" lon="6.28724">
        <ele>1063.6</ele>
        <time>2021-05-20T08:45:29Z</time>
      </trkpt>
      <trkpt lat="45.76688" lon="6.28728">
        <ele>1062.2</ele>
        <time>2021-05-20T08:45:33Z</time>
      </trkpt>
      <trkpt lat="45.76684" lon="6.28733">
        <ele>1060.6</ele>
        <time>2021-05-20T08:45:36Z</time>
      </trkpt>
      <trkpt lat="45.76682" lon="6.28736">
        <ele>1059</ele>
        <time>2021-05-20T08:45:38Z</time>
      </trkpt>
      <trkpt lat="45.76678" lon="6.28742">
        <ele>1057.6</ele>
        <time>2021-05-20T08:45:41Z</time>
      </trkpt>
      <trkpt lat="45.76676" lon="6.28745">
        <ele>1055.6</ele>
        <time>2021-05-20T08:45:43Z</time>
      </trkpt>
      <trkpt lat="45.76675" lon="6.28745">
        <ele>1054.8</ele>
        <time>2021-05-20T08:45:44Z</time>
      </trkpt>
      <trkpt lat="45.76674" lon="6.28747">
        <ele>1054.4</ele>
        <time>2021-05-20T08:45:45Z</time>
      </trkpt>
      <trkpt lat="45.76673" lon="6.28749">
        <ele>1053.8</ele>
        <time>2021-05-20T08:45:46Z</time>
      </trkpt>
      <trkpt lat="45.76671" lon="6.2875">
        <ele>1053</ele>
        <time>2021-05-20T08:45:47Z</time>
      </trkpt>
      <trkpt lat="45.7667" lon="6.28752">
        <ele>1052.2</ele>
        <time>2021-05-20T08:45:48Z</time>
      </trkpt>
      <trkpt lat="45.76667" lon="6.28754">
        <ele>1051.8</ele>
        <time>2021-05-20T08:45:49Z</time>
      </trkpt>
      <trkpt lat="45.76662" lon="6.28759">
        <ele>1051</ele>
        <time>2021-05-20T08:45:52Z</time>
      </trkpt>
      <trkpt lat="45.76662" lon="6.2876">
        <ele>1049.6</ele>
        <time>2021-05-20T08:45:53Z</time>
      </trkpt>
      <trkpt lat="45.76661" lon="6.28761">
        <ele>1048.6</ele>
        <time>2021-05-20T08:45:54Z</time>
      </trkpt>
      <trkpt lat="45.7666" lon="6.28761">
        <ele>1047.4</ele>
        <time>2021-05-20T08:45:57Z</time>
      </trkpt>
      <trkpt lat="45.76659" lon="6.28762">
        <ele>1047</ele>
        <time>2021-05-20T08:45:58Z</time>
      </trkpt>
      <trkpt lat="45.76658" lon="6.28761">
        <ele>1046.6</ele>
        <time>2021-05-20T08:46:00Z</time>
      </trkpt>
      <trkpt lat="45.76657" lon="6.28762">
        <ele>1045.8</ele>
        <time>2021-05-20T08:46:02Z</time>
      </trkpt>
      <trkpt lat="45.76654" lon="6.2876">
        <ele>1045.4</ele>
        <time>2021-05-20T08:46:04Z</time>
      </trkpt>
      <trkpt lat="45.76653" lon="6.2876">
        <ele>1044.6</ele>
        <time>2021-05-20T08:46:05Z</time>
      </trkpt>
      <trkpt lat="45.76652" lon="6.2876">
        <ele>1044</ele>
        <time>2021-05-20T08:46:06Z</time>
      </trkpt>
      <trkpt lat="45.76651" lon="6.28759">
        <ele>1043.8</ele>
        <time>2021-05-20T08:46:07Z</time>
      </trkpt>
      <trkpt lat="45.76649" lon="6.28759">
        <ele>1043.4</ele>
        <time>2021-05-20T08:46:08Z</time>
      </trkpt>
      <trkpt lat="45.76645" lon="6.28761">
        <ele>1042.8</ele>
        <time>2021-05-20T08:46:11Z</time>
      </trkpt>
      <trkpt lat="45.76644" lon="6.28762">
        <ele>1042.4</ele>
        <time>2021-05-20T08:46:12Z</time>
      </trkpt>
      <trkpt lat="45.76642" lon="6.28763">
        <ele>1041.2</ele>
        <time>2021-05-20T08:46:14Z</time>
      </trkpt>
      <trkpt lat="45.7664" lon="6.28763">
        <ele>1040.8</ele>
        <time>2021-05-20T08:46:15Z</time>
      </trkpt>
      <trkpt lat="45.76638" lon="6.28762">
        <ele>1039.4</ele>
        <time>2021-05-20T08:46:17Z</time>
      </trkpt>
      <trkpt lat="45.76636" lon="6.28763">
        <ele>1038.4</ele>
        <time>2021-05-20T08:46:20Z</time>
      </trkpt>
      <trkpt lat="45.76635" lon="6.28763">
        <ele>1038.2</ele>
        <time>2021-05-20T08:46:21Z</time>
      </trkpt>
      <trkpt lat="45.76635" lon="6.28764">
        <ele>1037.6</ele>
        <time>2021-05-20T08:47:02Z</time>
      </trkpt>
      <trkpt lat="45.76634" lon="6.28765">
        <ele>1037.6</ele>
        <time>2021-05-20T08:47:08Z</time>
      </trkpt>
      <trkpt lat="45.7663" lon="6.28766">
        <ele>1037</ele>
        <time>2021-05-20T08:47:11Z</time>
      </trkpt>
      <trkpt lat="45.76625" lon="6.28768">
        <ele>1036</ele>
        <time>2021-05-20T08:47:14Z</time>
      </trkpt>
      <trkpt lat="45.76623" lon="6.28768">
        <ele>1035.8</ele>
        <time>2021-05-20T08:47:15Z</time>
      </trkpt>
      <trkpt lat="45.7662" lon="6.28769">
        <ele>1034.2</ele>
        <time>2021-05-20T08:47:17Z</time>
      </trkpt>
      <trkpt lat="45.76617" lon="6.28769">
        <ele>1032.6</ele>
        <time>2021-05-20T08:47:19Z</time>
      </trkpt>
      <trkpt lat="45.76614" lon="6.28771">
        <ele>1032</ele>
        <time>2021-05-20T08:47:21Z</time>
      </trkpt>
      <trkpt lat="45.7661" lon="6.28772">
        <ele>1031.2</ele>
        <time>2021-05-20T08:47:23Z</time>
      </trkpt>
      <trkpt lat="45.76608" lon="6.28772">
        <ele>1030.2</ele>
        <time>2021-05-20T08:47:24Z</time>
      </trkpt>
      <trkpt lat="45.76606" lon="6.28773">
        <ele>1029.2</ele>
        <time>2021-05-20T08:47:25Z</time>
      </trkpt>
      <trkpt lat="45.76601" lon="6.28775">
        <ele>1027.8</ele>
        <time>2021-05-20T08:47:27Z</time>
      </trkpt>
      <trkpt lat="45.76597" lon="6.28777">
        <ele>1026.6</ele>
        <time>2021-05-20T08:47:29Z</time>
      </trkpt>
      <trkpt lat="45.76596" lon="6.28781">
        <ele>1025.4</ele>
        <time>2021-05-20T08:47:31Z</time>
      </trkpt>
      <trkpt lat="45.76595" lon="6.28784">
        <ele>1024.6</ele>
        <time>2021-05-20T08:47:32Z</time>
      </trkpt>
      <trkpt lat="45.76594" lon="6.28788">
        <ele>1024.2</ele>
        <time>2021-05-20T08:47:33Z</time>
      </trkpt>
      <trkpt lat="45.76593" lon="6.28794">
        <ele>1022.6</ele>
        <time>2021-05-20T08:47:35Z</time>
      </trkpt>
      <trkpt lat="45.76593" lon="6.288">
        <ele>1021.6</ele>
        <time>2021-05-20T08:47:37Z</time>
      </trkpt>
      <trkpt lat="45.76592" lon="6.28802">
        <ele>1020.4</ele>
        <time>2021-05-20T08:47:38Z</time>
      </trkpt>
      <trkpt lat="45.76592" lon="6.28808">
        <ele>1018.6</ele>
        <time>2021-05-20T08:47:40Z</time>
      </trkpt>
      <trkpt lat="45.76592" lon="6.28815">
        <ele>1017.2</ele>
        <time>2021-05-20T08:47:42Z</time>
      </trkpt>
      <trkpt lat="45.7659" lon="6.28825">
        <ele>1015.8</ele>
        <time>2021-05-20T08:47:45Z</time>
      </trkpt>
      <trkpt lat="45.76587" lon="6.2883">
        <ele>1014.8</ele>
        <time>2021-05-20T08:47:47Z</time>
      </trkpt>
      <trkpt lat="45.76584" lon="6.28832">
        <ele>1014.4</ele>
        <time>2021-05-20T08:47:48Z</time>
      </trkpt>
      <trkpt lat="45.76579" lon="6.28834">
        <ele>1015.4</ele>
        <time>2021-05-20T08:47:49Z</time>
      </trkpt>
      <trkpt lat="45.76574" lon="6.28835">
        <ele>1014.8</ele>
        <time>2021-05-20T08:47:50Z</time>
      </trkpt>
      <trkpt lat="45.76569" lon="6.28838">
        <ele>1014.4</ele>
        <time>2021-05-20T08:47:51Z</time>
      </trkpt>
      <trkpt lat="45.76565" lon="6.2884">
        <ele>1012.6</ele>
        <time>2021-05-20T08:47:52Z</time>
      </trkpt>
      <trkpt lat="45.76562" lon="6.28842">
        <ele>1011</ele>
        <time>2021-05-20T08:47:53Z</time>
      </trkpt>
      <trkpt lat="45.7656" lon="6.28842">
        <ele>1010.2</ele>
        <time>2021-05-20T08:47:54Z</time>
      </trkpt>
      <trkpt lat="45.76559" lon="6.28841">
        <ele>1009.8</ele>
        <time>2021-05-20T08:47:55Z</time>
      </trkpt>
      <trkpt lat="45.76558" lon="6.2884">
        <ele>1009.4</ele>
        <time>2021-05-20T08:47:56Z</time>
      </trkpt>
      <trkpt lat="45.76555" lon="6.28833">
        <ele>1009</ele>
        <time>2021-05-20T08:47:59Z</time>
      </trkpt>
      <trkpt lat="45.76543" lon="6.28816">
        <ele>1009</ele>
        <time>2021-05-20T08:48:07Z</time>
      </trkpt>
      <trkpt lat="45.76543" lon="6.28816">
        <ele>1008.8</ele>
        <time>2021-05-20T08:48:08Z</time>
      </trkpt>
      <trkpt lat="45.76542" lon="6.28816">
        <ele>1008.6</ele>
        <time>2021-05-20T08:48:11Z</time>
      </trkpt>
      <trkpt lat="45.76542" lon="6.28816">
        <ele>1008.6</ele>
        <time>2021-05-20T08:48:13Z</time>
      </trkpt>
      <trkpt lat="45.76542" lon="6.28816">
        <ele>1009</ele>
        <time>2021-05-20T08:48:24Z</time>
      </trkpt>
      <trkpt lat="45.76542" lon="6.28815">
        <ele>1008.8</ele>
        <time>2021-05-20T08:48:26Z</time>
      </trkpt>
      <trkpt lat="45.7654" lon="6.28814">
        <ele>1008.6</ele>
        <time>2021-05-20T08:48:29Z</time>
      </trkpt>
      <trkpt lat="45.76538" lon="6.28812">
        <ele>1008.4</ele>
        <time>2021-05-20T08:48:33Z</time>
      </trkpt>
      <trkpt lat="45.76537" lon="6.28812">
        <ele>1008.6</ele>
        <time>2021-05-20T08:48:35Z</time>
      </trkpt>
      <trkpt lat="45.76535" lon="6.28812">
        <ele>1008.6</ele>
        <time>2021-05-20T08:48:37Z</time>
      </trkpt>
      <trkpt lat="45.76533" lon="6.28812">
        <ele>1009</ele>
        <time>2021-05-20T08:48:40Z</time>
      </trkpt>
      <trkpt lat="45.76532" lon="6.28813">
        <ele>1009.4</ele>
        <time>2021-05-20T08:48:43Z</time>
      </trkpt>
      <trkpt lat="45.76532" lon="6.28813">
        <ele>1009.4</ele>
        <time>2021-05-20T08:48:44Z</time>
      </trkpt>
      <trkpt lat="45.76528" lon="6.28814">
        <ele>1009.8</ele>
        <time>2021-05-20T08:48:46Z</time>
      </trkpt>
      <trkpt lat="45.76526" lon="6.28814">
        <ele>1010</ele>
        <time>2021-05-20T08:48:47Z</time>
      </trkpt>
      <trkpt lat="45.7651" lon="6.28814">
        <ele>1011.2</ele>
        <time>2021-05-20T08:48:53Z</time>
      </trkpt>
      <trkpt lat="45.76508" lon="6.28814">
        <ele>1012.2</ele>
        <time>2021-05-20T08:48:55Z</time>
      </trkpt>
      <trkpt lat="45.76507" lon="6.28813">
        <ele>1012.6</ele>
        <time>2021-05-20T08:48:56Z</time>
      </trkpt>
      <trkpt lat="45.76505" lon="6.28812">
        <ele>1012.8</ele>
        <time>2021-05-20T08:48:58Z</time>
      </trkpt>
      <trkpt lat="45.76503" lon="6.28811">
        <ele>1013.6</ele>
        <time>2021-05-20T08:49:01Z</time>
      </trkpt>
      <trkpt lat="45.76501" lon="6.28811">
        <ele>1014.4</ele>
        <time>2021-05-20T08:49:04Z</time>
      </trkpt>
      <trkpt lat="45.765" lon="6.28811">
        <ele>1014.8</ele>
        <time>2021-05-20T08:49:05Z</time>
      </trkpt>
      <trkpt lat="45.76499" lon="6.28811">
        <ele>1015.2</ele>
        <time>2021-05-20T08:49:07Z</time>
      </trkpt>
      <trkpt lat="45.76496" lon="6.28812">
        <ele>1016</ele>
        <time>2021-05-20T08:49:11Z</time>
      </trkpt>
      <trkpt lat="45.76495" lon="6.28812">
        <ele>1016.2</ele>
        <time>2021-05-20T08:49:12Z</time>
      </trkpt>
      <trkpt lat="45.76494" lon="6.28813">
        <ele>1017.2</ele>
        <time>2021-05-20T08:49:15Z</time>
      </trkpt>
      <trkpt lat="45.76493" lon="6.28813">
        <ele>1017.4</ele>
        <time>2021-05-20T08:49:17Z</time>
      </trkpt>
      <trkpt lat="45.76492" lon="6.28813">
        <ele>1017.4</ele>
        <time>2021-05-20T08:49:18Z</time>
      </trkpt>
      <trkpt lat="45.7648" lon="6.28814">
        <ele>1017.6</ele>
        <time>2021-05-20T08:49:22Z</time>
      </trkpt>
      <trkpt lat="45.76474" lon="6.28813">
        <ele>1018.4</ele>
        <time>2021-05-20T08:49:24Z</time>
      </trkpt>
      <trkpt lat="45.7647" lon="6.28813">
        <ele>1019.4</ele>
        <time>2021-05-20T08:49:26Z</time>
      </trkpt>
      <trkpt lat="45.76469" lon="6.28813">
        <ele>1020</ele>
        <time>2021-05-20T08:49:27Z</time>
      </trkpt>
      <trkpt lat="45.76469" lon="6.2881">
        <ele>1020.6</ele>
        <time>2021-05-20T08:49:29Z</time>
      </trkpt>
      <trkpt lat="45.76469" lon="6.28807">
        <ele>1021</ele>
        <time>2021-05-20T08:49:32Z</time>
      </trkpt>
      <trkpt lat="45.76469" lon="6.28805">
        <ele>1021.8</ele>
        <time>2021-05-20T08:49:34Z</time>
      </trkpt>
      <trkpt lat="45.76468" lon="6.28801">
        <ele>1022.4</ele>
        <time>2021-05-20T08:49:37Z</time>
      </trkpt>
      <trkpt lat="45.76469" lon="6.288">
        <ele>1022.4</ele>
        <time>2021-05-20T08:49:39Z</time>
      </trkpt>
      <trkpt lat="45.76469" lon="6.28797">
        <ele>1022.6</ele>
        <time>2021-05-20T08:49:42Z</time>
      </trkpt>
      <trkpt lat="45.76466" lon="6.28794">
        <ele>1022.8</ele>
        <time>2021-05-20T08:49:44Z</time>
      </trkpt>
      <trkpt lat="45.76465" lon="6.28792">
        <ele>1022.8</ele>
        <time>2021-05-20T08:49:45Z</time>
      </trkpt>
      <trkpt lat="45.76461" lon="6.28789">
        <ele>1023</ele>
        <time>2021-05-20T08:49:47Z</time>
      </trkpt>
      <trkpt lat="45.76456" lon="6.28788">
        <ele>1023.4</ele>
        <time>2021-05-20T08:49:50Z</time>
      </trkpt>
      <trkpt lat="45.76454" lon="6.28787">
        <ele>1024.2</ele>
        <time>2021-05-20T08:49:52Z</time>
      </trkpt>
      <trkpt lat="45.76452" lon="6.28789">
        <ele>1024.4</ele>
        <time>2021-05-20T08:49:55Z</time>
      </trkpt>
      <trkpt lat="45.76448" lon="6.2879">
        <ele>1024.2</ele>
        <time>2021-05-20T08:49:57Z</time>
      </trkpt>
      <trkpt lat="45.76441" lon="6.28793">
        <ele>1024.2</ele>
        <time>2021-05-20T08:50:00Z</time>
      </trkpt>
      <trkpt lat="45.76429" lon="6.288">
        <ele>1024.2</ele>
        <time>2021-05-20T08:50:04Z</time>
      </trkpt>
      <trkpt lat="45.76426" lon="6.288">
        <ele>1024.4</ele>
        <time>2021-05-20T08:50:05Z</time>
      </trkpt>
      <trkpt lat="45.76415" lon="6.28795">
        <ele>1024.6</ele>
        <time>2021-05-20T08:50:10Z</time>
      </trkpt>
      <trkpt lat="45.76412" lon="6.28795">
        <ele>1024.6</ele>
        <time>2021-05-20T08:50:11Z</time>
      </trkpt>
      <trkpt lat="45.76404" lon="6.28796">
        <ele>1024.8</ele>
        <time>2021-05-20T08:50:14Z</time>
      </trkpt>
      <trkpt lat="45.76402" lon="6.28796">
        <ele>1024.8</ele>
        <time>2021-05-20T08:50:15Z</time>
      </trkpt>
      <trkpt lat="45.76397" lon="6.28797">
        <ele>1024.8</ele>
        <time>2021-05-20T08:50:17Z</time>
      </trkpt>
      <trkpt lat="45.76395" lon="6.28798">
        <ele>1024.6</ele>
        <time>2021-05-20T08:50:18Z</time>
      </trkpt>
      <trkpt lat="45.76393" lon="6.288">
        <ele>1024.4</ele>
        <time>2021-05-20T08:50:20Z</time>
      </trkpt>
      <trkpt lat="45.76393" lon="6.288">
        <ele>1024.2</ele>
        <time>2021-05-20T08:50:28Z</time>
      </trkpt>
      <trkpt lat="45.76393" lon="6.28799">
        <ele>1024</ele>
        <time>2021-05-20T08:50:33Z</time>
      </trkpt>
      <trkpt lat="45.76393" lon="6.28799">
        <ele>1024</ele>
        <time>2021-05-20T08:50:41Z</time>
      </trkpt>
      <trkpt lat="45.76392" lon="6.28797">
        <ele>1023.8</ele>
        <time>2021-05-20T08:50:53Z</time>
      </trkpt>
      <trkpt lat="45.76395" lon="6.28791">
        <ele>1023.6</ele>
        <time>2021-05-20T08:51:01Z</time>
      </trkpt>
      <trkpt lat="45.76392" lon="6.28785">
        <ele>1023.4</ele>
        <time>2021-05-20T08:51:06Z</time>
      </trkpt>
      <trkpt lat="45.7639" lon="6.28784">
        <ele>1023.2</ele>
        <time>2021-05-20T08:51:07Z</time>
      </trkpt>
      <trkpt lat="45.76387" lon="6.28782">
        <ele>1022.8</ele>
        <time>2021-05-20T08:51:08Z</time>
      </trkpt>
      <trkpt lat="45.7638" lon="6.28779">
        <ele>1021.4</ele>
        <time>2021-05-20T08:51:11Z</time>
      </trkpt>
      <trkpt lat="45.76378" lon="6.28778">
        <ele>1021</ele>
        <time>2021-05-20T08:51:12Z</time>
      </trkpt>
      <trkpt lat="45.76376" lon="6.28778">
        <ele>1020.4</ele>
        <time>2021-05-20T08:51:13Z</time>
      </trkpt>
      <trkpt lat="45.76371" lon="6.28778">
        <ele>1019</ele>
        <time>2021-05-20T08:51:15Z</time>
      </trkpt>
      <trkpt lat="45.76368" lon="6.2878">
        <ele>1017.6</ele>
        <time>2021-05-20T08:51:17Z</time>
      </trkpt>
      <trkpt lat="45.76367" lon="6.28781">
        <ele>1017.2</ele>
        <time>2021-05-20T08:51:18Z</time>
      </trkpt>
      <trkpt lat="45.76366" lon="6.28783">
        <ele>1016.8</ele>
        <time>2021-05-20T08:51:21Z</time>
      </trkpt>
      <trkpt lat="45.76365" lon="6.28784">
        <ele>1016.4</ele>
        <time>2021-05-20T08:51:22Z</time>
      </trkpt>
      <trkpt lat="45.76364" lon="6.28786">
        <ele>1015.4</ele>
        <time>2021-05-20T08:51:25Z</time>
      </trkpt>
      <trkpt lat="45.76361" lon="6.28788">
        <ele>1015</ele>
        <time>2021-05-20T08:51:26Z</time>
      </trkpt>
      <trkpt lat="45.76359" lon="6.28789">
        <ele>1014.8</ele>
        <time>2021-05-20T08:51:27Z</time>
      </trkpt>
      <trkpt lat="45.76357" lon="6.28789">
        <ele>1014.2</ele>
        <time>2021-05-20T08:51:28Z</time>
      </trkpt>
      <trkpt lat="45.76351" lon="6.28787">
        <ele>1012.4</ele>
        <time>2021-05-20T08:51:30Z</time>
      </trkpt>
      <trkpt lat="45.76347" lon="6.28787">
        <ele>1011</ele>
        <time>2021-05-20T08:51:32Z</time>
      </trkpt>
      <trkpt lat="45.76341" lon="6.2879">
        <ele>1010</ele>
        <time>2021-05-20T08:51:36Z</time>
      </trkpt>
      <trkpt lat="45.76338" lon="6.2879">
        <ele>1009.2</ele>
        <time>2021-05-20T08:51:37Z</time>
      </trkpt>
      <trkpt lat="45.76336" lon="6.28791">
        <ele>1008.8</ele>
        <time>2021-05-20T08:51:38Z</time>
      </trkpt>
      <trkpt lat="45.76335" lon="6.28791">
        <ele>1008.2</ele>
        <time>2021-05-20T08:51:39Z</time>
      </trkpt>
      <trkpt lat="45.76335" lon="6.28792">
        <ele>1007.6</ele>
        <time>2021-05-20T08:51:40Z</time>
      </trkpt>
      <trkpt lat="45.76335" lon="6.28792">
        <ele>1007.2</ele>
        <time>2021-05-20T08:51:42Z</time>
      </trkpt>
      <trkpt lat="45.76335" lon="6.28796">
        <ele>1006.6</ele>
        <time>2021-05-20T08:51:47Z</time>
      </trkpt>
      <trkpt lat="45.76335" lon="6.28798">
        <ele>1006.2</ele>
        <time>2021-05-20T08:51:49Z</time>
      </trkpt>
      <trkpt lat="45.76335" lon="6.288">
        <ele>1005.6</ele>
        <time>2021-05-20T08:51:51Z</time>
      </trkpt>
      <trkpt lat="45.76335" lon="6.28804">
        <ele>1004.4</ele>
        <time>2021-05-20T08:51:56Z</time>
      </trkpt>
      <trkpt lat="45.76334" lon="6.28807">
        <ele>1004</ele>
        <time>2021-05-20T08:51:58Z</time>
      </trkpt>
      <trkpt lat="45.76333" lon="6.28809">
        <ele>1003.8</ele>
        <time>2021-05-20T08:51:59Z</time>
      </trkpt>
      <trkpt lat="45.76332" lon="6.28811">
        <ele>1003.6</ele>
        <time>2021-05-20T08:52:01Z</time>
      </trkpt>
      <trkpt lat="45.76332" lon="6.28813">
        <ele>1003.6</ele>
        <time>2021-05-20T08:52:02Z</time>
      </trkpt>
      <trkpt lat="45.76333" lon="6.28814">
        <ele>1003.4</ele>
        <time>2021-05-20T08:52:03Z</time>
      </trkpt>
      <trkpt lat="45.76333" lon="6.28816">
        <ele>1003</ele>
        <time>2021-05-20T08:52:04Z</time>
      </trkpt>
      <trkpt lat="45.76332" lon="6.28819">
        <ele>1002.2</ele>
        <time>2021-05-20T08:52:05Z</time>
      </trkpt>
      <trkpt lat="45.76331" lon="6.28821">
        <ele>1001.8</ele>
        <time>2021-05-20T08:52:06Z</time>
      </trkpt>
      <trkpt lat="45.76331" lon="6.28826">
        <ele>1000.6</ele>
        <time>2021-05-20T08:52:09Z</time>
      </trkpt>
      <trkpt lat="45.76334" lon="6.28826">
        <ele>999.4</ele>
        <time>2021-05-20T08:52:12Z</time>
      </trkpt>
      <trkpt lat="45.76332" lon="6.2883">
        <ele>998.4</ele>
        <time>2021-05-20T08:52:16Z</time>
      </trkpt>
      <trkpt lat="45.76329" lon="6.28836">
        <ele>997.6</ele>
        <time>2021-05-20T08:52:20Z</time>
      </trkpt>
      <trkpt lat="45.76329" lon="6.28837">
        <ele>997.6</ele>
        <time>2021-05-20T08:52:21Z</time>
      </trkpt>
      <trkpt lat="45.76328" lon="6.2884">
        <ele>997.2</ele>
        <time>2021-05-20T08:52:23Z</time>
      </trkpt>
      <trkpt lat="45.76327" lon="6.28841">
        <ele>996.2</ele>
        <time>2021-05-20T08:52:25Z</time>
      </trkpt>
      <trkpt lat="45.76326" lon="6.28843">
        <ele>995.8</ele>
        <time>2021-05-20T08:52:27Z</time>
      </trkpt>
      <trkpt lat="45.76325" lon="6.28843">
        <ele>994.6</ele>
        <time>2021-05-20T08:52:29Z</time>
      </trkpt>
      <trkpt lat="45.76323" lon="6.28842">
        <ele>993.6</ele>
        <time>2021-05-20T08:52:31Z</time>
      </trkpt>
      <trkpt lat="45.76322" lon="6.28843">
        <ele>992.8</ele>
        <time>2021-05-20T08:52:33Z</time>
      </trkpt>
      <trkpt lat="45.7632" lon="6.28845">
        <ele>992.4</ele>
        <time>2021-05-20T08:52:34Z</time>
      </trkpt>
      <trkpt lat="45.76319" lon="6.28848">
        <ele>991.8</ele>
        <time>2021-05-20T08:52:36Z</time>
      </trkpt>
      <trkpt lat="45.76317" lon="6.28851">
        <ele>991</ele>
        <time>2021-05-20T08:52:38Z</time>
      </trkpt>
      <trkpt lat="45.76316" lon="6.28854">
        <ele>990.2</ele>
        <time>2021-05-20T08:52:40Z</time>
      </trkpt>
      <trkpt lat="45.76315" lon="6.28856">
        <ele>989.8</ele>
        <time>2021-05-20T08:52:41Z</time>
      </trkpt>
      <trkpt lat="45.76314" lon="6.28859">
        <ele>989.2</ele>
        <time>2021-05-20T08:52:43Z</time>
      </trkpt>
      <trkpt lat="45.76311" lon="6.28863">
        <ele>988.6</ele>
        <time>2021-05-20T08:52:45Z</time>
      </trkpt>
      <trkpt lat="45.7631" lon="6.28863">
        <ele>988.4</ele>
        <time>2021-05-20T08:52:46Z</time>
      </trkpt>
      <trkpt lat="45.76308" lon="6.28863">
        <ele>987.6</ele>
        <time>2021-05-20T08:52:48Z</time>
      </trkpt>
      <trkpt lat="45.76308" lon="6.28863">
        <ele>987.4</ele>
        <time>2021-05-20T08:52:49Z</time>
      </trkpt>
      <trkpt lat="45.76305" lon="6.28863">
        <ele>987</ele>
        <time>2021-05-20T08:52:51Z</time>
      </trkpt>
      <trkpt lat="45.76301" lon="6.28864">
        <ele>986.4</ele>
        <time>2021-05-20T08:52:55Z</time>
      </trkpt>
      <trkpt lat="45.76301" lon="6.28865">
        <ele>986</ele>
        <time>2021-05-20T08:52:56Z</time>
      </trkpt>
      <trkpt lat="45.76301" lon="6.28866">
        <ele>985.2</ele>
        <time>2021-05-20T08:52:58Z</time>
      </trkpt>
      <trkpt lat="45.76299" lon="6.28867">
        <ele>985</ele>
        <time>2021-05-20T08:52:59Z</time>
      </trkpt>
      <trkpt lat="45.76296" lon="6.28868">
        <ele>984</ele>
        <time>2021-05-20T08:53:01Z</time>
      </trkpt>
      <trkpt lat="45.76294" lon="6.28868">
        <ele>983.6</ele>
        <time>2021-05-20T08:53:02Z</time>
      </trkpt>
      <trkpt lat="45.76289" lon="6.28869">
        <ele>982.4</ele>
        <time>2021-05-20T08:53:06Z</time>
      </trkpt>
      <trkpt lat="45.76287" lon="6.2887">
        <ele>981.8</ele>
        <time>2021-05-20T08:53:08Z</time>
      </trkpt>
      <trkpt lat="45.76287" lon="6.28871">
        <ele>981.4</ele>
        <time>2021-05-20T08:53:09Z</time>
      </trkpt>
      <trkpt lat="45.76286" lon="6.28875">
        <ele>980.4</ele>
        <time>2021-05-20T08:53:12Z</time>
      </trkpt>
      <trkpt lat="45.76285" lon="6.28877">
        <ele>980.2</ele>
        <time>2021-05-20T08:53:13Z</time>
      </trkpt>
      <trkpt lat="45.76285" lon="6.28879">
        <ele>978.8</ele>
        <time>2021-05-20T08:53:15Z</time>
      </trkpt>
      <trkpt lat="45.76286" lon="6.28881">
        <ele>978.4</ele>
        <time>2021-05-20T08:53:18Z</time>
      </trkpt>
      <trkpt lat="45.76286" lon="6.28882">
        <ele>977.8</ele>
        <time>2021-05-20T08:53:20Z</time>
      </trkpt>
      <trkpt lat="45.76285" lon="6.28887">
        <ele>977.4</ele>
        <time>2021-05-20T08:53:22Z</time>
      </trkpt>
      <trkpt lat="45.76285" lon="6.28894">
        <ele>977.2</ele>
        <time>2021-05-20T08:53:24Z</time>
      </trkpt>
      <trkpt lat="45.76285" lon="6.28903">
        <ele>976.6</ele>
        <time>2021-05-20T08:53:26Z</time>
      </trkpt>
      <trkpt lat="45.76287" lon="6.28909">
        <ele>975.4</ele>
        <time>2021-05-20T08:53:28Z</time>
      </trkpt>
      <trkpt lat="45.76288" lon="6.28911">
        <ele>975</ele>
        <time>2021-05-20T08:53:29Z</time>
      </trkpt>
      <trkpt lat="45.76289" lon="6.28913">
        <ele>974.8</ele>
        <time>2021-05-20T08:53:30Z</time>
      </trkpt>
      <trkpt lat="45.76291" lon="6.28918">
        <ele>974.6</ele>
        <time>2021-05-20T08:53:34Z</time>
      </trkpt>
      <trkpt lat="45.76292" lon="6.2892">
        <ele>974.6</ele>
        <time>2021-05-20T08:53:35Z</time>
      </trkpt>
      <trkpt lat="45.76293" lon="6.28923">
        <ele>974.4</ele>
        <time>2021-05-20T08:53:37Z</time>
      </trkpt>
      <trkpt lat="45.76296" lon="6.28925">
        <ele>974.2</ele>
        <time>2021-05-20T08:53:38Z</time>
      </trkpt>
      <trkpt lat="45.76303" lon="6.28929">
        <ele>973.4</ele>
        <time>2021-05-20T08:53:40Z</time>
      </trkpt>
      <trkpt lat="45.76306" lon="6.2893">
        <ele>973</ele>
        <time>2021-05-20T08:53:41Z</time>
      </trkpt>
      <trkpt lat="45.7631" lon="6.28944">
        <ele>972</ele>
        <time>2021-05-20T08:53:45Z</time>
      </trkpt>
      <trkpt lat="45.7631" lon="6.28946">
        <ele>971.8</ele>
        <time>2021-05-20T08:53:46Z</time>
      </trkpt>
      <trkpt lat="45.76311" lon="6.28949">
        <ele>970.8</ele>
        <time>2021-05-20T08:53:48Z</time>
      </trkpt>
      <trkpt lat="45.76311" lon="6.28954">
        <ele>969.8</ele>
        <time>2021-05-20T08:53:50Z</time>
      </trkpt>
      <trkpt lat="45.76312" lon="6.28959">
        <ele>969.2</ele>
        <time>2021-05-20T08:53:52Z</time>
      </trkpt>
      <trkpt lat="45.76313" lon="6.28961">
        <ele>969</ele>
        <time>2021-05-20T08:53:53Z</time>
      </trkpt>
      <trkpt lat="45.76314" lon="6.28962">
        <ele>968.4</ele>
        <time>2021-05-20T08:53:54Z</time>
      </trkpt>
      <trkpt lat="45.76318" lon="6.28968">
        <ele>967.2</ele>
        <time>2021-05-20T08:53:57Z</time>
      </trkpt>
      <trkpt lat="45.76318" lon="6.28971">
        <ele>966.6</ele>
        <time>2021-05-20T08:53:58Z</time>
      </trkpt>
      <trkpt lat="45.76319" lon="6.28973">
        <ele>966.2</ele>
        <time>2021-05-20T08:53:59Z</time>
      </trkpt>
      <trkpt lat="45.7632" lon="6.28976">
        <ele>965.8</ele>
        <time>2021-05-20T08:54:00Z</time>
      </trkpt>
      <trkpt lat="45.76321" lon="6.28979">
        <ele>964.4</ele>
        <time>2021-05-20T08:54:02Z</time>
      </trkpt>
      <trkpt lat="45.76321" lon="6.2898">
        <ele>964.2</ele>
        <time>2021-05-20T08:54:03Z</time>
      </trkpt>
      <trkpt lat="45.76321" lon="6.28981">
        <ele>964</ele>
        <time>2021-05-20T08:54:04Z</time>
      </trkpt>
      <trkpt lat="45.76322" lon="6.28982">
        <ele>964</ele>
        <time>2021-05-20T08:54:05Z</time>
      </trkpt>
      <trkpt lat="45.7632" lon="6.28992">
        <ele>963.4</ele>
        <time>2021-05-20T08:54:09Z</time>
      </trkpt>
      <trkpt lat="45.76321" lon="6.28995">
        <ele>961.8</ele>
        <time>2021-05-20T08:54:11Z</time>
      </trkpt>
      <trkpt lat="45.76322" lon="6.28997">
        <ele>961.6</ele>
        <time>2021-05-20T08:54:12Z</time>
      </trkpt>
      <trkpt lat="45.76324" lon="6.28998">
        <ele>961.2</ele>
        <time>2021-05-20T08:54:13Z</time>
      </trkpt>
      <trkpt lat="45.76325" lon="6.29">
        <ele>961.2</ele>
        <time>2021-05-20T08:54:15Z</time>
      </trkpt>
      <trkpt lat="45.76325" lon="6.29003">
        <ele>960.6</ele>
        <time>2021-05-20T08:54:17Z</time>
      </trkpt>
      <trkpt lat="45.76323" lon="6.29005">
        <ele>960.6</ele>
        <time>2021-05-20T08:54:18Z</time>
      </trkpt>
      <trkpt lat="45.7632" lon="6.29009">
        <ele>960</ele>
        <time>2021-05-20T08:54:20Z</time>
      </trkpt>
      <trkpt lat="45.76317" lon="6.29013">
        <ele>959.6</ele>
        <time>2021-05-20T08:54:22Z</time>
      </trkpt>
      <trkpt lat="45.76316" lon="6.29014">
        <ele>959.4</ele>
        <time>2021-05-20T08:54:23Z</time>
      </trkpt>
      <trkpt lat="45.76316" lon="6.29015">
        <ele>959.2</ele>
        <time>2021-05-20T08:54:24Z</time>
      </trkpt>
      <trkpt lat="45.76316" lon="6.29015">
        <ele>959</ele>
        <time>2021-05-20T08:54:25Z</time>
      </trkpt>
      <trkpt lat="45.76318" lon="6.29014">
        <ele>958.8</ele>
        <time>2021-05-20T08:54:27Z</time>
      </trkpt>
      <trkpt lat="45.76324" lon="6.29015">
        <ele>958.6</ele>
        <time>2021-05-20T08:54:29Z</time>
      </trkpt>
      <trkpt lat="45.76327" lon="6.29013">
        <ele>958</ele>
        <time>2021-05-20T08:54:32Z</time>
      </trkpt>
      <trkpt lat="45.76327" lon="6.29012">
        <ele>957.4</ele>
        <time>2021-05-20T08:54:34Z</time>
      </trkpt>
      <trkpt lat="45.7633" lon="6.29009">
        <ele>957</ele>
        <time>2021-05-20T08:54:37Z</time>
      </trkpt>
      <trkpt lat="45.76335" lon="6.29005">
        <ele>956.4</ele>
        <time>2021-05-20T08:54:40Z</time>
      </trkpt>
      <trkpt lat="45.76336" lon="6.29004">
        <ele>956.4</ele>
        <time>2021-05-20T08:54:41Z</time>
      </trkpt>
      <trkpt lat="45.76338" lon="6.29004">
        <ele>955</ele>
        <time>2021-05-20T08:54:46Z</time>
      </trkpt>
      <trkpt lat="45.76336" lon="6.29011">
        <ele>954.4</ele>
        <time>2021-05-20T08:54:49Z</time>
      </trkpt>
      <trkpt lat="45.76335" lon="6.29015">
        <ele>954</ele>
        <time>2021-05-20T08:54:51Z</time>
      </trkpt>
      <trkpt lat="45.76335" lon="6.29016">
        <ele>953.6</ele>
        <time>2021-05-20T08:54:52Z</time>
      </trkpt>
      <trkpt lat="45.76335" lon="6.29019">
        <ele>952.6</ele>
        <time>2021-05-20T08:54:54Z</time>
      </trkpt>
      <trkpt lat="45.76334" lon="6.29022">
        <ele>952.2</ele>
        <time>2021-05-20T08:54:56Z</time>
      </trkpt>
      <trkpt lat="45.76334" lon="6.29023">
        <ele>952.2</ele>
        <time>2021-05-20T08:54:57Z</time>
      </trkpt>
      <trkpt lat="45.76332" lon="6.29026">
        <ele>952</ele>
        <time>2021-05-20T08:54:59Z</time>
      </trkpt>
      <trkpt lat="45.76331" lon="6.29031">
        <ele>951.4</ele>
        <time>2021-05-20T08:55:03Z</time>
      </trkpt>
      <trkpt lat="45.7633" lon="6.29034">
        <ele>950.6</ele>
        <time>2021-05-20T08:55:06Z</time>
      </trkpt>
      <trkpt lat="45.76329" lon="6.29036">
        <ele>950.4</ele>
        <time>2021-05-20T08:55:08Z</time>
      </trkpt>
      <trkpt lat="45.76327" lon="6.29038">
        <ele>949.2</ele>
        <time>2021-05-20T08:55:11Z</time>
      </trkpt>
      <trkpt lat="45.76326" lon="6.29039">
        <ele>948.6</ele>
        <time>2021-05-20T08:55:12Z</time>
      </trkpt>
      <trkpt lat="45.76325" lon="6.2904">
        <ele>948.2</ele>
        <time>2021-05-20T08:55:14Z</time>
      </trkpt>
      <trkpt lat="45.76325" lon="6.29041">
        <ele>948</ele>
        <time>2021-05-20T08:55:15Z</time>
      </trkpt>
      <trkpt lat="45.76324" lon="6.29042">
        <ele>947.6</ele>
        <time>2021-05-20T08:55:16Z</time>
      </trkpt>
      <trkpt lat="45.76323" lon="6.29046">
        <ele>947</ele>
        <time>2021-05-20T08:55:18Z</time>
      </trkpt>
      <trkpt lat="45.76321" lon="6.29048">
        <ele>946.6</ele>
        <time>2021-05-20T08:55:19Z</time>
      </trkpt>
      <trkpt lat="45.76317" lon="6.29052">
        <ele>945.2</ele>
        <time>2021-05-20T08:55:22Z</time>
      </trkpt>
      <trkpt lat="45.76317" lon="6.29051">
        <ele>944.6</ele>
        <time>2021-05-20T08:55:24Z</time>
      </trkpt>
      <trkpt lat="45.76318" lon="6.2905">
        <ele>944</ele>
        <time>2021-05-20T08:55:26Z</time>
      </trkpt>
      <trkpt lat="45.76318" lon="6.2905">
        <ele>943.2</ele>
        <time>2021-05-20T08:55:28Z</time>
      </trkpt>
      <trkpt lat="45.7632" lon="6.29051">
        <ele>943</ele>
        <time>2021-05-20T08:55:29Z</time>
      </trkpt>
      <trkpt lat="45.76322" lon="6.29051">
        <ele>942.4</ele>
        <time>2021-05-20T08:55:31Z</time>
      </trkpt>
      <trkpt lat="45.76322" lon="6.29052">
        <ele>942</ele>
        <time>2021-05-20T08:55:32Z</time>
      </trkpt>
      <trkpt lat="45.76323" lon="6.29052">
        <ele>941.4</ele>
        <time>2021-05-20T08:55:34Z</time>
      </trkpt>
      <trkpt lat="45.76324" lon="6.29052">
        <ele>941</ele>
        <time>2021-05-20T08:55:35Z</time>
      </trkpt>
      <trkpt lat="45.76325" lon="6.29052">
        <ele>940.8</ele>
        <time>2021-05-20T08:55:36Z</time>
      </trkpt>
      <trkpt lat="45.76326" lon="6.29052">
        <ele>940.6</ele>
        <time>2021-05-20T08:55:39Z</time>
      </trkpt>
      <trkpt lat="45.76327" lon="6.29052">
        <ele>940.4</ele>
        <time>2021-05-20T08:55:40Z</time>
      </trkpt>
      <trkpt lat="45.76329" lon="6.29053">
        <ele>940.2</ele>
        <time>2021-05-20T08:55:41Z</time>
      </trkpt>
      <trkpt lat="45.7633" lon="6.29053">
        <ele>939.6</ele>
        <time>2021-05-20T08:55:42Z</time>
      </trkpt>
      <trkpt lat="45.76337" lon="6.29058">
        <ele>938.4</ele>
        <time>2021-05-20T08:55:45Z</time>
      </trkpt>
      <trkpt lat="45.7634" lon="6.2906">
        <ele>937.8</ele>
        <time>2021-05-20T08:55:46Z</time>
      </trkpt>
      <trkpt lat="45.76344" lon="6.29061">
        <ele>936.8</ele>
        <time>2021-05-20T08:55:48Z</time>
      </trkpt>
      <trkpt lat="45.76346" lon="6.2906">
        <ele>936.2</ele>
        <time>2021-05-20T08:55:49Z</time>
      </trkpt>
      <trkpt lat="45.76346" lon="6.2906">
        <ele>935.4</ele>
        <time>2021-05-20T08:55:50Z</time>
      </trkpt>
      <trkpt lat="45.76349" lon="6.29058">
        <ele>934.6</ele>
        <time>2021-05-20T08:55:53Z</time>
      </trkpt>
      <trkpt lat="45.76349" lon="6.29057">
        <ele>933.6</ele>
        <time>2021-05-20T08:55:55Z</time>
      </trkpt>
      <trkpt lat="45.76349" lon="6.29055">
        <ele>932.4</ele>
        <time>2021-05-20T08:55:58Z</time>
      </trkpt>
      <trkpt lat="45.76348" lon="6.29054">
        <ele>932.2</ele>
        <time>2021-05-20T08:55:59Z</time>
      </trkpt>
      <trkpt lat="45.76349" lon="6.29057">
        <ele>931.4</ele>
        <time>2021-05-20T08:56:04Z</time>
      </trkpt>
      <trkpt lat="45.76349" lon="6.29057">
        <ele>931</ele>
        <time>2021-05-20T08:56:06Z</time>
      </trkpt>
      <trkpt lat="45.76352" lon="6.2906">
        <ele>930.8</ele>
        <time>2021-05-20T08:56:08Z</time>
      </trkpt>
      <trkpt lat="45.76353" lon="6.29064">
        <ele>930.2</ele>
        <time>2021-05-20T08:56:10Z</time>
      </trkpt>
      <trkpt lat="45.76353" lon="6.29068">
        <ele>929.8</ele>
        <time>2021-05-20T08:56:11Z</time>
      </trkpt>
      <trkpt lat="45.76353" lon="6.29072">
        <ele>929.2</ele>
        <time>2021-05-20T08:56:12Z</time>
      </trkpt>
      <trkpt lat="45.76353" lon="6.29079">
        <ele>927.6</ele>
        <time>2021-05-20T08:56:14Z</time>
      </trkpt>
      <trkpt lat="45.76353" lon="6.29083">
        <ele>926.6</ele>
        <time>2021-05-20T08:56:16Z</time>
      </trkpt>
      <trkpt lat="45.76353" lon="6.29084">
        <ele>926.4</ele>
        <time>2021-05-20T08:56:17Z</time>
      </trkpt>
      <trkpt lat="45.76357" lon="6.29087">
        <ele>925.8</ele>
        <time>2021-05-20T08:56:22Z</time>
      </trkpt>
      <trkpt lat="45.76358" lon="6.29088">
        <ele>925.4</ele>
        <time>2021-05-20T08:56:25Z</time>
      </trkpt>
      <trkpt lat="45.76359" lon="6.29091">
        <ele>924.6</ele>
        <time>2021-05-20T08:56:28Z</time>
      </trkpt>
      <trkpt lat="45.76358" lon="6.29091">
        <ele>924.4</ele>
        <time>2021-05-20T08:56:30Z</time>
      </trkpt>
      <trkpt lat="45.76359" lon="6.29091">
        <ele>924</ele>
        <time>2021-05-20T08:56:31Z</time>
      </trkpt>
      <trkpt lat="45.76359" lon="6.29091">
        <ele>923.6</ele>
        <time>2021-05-20T08:56:34Z</time>
      </trkpt>
      <trkpt lat="45.76359" lon="6.29092">
        <ele>923.2</ele>
        <time>2021-05-20T08:56:36Z</time>
      </trkpt>
      <trkpt lat="45.76359" lon="6.29093">
        <ele>923</ele>
        <time>2021-05-20T08:56:37Z</time>
      </trkpt>
      <trkpt lat="45.76359" lon="6.29093">
        <ele>922.2</ele>
        <time>2021-05-20T08:56:39Z</time>
      </trkpt>
      <trkpt lat="45.7636" lon="6.29093">
        <ele>922</ele>
        <time>2021-05-20T08:56:40Z</time>
      </trkpt>
      <trkpt lat="45.76363" lon="6.29096">
        <ele>921</ele>
        <time>2021-05-20T08:56:46Z</time>
      </trkpt>
      <trkpt lat="45.76365" lon="6.29097">
        <ele>920.6</ele>
        <time>2021-05-20T08:56:49Z</time>
      </trkpt>
      <trkpt lat="45.76367" lon="6.29094">
        <ele>919.6</ele>
        <time>2021-05-20T08:56:53Z</time>
      </trkpt>
      <trkpt lat="45.76367" lon="6.29094">
        <ele>919.4</ele>
        <time>2021-05-20T08:56:54Z</time>
      </trkpt>
      <trkpt lat="45.76368" lon="6.2909">
        <ele>918.6</ele>
        <time>2021-05-20T08:57:00Z</time>
      </trkpt>
      <trkpt lat="45.76368" lon="6.29089">
        <ele>918.8</ele>
        <time>2021-05-20T08:57:03Z</time>
      </trkpt>
      <trkpt lat="45.76376" lon="6.29089">
        <ele>918.8</ele>
        <time>2021-05-20T08:57:07Z</time>
      </trkpt>
      <trkpt lat="45.76375" lon="6.29093">
        <ele>918.8</ele>
        <time>2021-05-20T08:57:13Z</time>
      </trkpt>
      <trkpt lat="45.76374" lon="6.29097">
        <ele>918.8</ele>
        <time>2021-05-20T08:57:15Z</time>
      </trkpt>
      <trkpt lat="45.76373" lon="6.29098">
        <ele>918.8</ele>
        <time>2021-05-20T08:57:16Z</time>
      </trkpt>
      <trkpt lat="45.7637" lon="6.29103">
        <ele>918.4</ele>
        <time>2021-05-20T08:57:18Z</time>
      </trkpt>
      <trkpt lat="45.76368" lon="6.29105">
        <ele>917.6</ele>
        <time>2021-05-20T08:57:20Z</time>
      </trkpt>
      <trkpt lat="45.76367" lon="6.29106">
        <ele>917.2</ele>
        <time>2021-05-20T08:57:21Z</time>
      </trkpt>
      <trkpt lat="45.7636" lon="6.29115">
        <ele>916.6</ele>
        <time>2021-05-20T08:57:27Z</time>
      </trkpt>
      <trkpt lat="45.76358" lon="6.29117">
        <ele>915.8</ele>
        <time>2021-05-20T08:57:30Z</time>
      </trkpt>
      <trkpt lat="45.76355" lon="6.29119">
        <ele>915.2</ele>
        <time>2021-05-20T08:57:34Z</time>
      </trkpt>
      <trkpt lat="45.76351" lon="6.29123">
        <ele>914.6</ele>
        <time>2021-05-20T08:57:37Z</time>
      </trkpt>
      <trkpt lat="45.76347" lon="6.29129">
        <ele>913.6</ele>
        <time>2021-05-20T08:57:41Z</time>
      </trkpt>
      <trkpt lat="45.76346" lon="6.29129">
        <ele>913.2</ele>
        <time>2021-05-20T08:57:42Z</time>
      </trkpt>
      <trkpt lat="45.76349" lon="6.29131">
        <ele>912.2</ele>
        <time>2021-05-20T08:57:47Z</time>
      </trkpt>
      <trkpt lat="45.76349" lon="6.29131">
        <ele>912</ele>
        <time>2021-05-20T08:57:48Z</time>
      </trkpt>
      <trkpt lat="45.76355" lon="6.2913">
        <ele>911.6</ele>
        <time>2021-05-20T08:57:54Z</time>
      </trkpt>
      <trkpt lat="45.76356" lon="6.2913">
        <ele>911.4</ele>
        <time>2021-05-20T08:57:55Z</time>
      </trkpt>
      <trkpt lat="45.76357" lon="6.2913">
        <ele>911</ele>
        <time>2021-05-20T08:57:57Z</time>
      </trkpt>
      <trkpt lat="45.76354" lon="6.29131">
        <ele>910.6</ele>
        <time>2021-05-20T08:58:01Z</time>
      </trkpt>
      <trkpt lat="45.76354" lon="6.29131">
        <ele>910.4</ele>
        <time>2021-05-20T08:58:02Z</time>
      </trkpt>
      <trkpt lat="45.76356" lon="6.29132">
        <ele>910</ele>
        <time>2021-05-20T08:58:05Z</time>
      </trkpt>
      <trkpt lat="45.76358" lon="6.29134">
        <ele>909.8</ele>
        <time>2021-05-20T08:58:07Z</time>
      </trkpt>
      <trkpt lat="45.76361" lon="6.29134">
        <ele>908.4</ele>
        <time>2021-05-20T08:58:10Z</time>
      </trkpt>
      <trkpt lat="45.76366" lon="6.29134">
        <ele>907.8</ele>
        <time>2021-05-20T08:58:12Z</time>
      </trkpt>
      <trkpt lat="45.76367" lon="6.29134">
        <ele>906.8</ele>
        <time>2021-05-20T08:58:14Z</time>
      </trkpt>
      <trkpt lat="45.7637" lon="6.29134">
        <ele>905.8</ele>
        <time>2021-05-20T08:58:18Z</time>
      </trkpt>
      <trkpt lat="45.76371" lon="6.29136">
        <ele>905.4</ele>
        <time>2021-05-20T08:58:20Z</time>
      </trkpt>
      <trkpt lat="45.7637" lon="6.29136">
        <ele>904.8</ele>
        <time>2021-05-20T08:58:24Z</time>
      </trkpt>
      <trkpt lat="45.76368" lon="6.29139">
        <ele>904.6</ele>
        <time>2021-05-20T08:58:26Z</time>
      </trkpt>
      <trkpt lat="45.76368" lon="6.2914">
        <ele>904.4</ele>
        <time>2021-05-20T08:58:27Z</time>
      </trkpt>
      <trkpt lat="45.76366" lon="6.29146">
        <ele>903.2</ele>
        <time>2021-05-20T08:58:30Z</time>
      </trkpt>
      <trkpt lat="45.76366" lon="6.29148">
        <ele>902.2</ele>
        <time>2021-05-20T08:58:32Z</time>
      </trkpt>
      <trkpt lat="45.76368" lon="6.29149">
        <ele>901.6</ele>
        <time>2021-05-20T08:58:34Z</time>
      </trkpt>
      <trkpt lat="45.76372" lon="6.2915">
        <ele>900.8</ele>
        <time>2021-05-20T08:58:37Z</time>
      </trkpt>
      <trkpt lat="45.76373" lon="6.2915">
        <ele>900.6</ele>
        <time>2021-05-20T08:58:38Z</time>
      </trkpt>
      <trkpt lat="45.7638" lon="6.29148">
        <ele>899.4</ele>
        <time>2021-05-20T08:58:42Z</time>
      </trkpt>
      <trkpt lat="45.76384" lon="6.29147">
        <ele>898.4</ele>
        <time>2021-05-20T08:58:46Z</time>
      </trkpt>
      <trkpt lat="45.76385" lon="6.29146">
        <ele>898.2</ele>
        <time>2021-05-20T08:58:47Z</time>
      </trkpt>
      <trkpt lat="45.76389" lon="6.29145">
        <ele>897.2</ele>
        <time>2021-05-20T08:58:50Z</time>
      </trkpt>
      <trkpt lat="45.7639" lon="6.29145">
        <ele>896.6</ele>
        <time>2021-05-20T08:58:51Z</time>
      </trkpt>
      <trkpt lat="45.76395" lon="6.29142">
        <ele>896.2</ele>
        <time>2021-05-20T08:58:53Z</time>
      </trkpt>
      <trkpt lat="45.76396" lon="6.29141">
        <ele>896</ele>
        <time>2021-05-20T08:58:54Z</time>
      </trkpt>
      <trkpt lat="45.76397" lon="6.2914">
        <ele>896</ele>
        <time>2021-05-20T08:58:55Z</time>
      </trkpt>
      <trkpt lat="45.76398" lon="6.2914">
        <ele>896</ele>
        <time>2021-05-20T08:58:57Z</time>
      </trkpt>
      <trkpt lat="45.764" lon="6.29141">
        <ele>895.2</ele>
        <time>2021-05-20T08:59:00Z</time>
      </trkpt>
      <trkpt lat="45.76402" lon="6.29143">
        <ele>895</ele>
        <time>2021-05-20T08:59:02Z</time>
      </trkpt>
      <trkpt lat="45.764" lon="6.29146">
        <ele>894.2</ele>
        <time>2021-05-20T08:59:06Z</time>
      </trkpt>
      <trkpt lat="45.764" lon="6.29147">
        <ele>893.8</ele>
        <time>2021-05-20T08:59:07Z</time>
      </trkpt>
      <trkpt lat="45.76393" lon="6.29156">
        <ele>892.8</ele>
        <time>2021-05-20T08:59:14Z</time>
      </trkpt>
      <trkpt lat="45.76392" lon="6.29157">
        <ele>892.4</ele>
        <time>2021-05-20T08:59:16Z</time>
      </trkpt>
      <trkpt lat="45.76392" lon="6.29159">
        <ele>892.2</ele>
        <time>2021-05-20T08:59:18Z</time>
      </trkpt>
      <trkpt lat="45.76391" lon="6.29161">
        <ele>891.6</ele>
        <time>2021-05-20T08:59:20Z</time>
      </trkpt>
      <trkpt lat="45.76391" lon="6.29161">
        <ele>891.4</ele>
        <time>2021-05-20T08:59:22Z</time>
      </trkpt>
      <trkpt lat="45.76391" lon="6.29161">
        <ele>891.2</ele>
        <time>2021-05-20T08:59:24Z</time>
      </trkpt>
      <trkpt lat="45.76392" lon="6.29161">
        <ele>891</ele>
        <time>2021-05-20T08:59:26Z</time>
      </trkpt>
      <trkpt lat="45.76392" lon="6.29162">
        <ele>890.6</ele>
        <time>2021-05-20T08:59:27Z</time>
      </trkpt>
      <trkpt lat="45.76394" lon="6.29163">
        <ele>890.2</ele>
        <time>2021-05-20T08:59:30Z</time>
      </trkpt>
      <trkpt lat="45.76396" lon="6.29162">
        <ele>889.2</ele>
        <time>2021-05-20T08:59:32Z</time>
      </trkpt>
      <trkpt lat="45.76397" lon="6.29162">
        <ele>888.8</ele>
        <time>2021-05-20T08:59:33Z</time>
      </trkpt>
      <trkpt lat="45.76401" lon="6.29161">
        <ele>887.6</ele>
        <time>2021-05-20T08:59:36Z</time>
      </trkpt>
      <trkpt lat="45.76404" lon="6.29161">
        <ele>886.4</ele>
        <time>2021-05-20T08:59:40Z</time>
      </trkpt>
      <trkpt lat="45.76406" lon="6.2916">
        <ele>885.6</ele>
        <time>2021-05-20T08:59:42Z</time>
      </trkpt>
      <trkpt lat="45.76407" lon="6.2916">
        <ele>885</ele>
        <time>2021-05-20T08:59:43Z</time>
      </trkpt>
      <trkpt lat="45.76409" lon="6.29162">
        <ele>884.4</ele>
        <time>2021-05-20T08:59:47Z</time>
      </trkpt>
      <trkpt lat="45.7641" lon="6.29163">
        <ele>884</ele>
        <time>2021-05-20T08:59:49Z</time>
      </trkpt>
      <trkpt lat="45.7641" lon="6.29165">
        <ele>883.4</ele>
        <time>2021-05-20T08:59:53Z</time>
      </trkpt>
      <trkpt lat="45.7641" lon="6.29168">
        <ele>882.8</ele>
        <time>2021-05-20T08:59:56Z</time>
      </trkpt>
      <trkpt lat="45.76411" lon="6.2917">
        <ele>882</ele>
        <time>2021-05-20T08:59:59Z</time>
      </trkpt>
      <trkpt lat="45.76411" lon="6.29171">
        <ele>881.6</ele>
        <time>2021-05-20T09:00:01Z</time>
      </trkpt>
      <trkpt lat="45.76412" lon="6.29172">
        <ele>881.2</ele>
        <time>2021-05-20T09:00:03Z</time>
      </trkpt>
      <trkpt lat="45.76412" lon="6.29173">
        <ele>881</ele>
        <time>2021-05-20T09:00:04Z</time>
      </trkpt>
      <trkpt lat="45.76413" lon="6.29173">
        <ele>880.8</ele>
        <time>2021-05-20T09:00:05Z</time>
      </trkpt>
      <trkpt lat="45.76412" lon="6.29178">
        <ele>880.4</ele>
        <time>2021-05-20T09:00:07Z</time>
      </trkpt>
      <trkpt lat="45.76414" lon="6.29177">
        <ele>879.8</ele>
        <time>2021-05-20T09:00:09Z</time>
      </trkpt>
      <trkpt lat="45.76413" lon="6.29179">
        <ele>879.6</ele>
        <time>2021-05-20T09:00:10Z</time>
      </trkpt>
      <trkpt lat="45.76413" lon="6.2918">
        <ele>879.4</ele>
        <time>2021-05-20T09:00:11Z</time>
      </trkpt>
      <trkpt lat="45.76413" lon="6.29183">
        <ele>878.2</ele>
        <time>2021-05-20T09:00:15Z</time>
      </trkpt>
      <trkpt lat="45.76414" lon="6.29184">
        <ele>877.6</ele>
        <time>2021-05-20T09:00:17Z</time>
      </trkpt>
      <trkpt lat="45.76414" lon="6.29187">
        <ele>877.2</ele>
        <time>2021-05-20T09:00:19Z</time>
      </trkpt>
      <trkpt lat="45.76413" lon="6.29191">
        <ele>875.8</ele>
        <time>2021-05-20T09:00:23Z</time>
      </trkpt>
      <trkpt lat="45.76413" lon="6.29192">
        <ele>875.2</ele>
        <time>2021-05-20T09:00:25Z</time>
      </trkpt>
      <trkpt lat="45.76413" lon="6.29193">
        <ele>874.8</ele>
        <time>2021-05-20T09:00:27Z</time>
      </trkpt>
      <trkpt lat="45.76414" lon="6.29197">
        <ele>874.2</ele>
        <time>2021-05-20T09:00:31Z</time>
      </trkpt>
      <trkpt lat="45.76414" lon="6.29199">
        <ele>873.6</ele>
        <time>2021-05-20T09:00:33Z</time>
      </trkpt>
      <trkpt lat="45.76414" lon="6.292">
        <ele>873.2</ele>
        <time>2021-05-20T09:00:35Z</time>
      </trkpt>
      <trkpt lat="45.76414" lon="6.292">
        <ele>873.2</ele>
        <time>2021-05-20T09:00:36Z</time>
      </trkpt>
      <trkpt lat="45.76418" lon="6.292">
        <ele>872.2</ele>
        <time>2021-05-20T09:00:39Z</time>
      </trkpt>
      <trkpt lat="45.76419" lon="6.29199">
        <ele>872.2</ele>
        <time>2021-05-20T09:00:40Z</time>
      </trkpt>
      <trkpt lat="45.76418" lon="6.29198">
        <ele>871.6</ele>
        <time>2021-05-20T09:00:43Z</time>
      </trkpt>
      <trkpt lat="45.76418" lon="6.29197">
        <ele>871.2</ele>
        <time>2021-05-20T09:00:45Z</time>
      </trkpt>
      <trkpt lat="45.76419" lon="6.29196">
        <ele>870.8</ele>
        <time>2021-05-20T09:00:47Z</time>
      </trkpt>
      <trkpt lat="45.76419" lon="6.29196">
        <ele>870.6</ele>
        <time>2021-05-20T09:00:48Z</time>
      </trkpt>
      <trkpt lat="45.76419" lon="6.29196">
        <ele>870</ele>
        <time>2021-05-20T09:00:51Z</time>
      </trkpt>
      <trkpt lat="45.76422" lon="6.29194">
        <ele>868.8</ele>
        <time>2021-05-20T09:00:55Z</time>
      </trkpt>
      <trkpt lat="45.76429" lon="6.29191">
        <ele>867.6</ele>
        <time>2021-05-20T09:00:59Z</time>
      </trkpt>
      <trkpt lat="45.76433" lon="6.29193">
        <ele>867.2</ele>
        <time>2021-05-20T09:01:01Z</time>
      </trkpt>
      <trkpt lat="45.76434" lon="6.29195">
        <ele>866.6</ele>
        <time>2021-05-20T09:01:04Z</time>
      </trkpt>
      <trkpt lat="45.76433" lon="6.29197">
        <ele>866.4</ele>
        <time>2021-05-20T09:01:05Z</time>
      </trkpt>
      <trkpt lat="45.76432" lon="6.292">
        <ele>865.4</ele>
        <time>2021-05-20T09:01:09Z</time>
      </trkpt>
      <trkpt lat="45.76431" lon="6.29201">
        <ele>865.2</ele>
        <time>2021-05-20T09:01:10Z</time>
      </trkpt>
      <trkpt lat="45.76433" lon="6.29206">
        <ele>864.8</ele>
        <time>2021-05-20T09:01:14Z</time>
      </trkpt>
      <trkpt lat="45.76434" lon="6.29207">
        <ele>864.6</ele>
        <time>2021-05-20T09:01:16Z</time>
      </trkpt>
      <trkpt lat="45.76436" lon="6.29209">
        <ele>864.4</ele>
        <time>2021-05-20T09:01:18Z</time>
      </trkpt>
      <trkpt lat="45.76438" lon="6.2921">
        <ele>864</ele>
        <time>2021-05-20T09:01:19Z</time>
      </trkpt>
      <trkpt lat="45.76439" lon="6.29214">
        <ele>863.2</ele>
        <time>2021-05-20T09:01:22Z</time>
      </trkpt>
      <trkpt lat="45.76438" lon="6.29215">
        <ele>863</ele>
        <time>2021-05-20T09:01:23Z</time>
      </trkpt>
      <trkpt lat="45.76437" lon="6.29215">
        <ele>862.8</ele>
        <time>2021-05-20T09:01:24Z</time>
      </trkpt>
      <trkpt lat="45.76435" lon="6.29219">
        <ele>862.2</ele>
        <time>2021-05-20T09:01:27Z</time>
      </trkpt>
      <trkpt lat="45.76433" lon="6.29221">
        <ele>861</ele>
        <time>2021-05-20T09:01:30Z</time>
      </trkpt>
      <trkpt lat="45.76431" lon="6.29223">
        <ele>860</ele>
        <time>2021-05-20T09:01:33Z</time>
      </trkpt>
      <trkpt lat="45.76428" lon="6.29223">
        <ele>859</ele>
        <time>2021-05-20T09:01:38Z</time>
      </trkpt>
      <trkpt lat="45.76426" lon="6.29223">
        <ele>858.8</ele>
        <time>2021-05-20T09:01:39Z</time>
      </trkpt>
      <trkpt lat="45.76423" lon="6.29224">
        <ele>858.4</ele>
        <time>2021-05-20T09:01:43Z</time>
      </trkpt>
      <trkpt lat="45.7642" lon="6.29228">
        <ele>858.2</ele>
        <time>2021-05-20T09:01:48Z</time>
      </trkpt>
      <trkpt lat="45.76418" lon="6.29231">
        <ele>858</ele>
        <time>2021-05-20T09:01:51Z</time>
      </trkpt>
      <trkpt lat="45.76417" lon="6.2923">
        <ele>858</ele>
        <time>2021-05-20T09:01:55Z</time>
      </trkpt>
      <trkpt lat="45.7642" lon="6.29229">
        <ele>858.2</ele>
        <time>2021-05-20T09:02:01Z</time>
      </trkpt>
      <trkpt lat="45.7642" lon="6.29229">
        <ele>858</ele>
        <time>2021-05-20T09:02:02Z</time>
      </trkpt>
      <trkpt lat="45.7642" lon="6.2923">
        <ele>857.8</ele>
        <time>2021-05-20T09:02:03Z</time>
      </trkpt>
      <trkpt lat="45.76421" lon="6.2923">
        <ele>857.6</ele>
        <time>2021-05-20T09:02:05Z</time>
      </trkpt>
      <trkpt lat="45.76421" lon="6.29232">
        <ele>857.6</ele>
        <time>2021-05-20T09:02:10Z</time>
      </trkpt>
      <trkpt lat="45.76416" lon="6.29234">
        <ele>857.4</ele>
        <time>2021-05-20T09:02:18Z</time>
      </trkpt>
      <trkpt lat="45.76418" lon="6.29228">
        <ele>856.4</ele>
        <time>2021-05-20T09:02:24Z</time>
      </trkpt>
      <trkpt lat="45.76422" lon="6.29225">
        <ele>855.4</ele>
        <time>2021-05-20T09:02:30Z</time>
      </trkpt>
      <trkpt lat="45.76423" lon="6.29222">
        <ele>855.2</ele>
        <time>2021-05-20T09:02:32Z</time>
      </trkpt>
      <trkpt lat="45.76426" lon="6.29221">
        <ele>854.6</ele>
        <time>2021-05-20T09:02:34Z</time>
      </trkpt>
      <trkpt lat="45.76427" lon="6.29221">
        <ele>854.4</ele>
        <time>2021-05-20T09:02:35Z</time>
      </trkpt>
      <trkpt lat="45.76431" lon="6.29219">
        <ele>853.8</ele>
        <time>2021-05-20T09:02:37Z</time>
      </trkpt>
      <trkpt lat="45.76434" lon="6.29219">
        <ele>853.2</ele>
        <time>2021-05-20T09:02:39Z</time>
      </trkpt>
      <trkpt lat="45.76434" lon="6.29218">
        <ele>853</ele>
        <time>2021-05-20T09:02:40Z</time>
      </trkpt>
      <trkpt lat="45.76436" lon="6.29216">
        <ele>852.6</ele>
        <time>2021-05-20T09:02:41Z</time>
      </trkpt>
      <trkpt lat="45.76437" lon="6.29215">
        <ele>852.2</ele>
        <time>2021-05-20T09:02:43Z</time>
      </trkpt>
      <trkpt lat="45.76438" lon="6.29216">
        <ele>851.6</ele>
        <time>2021-05-20T09:02:45Z</time>
      </trkpt>
      <trkpt lat="45.76438" lon="6.29217">
        <ele>851.4</ele>
        <time>2021-05-20T09:02:46Z</time>
      </trkpt>
      <trkpt lat="45.76438" lon="6.29218">
        <ele>851</ele>
        <time>2021-05-20T09:02:47Z</time>
      </trkpt>
      <trkpt lat="45.7644" lon="6.2922">
        <ele>850</ele>
        <time>2021-05-20T09:02:51Z</time>
      </trkpt>
      <trkpt lat="45.7644" lon="6.29221">
        <ele>849.6</ele>
        <time>2021-05-20T09:02:53Z</time>
      </trkpt>
      <trkpt lat="45.76439" lon="6.29221">
        <ele>848.6</ele>
        <time>2021-05-20T09:02:56Z</time>
      </trkpt>
      <trkpt lat="45.76439" lon="6.29222">
        <ele>847.6</ele>
        <time>2021-05-20T09:03:00Z</time>
      </trkpt>
      <trkpt lat="45.76439" lon="6.29223">
        <ele>846.8</ele>
        <time>2021-05-20T09:03:03Z</time>
      </trkpt>
      <trkpt lat="45.76438" lon="6.29224">
        <ele>846.6</ele>
        <time>2021-05-20T09:03:04Z</time>
      </trkpt>
      <trkpt lat="45.76439" lon="6.29226">
        <ele>845.8</ele>
        <time>2021-05-20T09:03:07Z</time>
      </trkpt>
      <trkpt lat="45.7644" lon="6.29226">
        <ele>845.4</ele>
        <time>2021-05-20T09:03:08Z</time>
      </trkpt>
      <trkpt lat="45.76445" lon="6.29227">
        <ele>844</ele>
        <time>2021-05-20T09:03:11Z</time>
      </trkpt>
      <trkpt lat="45.76447" lon="6.29228">
        <ele>843.6</ele>
        <time>2021-05-20T09:03:12Z</time>
      </trkpt>
      <trkpt lat="45.76449" lon="6.29228">
        <ele>842.8</ele>
        <time>2021-05-20T09:03:14Z</time>
      </trkpt>
      <trkpt lat="45.76451" lon="6.29229">
        <ele>841.8</ele>
        <time>2021-05-20T09:03:17Z</time>
      </trkpt>
      <trkpt lat="45.76451" lon="6.2923">
        <ele>841.6</ele>
        <time>2021-05-20T09:03:18Z</time>
      </trkpt>
      <trkpt lat="45.76451" lon="6.29231">
        <ele>840.6</ele>
        <time>2021-05-20T09:03:21Z</time>
      </trkpt>
      <trkpt lat="45.76449" lon="6.29236">
        <ele>839.4</ele>
        <time>2021-05-20T09:03:25Z</time>
      </trkpt>
      <trkpt lat="45.76447" lon="6.29239">
        <ele>838.4</ele>
        <time>2021-05-20T09:03:28Z</time>
      </trkpt>
      <trkpt lat="45.76446" lon="6.29241">
        <ele>838.2</ele>
        <time>2021-05-20T09:03:29Z</time>
      </trkpt>
      <trkpt lat="45.76445" lon="6.29247">
        <ele>837.4</ele>
        <time>2021-05-20T09:03:31Z</time>
      </trkpt>
      <trkpt lat="45.76445" lon="6.29252">
        <ele>836.6</ele>
        <time>2021-05-20T09:03:33Z</time>
      </trkpt>
      <trkpt lat="45.76444" lon="6.29255">
        <ele>836</ele>
        <time>2021-05-20T09:03:34Z</time>
      </trkpt>
      <trkpt lat="45.76443" lon="6.29257">
        <ele>835.2</ele>
        <time>2021-05-20T09:03:36Z</time>
      </trkpt>
      <trkpt lat="45.76442" lon="6.29258">
        <ele>835</ele>
        <time>2021-05-20T09:03:37Z</time>
      </trkpt>
      <trkpt lat="45.7644" lon="6.29262">
        <ele>833.6</ele>
        <time>2021-05-20T09:03:40Z</time>
      </trkpt>
      <trkpt lat="45.76438" lon="6.29264">
        <ele>833</ele>
        <time>2021-05-20T09:03:42Z</time>
      </trkpt>
      <trkpt lat="45.76437" lon="6.29265">
        <ele>832.6</ele>
        <time>2021-05-20T09:03:43Z</time>
      </trkpt>
      <trkpt lat="45.76434" lon="6.29269">
        <ele>831.4</ele>
        <time>2021-05-20T09:03:46Z</time>
      </trkpt>
      <trkpt lat="45.76433" lon="6.2927">
        <ele>830.6</ele>
        <time>2021-05-20T09:03:48Z</time>
      </trkpt>
      <trkpt lat="45.7643" lon="6.29274">
        <ele>830.4</ele>
        <time>2021-05-20T09:03:51Z</time>
      </trkpt>
      <trkpt lat="45.76428" lon="6.2928">
        <ele>829.6</ele>
        <time>2021-05-20T09:03:55Z</time>
      </trkpt>
      <trkpt lat="45.76427" lon="6.29282">
        <ele>829.2</ele>
        <time>2021-05-20T09:03:57Z</time>
      </trkpt>
      <trkpt lat="45.76427" lon="6.29284">
        <ele>828.8</ele>
        <time>2021-05-20T09:03:59Z</time>
      </trkpt>
      <trkpt lat="45.76425" lon="6.29288">
        <ele>827.8</ele>
        <time>2021-05-20T09:04:02Z</time>
      </trkpt>
      <trkpt lat="45.76421" lon="6.29291">
        <ele>826.6</ele>
        <time>2021-05-20T09:04:06Z</time>
      </trkpt>
      <trkpt lat="45.7642" lon="6.29293">
        <ele>826.4</ele>
        <time>2021-05-20T09:04:08Z</time>
      </trkpt>
      <trkpt lat="45.76419" lon="6.29295">
        <ele>826</ele>
        <time>2021-05-20T09:04:09Z</time>
      </trkpt>
      <trkpt lat="45.76419" lon="6.29296">
        <ele>825.6</ele>
        <time>2021-05-20T09:04:11Z</time>
      </trkpt>
      <trkpt lat="45.76419" lon="6.29296">
        <ele>825.2</ele>
        <time>2021-05-20T09:04:12Z</time>
      </trkpt>
      <trkpt lat="45.7642" lon="6.29295">
        <ele>824.4</ele>
        <time>2021-05-20T09:04:15Z</time>
      </trkpt>
      <trkpt lat="45.76422" lon="6.29293">
        <ele>824.4</ele>
        <time>2021-05-20T09:04:17Z</time>
      </trkpt>
      <trkpt lat="45.76426" lon="6.29293">
        <ele>823.4</ele>
        <time>2021-05-20T09:04:23Z</time>
      </trkpt>
      <trkpt lat="45.76434" lon="6.29294">
        <ele>822.8</ele>
        <time>2021-05-20T09:04:26Z</time>
      </trkpt>
      <trkpt lat="45.76438" lon="6.29297">
        <ele>822</ele>
        <time>2021-05-20T09:04:29Z</time>
      </trkpt>
      <trkpt lat="45.76439" lon="6.29297">
        <ele>821.8</ele>
        <time>2021-05-20T09:04:30Z</time>
      </trkpt>
      <trkpt lat="45.76441" lon="6.29298">
        <ele>820.8</ele>
        <time>2021-05-20T09:04:35Z</time>
      </trkpt>
      <trkpt lat="45.76441" lon="6.29299">
        <ele>820.2</ele>
        <time>2021-05-20T09:04:37Z</time>
      </trkpt>
      <trkpt lat="45.76441" lon="6.29301">
        <ele>819.6</ele>
        <time>2021-05-20T09:04:39Z</time>
      </trkpt>
      <trkpt lat="45.76441" lon="6.29302">
        <ele>819.2</ele>
        <time>2021-05-20T09:04:40Z</time>
      </trkpt>
      <trkpt lat="45.76442" lon="6.29304">
        <ele>818.2</ele>
        <time>2021-05-20T09:04:43Z</time>
      </trkpt>
      <trkpt lat="45.76442" lon="6.29304">
        <ele>817.8</ele>
        <time>2021-05-20T09:04:44Z</time>
      </trkpt>
      <trkpt lat="45.76443" lon="6.29303">
        <ele>817.2</ele>
        <time>2021-05-20T09:04:47Z</time>
      </trkpt>
      <trkpt lat="45.76443" lon="6.29306">
        <ele>817</ele>
        <time>2021-05-20T09:04:49Z</time>
      </trkpt>
      <trkpt lat="45.76443" lon="6.29308">
        <ele>816.6</ele>
        <time>2021-05-20T09:04:50Z</time>
      </trkpt>
      <trkpt lat="45.76447" lon="6.29313">
        <ele>815.6</ele>
        <time>2021-05-20T09:04:53Z</time>
      </trkpt>
      <trkpt lat="45.76449" lon="6.29318">
        <ele>814.6</ele>
        <time>2021-05-20T09:04:56Z</time>
      </trkpt>
      <trkpt lat="45.7645" lon="6.2932">
        <ele>814</ele>
        <time>2021-05-20T09:04:57Z</time>
      </trkpt>
      <trkpt lat="45.76451" lon="6.29321">
        <ele>813.4</ele>
        <time>2021-05-20T09:04:58Z</time>
      </trkpt>
      <trkpt lat="45.76453" lon="6.29324">
        <ele>812</ele>
        <time>2021-05-20T09:05:00Z</time>
      </trkpt>
      <trkpt lat="45.76454" lon="6.29325">
        <ele>811.2</ele>
        <time>2021-05-20T09:05:01Z</time>
      </trkpt>
      <trkpt lat="45.76455" lon="6.29326">
        <ele>810.6</ele>
        <time>2021-05-20T09:05:02Z</time>
      </trkpt>
      <trkpt lat="45.76457" lon="6.29326">
        <ele>810</ele>
        <time>2021-05-20T09:05:03Z</time>
      </trkpt>
      <trkpt lat="45.76457" lon="6.29326">
        <ele>809.6</ele>
        <time>2021-05-20T09:05:04Z</time>
      </trkpt>
      <trkpt lat="45.76459" lon="6.29326">
        <ele>809</ele>
        <time>2021-05-20T09:05:06Z</time>
      </trkpt>
      <trkpt lat="45.76459" lon="6.29325">
        <ele>808.6</ele>
        <time>2021-05-20T09:05:07Z</time>
      </trkpt>
      <trkpt lat="45.7646" lon="6.29326">
        <ele>808.4</ele>
        <time>2021-05-20T09:05:08Z</time>
      </trkpt>
      <trkpt lat="45.76464" lon="6.29326">
        <ele>807.6</ele>
        <time>2021-05-20T09:05:12Z</time>
      </trkpt>
      <trkpt lat="45.76464" lon="6.29327">
        <ele>807.2</ele>
        <time>2021-05-20T09:05:13Z</time>
      </trkpt>
      <trkpt lat="45.76466" lon="6.29329">
        <ele>806.2</ele>
        <time>2021-05-20T09:05:16Z</time>
      </trkpt>
      <trkpt lat="45.76466" lon="6.29329">
        <ele>806</ele>
        <time>2021-05-20T09:05:17Z</time>
      </trkpt>
      <trkpt lat="45.76465" lon="6.29333">
        <ele>804.8</ele>
        <time>2021-05-20T09:05:20Z</time>
      </trkpt>
      <trkpt lat="45.76466" lon="6.29335">
        <ele>804.2</ele>
        <time>2021-05-20T09:05:22Z</time>
      </trkpt>
      <trkpt lat="45.76467" lon="6.29335">
        <ele>803.6</ele>
        <time>2021-05-20T09:05:23Z</time>
      </trkpt>
      <trkpt lat="45.76466" lon="6.2934">
        <ele>802.4</ele>
        <time>2021-05-20T09:05:27Z</time>
      </trkpt>
      <trkpt lat="45.76467" lon="6.29344">
        <ele>801.4</ele>
        <time>2021-05-20T09:05:30Z</time>
      </trkpt>
      <trkpt lat="45.76468" lon="6.29344">
        <ele>801</ele>
        <time>2021-05-20T09:05:31Z</time>
      </trkpt>
      <trkpt lat="45.76469" lon="6.29345">
        <ele>800.8</ele>
        <time>2021-05-20T09:05:32Z</time>
      </trkpt>
      <trkpt lat="45.76471" lon="6.29347">
        <ele>800.8</ele>
        <time>2021-05-20T09:05:33Z</time>
      </trkpt>
      <trkpt lat="45.76473" lon="6.29352">
        <ele>800.2</ele>
        <time>2021-05-20T09:05:36Z</time>
      </trkpt>
      <trkpt lat="45.76476" lon="6.29353">
        <ele>799</ele>
        <time>2021-05-20T09:05:38Z</time>
      </trkpt>
      <trkpt lat="45.76481" lon="6.29356">
        <ele>798</ele>
        <time>2021-05-20T09:05:41Z</time>
      </trkpt>
      <trkpt lat="45.76483" lon="6.29358">
        <ele>797.6</ele>
        <time>2021-05-20T09:05:42Z</time>
      </trkpt>
      <trkpt lat="45.76484" lon="6.29359">
        <ele>797.2</ele>
        <time>2021-05-20T09:05:43Z</time>
      </trkpt>
      <trkpt lat="45.76486" lon="6.29361">
        <ele>796.8</ele>
        <time>2021-05-20T09:05:45Z</time>
      </trkpt>
      <trkpt lat="45.76487" lon="6.29361">
        <ele>796.4</ele>
        <time>2021-05-20T09:05:47Z</time>
      </trkpt>
      <trkpt lat="45.76488" lon="6.29362">
        <ele>796</ele>
        <time>2021-05-20T09:05:48Z</time>
      </trkpt>
      <trkpt lat="45.76491" lon="6.29363">
        <ele>794.8</ele>
        <time>2021-05-20T09:05:50Z</time>
      </trkpt>
      <trkpt lat="45.76492" lon="6.29364">
        <ele>794.4</ele>
        <time>2021-05-20T09:05:52Z</time>
      </trkpt>
      <trkpt lat="45.76496" lon="6.29366">
        <ele>794</ele>
        <time>2021-05-20T09:05:55Z</time>
      </trkpt>
      <trkpt lat="45.76498" lon="6.29369">
        <ele>793.8</ele>
        <time>2021-05-20T09:05:57Z</time>
      </trkpt>
      <trkpt lat="45.76501" lon="6.29372">
        <ele>792.4</ele>
        <time>2021-05-20T09:06:00Z</time>
      </trkpt>
      <trkpt lat="45.76503" lon="6.29373">
        <ele>791.6</ele>
        <time>2021-05-20T09:06:01Z</time>
      </trkpt>
      <trkpt lat="45.76505" lon="6.29374">
        <ele>791.4</ele>
        <time>2021-05-20T09:06:02Z</time>
      </trkpt>
      <trkpt lat="45.7651" lon="6.29375">
        <ele>790.2</ele>
        <time>2021-05-20T09:06:04Z</time>
      </trkpt>
      <trkpt lat="45.76515" lon="6.29378">
        <ele>788.8</ele>
        <time>2021-05-20T09:06:06Z</time>
      </trkpt>
      <trkpt lat="45.7652" lon="6.29384">
        <ele>787.6</ele>
        <time>2021-05-20T09:06:08Z</time>
      </trkpt>
      <trkpt lat="45.76527" lon="6.29394">
        <ele>786.4</ele>
        <time>2021-05-20T09:06:11Z</time>
      </trkpt>
      <trkpt lat="45.76535" lon="6.29403">
        <ele>784.8</ele>
        <time>2021-05-20T09:06:14Z</time>
      </trkpt>
      <trkpt lat="45.76536" lon="6.29405">
        <ele>783.6</ele>
        <time>2021-05-20T09:06:15Z</time>
      </trkpt>
      <trkpt lat="45.76538" lon="6.29407">
        <ele>782.8</ele>
        <time>2021-05-20T09:06:16Z</time>
      </trkpt>
      <trkpt lat="45.7654" lon="6.29409">
        <ele>782.4</ele>
        <time>2021-05-20T09:06:17Z</time>
      </trkpt>
      <trkpt lat="45.76543" lon="6.29414">
        <ele>781</ele>
        <time>2021-05-20T09:06:19Z</time>
      </trkpt>
      <trkpt lat="45.76549" lon="6.29424">
        <ele>780</ele>
        <time>2021-05-20T09:06:22Z</time>
      </trkpt>
      <trkpt lat="45.76551" lon="6.29427">
        <ele>778.6</ele>
        <time>2021-05-20T09:06:23Z</time>
      </trkpt>
      <trkpt lat="45.76553" lon="6.29432">
        <ele>777</ele>
        <time>2021-05-20T09:06:25Z</time>
      </trkpt>
      <trkpt lat="45.76555" lon="6.29435">
        <ele>775.6</ele>
        <time>2021-05-20T09:06:27Z</time>
      </trkpt>
      <trkpt lat="45.76556" lon="6.29437">
        <ele>774.6</ele>
        <time>2021-05-20T09:06:28Z</time>
      </trkpt>
      <trkpt lat="45.76559" lon="6.29437">
        <ele>773.8</ele>
        <time>2021-05-20T09:06:29Z</time>
      </trkpt>
      <trkpt lat="45.76564" lon="6.2944">
        <ele>772.4</ele>
        <time>2021-05-20T09:06:32Z</time>
      </trkpt>
      <trkpt lat="45.76565" lon="6.29444">
        <ele>772</ele>
        <time>2021-05-20T09:06:33Z</time>
      </trkpt>
      <trkpt lat="45.76567" lon="6.29449">
        <ele>770.8</ele>
        <time>2021-05-20T09:06:35Z</time>
      </trkpt>
      <trkpt lat="45.76567" lon="6.2945">
        <ele>769.6</ele>
        <time>2021-05-20T09:06:36Z</time>
      </trkpt>
      <trkpt lat="45.76569" lon="6.29455">
        <ele>768.4</ele>
        <time>2021-05-20T09:06:38Z</time>
      </trkpt>
      <trkpt lat="45.7657" lon="6.29455">
        <ele>768</ele>
        <time>2021-05-20T09:06:39Z</time>
      </trkpt>
      <trkpt lat="45.76569" lon="6.29459">
        <ele>767.8</ele>
        <time>2021-05-20T09:06:41Z</time>
      </trkpt>
      <trkpt lat="45.76569" lon="6.29459">
        <ele>767.8</ele>
        <time>2021-05-20T09:06:42Z</time>
      </trkpt>
      <trkpt lat="45.76569" lon="6.29461">
        <ele>767.6</ele>
        <time>2021-05-20T09:06:43Z</time>
      </trkpt>
      <trkpt lat="45.76569" lon="6.29464">
        <ele>767.6</ele>
        <time>2021-05-20T09:06:44Z</time>
      </trkpt>
      <trkpt lat="45.76568" lon="6.29466">
        <ele>767.2</ele>
        <time>2021-05-20T09:06:45Z</time>
      </trkpt>
      <trkpt lat="45.76567" lon="6.29471">
        <ele>766.2</ele>
        <time>2021-05-20T09:06:48Z</time>
      </trkpt>
      <trkpt lat="45.76568" lon="6.29474">
        <ele>765.2</ele>
        <time>2021-05-20T09:06:51Z</time>
      </trkpt>
      <trkpt lat="45.76567" lon="6.29475">
        <ele>765</ele>
        <time>2021-05-20T09:06:52Z</time>
      </trkpt>
      <trkpt lat="45.76566" lon="6.2948">
        <ele>764.2</ele>
        <time>2021-05-20T09:06:54Z</time>
      </trkpt>
      <trkpt lat="45.76567" lon="6.29482">
        <ele>764</ele>
        <time>2021-05-20T09:06:55Z</time>
      </trkpt>
      <trkpt lat="45.7657" lon="6.29485">
        <ele>763.8</ele>
        <time>2021-05-20T09:06:58Z</time>
      </trkpt>
      <trkpt lat="45.76572" lon="6.29489">
        <ele>763.6</ele>
        <time>2021-05-20T09:07:01Z</time>
      </trkpt>
      <trkpt lat="45.76575" lon="6.29495">
        <ele>763.4</ele>
        <time>2021-05-20T09:07:04Z</time>
      </trkpt>
      <trkpt lat="45.76575" lon="6.29499">
        <ele>762.8</ele>
        <time>2021-05-20T09:07:06Z</time>
      </trkpt>
      <trkpt lat="45.76577" lon="6.295">
        <ele>761.6</ele>
        <time>2021-05-20T09:07:08Z</time>
      </trkpt>
      <trkpt lat="45.76576" lon="6.29502">
        <ele>761.4</ele>
        <time>2021-05-20T09:07:09Z</time>
      </trkpt>
      <trkpt lat="45.76576" lon="6.29504">
        <ele>761.2</ele>
        <time>2021-05-20T09:07:10Z</time>
      </trkpt>
      <trkpt lat="45.76576" lon="6.2951">
        <ele>760</ele>
        <time>2021-05-20T09:07:13Z</time>
      </trkpt>
      <trkpt lat="45.76578" lon="6.29514">
        <ele>758.8</ele>
        <time>2021-05-20T09:07:15Z</time>
      </trkpt>
      <trkpt lat="45.76581" lon="6.29523">
        <ele>757.8</ele>
        <time>2021-05-20T09:07:17Z</time>
      </trkpt>
      <trkpt lat="45.76585" lon="6.29528">
        <ele>757.4</ele>
        <time>2021-05-20T09:07:19Z</time>
      </trkpt>
      <trkpt lat="45.76595" lon="6.29535">
        <ele>757</ele>
        <time>2021-05-20T09:07:22Z</time>
      </trkpt>
      <trkpt lat="45.76599" lon="6.29541">
        <ele>757</ele>
        <time>2021-05-20T09:07:23Z</time>
      </trkpt>
      <trkpt lat="45.76602" lon="6.29546">
        <ele>757</ele>
        <time>2021-05-20T09:07:24Z</time>
      </trkpt>
      <trkpt lat="45.7661" lon="6.29565">
        <ele>756.6</ele>
        <time>2021-05-20T09:07:27Z</time>
      </trkpt>
      <trkpt lat="45.76613" lon="6.29571">
        <ele>754.8</ele>
        <time>2021-05-20T09:07:28Z</time>
      </trkpt>
      <trkpt lat="45.76616" lon="6.29577">
        <ele>753.4</ele>
        <time>2021-05-20T09:07:29Z</time>
      </trkpt>
      <trkpt lat="45.7662" lon="6.29586">
        <ele>751.6</ele>
        <time>2021-05-20T09:07:31Z</time>
      </trkpt>
      <trkpt lat="45.76621" lon="6.29588">
        <ele>751.2</ele>
        <time>2021-05-20T09:07:32Z</time>
      </trkpt>
      <trkpt lat="45.7662" lon="6.29599">
        <ele>750.6</ele>
        <time>2021-05-20T09:07:35Z</time>
      </trkpt>
      <trkpt lat="45.76619" lon="6.29602">
        <ele>750.4</ele>
        <time>2021-05-20T09:07:36Z</time>
      </trkpt>
      <trkpt lat="45.76616" lon="6.29612">
        <ele>750</ele>
        <time>2021-05-20T09:07:39Z</time>
      </trkpt>
      <trkpt lat="45.76617" lon="6.29614">
        <ele>749.6</ele>
        <time>2021-05-20T09:07:40Z</time>
      </trkpt>
      <trkpt lat="45.76617" lon="6.29617">
        <ele>748.2</ele>
        <time>2021-05-20T09:07:41Z</time>
      </trkpt>
      <trkpt lat="45.76616" lon="6.29621">
        <ele>746.8</ele>
        <time>2021-05-20T09:07:42Z</time>
      </trkpt>
      <trkpt lat="45.76614" lon="6.29626">
        <ele>745.6</ele>
        <time>2021-05-20T09:07:44Z</time>
      </trkpt>
      <trkpt lat="45.76613" lon="6.29629">
        <ele>743.8</ele>
        <time>2021-05-20T09:07:45Z</time>
      </trkpt>
      <trkpt lat="45.76612" lon="6.29633">
        <ele>742.8</ele>
        <time>2021-05-20T09:07:46Z</time>
      </trkpt>
      <trkpt lat="45.7661" lon="6.29638">
        <ele>741.6</ele>
        <time>2021-05-20T09:07:48Z</time>
      </trkpt>
      <trkpt lat="45.76609" lon="6.29641">
        <ele>741</ele>
        <time>2021-05-20T09:07:49Z</time>
      </trkpt>
      <trkpt lat="45.76609" lon="6.29643">
        <ele>740.4</ele>
        <time>2021-05-20T09:07:50Z</time>
      </trkpt>
      <trkpt lat="45.76607" lon="6.29649">
        <ele>738.8</ele>
        <time>2021-05-20T09:07:53Z</time>
      </trkpt>
      <trkpt lat="45.76609" lon="6.29652">
        <ele>738</ele>
        <time>2021-05-20T09:07:55Z</time>
      </trkpt>
      <trkpt lat="45.76609" lon="6.29652">
        <ele>737.8</ele>
        <time>2021-05-20T09:07:56Z</time>
      </trkpt>
      <trkpt lat="45.76609" lon="6.29652">
        <ele>737.8</ele>
        <time>2021-05-20T09:07:57Z</time>
      </trkpt>
      <trkpt lat="45.7661" lon="6.29653">
        <ele>737.8</ele>
        <time>2021-05-20T09:07:59Z</time>
      </trkpt>
      <trkpt lat="45.76611" lon="6.29654">
        <ele>737.8</ele>
        <time>2021-05-20T09:08:00Z</time>
      </trkpt>
      <trkpt lat="45.76612" lon="6.29656">
        <ele>738</ele>
        <time>2021-05-20T09:08:02Z</time>
      </trkpt>
      <trkpt lat="45.7661" lon="6.29657">
        <ele>738.2</ele>
        <time>2021-05-20T09:08:05Z</time>
      </trkpt>
      <trkpt lat="45.76606" lon="6.29655">
        <ele>738.4</ele>
        <time>2021-05-20T09:08:07Z</time>
      </trkpt>
      <trkpt lat="45.76588" lon="6.29646">
        <ele>739</ele>
        <time>2021-05-20T09:18:05Z</time>
      </trkpt>
      <trkpt lat="45.76591" lon="6.29648">
        <ele>739</ele>
        <time>2021-05-20T09:18:06Z</time>
      </trkpt>
      <trkpt lat="45.76608" lon="6.29658">
        <ele>737.4</ele>
        <time>2021-05-20T09:18:11Z</time>
      </trkpt>
      <trkpt lat="45.76616" lon="6.29664">
        <ele>736.4</ele>
        <time>2021-05-20T09:18:13Z</time>
      </trkpt>
      <trkpt lat="45.76624" lon="6.2967">
        <ele>735.4</ele>
        <time>2021-05-20T09:18:15Z</time>
      </trkpt>
      <trkpt lat="45.7663" lon="6.29672">
        <ele>734.2</ele>
        <time>2021-05-20T09:18:16Z</time>
      </trkpt>
      <trkpt lat="45.76638" lon="6.29677">
        <ele>733.2</ele>
        <time>2021-05-20T09:18:17Z</time>
      </trkpt>
      <trkpt lat="45.76645" lon="6.2968">
        <ele>732.2</ele>
        <time>2021-05-20T09:18:18Z</time>
      </trkpt>
      <trkpt lat="45.76652" lon="6.29684">
        <ele>731.6</ele>
        <time>2021-05-20T09:18:19Z</time>
      </trkpt>
      <trkpt lat="45.76661" lon="6.29692">
        <ele>731.2</ele>
        <time>2021-05-20T09:18:21Z</time>
      </trkpt>
      <trkpt lat="45.76665" lon="6.29695">
        <ele>731</ele>
        <time>2021-05-20T09:18:22Z</time>
      </trkpt>
      <trkpt lat="45.76677" lon="6.29706">
        <ele>730</ele>
        <time>2021-05-20T09:18:25Z</time>
      </trkpt>
      <trkpt lat="45.76683" lon="6.29714">
        <ele>729.2</ele>
        <time>2021-05-20T09:18:27Z</time>
      </trkpt>
      <trkpt lat="45.76686" lon="6.29718">
        <ele>728.8</ele>
        <time>2021-05-20T09:18:28Z</time>
      </trkpt>
      <trkpt lat="45.76691" lon="6.29723">
        <ele>728.4</ele>
        <time>2021-05-20T09:18:29Z</time>
      </trkpt>
      <trkpt lat="45.76701" lon="6.29731">
        <ele>727.2</ele>
        <time>2021-05-20T09:18:31Z</time>
      </trkpt>
      <trkpt lat="45.7671" lon="6.29737">
        <ele>725.8</ele>
        <time>2021-05-20T09:18:33Z</time>
      </trkpt>
      <trkpt lat="45.76714" lon="6.29741">
        <ele>725.4</ele>
        <time>2021-05-20T09:18:34Z</time>
      </trkpt>
      <trkpt lat="45.76717" lon="6.29744">
        <ele>725.2</ele>
        <time>2021-05-20T09:18:35Z</time>
      </trkpt>
      <trkpt lat="45.76724" lon="6.29749">
        <ele>724.6</ele>
        <time>2021-05-20T09:18:37Z</time>
      </trkpt>
      <trkpt lat="45.76734" lon="6.29755">
        <ele>722.6</ele>
        <time>2021-05-20T09:18:40Z</time>
      </trkpt>
      <trkpt lat="45.76737" lon="6.29757">
        <ele>721</ele>
        <time>2021-05-20T09:18:41Z</time>
      </trkpt>
      <trkpt lat="45.76742" lon="6.29758">
        <ele>719.4</ele>
        <time>2021-05-20T09:18:43Z</time>
      </trkpt>
      <trkpt lat="45.76744" lon="6.29759">
        <ele>718.6</ele>
        <time>2021-05-20T09:18:45Z</time>
      </trkpt>
      <trkpt lat="45.76747" lon="6.29761">
        <ele>716.6</ele>
        <time>2021-05-20T09:18:46Z</time>
      </trkpt>
      <trkpt lat="45.76752" lon="6.29765">
        <ele>715</ele>
        <time>2021-05-20T09:18:48Z</time>
      </trkpt>
      <trkpt lat="45.76755" lon="6.29769">
        <ele>714</ele>
        <time>2021-05-20T09:18:49Z</time>
      </trkpt>
      <trkpt lat="45.76757" lon="6.29773">
        <ele>713.2</ele>
        <time>2021-05-20T09:18:50Z</time>
      </trkpt>
      <trkpt lat="45.7676" lon="6.29781">
        <ele>710.8</ele>
        <time>2021-05-20T09:18:52Z</time>
      </trkpt>
      <trkpt lat="45.76762" lon="6.29785">
        <ele>709.6</ele>
        <time>2021-05-20T09:18:53Z</time>
      </trkpt>
      <trkpt lat="45.76764" lon="6.29787">
        <ele>709</ele>
        <time>2021-05-20T09:18:54Z</time>
      </trkpt>
      <trkpt lat="45.76766" lon="6.29791">
        <ele>708.4</ele>
        <time>2021-05-20T09:18:55Z</time>
      </trkpt>
      <trkpt lat="45.7677" lon="6.29796">
        <ele>706.2</ele>
        <time>2021-05-20T09:18:57Z</time>
      </trkpt>
      <trkpt lat="45.76778" lon="6.298">
        <ele>704.6</ele>
        <time>2021-05-20T09:18:59Z</time>
      </trkpt>
      <trkpt lat="45.76782" lon="6.29804">
        <ele>704</ele>
        <time>2021-05-20T09:19:00Z</time>
      </trkpt>
      <trkpt lat="45.76785" lon="6.2981">
        <ele>703.2</ele>
        <time>2021-05-20T09:19:01Z</time>
      </trkpt>
      <trkpt lat="45.76789" lon="6.29816">
        <ele>701.8</ele>
        <time>2021-05-20T09:19:02Z</time>
      </trkpt>
      <trkpt lat="45.76791" lon="6.29821">
        <ele>701</ele>
        <time>2021-05-20T09:19:03Z</time>
      </trkpt>
      <trkpt lat="45.76794" lon="6.29827">
        <ele>700.2</ele>
        <time>2021-05-20T09:19:04Z</time>
      </trkpt>
      <trkpt lat="45.76796" lon="6.29833">
        <ele>698.6</ele>
        <time>2021-05-20T09:19:05Z</time>
      </trkpt>
      <trkpt lat="45.76798" lon="6.29839">
        <ele>697.8</ele>
        <time>2021-05-20T09:19:06Z</time>
      </trkpt>
      <trkpt lat="45.768" lon="6.29846">
        <ele>697.2</ele>
        <time>2021-05-20T09:19:07Z</time>
      </trkpt>
      <trkpt lat="45.76803" lon="6.29853">
        <ele>695.2</ele>
        <time>2021-05-20T09:19:08Z</time>
      </trkpt>
      <trkpt lat="45.76805" lon="6.29859">
        <ele>694.4</ele>
        <time>2021-05-20T09:19:09Z</time>
      </trkpt>
      <trkpt lat="45.76808" lon="6.29865">
        <ele>693.2</ele>
        <time>2021-05-20T09:19:10Z</time>
      </trkpt>
      <trkpt lat="45.76812" lon="6.29878">
        <ele>691.4</ele>
        <time>2021-05-20T09:19:12Z</time>
      </trkpt>
      <trkpt lat="45.76814" lon="6.29886">
        <ele>690.6</ele>
        <time>2021-05-20T09:19:13Z</time>
      </trkpt>
      <trkpt lat="45.76815" lon="6.29894">
        <ele>690.8</ele>
        <time>2021-05-20T09:19:14Z</time>
      </trkpt>
      <trkpt lat="45.76816" lon="6.29902">
        <ele>688.8</ele>
        <time>2021-05-20T09:19:15Z</time>
      </trkpt>
      <trkpt lat="45.76818" lon="6.29912">
        <ele>687.4</ele>
        <time>2021-05-20T09:19:16Z</time>
      </trkpt>
      <trkpt lat="45.76819" lon="6.29921">
        <ele>686.6</ele>
        <time>2021-05-20T09:19:17Z</time>
      </trkpt>
      <trkpt lat="45.7682" lon="6.29928">
        <ele>686</ele>
        <time>2021-05-20T09:19:18Z</time>
      </trkpt>
      <trkpt lat="45.76821" lon="6.29933">
        <ele>685.2</ele>
        <time>2021-05-20T09:19:19Z</time>
      </trkpt>
      <trkpt lat="45.76823" lon="6.29939">
        <ele>684.6</ele>
        <time>2021-05-20T09:19:20Z</time>
      </trkpt>
      <trkpt lat="45.76826" lon="6.2995">
        <ele>683.2</ele>
        <time>2021-05-20T09:19:22Z</time>
      </trkpt>
      <trkpt lat="45.76826" lon="6.29955">
        <ele>681.8</ele>
        <time>2021-05-20T09:19:23Z</time>
      </trkpt>
      <trkpt lat="45.76826" lon="6.29964">
        <ele>680.6</ele>
        <time>2021-05-20T09:19:25Z</time>
      </trkpt>
      <trkpt lat="45.76826" lon="6.29969">
        <ele>679.4</ele>
        <time>2021-05-20T09:19:26Z</time>
      </trkpt>
      <trkpt lat="45.76824" lon="6.29979">
        <ele>678</ele>
        <time>2021-05-20T09:19:28Z</time>
      </trkpt>
      <trkpt lat="45.76824" lon="6.29984">
        <ele>676.2</ele>
        <time>2021-05-20T09:19:29Z</time>
      </trkpt>
      <trkpt lat="45.76823" lon="6.2999">
        <ele>675</ele>
        <time>2021-05-20T09:19:30Z</time>
      </trkpt>
      <trkpt lat="45.76824" lon="6.29994">
        <ele>673.8</ele>
        <time>2021-05-20T09:19:31Z</time>
      </trkpt>
      <trkpt lat="45.76827" lon="6.30003">
        <ele>672.4</ele>
        <time>2021-05-20T09:19:33Z</time>
      </trkpt>
      <trkpt lat="45.76828" lon="6.30008">
        <ele>671.4</ele>
        <time>2021-05-20T09:19:34Z</time>
      </trkpt>
      <trkpt lat="45.76829" lon="6.30014">
        <ele>669.6</ele>
        <time>2021-05-20T09:19:35Z</time>
      </trkpt>
      <trkpt lat="45.76829" lon="6.3002">
        <ele>667.8</ele>
        <time>2021-05-20T09:19:36Z</time>
      </trkpt>
      <trkpt lat="45.76828" lon="6.30026">
        <ele>665.8</ele>
        <time>2021-05-20T09:19:37Z</time>
      </trkpt>
      <trkpt lat="45.76826" lon="6.30033">
        <ele>663.8</ele>
        <time>2021-05-20T09:19:38Z</time>
      </trkpt>
      <trkpt lat="45.76824" lon="6.30039">
        <ele>662.4</ele>
        <time>2021-05-20T09:19:39Z</time>
      </trkpt>
      <trkpt lat="45.76823" lon="6.30044">
        <ele>661</ele>
        <time>2021-05-20T09:19:40Z</time>
      </trkpt>
      <trkpt lat="45.76826" lon="6.30051">
        <ele>659.6</ele>
        <time>2021-05-20T09:19:42Z</time>
      </trkpt>
      <trkpt lat="45.76832" lon="6.30059">
        <ele>658.4</ele>
        <time>2021-05-20T09:19:44Z</time>
      </trkpt>
      <trkpt lat="45.76838" lon="6.30066">
        <ele>656.6</ele>
        <time>2021-05-20T09:19:46Z</time>
      </trkpt>
      <trkpt lat="45.7684" lon="6.3007">
        <ele>655.4</ele>
        <time>2021-05-20T09:19:47Z</time>
      </trkpt>
      <trkpt lat="45.76843" lon="6.30079">
        <ele>654</ele>
        <time>2021-05-20T09:19:49Z</time>
      </trkpt>
      <trkpt lat="45.76842" lon="6.30089">
        <ele>653</ele>
        <time>2021-05-20T09:19:51Z</time>
      </trkpt>
      <trkpt lat="45.76839" lon="6.30095">
        <ele>652.8</ele>
        <time>2021-05-20T09:19:52Z</time>
      </trkpt>
      <trkpt lat="45.76837" lon="6.30102">
        <ele>651.2</ele>
        <time>2021-05-20T09:19:53Z</time>
      </trkpt>
      <trkpt lat="45.76835" lon="6.3011">
        <ele>649.8</ele>
        <time>2021-05-20T09:19:54Z</time>
      </trkpt>
      <trkpt lat="45.76832" lon="6.30118">
        <ele>648.6</ele>
        <time>2021-05-20T09:19:55Z</time>
      </trkpt>
      <trkpt lat="45.76826" lon="6.30133">
        <ele>646.4</ele>
        <time>2021-05-20T09:19:57Z</time>
      </trkpt>
      <trkpt lat="45.76823" lon="6.30141">
        <ele>645.4</ele>
        <time>2021-05-20T09:19:58Z</time>
      </trkpt>
      <trkpt lat="45.76822" lon="6.30157">
        <ele>643.8</ele>
        <time>2021-05-20T09:20:00Z</time>
      </trkpt>
      <trkpt lat="45.76822" lon="6.30165">
        <ele>643</ele>
        <time>2021-05-20T09:20:01Z</time>
      </trkpt>
      <trkpt lat="45.76823" lon="6.30173">
        <ele>642.4</ele>
        <time>2021-05-20T09:20:02Z</time>
      </trkpt>
      <trkpt lat="45.76826" lon="6.30182">
        <ele>641.8</ele>
        <time>2021-05-20T09:20:03Z</time>
      </trkpt>
      <trkpt lat="45.7683" lon="6.30191">
        <ele>641.2</ele>
        <time>2021-05-20T09:20:04Z</time>
      </trkpt>
      <trkpt lat="45.76837" lon="6.30211">
        <ele>639.8</ele>
        <time>2021-05-20T09:20:06Z</time>
      </trkpt>
      <trkpt lat="45.76838" lon="6.30222">
        <ele>638.6</ele>
        <time>2021-05-20T09:20:07Z</time>
      </trkpt>
      <trkpt lat="45.76838" lon="6.30231">
        <ele>637</ele>
        <time>2021-05-20T09:20:08Z</time>
      </trkpt>
      <trkpt lat="45.76837" lon="6.30239">
        <ele>635.6</ele>
        <time>2021-05-20T09:20:09Z</time>
      </trkpt>
      <trkpt lat="45.76835" lon="6.30246">
        <ele>634.6</ele>
        <time>2021-05-20T09:20:10Z</time>
      </trkpt>
      <trkpt lat="45.76831" lon="6.30259">
        <ele>632.6</ele>
        <time>2021-05-20T09:20:12Z</time>
      </trkpt>
      <trkpt lat="45.76829" lon="6.30266">
        <ele>631</ele>
        <time>2021-05-20T09:20:13Z</time>
      </trkpt>
      <trkpt lat="45.76827" lon="6.30275">
        <ele>628.8</ele>
        <time>2021-05-20T09:20:14Z</time>
      </trkpt>
      <trkpt lat="45.76826" lon="6.30287">
        <ele>627.8</ele>
        <time>2021-05-20T09:20:15Z</time>
      </trkpt>
      <trkpt lat="45.76827" lon="6.30306">
        <ele>625</ele>
        <time>2021-05-20T09:20:17Z</time>
      </trkpt>
      <trkpt lat="45.76829" lon="6.30319">
        <ele>624</ele>
        <time>2021-05-20T09:20:18Z</time>
      </trkpt>
      <trkpt lat="45.76834" lon="6.30331">
        <ele>623</ele>
        <time>2021-05-20T09:20:19Z</time>
      </trkpt>
      <trkpt lat="45.76839" lon="6.30343">
        <ele>621</ele>
        <time>2021-05-20T09:20:20Z</time>
      </trkpt>
      <trkpt lat="45.76845" lon="6.30356">
        <ele>619.8</ele>
        <time>2021-05-20T09:20:21Z</time>
      </trkpt>
      <trkpt lat="45.76852" lon="6.30368">
        <ele>618.2</ele>
        <time>2021-05-20T09:20:22Z</time>
      </trkpt>
      <trkpt lat="45.76858" lon="6.30381">
        <ele>616.6</ele>
        <time>2021-05-20T09:20:23Z</time>
      </trkpt>
      <trkpt lat="45.76864" lon="6.30392">
        <ele>615.6</ele>
        <time>2021-05-20T09:20:24Z</time>
      </trkpt>
      <trkpt lat="45.76869" lon="6.30402">
        <ele>615</ele>
        <time>2021-05-20T09:20:25Z</time>
      </trkpt>
      <trkpt lat="45.76872" lon="6.3041">
        <ele>614.4</ele>
        <time>2021-05-20T09:20:26Z</time>
      </trkpt>
      <trkpt lat="45.76874" lon="6.30416">
        <ele>613.8</ele>
        <time>2021-05-20T09:20:27Z</time>
      </trkpt>
      <trkpt lat="45.76875" lon="6.30421">
        <ele>613.4</ele>
        <time>2021-05-20T09:20:28Z</time>
      </trkpt>
      <trkpt lat="45.76881" lon="6.30436">
        <ele>612.4</ele>
        <time>2021-05-20T09:20:30Z</time>
      </trkpt>
      <trkpt lat="45.76876" lon="6.30436">
        <ele>611.2</ele>
        <time>2021-05-20T09:20:31Z</time>
      </trkpt>
      <trkpt lat="45.76859" lon="6.30427">
        <ele>609.2</ele>
        <time>2021-05-20T09:20:33Z</time>
      </trkpt>
      <trkpt lat="45.76851" lon="6.30422">
        <ele>607.8</ele>
        <time>2021-05-20T09:20:34Z</time>
      </trkpt>
      <trkpt lat="45.7684" lon="6.30418">
        <ele>606.4</ele>
        <time>2021-05-20T09:20:35Z</time>
      </trkpt>
      <trkpt lat="45.76821" lon="6.3041">
        <ele>604</ele>
        <time>2021-05-20T09:20:37Z</time>
      </trkpt>
      <trkpt lat="45.7681" lon="6.30407">
        <ele>601.8</ele>
        <time>2021-05-20T09:20:38Z</time>
      </trkpt>
      <trkpt lat="45.76802" lon="6.30405">
        <ele>600.6</ele>
        <time>2021-05-20T09:20:39Z</time>
      </trkpt>
      <trkpt lat="45.76787" lon="6.3041">
        <ele>599</ele>
        <time>2021-05-20T09:20:41Z</time>
      </trkpt>
      <trkpt lat="45.76781" lon="6.30425">
        <ele>598.2</ele>
        <time>2021-05-20T09:20:43Z</time>
      </trkpt>
      <trkpt lat="45.76781" lon="6.30436">
        <ele>597.2</ele>
        <time>2021-05-20T09:20:44Z</time>
      </trkpt>
      <trkpt lat="45.76781" lon="6.30455">
        <ele>595.2</ele>
        <time>2021-05-20T09:20:46Z</time>
      </trkpt>
      <trkpt lat="45.76779" lon="6.30461">
        <ele>594</ele>
        <time>2021-05-20T09:20:47Z</time>
      </trkpt>
      <trkpt lat="45.76775" lon="6.30466">
        <ele>593.2</ele>
        <time>2021-05-20T09:20:48Z</time>
      </trkpt>
      <trkpt lat="45.76769" lon="6.3047">
        <ele>592.2</ele>
        <time>2021-05-20T09:20:49Z</time>
      </trkpt>
      <trkpt lat="45.76761" lon="6.30472">
        <ele>590.6</ele>
        <time>2021-05-20T09:20:50Z</time>
      </trkpt>
      <trkpt lat="45.76754" lon="6.30474">
        <ele>588.4</ele>
        <time>2021-05-20T09:20:51Z</time>
      </trkpt>
      <trkpt lat="45.76746" lon="6.30477">
        <ele>587</ele>
        <time>2021-05-20T09:20:52Z</time>
      </trkpt>
      <trkpt lat="45.76737" lon="6.3048">
        <ele>585.6</ele>
        <time>2021-05-20T09:20:53Z</time>
      </trkpt>
      <trkpt lat="45.76728" lon="6.30482">
        <ele>582.8</ele>
        <time>2021-05-20T09:20:54Z</time>
      </trkpt>
      <trkpt lat="45.7672" lon="6.30483">
        <ele>581.4</ele>
        <time>2021-05-20T09:20:55Z</time>
      </trkpt>
      <trkpt lat="45.76708" lon="6.30483">
        <ele>579</ele>
        <time>2021-05-20T09:20:57Z</time>
      </trkpt>
      <trkpt lat="45.76697" lon="6.3049">
        <ele>577.4</ele>
        <time>2021-05-20T09:20:59Z</time>
      </trkpt>
      <trkpt lat="45.76693" lon="6.30493">
        <ele>576.6</ele>
        <time>2021-05-20T09:21:00Z</time>
      </trkpt>
      <trkpt lat="45.76688" lon="6.30493">
        <ele>575.4</ele>
        <time>2021-05-20T09:21:01Z</time>
      </trkpt>
      <trkpt lat="45.76682" lon="6.30493">
        <ele>574.8</ele>
        <time>2021-05-20T09:21:02Z</time>
      </trkpt>
      <trkpt lat="45.76677" lon="6.30491">
        <ele>573.6</ele>
        <time>2021-05-20T09:21:03Z</time>
      </trkpt>
      <trkpt lat="45.76672" lon="6.30489">
        <ele>572.4</ele>
        <time>2021-05-20T09:21:04Z</time>
      </trkpt>
      <trkpt lat="45.76668" lon="6.3049">
        <ele>571.6</ele>
        <time>2021-05-20T09:21:05Z</time>
      </trkpt>
      <trkpt lat="45.76663" lon="6.30494">
        <ele>570.6</ele>
        <time>2021-05-20T09:21:06Z</time>
      </trkpt>
      <trkpt lat="45.76661" lon="6.30499">
        <ele>570.2</ele>
        <time>2021-05-20T09:21:07Z</time>
      </trkpt>
      <trkpt lat="45.7666" lon="6.30507">
        <ele>569.4</ele>
        <time>2021-05-20T09:21:08Z</time>
      </trkpt>
      <trkpt lat="45.76661" lon="6.30516">
        <ele>568.8</ele>
        <time>2021-05-20T09:21:09Z</time>
      </trkpt>
      <trkpt lat="45.76662" lon="6.30525">
        <ele>568</ele>
        <time>2021-05-20T09:21:10Z</time>
      </trkpt>
      <trkpt lat="45.76661" lon="6.30531">
        <ele>567.6</ele>
        <time>2021-05-20T09:21:11Z</time>
      </trkpt>
      <trkpt lat="45.76657" lon="6.30536">
        <ele>566.8</ele>
        <time>2021-05-20T09:21:12Z</time>
      </trkpt>
      <trkpt lat="45.76652" lon="6.30539">
        <ele>565.8</ele>
        <time>2021-05-20T09:21:13Z</time>
      </trkpt>
      <trkpt lat="45.76646" lon="6.30541">
        <ele>564.6</ele>
        <time>2021-05-20T09:21:14Z</time>
      </trkpt>
      <trkpt lat="45.76639" lon="6.30543">
        <ele>563.6</ele>
        <time>2021-05-20T09:21:15Z</time>
      </trkpt>
      <trkpt lat="45.76633" lon="6.30547">
        <ele>562.4</ele>
        <time>2021-05-20T09:21:16Z</time>
      </trkpt>
      <trkpt lat="45.76627" lon="6.30551">
        <ele>561.2</ele>
        <time>2021-05-20T09:21:17Z</time>
      </trkpt>
      <trkpt lat="45.76621" lon="6.30556">
        <ele>559.6</ele>
        <time>2021-05-20T09:21:18Z</time>
      </trkpt>
      <trkpt lat="45.76617" lon="6.30562">
        <ele>558.6</ele>
        <time>2021-05-20T09:21:19Z</time>
      </trkpt>
      <trkpt lat="45.76613" lon="6.30575">
        <ele>557.6</ele>
        <time>2021-05-20T09:21:21Z</time>
      </trkpt>
      <trkpt lat="45.76613" lon="6.30582">
        <ele>556.8</ele>
        <time>2021-05-20T09:21:22Z</time>
      </trkpt>
      <trkpt lat="45.76614" lon="6.3059">
        <ele>556.2</ele>
        <time>2021-05-20T09:21:23Z</time>
      </trkpt>
      <trkpt lat="45.76614" lon="6.30598">
        <ele>555.6</ele>
        <time>2021-05-20T09:21:24Z</time>
      </trkpt>
      <trkpt lat="45.76612" lon="6.30606">
        <ele>554.8</ele>
        <time>2021-05-20T09:21:25Z</time>
      </trkpt>
      <trkpt lat="45.76609" lon="6.30611">
        <ele>554</ele>
        <time>2021-05-20T09:21:26Z</time>
      </trkpt>
      <trkpt lat="45.76606" lon="6.30615">
        <ele>553.6</ele>
        <time>2021-05-20T09:21:27Z</time>
      </trkpt>
      <trkpt lat="45.76605" lon="6.30617">
        <ele>553</ele>
        <time>2021-05-20T09:21:28Z</time>
      </trkpt>
      <trkpt lat="45.76604" lon="6.30617">
        <ele>552.4</ele>
        <time>2021-05-20T09:21:29Z</time>
      </trkpt>
      <trkpt lat="45.76529" lon="6.3067">
        <ele>546.4</ele>
        <time>2021-05-20T09:22:00Z</time>
      </trkpt>
      <trkpt lat="45.76522" lon="6.30673">
        <ele>546.2</ele>
        <time>2021-05-20T09:22:01Z</time>
      </trkpt>
      <trkpt lat="45.76507" lon="6.30678">
        <ele>545.8</ele>
        <time>2021-05-20T09:22:03Z</time>
      </trkpt>
      <trkpt lat="45.76493" lon="6.30684">
        <ele>545.6</ele>
        <time>2021-05-20T09:22:05Z</time>
      </trkpt>
      <trkpt lat="45.76486" lon="6.30686">
        <ele>545.4</ele>
        <time>2021-05-20T09:22:06Z</time>
      </trkpt>
      <trkpt lat="45.76474" lon="6.30689">
        <ele>545.2</ele>
        <time>2021-05-20T09:22:08Z</time>
      </trkpt>
      <trkpt lat="45.76463" lon="6.30692">
        <ele>545.4</ele>
        <time>2021-05-20T09:22:10Z</time>
      </trkpt>
      <trkpt lat="45.76455" lon="6.30705">
        <ele>545.4</ele>
        <time>2021-05-20T09:22:12Z</time>
      </trkpt>
      <trkpt lat="45.76452" lon="6.30713">
        <ele>545.4</ele>
        <time>2021-05-20T09:22:13Z</time>
      </trkpt>
      <trkpt lat="45.76448" lon="6.3072">
        <ele>545.4</ele>
        <time>2021-05-20T09:22:14Z</time>
      </trkpt>
      <trkpt lat="45.76443" lon="6.30728">
        <ele>545.4</ele>
        <time>2021-05-20T09:22:15Z</time>
      </trkpt>
      <trkpt lat="45.76433" lon="6.30743">
        <ele>545.2</ele>
        <time>2021-05-20T09:22:17Z</time>
      </trkpt>
      <trkpt lat="45.76428" lon="6.3075">
        <ele>545</ele>
        <time>2021-05-20T09:22:18Z</time>
      </trkpt>
      <trkpt lat="45.76407" lon="6.30774">
        <ele>544.4</ele>
        <time>2021-05-20T09:22:22Z</time>
      </trkpt>
      <trkpt lat="45.76402" lon="6.3078">
        <ele>544.2</ele>
        <time>2021-05-20T09:22:23Z</time>
      </trkpt>
      <trkpt lat="45.76386" lon="6.30797">
        <ele>543.6</ele>
        <time>2021-05-20T09:22:26Z</time>
      </trkpt>
      <trkpt lat="45.76371" lon="6.30814">
        <ele>543.4</ele>
        <time>2021-05-20T09:22:29Z</time>
      </trkpt>
      <trkpt lat="45.76346" lon="6.30841">
        <ele>543.4</ele>
        <time>2021-05-20T09:22:34Z</time>
      </trkpt>
      <trkpt lat="45.76335" lon="6.30851">
        <ele>543.2</ele>
        <time>2021-05-20T09:22:36Z</time>
      </trkpt>
      <trkpt lat="45.76318" lon="6.30862">
        <ele>543.2</ele>
        <time>2021-05-20T09:22:39Z</time>
      </trkpt>
      <trkpt lat="45.76299" lon="6.30869">
        <ele>542.8</ele>
        <time>2021-05-20T09:22:42Z</time>
      </trkpt>
      <trkpt lat="45.7628" lon="6.30875">
        <ele>542.8</ele>
        <time>2021-05-20T09:22:45Z</time>
      </trkpt>
      <trkpt lat="45.76234" lon="6.30883">
        <ele>542.4</ele>
        <time>2021-05-20T09:22:52Z</time>
      </trkpt>
      <trkpt lat="45.76228" lon="6.30883">
        <ele>542.2</ele>
        <time>2021-05-20T09:22:53Z</time>
      </trkpt>
      <trkpt lat="45.76208" lon="6.30885">
        <ele>541.8</ele>
        <time>2021-05-20T09:22:56Z</time>
      </trkpt>
      <trkpt lat="45.76181" lon="6.30886">
        <ele>541.4</ele>
        <time>2021-05-20T09:23:00Z</time>
      </trkpt>
      <trkpt lat="45.76167" lon="6.30885">
        <ele>541.4</ele>
        <time>2021-05-20T09:23:02Z</time>
      </trkpt>
      <trkpt lat="45.76146" lon="6.30884">
        <ele>540.6</ele>
        <time>2021-05-20T09:23:05Z</time>
      </trkpt>
      <trkpt lat="45.76126" lon="6.30882">
        <ele>540</ele>
        <time>2021-05-20T09:23:08Z</time>
      </trkpt>
      <trkpt lat="45.76112" lon="6.30882">
        <ele>539.6</ele>
        <time>2021-05-20T09:23:10Z</time>
      </trkpt>
      <trkpt lat="45.76078" lon="6.30888">
        <ele>539.4</ele>
        <time>2021-05-20T09:23:15Z</time>
      </trkpt>
      <trkpt lat="45.76044" lon="6.30885">
        <ele>539.4</ele>
        <time>2021-05-20T09:23:20Z</time>
      </trkpt>
      <trkpt lat="45.76024" lon="6.30882">
        <ele>538.6</ele>
        <time>2021-05-20T09:23:23Z</time>
      </trkpt>
      <trkpt lat="45.76004" lon="6.30883">
        <ele>538</ele>
        <time>2021-05-20T09:23:26Z</time>
      </trkpt>
      <trkpt lat="45.75998" lon="6.30884">
        <ele>537.8</ele>
        <time>2021-05-20T09:23:27Z</time>
      </trkpt>
      <trkpt lat="45.75991" lon="6.30887">
        <ele>537.4</ele>
        <time>2021-05-20T09:23:28Z</time>
      </trkpt>
      <trkpt lat="45.75971" lon="6.30895">
        <ele>536.2</ele>
        <time>2021-05-20T09:23:31Z</time>
      </trkpt>
      <trkpt lat="45.75943" lon="6.30905">
        <ele>535.8</ele>
        <time>2021-05-20T09:23:35Z</time>
      </trkpt>
      <trkpt lat="45.75911" lon="6.30927">
        <ele>535.4</ele>
        <time>2021-05-20T09:23:40Z</time>
      </trkpt>
      <trkpt lat="45.75904" lon="6.30932">
        <ele>534.8</ele>
        <time>2021-05-20T09:23:41Z</time>
      </trkpt>
      <trkpt lat="45.75866" lon="6.30961">
        <ele>533.6</ele>
        <time>2021-05-20T09:23:47Z</time>
      </trkpt>
      <trkpt lat="45.75859" lon="6.30965">
        <ele>533.6</ele>
        <time>2021-05-20T09:23:48Z</time>
      </trkpt>
      <trkpt lat="45.75839" lon="6.30977">
        <ele>533</ele>
        <time>2021-05-20T09:23:51Z</time>
      </trkpt>
      <trkpt lat="45.75826" lon="6.30984">
        <ele>532.6</ele>
        <time>2021-05-20T09:23:53Z</time>
      </trkpt>
      <trkpt lat="45.7582" lon="6.30989">
        <ele>532.2</ele>
        <time>2021-05-20T09:23:54Z</time>
      </trkpt>
      <trkpt lat="45.7579" lon="6.31025">
        <ele>532</ele>
        <time>2021-05-20T09:24:00Z</time>
      </trkpt>
      <trkpt lat="45.75774" lon="6.31036">
        <ele>533.6</ele>
        <time>2021-05-20T09:24:03Z</time>
      </trkpt>
      <trkpt lat="45.75763" lon="6.31042">
        <ele>533.2</ele>
        <time>2021-05-20T09:24:05Z</time>
      </trkpt>
      <trkpt lat="45.75757" lon="6.31044">
        <ele>532.4</ele>
        <time>2021-05-20T09:24:06Z</time>
      </trkpt>
      <trkpt lat="45.75733" lon="6.31055">
        <ele>531.4</ele>
        <time>2021-05-20T09:24:10Z</time>
      </trkpt>
      <trkpt lat="45.75716" lon="6.31064">
        <ele>530.6</ele>
        <time>2021-05-20T09:24:13Z</time>
      </trkpt>
      <trkpt lat="45.75705" lon="6.31071">
        <ele>530.4</ele>
        <time>2021-05-20T09:24:15Z</time>
      </trkpt>
      <trkpt lat="45.75701" lon="6.31074">
        <ele>530</ele>
        <time>2021-05-20T09:24:16Z</time>
      </trkpt>
      <trkpt lat="45.75693" lon="6.31078">
        <ele>529.8</ele>
        <time>2021-05-20T09:24:18Z</time>
      </trkpt>
      <trkpt lat="45.75689" lon="6.3108">
        <ele>529.8</ele>
        <time>2021-05-20T09:24:19Z</time>
      </trkpt>
      <trkpt lat="45.75685" lon="6.31082">
        <ele>530</ele>
        <time>2021-05-20T09:24:20Z</time>
      </trkpt>
      <trkpt lat="45.75681" lon="6.31084">
        <ele>529.6</ele>
        <time>2021-05-20T09:24:21Z</time>
      </trkpt>
      <trkpt lat="45.75676" lon="6.31087">
        <ele>529.8</ele>
        <time>2021-05-20T09:24:22Z</time>
      </trkpt>
      <trkpt lat="45.75665" lon="6.31092">
        <ele>530.6</ele>
        <time>2021-05-20T09:24:24Z</time>
      </trkpt>
      <trkpt lat="45.7566" lon="6.31093">
        <ele>531</ele>
        <time>2021-05-20T09:24:25Z</time>
      </trkpt>
      <trkpt lat="45.7565" lon="6.31093">
        <ele>530.2</ele>
        <time>2021-05-20T09:24:27Z</time>
      </trkpt>
      <trkpt lat="45.75646" lon="6.31092">
        <ele>530</ele>
        <time>2021-05-20T09:24:28Z</time>
      </trkpt>
      <trkpt lat="45.75635" lon="6.31088">
        <ele>529.6</ele>
        <time>2021-05-20T09:24:31Z</time>
      </trkpt>
      <trkpt lat="45.75622" lon="6.31079">
        <ele>530.2</ele>
        <time>2021-05-20T09:24:36Z</time>
      </trkpt>
      <trkpt lat="45.75617" lon="6.3107">
        <ele>528.8</ele>
        <time>2021-05-20T09:24:40Z</time>
      </trkpt>
      <trkpt lat="45.75616" lon="6.31067">
        <ele>528.4</ele>
        <time>2021-05-20T09:24:41Z</time>
      </trkpt>
      <trkpt lat="45.75617" lon="6.31053">
        <ele>528.2</ele>
        <time>2021-05-20T09:24:44Z</time>
      </trkpt>
      <trkpt lat="45.75619" lon="6.31047">
        <ele>528</ele>
        <time>2021-05-20T09:24:45Z</time>
      </trkpt>
      <trkpt lat="45.75621" lon="6.31041">
        <ele>527.8</ele>
        <time>2021-05-20T09:24:46Z</time>
      </trkpt>
      <trkpt lat="45.75625" lon="6.31027">
        <ele>527.2</ele>
        <time>2021-05-20T09:24:48Z</time>
      </trkpt>
      <trkpt lat="45.75625" lon="6.31013">
        <ele>526.8</ele>
        <time>2021-05-20T09:24:50Z</time>
      </trkpt>
      <trkpt lat="45.75624" lon="6.31006">
        <ele>526.8</ele>
        <time>2021-05-20T09:24:51Z</time>
      </trkpt>
      <trkpt lat="45.75622" lon="6.30999">
        <ele>526.4</ele>
        <time>2021-05-20T09:24:52Z</time>
      </trkpt>
      <trkpt lat="45.75619" lon="6.30991">
        <ele>526.4</ele>
        <time>2021-05-20T09:24:53Z</time>
      </trkpt>
      <trkpt lat="45.75608" lon="6.3097">
        <ele>525.4</ele>
        <time>2021-05-20T09:24:56Z</time>
      </trkpt>
      <trkpt lat="45.75605" lon="6.30963">
        <ele>525.2</ele>
        <time>2021-05-20T09:24:57Z</time>
      </trkpt>
      <trkpt lat="45.75602" lon="6.30955">
        <ele>525.2</ele>
        <time>2021-05-20T09:24:58Z</time>
      </trkpt>
      <trkpt lat="45.756" lon="6.3094">
        <ele>525.8</ele>
        <time>2021-05-20T09:25:00Z</time>
      </trkpt>
      <trkpt lat="45.75598" lon="6.30925">
        <ele>526</ele>
        <time>2021-05-20T09:25:02Z</time>
      </trkpt>
      <trkpt lat="45.75591" lon="6.30888">
        <ele>525.8</ele>
        <time>2021-05-20T09:25:07Z</time>
      </trkpt>
      <trkpt lat="45.75586" lon="6.30873">
        <ele>525.8</ele>
        <time>2021-05-20T09:25:09Z</time>
      </trkpt>
      <trkpt lat="45.75582" lon="6.30856">
        <ele>525.8</ele>
        <time>2021-05-20T09:25:11Z</time>
      </trkpt>
      <trkpt lat="45.7558" lon="6.30848">
        <ele>525.8</ele>
        <time>2021-05-20T09:25:12Z</time>
      </trkpt>
      <trkpt lat="45.75573" lon="6.30822">
        <ele>525</ele>
        <time>2021-05-20T09:25:16Z</time>
      </trkpt>
      <trkpt lat="45.7557" lon="6.30817">
        <ele>524.8</ele>
        <time>2021-05-20T09:25:18Z</time>
      </trkpt>
      <trkpt lat="45.75568" lon="6.30816">
        <ele>524.6</ele>
        <time>2021-05-20T09:25:19Z</time>
      </trkpt>
      <trkpt lat="45.75565" lon="6.30815">
        <ele>524</ele>
        <time>2021-05-20T09:25:20Z</time>
      </trkpt>
      <trkpt lat="45.75552" lon="6.30827">
        <ele>523.2</ele>
        <time>2021-05-20T09:25:23Z</time>
      </trkpt>
      <trkpt lat="45.75552" lon="6.30826">
        <ele>523.2</ele>
        <time>2021-05-20T09:25:24Z</time>
      </trkpt>
      <trkpt lat="45.75552" lon="6.30821">
        <ele>523.2</ele>
        <time>2021-05-20T09:25:25Z</time>
      </trkpt>
      <trkpt lat="45.75551" lon="6.30811">
        <ele>523.8</ele>
        <time>2021-05-20T09:25:27Z</time>
      </trkpt>
      <trkpt lat="45.75549" lon="6.30789">
        <ele>525</ele>
        <time>2021-05-20T09:25:30Z</time>
      </trkpt>
      <trkpt lat="45.75548" lon="6.30772">
        <ele>525.6</ele>
        <time>2021-05-20T09:25:32Z</time>
      </trkpt>
      <trkpt lat="45.75548" lon="6.30764">
        <ele>526.4</ele>
        <time>2021-05-20T09:25:33Z</time>
      </trkpt>
      <trkpt lat="45.7555" lon="6.30736">
        <ele>526.8</ele>
        <time>2021-05-20T09:25:37Z</time>
      </trkpt>
      <trkpt lat="45.75551" lon="6.30721">
        <ele>526.4</ele>
        <time>2021-05-20T09:25:39Z</time>
      </trkpt>
      <trkpt lat="45.75552" lon="6.30697">
        <ele>526</ele>
        <time>2021-05-20T09:25:42Z</time>
      </trkpt>
      <trkpt lat="45.75552" lon="6.30689">
        <ele>526.2</ele>
        <time>2021-05-20T09:25:43Z</time>
      </trkpt>
      <trkpt lat="45.75552" lon="6.30661">
        <ele>526</ele>
        <time>2021-05-20T09:25:47Z</time>
      </trkpt>
      <trkpt lat="45.75552" lon="6.30646">
        <ele>525.8</ele>
        <time>2021-05-20T09:25:49Z</time>
      </trkpt>
      <trkpt lat="45.75552" lon="6.30639">
        <ele>525.8</ele>
        <time>2021-05-20T09:25:50Z</time>
      </trkpt>
      <trkpt lat="45.75552" lon="6.30625">
        <ele>525.8</ele>
        <time>2021-05-20T09:25:52Z</time>
      </trkpt>
      <trkpt lat="45.75552" lon="6.30618">
        <ele>526</ele>
        <time>2021-05-20T09:25:53Z</time>
      </trkpt>
      <trkpt lat="45.75553" lon="6.30605">
        <ele>526.4</ele>
        <time>2021-05-20T09:25:55Z</time>
      </trkpt>
      <trkpt lat="45.75552" lon="6.30599">
        <ele>526.4</ele>
        <time>2021-05-20T09:25:56Z</time>
      </trkpt>
      <trkpt lat="45.75551" lon="6.3058">
        <ele>526.6</ele>
        <time>2021-05-20T09:26:00Z</time>
      </trkpt>
      <trkpt lat="45.75553" lon="6.30558">
        <ele>526.6</ele>
        <time>2021-05-20T09:26:06Z</time>
      </trkpt>
      <trkpt lat="45.75555" lon="6.30532">
        <ele>526.6</ele>
        <time>2021-05-20T09:26:11Z</time>
      </trkpt>
      <trkpt lat="45.75554" lon="6.30518">
        <ele>526.8</ele>
        <time>2021-05-20T09:26:13Z</time>
      </trkpt>
      <trkpt lat="45.75553" lon="6.305">
        <ele>526.8</ele>
        <time>2021-05-20T09:26:16Z</time>
      </trkpt>
      <trkpt lat="45.75552" lon="6.30456">
        <ele>526.6</ele>
        <time>2021-05-20T09:26:23Z</time>
      </trkpt>
      <trkpt lat="45.75551" lon="6.30443">
        <ele>526.6</ele>
        <time>2021-05-20T09:26:26Z</time>
      </trkpt>
      <trkpt lat="45.75549" lon="6.30429">
        <ele>526.4</ele>
        <time>2021-05-20T09:26:28Z</time>
      </trkpt>
      <trkpt lat="45.75548" lon="6.30405">
        <ele>526.6</ele>
        <time>2021-05-20T09:26:32Z</time>
      </trkpt>
      <trkpt lat="45.75547" lon="6.304">
        <ele>526.4</ele>
        <time>2021-05-20T09:26:33Z</time>
      </trkpt>
      <trkpt lat="45.75542" lon="6.3039">
        <ele>527</ele>
        <time>2021-05-20T09:26:35Z</time>
      </trkpt>
      <trkpt lat="45.75536" lon="6.30379">
        <ele>526.8</ele>
        <time>2021-05-20T09:26:37Z</time>
      </trkpt>
      <trkpt lat="45.75527" lon="6.3036">
        <ele>526.6</ele>
        <time>2021-05-20T09:26:40Z</time>
      </trkpt>
      <trkpt lat="45.75519" lon="6.30349">
        <ele>526.6</ele>
        <time>2021-05-20T09:26:42Z</time>
      </trkpt>
      <trkpt lat="45.75515" lon="6.30344">
        <ele>527</ele>
        <time>2021-05-20T09:26:43Z</time>
      </trkpt>
      <trkpt lat="45.75511" lon="6.30337">
        <ele>527.2</ele>
        <time>2021-05-20T09:26:44Z</time>
      </trkpt>
      <trkpt lat="45.75505" lon="6.30322">
        <ele>527.2</ele>
        <time>2021-05-20T09:26:46Z</time>
      </trkpt>
      <trkpt lat="45.75502" lon="6.30314">
        <ele>527.2</ele>
        <time>2021-05-20T09:26:47Z</time>
      </trkpt>
      <trkpt lat="45.755" lon="6.30306">
        <ele>527.4</ele>
        <time>2021-05-20T09:26:48Z</time>
      </trkpt>
      <trkpt lat="45.75495" lon="6.3028">
        <ele>526.6</ele>
        <time>2021-05-20T09:26:51Z</time>
      </trkpt>
      <trkpt lat="45.75493" lon="6.30272">
        <ele>526.6</ele>
        <time>2021-05-20T09:26:52Z</time>
      </trkpt>
      <trkpt lat="45.7549" lon="6.30256">
        <ele>526.4</ele>
        <time>2021-05-20T09:26:54Z</time>
      </trkpt>
      <trkpt lat="45.75485" lon="6.30232">
        <ele>526.4</ele>
        <time>2021-05-20T09:26:57Z</time>
      </trkpt>
      <trkpt lat="45.75482" lon="6.30216">
        <ele>526.8</ele>
        <time>2021-05-20T09:26:59Z</time>
      </trkpt>
      <trkpt lat="45.75476" lon="6.30192">
        <ele>527.4</ele>
        <time>2021-05-20T09:27:02Z</time>
      </trkpt>
      <trkpt lat="45.75467" lon="6.30168">
        <ele>527.4</ele>
        <time>2021-05-20T09:27:05Z</time>
      </trkpt>
      <trkpt lat="45.75453" lon="6.30139">
        <ele>528</ele>
        <time>2021-05-20T09:27:09Z</time>
      </trkpt>
      <trkpt lat="45.75446" lon="6.30124">
        <ele>527.8</ele>
        <time>2021-05-20T09:27:11Z</time>
      </trkpt>
      <trkpt lat="45.75422" lon="6.30064">
        <ele>528.6</ele>
        <time>2021-05-20T09:27:19Z</time>
      </trkpt>
      <trkpt lat="45.75419" lon="6.30057">
        <ele>528.8</ele>
        <time>2021-05-20T09:27:20Z</time>
      </trkpt>
      <trkpt lat="45.75406" lon="6.30011">
        <ele>528.4</ele>
        <time>2021-05-20T09:27:26Z</time>
      </trkpt>
      <trkpt lat="45.75397" lon="6.29971">
        <ele>529.8</ele>
        <time>2021-05-20T09:27:31Z</time>
      </trkpt>
      <trkpt lat="45.75395" lon="6.29966">
        <ele>530.4</ele>
        <time>2021-05-20T09:27:32Z</time>
      </trkpt>
      <trkpt lat="45.7539" lon="6.29959">
        <ele>531</ele>
        <time>2021-05-20T09:27:35Z</time>
      </trkpt>
      <trkpt lat="45.75388" lon="6.29959">
        <ele>531</ele>
        <time>2021-05-20T09:27:36Z</time>
      </trkpt>
      <trkpt lat="45.75387" lon="6.2996">
        <ele>531.2</ele>
        <time>2021-05-20T09:27:37Z</time>
      </trkpt>
      <trkpt lat="45.75384" lon="6.29971">
        <ele>531</ele>
        <time>2021-05-20T09:27:40Z</time>
      </trkpt>
      <trkpt lat="45.75379" lon="6.29982">
        <ele>530.8</ele>
        <time>2021-05-20T09:27:42Z</time>
      </trkpt>
      <trkpt lat="45.75376" lon="6.29989">
        <ele>530.8</ele>
        <time>2021-05-20T09:27:43Z</time>
      </trkpt>
      <trkpt lat="45.75373" lon="6.29995">
        <ele>530.6</ele>
        <time>2021-05-20T09:27:44Z</time>
      </trkpt>
      <trkpt lat="45.75369" lon="6.30002">
        <ele>530.6</ele>
        <time>2021-05-20T09:27:45Z</time>
      </trkpt>
      <trkpt lat="45.75356" lon="6.30033">
        <ele>530.6</ele>
        <time>2021-05-20T09:27:49Z</time>
      </trkpt>
      <trkpt lat="45.75341" lon="6.30082">
        <ele>531</ele>
        <time>2021-05-20T09:27:55Z</time>
      </trkpt>
      <trkpt lat="45.75338" lon="6.3009">
        <ele>531.4</ele>
        <time>2021-05-20T09:27:56Z</time>
      </trkpt>
      <trkpt lat="45.75327" lon="6.3012">
        <ele>531.8</ele>
        <time>2021-05-20T09:28:00Z</time>
      </trkpt>
      <trkpt lat="45.75319" lon="6.30134">
        <ele>531.8</ele>
        <time>2021-05-20T09:28:02Z</time>
      </trkpt>
      <trkpt lat="45.7531" lon="6.30147">
        <ele>531.4</ele>
        <time>2021-05-20T09:28:04Z</time>
      </trkpt>
      <trkpt lat="45.75306" lon="6.30154">
        <ele>531.2</ele>
        <time>2021-05-20T09:28:05Z</time>
      </trkpt>
      <trkpt lat="45.75299" lon="6.30163">
        <ele>530.8</ele>
        <time>2021-05-20T09:28:07Z</time>
      </trkpt>
      <trkpt lat="45.75294" lon="6.30168">
        <ele>530.4</ele>
        <time>2021-05-20T09:28:09Z</time>
      </trkpt>
      <trkpt lat="45.75284" lon="6.30175">
        <ele>530.2</ele>
        <time>2021-05-20T09:28:12Z</time>
      </trkpt>
      <trkpt lat="45.7528" lon="6.30178">
        <ele>530.2</ele>
        <time>2021-05-20T09:28:13Z</time>
      </trkpt>
      <trkpt lat="45.75266" lon="6.30192">
        <ele>530</ele>
        <time>2021-05-20T09:28:16Z</time>
      </trkpt>
      <trkpt lat="45.75236" lon="6.30221">
        <ele>530.8</ele>
        <time>2021-05-20T09:28:22Z</time>
      </trkpt>
      <trkpt lat="45.75224" lon="6.30232">
        <ele>531.4</ele>
        <time>2021-05-20T09:28:25Z</time>
      </trkpt>
      <trkpt lat="45.75214" lon="6.30242">
        <ele>532</ele>
        <time>2021-05-20T09:28:28Z</time>
      </trkpt>
      <trkpt lat="45.75211" lon="6.30246">
        <ele>532</ele>
        <time>2021-05-20T09:28:29Z</time>
      </trkpt>
      <trkpt lat="45.75207" lon="6.3025">
        <ele>532.2</ele>
        <time>2021-05-20T09:28:30Z</time>
      </trkpt>
      <trkpt lat="45.75194" lon="6.30264">
        <ele>532.2</ele>
        <time>2021-05-20T09:28:33Z</time>
      </trkpt>
      <trkpt lat="45.75186" lon="6.30278">
        <ele>532.2</ele>
        <time>2021-05-20T09:28:35Z</time>
      </trkpt>
      <trkpt lat="45.7518" lon="6.30295">
        <ele>532.2</ele>
        <time>2021-05-20T09:28:37Z</time>
      </trkpt>
      <trkpt lat="45.75172" lon="6.30344">
        <ele>531</ele>
        <time>2021-05-20T09:28:42Z</time>
      </trkpt>
      <trkpt lat="45.75169" lon="6.30373">
        <ele>530.6</ele>
        <time>2021-05-20T09:28:45Z</time>
      </trkpt>
      <trkpt lat="45.75167" lon="6.30392">
        <ele>530.4</ele>
        <time>2021-05-20T09:28:47Z</time>
      </trkpt>
      <trkpt lat="45.75164" lon="6.30399">
        <ele>530.4</ele>
        <time>2021-05-20T09:28:48Z</time>
      </trkpt>
      <trkpt lat="45.75162" lon="6.30405">
        <ele>530.4</ele>
        <time>2021-05-20T09:28:49Z</time>
      </trkpt>
      <trkpt lat="45.75156" lon="6.3041">
        <ele>530.6</ele>
        <time>2021-05-20T09:28:51Z</time>
      </trkpt>
      <trkpt lat="45.75154" lon="6.3041">
        <ele>500.5</ele>
      </trkpt>
      <trkpt lat="45.7513" lon="6.30386">
        <ele>501.5</ele>
      </trkpt>
      <trkpt lat="45.75084" lon="6.30461">
        <ele>501.9</ele>
      </trkpt>
      <trkpt lat="45.74939" lon="6.30478">
        <ele>526.5</ele>
      </trkpt>
      <trkpt lat="45.74916" lon="6.30379">
        <ele>519.9</ele>
      </trkpt>
      <trkpt lat="45.74884" lon="6.30294">
        <ele>528</ele>
      </trkpt>
      <trkpt lat="45.74853" lon="6.30206">
        <ele>527.9</ele>
      </trkpt>
      <trkpt lat="45.74843" lon="6.30154">
        <ele>519.7</ele>
      </trkpt>
      <trkpt lat="45.74817" lon="6.30123">
        <ele>522.3</ele>
      </trkpt>
      <trkpt lat="45.74776" lon="6.30092">
        <ele>527.3</ele>
      </trkpt>
      <trkpt lat="45.74731" lon="6.3001">
        <ele>525.4</ele>
      </trkpt>
      <trkpt lat="45.74705" lon="6.29938">
        <ele>526.8</ele>
      </trkpt>
      <trkpt lat="45.74675" lon="6.29822">
        <ele>529.9</ele>
      </trkpt>
      <trkpt lat="45.74651" lon="6.29714">
        <ele>530.2</ele>
      </trkpt>
      <trkpt lat="45.74657" lon="6.29682">
        <ele>525</ele>
      </trkpt>
      <trkpt lat="45.74649" lon="6.29641">
        <ele>523.6</ele>
      </trkpt>
    </trkseg>
  </trk>
</gpx>